<?xml version='1.0' encoding='UTF-8'?><gpx version="1.1" creator="JPX - https://github.com/jenetics/jpx" xmlns="http://www.topografix.com/GPX/1/1"><trk><trkseg><trkpt lat="42.1502038" lon="14.5851777"><ele>205.0</ele><time>2026-04-24T07:35:27.117Z</time></trkpt><trkpt lat="42.1500367" lon="14.5851417"><ele>205.0</ele><time>2026-04-24T07:35:31.781Z</time></trkpt><trkpt lat="42.1499786" lon="14.5850236"><ele>205.0</ele><time>2026-04-24T07:35:34.28Z</time></trkpt><trkpt lat="42.1500756" lon="14.5850085"><ele>205.0</ele><time>2026-04-24T07:35:36.28Z</time></trkpt><trkpt lat="42.1501787" lon="14.5851659"><ele>204.99999999999997</ele><time>2026-04-24T07:35:39.281Z</time></trkpt><trkpt lat="42.1502702" lon="14.5852437"><ele>205.0</ele><time>2026-04-24T07:35:42.883Z</time></trkpt><trkpt lat="42.1503414" lon="14.585242"><ele>205.0</ele><time>2026-04-24T07:35:45.882Z</time></trkpt><trkpt lat="42.1503792" lon="14.5851583"><ele>205.0</ele><time>2026-04-24T07:36:03.882Z</time></trkpt><trkpt lat="42.1504519" lon="14.5851645"><ele>204.99999999999997</ele><time>2026-04-24T07:36:55.882Z</time></trkpt><trkpt lat="42.150488" lon="14.5852678"><ele>205.0</ele><time>2026-04-24T07:37:24.883Z</time></trkpt><trkpt lat="42.1504402" lon="14.5853231"><ele>205.0</ele><time>2026-04-24T07:37:28.882Z</time></trkpt><trkpt lat="42.1503829" lon="14.5852842"><ele>205.0</ele><time>2026-04-24T07:37:31.882Z</time></trkpt><trkpt lat="42.1503217" lon="14.585264"><ele>205.0</ele><time>2026-04-24T07:37:32.883Z</time></trkpt><trkpt lat="42.1502523" lon="14.5852451"><ele>205.0</ele><time>2026-04-24T07:37:34.883Z</time></trkpt><trkpt lat="42.1501749" lon="14.585245"><ele>205.0</ele><time>2026-04-24T07:37:37.882Z</time></trkpt><trkpt lat="42.1501229" lon="14.5853101"><ele>205.0</ele><time>2026-04-24T07:37:42.883Z</time></trkpt><trkpt lat="42.1500697" lon="14.5853663"><ele>205.0</ele><time>2026-04-24T07:37:47.883Z</time></trkpt><trkpt lat="42.1500066" lon="14.5854025"><ele>203.0</ele><time>2026-04-24T07:37:58.883Z</time></trkpt><trkpt lat="42.1499356" lon="14.5855273"><ele>201.0</ele><time>2026-04-24T07:38:07.883Z</time></trkpt><trkpt lat="42.1499066" lon="14.58561"><ele>199.0</ele><time>2026-04-24T07:38:10.883Z</time></trkpt><trkpt lat="42.1498358" lon="14.5857127"><ele>197.0</ele><time>2026-04-24T07:38:20.882Z</time></trkpt><trkpt lat="42.1497706" lon="14.5857186"><ele>195.0</ele><time>2026-04-24T07:38:27.882Z</time></trkpt><trkpt lat="42.1497062" lon="14.5856158"><ele>194.66666666666666</ele><time>2026-04-24T07:38:29.883Z</time></trkpt><trkpt lat="42.1496255" lon="14.5855218"><ele>194.33333333333331</ele><time>2026-04-24T07:38:31.882Z</time></trkpt><trkpt lat="42.1495517" lon="14.5854698"><ele>194.0</ele><time>2026-04-24T07:38:33.882Z</time></trkpt><trkpt lat="42.1494747" lon="14.585469"><ele>193.66666666666666</ele><time>2026-04-24T07:38:35.882Z</time></trkpt><trkpt lat="42.1494219" lon="14.5855154"><ele>193.33333333333331</ele><time>2026-04-24T07:38:37.883Z</time></trkpt><trkpt lat="42.1493708" lon="14.5855861"><ele>193.0</ele><time>2026-04-24T07:38:40.883Z</time></trkpt><trkpt lat="42.1493085" lon="14.5856268"><ele>192.99999999999997</ele><time>2026-04-24T07:38:49.883Z</time></trkpt><trkpt lat="42.1492695" lon="14.5856987"><ele>193.0</ele><time>2026-04-24T07:38:51.883Z</time></trkpt><trkpt lat="42.149224" lon="14.5858132"><ele>193.0</ele><time>2026-04-24T07:38:53.882Z</time></trkpt><trkpt lat="42.1491773" lon="14.5859707"><ele>193.0</ele><time>2026-04-24T07:38:55.882Z</time></trkpt><trkpt lat="42.1491567" lon="14.5860598"><ele>192.99999999999997</ele><time>2026-04-24T07:38:56.882Z</time></trkpt><trkpt lat="42.1491285" lon="14.5861497"><ele>193.0</ele><time>2026-04-24T07:38:57.883Z</time></trkpt><trkpt lat="42.1490929" lon="14.5862357"><ele>191.99999999999997</ele><time>2026-04-24T07:38:58.883Z</time></trkpt><trkpt lat="42.1490592" lon="14.58633"><ele>191.0</ele><time>2026-04-24T07:38:59.882Z</time></trkpt><trkpt lat="42.1490254" lon="14.5864239"><ele>190.0</ele><time>2026-04-24T07:39:00.883Z</time></trkpt><trkpt lat="42.1489972" lon="14.5865216"><ele>189.0</ele><time>2026-04-24T07:39:01.883Z</time></trkpt><trkpt lat="42.1489738" lon="14.5866289"><ele>188.0</ele><time>2026-04-24T07:39:02.883Z</time></trkpt><trkpt lat="42.148948" lon="14.5867333"><ele>187.0</ele><time>2026-04-24T07:39:03.882Z</time></trkpt><trkpt lat="42.1489266" lon="14.5868464"><ele>186.33333333333334</ele><time>2026-04-24T07:39:04.883Z</time></trkpt><trkpt lat="42.1489054" lon="14.5869608"><ele>185.66666666666669</ele><time>2026-04-24T07:39:05.882Z</time></trkpt><trkpt lat="42.1488836" lon="14.5870816"><ele>185.0</ele><time>2026-04-24T07:39:06.883Z</time></trkpt><trkpt lat="42.1488604" lon="14.5872022"><ele>184.33333333333334</ele><time>2026-04-24T07:39:07.882Z</time></trkpt><trkpt lat="42.1488395" lon="14.5873198"><ele>183.66666666666666</ele><time>2026-04-24T07:39:08.883Z</time></trkpt><trkpt lat="42.1488223" lon="14.5874352"><ele>183.0</ele><time>2026-04-24T07:39:09.883Z</time></trkpt><trkpt lat="42.1488064" lon="14.5875476"><ele>183.0</ele><time>2026-04-24T07:39:10.883Z</time></trkpt><trkpt lat="42.1487944" lon="14.5876565"><ele>183.0</ele><time>2026-04-24T07:39:11.883Z</time></trkpt><trkpt lat="42.1487821" lon="14.5877655"><ele>183.0</ele><time>2026-04-24T07:39:12.882Z</time></trkpt><trkpt lat="42.1487687" lon="14.5878734"><ele>183.0</ele><time>2026-04-24T07:39:13.883Z</time></trkpt><trkpt lat="42.1487606" lon="14.5879717"><ele>183.0</ele><time>2026-04-24T07:39:14.883Z</time></trkpt><trkpt lat="42.1487571" lon="14.5880702"><ele>183.0</ele><time>2026-04-24T07:39:15.883Z</time></trkpt><trkpt lat="42.1487483" lon="14.58818"><ele>182.33333333333334</ele><time>2026-04-24T07:39:16.883Z</time></trkpt><trkpt lat="42.1487367" lon="14.5882917"><ele>181.66666666666666</ele><time>2026-04-24T07:39:17.882Z</time></trkpt><trkpt lat="42.1487233" lon="14.5884017"><ele>181.0</ele><time>2026-04-24T07:39:18.883Z</time></trkpt><trkpt lat="42.1487067" lon="14.5885033"><ele>180.33333333333331</ele><time>2026-04-24T07:39:19.882Z</time></trkpt><trkpt lat="42.1486933" lon="14.5886067"><ele>179.66666666666666</ele><time>2026-04-24T07:39:20.883Z</time></trkpt><trkpt lat="42.1486783" lon="14.5887117"><ele>179.0</ele><time>2026-04-24T07:39:21.883Z</time></trkpt><trkpt lat="42.1486667" lon="14.588815"><ele>178.66666666666666</ele><time>2026-04-24T07:39:22.883Z</time></trkpt><trkpt lat="42.1486533" lon="14.5889183"><ele>178.33333333333331</ele><time>2026-04-24T07:39:23.883Z</time></trkpt><trkpt lat="42.1486433" lon="14.58902"><ele>178.0</ele><time>2026-04-24T07:39:24.883Z</time></trkpt><trkpt lat="42.1486317" lon="14.5891217"><ele>177.66666666666666</ele><time>2026-04-24T07:39:25.882Z</time></trkpt><trkpt lat="42.1486233" lon="14.5892267"><ele>177.33333333333334</ele><time>2026-04-24T07:39:26.883Z</time></trkpt><trkpt lat="42.1486167" lon="14.5893317"><ele>177.0</ele><time>2026-04-24T07:39:27.883Z</time></trkpt><trkpt lat="42.1486083" lon="14.5894333"><ele>176.5</ele><time>2026-04-24T07:39:28.883Z</time></trkpt><trkpt lat="42.1486017" lon="14.5895283"><ele>176.0</ele><time>2026-04-24T07:39:29.883Z</time></trkpt><trkpt lat="42.1485967" lon="14.5896333"><ele>175.5</ele><time>2026-04-24T07:39:30.883Z</time></trkpt><trkpt lat="42.148595" lon="14.5897383"><ele>175.0</ele><time>2026-04-24T07:39:31.883Z</time></trkpt><trkpt lat="42.1485933" lon="14.589845"><ele>174.5</ele><time>2026-04-24T07:39:32.882Z</time></trkpt><trkpt lat="42.1485833" lon="14.5899533"><ele>174.0</ele><time>2026-04-24T07:39:33.883Z</time></trkpt><trkpt lat="42.14857" lon="14.5900567"><ele>174.0</ele><time>2026-04-24T07:39:34.882Z</time></trkpt><trkpt lat="42.1485617" lon="14.5901633"><ele>174.0</ele><time>2026-04-24T07:39:35.883Z</time></trkpt><trkpt lat="42.1485583" lon="14.590275"><ele>174.0</ele><time>2026-04-24T07:39:36.883Z</time></trkpt><trkpt lat="42.148555" lon="14.590385"><ele>174.0</ele><time>2026-04-24T07:39:37.882Z</time></trkpt><trkpt lat="42.1485567" lon="14.5904967"><ele>174.0</ele><time>2026-04-24T07:39:38.882Z</time></trkpt><trkpt lat="42.1485633" lon="14.5906067"><ele>174.0</ele><time>2026-04-24T07:39:39.882Z</time></trkpt><trkpt lat="42.1485667" lon="14.590715"><ele>173.83333333333334</ele><time>2026-04-24T07:39:40.883Z</time></trkpt><trkpt lat="42.1485667" lon="14.5908183"><ele>173.66666666666666</ele><time>2026-04-24T07:39:41.883Z</time></trkpt><trkpt lat="42.148565" lon="14.5909233"><ele>173.5</ele><time>2026-04-24T07:39:42.882Z</time></trkpt><trkpt lat="42.1485633" lon="14.5910283"><ele>173.33333333333331</ele><time>2026-04-24T07:39:43.882Z</time></trkpt><trkpt lat="42.1485633" lon="14.591135"><ele>173.16666666666666</ele><time>2026-04-24T07:39:44.882Z</time></trkpt><trkpt lat="42.14856" lon="14.5912433"><ele>173.0</ele><time>2026-04-24T07:39:45.882Z</time></trkpt><trkpt lat="42.1485567" lon="14.59135"><ele>172.66666666666666</ele><time>2026-04-24T07:39:46.882Z</time></trkpt><trkpt lat="42.1485567" lon="14.5914617"><ele>172.33333333333331</ele><time>2026-04-24T07:39:47.883Z</time></trkpt><trkpt lat="42.1485567" lon="14.5915733"><ele>172.0</ele><time>2026-04-24T07:39:48.883Z</time></trkpt><trkpt lat="42.1485567" lon="14.5916883"><ele>171.66666666666666</ele><time>2026-04-24T07:39:49.883Z</time></trkpt><trkpt lat="42.1485583" lon="14.5918"><ele>171.33333333333334</ele><time>2026-04-24T07:39:50.883Z</time></trkpt><trkpt lat="42.1485567" lon="14.5919083"><ele>171.0</ele><time>2026-04-24T07:39:51.882Z</time></trkpt><trkpt lat="42.148555" lon="14.5920183"><ele>170.66666666666666</ele><time>2026-04-24T07:39:52.883Z</time></trkpt><trkpt lat="42.14855" lon="14.5921267"><ele>170.33333333333334</ele><time>2026-04-24T07:39:53.883Z</time></trkpt><trkpt lat="42.1485483" lon="14.5922367"><ele>170.0</ele><time>2026-04-24T07:39:54.882Z</time></trkpt><trkpt lat="42.1485467" lon="14.5923483"><ele>169.66666666666669</ele><time>2026-04-24T07:39:55.882Z</time></trkpt><trkpt lat="42.148545" lon="14.5924633"><ele>169.33333333333334</ele><time>2026-04-24T07:39:56.882Z</time></trkpt><trkpt lat="42.1485467" lon="14.5925783"><ele>169.0</ele><time>2026-04-24T07:39:57.883Z</time></trkpt><trkpt lat="42.148545" lon="14.5926917"><ele>169.0</ele><time>2026-04-24T07:39:58.882Z</time></trkpt><trkpt lat="42.1485417" lon="14.592805"><ele>169.0</ele><time>2026-04-24T07:39:59.883Z</time></trkpt><trkpt lat="42.1485367" lon="14.5929167"><ele>169.0</ele><time>2026-04-24T07:40:00.882Z</time></trkpt><trkpt lat="42.1485317" lon="14.593025"><ele>169.0</ele><time>2026-04-24T07:40:01.883Z</time></trkpt><trkpt lat="42.1485267" lon="14.5931317"><ele>169.0</ele><time>2026-04-24T07:40:02.883Z</time></trkpt><trkpt lat="42.1485217" lon="14.59324"><ele>169.0</ele><time>2026-04-24T07:40:03.883Z</time></trkpt><trkpt lat="42.1485133" lon="14.59335"><ele>168.5</ele><time>2026-04-24T07:40:04.883Z</time></trkpt><trkpt lat="42.1485067" lon="14.593455"><ele>168.0</ele><time>2026-04-24T07:40:05.882Z</time></trkpt><trkpt lat="42.1485017" lon="14.5935617"><ele>167.5</ele><time>2026-04-24T07:40:06.882Z</time></trkpt><trkpt lat="42.1484983" lon="14.5936667"><ele>167.0</ele><time>2026-04-24T07:40:07.882Z</time></trkpt><trkpt lat="42.1485" lon="14.5937717"><ele>166.5</ele><time>2026-04-24T07:40:08.882Z</time></trkpt><trkpt lat="42.1485033" lon="14.5938733"><ele>166.0</ele><time>2026-04-24T07:40:09.882Z</time></trkpt><trkpt lat="42.1485167" lon="14.593985"><ele>165.33333333333334</ele><time>2026-04-24T07:40:10.883Z</time></trkpt><trkpt lat="42.148535" lon="14.5940883"><ele>164.66666666666669</ele><time>2026-04-24T07:40:11.883Z</time></trkpt><trkpt lat="42.1485567" lon="14.5941917"><ele>164.0</ele><time>2026-04-24T07:40:12.882Z</time></trkpt><trkpt lat="42.1485767" lon="14.5942883"><ele>163.33333333333334</ele><time>2026-04-24T07:40:13.882Z</time></trkpt><trkpt lat="42.1485967" lon="14.5943833"><ele>162.66666666666666</ele><time>2026-04-24T07:40:14.882Z</time></trkpt><trkpt lat="42.1486083" lon="14.59448"><ele>162.0</ele><time>2026-04-24T07:40:15.882Z</time></trkpt><trkpt lat="42.1486067" lon="14.59458"><ele>161.16666666666666</ele><time>2026-04-24T07:40:16.883Z</time></trkpt><trkpt lat="42.1485933" lon="14.59468"><ele>160.33333333333334</ele><time>2026-04-24T07:40:17.883Z</time></trkpt><trkpt lat="42.1485733" lon="14.5947767"><ele>159.5</ele><time>2026-04-24T07:40:18.883Z</time></trkpt><trkpt lat="42.148555" lon="14.594875"><ele>158.66666666666669</ele><time>2026-04-24T07:40:19.882Z</time></trkpt><trkpt lat="42.1485383" lon="14.5949683"><ele>157.83333333333334</ele><time>2026-04-24T07:40:20.883Z</time></trkpt><trkpt lat="42.148535" lon="14.5950733"><ele>157.0</ele><time>2026-04-24T07:40:21.883Z</time></trkpt><trkpt lat="42.14854" lon="14.595175"><ele>156.99999999999997</ele><time>2026-04-24T07:40:22.882Z</time></trkpt><trkpt lat="42.1485517" lon="14.5952833"><ele>157.0</ele><time>2026-04-24T07:40:23.883Z</time></trkpt><trkpt lat="42.1485617" lon="14.5953883"><ele>157.0</ele><time>2026-04-24T07:40:24.883Z</time></trkpt><trkpt lat="42.1485733" lon="14.5954917"><ele>157.0</ele><time>2026-04-24T07:40:25.882Z</time></trkpt><trkpt lat="42.148585" lon="14.5955867"><ele>157.0</ele><time>2026-04-24T07:40:26.883Z</time></trkpt><trkpt lat="42.1485933" lon="14.5956833"><ele>156.99999999999997</ele><time>2026-04-24T07:40:27.882Z</time></trkpt><trkpt lat="42.1486033" lon="14.5957717"><ele>157.0</ele><time>2026-04-24T07:40:28.883Z</time></trkpt><trkpt lat="42.148615" lon="14.5958617"><ele>156.4</ele><time>2026-04-24T07:40:29.883Z</time></trkpt><trkpt lat="42.148635" lon="14.596025"><ele>155.79999999999998</ele><time>2026-04-24T07:40:31.883Z</time></trkpt><trkpt lat="42.1486417" lon="14.59611"><ele>155.2</ele><time>2026-04-24T07:40:32.883Z</time></trkpt><trkpt lat="42.14865" lon="14.5961983"><ele>154.6</ele><time>2026-04-24T07:40:33.883Z</time></trkpt><trkpt lat="42.1486717" lon="14.5963633"><ele>154.0</ele><time>2026-04-24T07:40:35.883Z</time></trkpt><trkpt lat="42.1486867" lon="14.5965117"><ele>153.0</ele><time>2026-04-24T07:40:37.883Z</time></trkpt><trkpt lat="42.1487067" lon="14.5966683"><ele>152.0</ele><time>2026-04-24T07:40:39.882Z</time></trkpt><trkpt lat="42.14872" lon="14.5968317"><ele>151.0</ele><time>2026-04-24T07:40:41.883Z</time></trkpt><trkpt lat="42.1487233" lon="14.5969167"><ele>150.0</ele><time>2026-04-24T07:40:42.883Z</time></trkpt><trkpt lat="42.14873" lon="14.59708"><ele>149.0</ele><time>2026-04-24T07:40:44.883Z</time></trkpt><trkpt lat="42.148725" lon="14.597245"><ele>148.16666666666666</ele><time>2026-04-24T07:40:46.883Z</time></trkpt><trkpt lat="42.1487183" lon="14.5974"><ele>147.33333333333331</ele><time>2026-04-24T07:40:48.883Z</time></trkpt><trkpt lat="42.1487067" lon="14.5975717"><ele>146.5</ele><time>2026-04-24T07:40:50.883Z</time></trkpt><trkpt lat="42.1487033" lon="14.5976583"><ele>145.66666666666666</ele><time>2026-04-24T07:40:51.883Z</time></trkpt><trkpt lat="42.1486983" lon="14.5977483"><ele>144.83333333333334</ele><time>2026-04-24T07:40:52.883Z</time></trkpt><trkpt lat="42.1486967" lon="14.5978383"><ele>144.0</ele><time>2026-04-24T07:40:53.882Z</time></trkpt><trkpt lat="42.148695" lon="14.597925"><ele>144.0</ele><time>2026-04-24T07:40:54.883Z</time></trkpt><trkpt lat="42.1486933" lon="14.5980883"><ele>144.0</ele><time>2026-04-24T07:40:56.882Z</time></trkpt><trkpt lat="42.1486883" lon="14.5982467"><ele>144.0</ele><time>2026-04-24T07:40:58.883Z</time></trkpt><trkpt lat="42.1486767" lon="14.5983917"><ele>144.0</ele><time>2026-04-24T07:41:00.883Z</time></trkpt><trkpt lat="42.1486667" lon="14.598535"><ele>144.5</ele><time>2026-04-24T07:41:02.882Z</time></trkpt><trkpt lat="42.14866" lon="14.5986883"><ele>145.0</ele><time>2026-04-24T07:41:04.883Z</time></trkpt><trkpt lat="42.1486483" lon="14.5988417"><ele>145.5</ele><time>2026-04-24T07:41:06.883Z</time></trkpt><trkpt lat="42.1486267" lon="14.59899"><ele>146.0</ele><time>2026-04-24T07:41:08.883Z</time></trkpt><trkpt lat="42.1486167" lon="14.5991467"><ele>146.0</ele><time>2026-04-24T07:41:10.883Z</time></trkpt><trkpt lat="42.148605" lon="14.5993"><ele>146.0</ele><time>2026-04-24T07:41:12.882Z</time></trkpt><trkpt lat="42.1485917" lon="14.59946"><ele>146.0</ele><time>2026-04-24T07:41:14.883Z</time></trkpt><trkpt lat="42.1485817" lon="14.59961"><ele>146.0</ele><time>2026-04-24T07:41:16.883Z</time></trkpt><trkpt lat="42.1485633" lon="14.5997717"><ele>145.75</ele><time>2026-04-24T07:41:18.883Z</time></trkpt><trkpt lat="42.1485483" lon="14.5999317"><ele>145.5</ele><time>2026-04-24T07:41:20.882Z</time></trkpt><trkpt lat="42.1485483" lon="14.6000933"><ele>145.25</ele><time>2026-04-24T07:41:22.883Z</time></trkpt><trkpt lat="42.1485483" lon="14.6002417"><ele>145.0</ele><time>2026-04-24T07:41:24.883Z</time></trkpt><trkpt lat="42.1485517" lon="14.6003783"><ele>145.4</ele><time>2026-04-24T07:41:26.883Z</time></trkpt><trkpt lat="42.1485633" lon="14.600535"><ele>145.8</ele><time>2026-04-24T07:41:28.883Z</time></trkpt><trkpt lat="42.148575" lon="14.60069"><ele>146.2</ele><time>2026-04-24T07:41:30.883Z</time></trkpt><trkpt lat="42.148585" lon="14.6008367"><ele>146.6</ele><time>2026-04-24T07:41:32.883Z</time></trkpt><trkpt lat="42.1486" lon="14.6009717"><ele>147.0</ele><time>2026-04-24T07:41:34.882Z</time></trkpt><trkpt lat="42.1486117" lon="14.6011117"><ele>146.79999999999998</ele><time>2026-04-24T07:41:36.883Z</time></trkpt><trkpt lat="42.1486217" lon="14.60125"><ele>146.6</ele><time>2026-04-24T07:41:38.883Z</time></trkpt><trkpt lat="42.1486333" lon="14.601385"><ele>146.39999999999998</ele><time>2026-04-24T07:41:40.882Z</time></trkpt><trkpt lat="42.1486517" lon="14.6015217"><ele>146.2</ele><time>2026-04-24T07:41:42.882Z</time></trkpt><trkpt lat="42.1486883" lon="14.6016533"><ele>146.0</ele><time>2026-04-24T07:41:44.882Z</time></trkpt><trkpt lat="42.14875" lon="14.6017567"><ele>146.0</ele><time>2026-04-24T07:41:46.883Z</time></trkpt><trkpt lat="42.1488367" lon="14.601845"><ele>146.0</ele><time>2026-04-24T07:41:48.883Z</time></trkpt><trkpt lat="42.1489233" lon="14.6019133"><ele>146.0</ele><time>2026-04-24T07:41:50.883Z</time></trkpt><trkpt lat="42.149015" lon="14.6019733"><ele>146.0</ele><time>2026-04-24T07:41:52.883Z</time></trkpt><trkpt lat="42.1491033" lon="14.602045"><ele>146.0</ele><time>2026-04-24T07:41:54.883Z</time></trkpt><trkpt lat="42.149185" lon="14.6021383"><ele>147.2</ele><time>2026-04-24T07:41:56.883Z</time></trkpt><trkpt lat="42.1492617" lon="14.6022433"><ele>148.39999999999998</ele><time>2026-04-24T07:41:58.882Z</time></trkpt><trkpt lat="42.1493383" lon="14.6023517"><ele>149.6</ele><time>2026-04-24T07:42:00.883Z</time></trkpt><trkpt lat="42.1494117" lon="14.6024517"><ele>150.79999999999998</ele><time>2026-04-24T07:42:02.883Z</time></trkpt><trkpt lat="42.1494933" lon="14.60255"><ele>152.0</ele><time>2026-04-24T07:42:04.883Z</time></trkpt><trkpt lat="42.1495717" lon="14.602655"><ele>152.0</ele><time>2026-04-24T07:42:06.882Z</time></trkpt><trkpt lat="42.1496567" lon="14.6027633"><ele>152.0</ele><time>2026-04-24T07:42:08.882Z</time></trkpt><trkpt lat="42.1497367" lon="14.60286"><ele>152.0</ele><time>2026-04-24T07:42:10.883Z</time></trkpt><trkpt lat="42.1498283" lon="14.602955"><ele>152.0</ele><time>2026-04-24T07:42:12.882Z</time></trkpt><trkpt lat="42.1499217" lon="14.60305"><ele>151.6</ele><time>2026-04-24T07:42:14.883Z</time></trkpt><trkpt lat="42.1500117" lon="14.6031317"><ele>151.2</ele><time>2026-04-24T07:42:16.882Z</time></trkpt><trkpt lat="42.150105" lon="14.603195"><ele>150.8</ele><time>2026-04-24T07:42:18.883Z</time></trkpt><trkpt lat="42.1501917" lon="14.6032617"><ele>150.4</ele><time>2026-04-24T07:42:20.882Z</time></trkpt><trkpt lat="42.150285" lon="14.6033467"><ele>150.0</ele><time>2026-04-24T07:42:22.883Z</time></trkpt><trkpt lat="42.1503817" lon="14.6034483"><ele>150.0</ele><time>2026-04-24T07:42:24.883Z</time></trkpt><trkpt lat="42.1504617" lon="14.603555"><ele>150.0</ele><time>2026-04-24T07:42:26.882Z</time></trkpt><trkpt lat="42.1505383" lon="14.6036733"><ele>150.0</ele><time>2026-04-24T07:42:28.882Z</time></trkpt><trkpt lat="42.150615" lon="14.6037933"><ele>150.0</ele><time>2026-04-24T07:42:30.883Z</time></trkpt><trkpt lat="42.1506967" lon="14.6039217"><ele>149.5</ele><time>2026-04-24T07:42:32.883Z</time></trkpt><trkpt lat="42.1507383" lon="14.60399"><ele>149.0</ele><time>2026-04-24T07:42:33.883Z</time></trkpt><trkpt lat="42.1508133" lon="14.6041233"><ele>148.5</ele><time>2026-04-24T07:42:35.883Z</time></trkpt><trkpt lat="42.1508517" lon="14.604195"><ele>148.0</ele><time>2026-04-24T07:42:36.883Z</time></trkpt><trkpt lat="42.1508917" lon="14.604265"><ele>147.5</ele><time>2026-04-24T07:42:37.882Z</time></trkpt><trkpt lat="42.1509667" lon="14.6044033"><ele>147.0</ele><time>2026-04-24T07:42:39.883Z</time></trkpt><trkpt lat="42.1510067" lon="14.6044717"><ele>147.16666666666666</ele><time>2026-04-24T07:42:40.883Z</time></trkpt><trkpt lat="42.1510467" lon="14.6045383"><ele>147.33333333333334</ele><time>2026-04-24T07:42:41.883Z</time></trkpt><trkpt lat="42.151085" lon="14.6046067"><ele>147.5</ele><time>2026-04-24T07:42:42.882Z</time></trkpt><trkpt lat="42.1511567" lon="14.6047483"><ele>147.66666666666669</ele><time>2026-04-24T07:42:44.883Z</time></trkpt><trkpt lat="42.1512317" lon="14.6048867"><ele>147.83333333333334</ele><time>2026-04-24T07:42:46.883Z</time></trkpt><trkpt lat="42.1512683" lon="14.6049583"><ele>148.0</ele><time>2026-04-24T07:42:47.883Z</time></trkpt><trkpt lat="42.1513017" lon="14.6050317"><ele>148.0</ele><time>2026-04-24T07:42:48.882Z</time></trkpt><trkpt lat="42.151335" lon="14.6051083"><ele>148.0</ele><time>2026-04-24T07:42:49.883Z</time></trkpt><trkpt lat="42.151365" lon="14.6051833"><ele>148.0</ele><time>2026-04-24T07:42:50.883Z</time></trkpt><trkpt lat="42.151425" lon="14.605325"><ele>148.0</ele><time>2026-04-24T07:42:52.882Z</time></trkpt><trkpt lat="42.1514867" lon="14.60548"><ele>148.0</ele><time>2026-04-24T07:42:54.883Z</time></trkpt><trkpt lat="42.1515267" lon="14.6055683"><ele>147.20000000000002</ele><time>2026-04-24T07:42:55.883Z</time></trkpt><trkpt lat="42.1515733" lon="14.60564"><ele>146.4</ele><time>2026-04-24T07:42:56.882Z</time></trkpt><trkpt lat="42.15162" lon="14.6056983"><ele>145.60000000000002</ele><time>2026-04-24T07:42:57.883Z</time></trkpt><trkpt lat="42.1517233" lon="14.6057883"><ele>144.8</ele><time>2026-04-24T07:42:59.882Z</time></trkpt><trkpt lat="42.1518217" lon="14.605875"><ele>144.0</ele><time>2026-04-24T07:43:01.883Z</time></trkpt><trkpt lat="42.1519167" lon="14.6059667"><ele>144.0</ele><time>2026-04-24T07:43:03.883Z</time></trkpt><trkpt lat="42.1520167" lon="14.6060633"><ele>144.0</ele><time>2026-04-24T07:43:05.883Z</time></trkpt><trkpt lat="42.1520733" lon="14.60611"><ele>144.0</ele><time>2026-04-24T07:43:06.883Z</time></trkpt><trkpt lat="42.1521767" lon="14.6061967"><ele>144.0</ele><time>2026-04-24T07:43:08.883Z</time></trkpt><trkpt lat="42.1522733" lon="14.6062817"><ele>144.0</ele><time>2026-04-24T07:43:10.882Z</time></trkpt><trkpt lat="42.1523717" lon="14.606355"><ele>143.0</ele><time>2026-04-24T07:43:12.882Z</time></trkpt><trkpt lat="42.1524583" lon="14.6064417"><ele>142.0</ele><time>2026-04-24T07:43:14.882Z</time></trkpt><trkpt lat="42.15255" lon="14.60654"><ele>141.0</ele><time>2026-04-24T07:43:16.883Z</time></trkpt><trkpt lat="42.1526467" lon="14.606645"><ele>140.0</ele><time>2026-04-24T07:43:18.882Z</time></trkpt><trkpt lat="42.1527233" lon="14.6067583"><ele>140.0</ele><time>2026-04-24T07:43:20.883Z</time></trkpt><trkpt lat="42.152785" lon="14.6068683"><ele>140.0</ele><time>2026-04-24T07:43:22.882Z</time></trkpt><trkpt lat="42.1528483" lon="14.6069767"><ele>140.0</ele><time>2026-04-24T07:43:24.882Z</time></trkpt><trkpt lat="42.1529167" lon="14.60708"><ele>140.0</ele><time>2026-04-24T07:43:26.883Z</time></trkpt><trkpt lat="42.1529817" lon="14.60718"><ele>140.0</ele><time>2026-04-24T07:43:28.883Z</time></trkpt><trkpt lat="42.1530467" lon="14.607275"><ele>139.8</ele><time>2026-04-24T07:43:30.883Z</time></trkpt><trkpt lat="42.15311" lon="14.6073817"><ele>139.6</ele><time>2026-04-24T07:43:32.882Z</time></trkpt><trkpt lat="42.1531767" lon="14.607495"><ele>139.4</ele><time>2026-04-24T07:43:34.883Z</time></trkpt><trkpt lat="42.1532433" lon="14.607605"><ele>139.2</ele><time>2026-04-24T07:43:36.882Z</time></trkpt><trkpt lat="42.15331" lon="14.60772"><ele>139.0</ele><time>2026-04-24T07:43:38.883Z</time></trkpt><trkpt lat="42.1533767" lon="14.60782"><ele>138.4</ele><time>2026-04-24T07:43:40.883Z</time></trkpt><trkpt lat="42.1534367" lon="14.6079217"><ele>137.8</ele><time>2026-04-24T07:43:42.883Z</time></trkpt><trkpt lat="42.1534983" lon="14.60804"><ele>137.2</ele><time>2026-04-24T07:43:44.882Z</time></trkpt><trkpt lat="42.1535617" lon="14.60816"><ele>136.6</ele><time>2026-04-24T07:43:46.883Z</time></trkpt><trkpt lat="42.15364" lon="14.60827"><ele>136.0</ele><time>2026-04-24T07:43:48.883Z</time></trkpt><trkpt lat="42.1537133" lon="14.6083683"><ele>136.0</ele><time>2026-04-24T07:43:50.883Z</time></trkpt><trkpt lat="42.153795" lon="14.6084567"><ele>136.0</ele><time>2026-04-24T07:43:52.882Z</time></trkpt><trkpt lat="42.153885" lon="14.6085217"><ele>136.0</ele><time>2026-04-24T07:43:54.883Z</time></trkpt><trkpt lat="42.1539683" lon="14.608575"><ele>136.0</ele><time>2026-04-24T07:43:56.883Z</time></trkpt><trkpt lat="42.1540533" lon="14.608635"><ele>136.0</ele><time>2026-04-24T07:43:58.883Z</time></trkpt><trkpt lat="42.1541333" lon="14.6086817"><ele>136.16666666666669</ele><time>2026-04-24T07:44:00.883Z</time></trkpt><trkpt lat="42.1542133" lon="14.6087283"><ele>136.33333333333334</ele><time>2026-04-24T07:44:02.882Z</time></trkpt><trkpt lat="42.1542867" lon="14.608785"><ele>136.5</ele><time>2026-04-24T07:44:04.883Z</time></trkpt><trkpt lat="42.15435" lon="14.6088467"><ele>136.66666666666666</ele><time>2026-04-24T07:44:06.883Z</time></trkpt><trkpt lat="42.1544183" lon="14.6088983"><ele>136.83333333333331</ele><time>2026-04-24T07:44:08.883Z</time></trkpt><trkpt lat="42.1544967" lon="14.6089517"><ele>137.0</ele><time>2026-04-24T07:44:10.883Z</time></trkpt><trkpt lat="42.1545667" lon="14.6090067"><ele>137.0</ele><time>2026-04-24T07:44:12.883Z</time></trkpt><trkpt lat="42.1546283" lon="14.6090883"><ele>137.0</ele><time>2026-04-24T07:44:14.882Z</time></trkpt><trkpt lat="42.1546933" lon="14.6092"><ele>137.0</ele><time>2026-04-24T07:44:16.883Z</time></trkpt><trkpt lat="42.1547583" lon="14.609305"><ele>137.0</ele><time>2026-04-24T07:44:18.883Z</time></trkpt><trkpt lat="42.1548367" lon="14.6093983"><ele>137.0</ele><time>2026-04-24T07:44:20.883Z</time></trkpt><trkpt lat="42.1549017" lon="14.6095033"><ele>136.6</ele><time>2026-04-24T07:44:22.883Z</time></trkpt><trkpt lat="42.1549667" lon="14.6096"><ele>136.2</ele><time>2026-04-24T07:44:24.882Z</time></trkpt><trkpt lat="42.1550383" lon="14.6096917"><ele>135.8</ele><time>2026-04-24T07:44:26.882Z</time></trkpt><trkpt lat="42.1551117" lon="14.6097767"><ele>135.4</ele><time>2026-04-24T07:44:28.883Z</time></trkpt><trkpt lat="42.15518" lon="14.609865"><ele>135.0</ele><time>2026-04-24T07:44:30.882Z</time></trkpt><trkpt lat="42.1552433" lon="14.609945"><ele>135.0</ele><time>2026-04-24T07:44:32.883Z</time></trkpt><trkpt lat="42.1553183" lon="14.61003"><ele>135.0</ele><time>2026-04-24T07:44:34.882Z</time></trkpt><trkpt lat="42.1553967" lon="14.6101167"><ele>135.0</ele><time>2026-04-24T07:44:36.882Z</time></trkpt><trkpt lat="42.1554783" lon="14.610195"><ele>135.0</ele><time>2026-04-24T07:44:38.883Z</time></trkpt><trkpt lat="42.1555567" lon="14.610285"><ele>135.0</ele><time>2026-04-24T07:44:40.883Z</time></trkpt><trkpt lat="42.15563" lon="14.610375"><ele>135.0</ele><time>2026-04-24T07:44:42.882Z</time></trkpt><trkpt lat="42.155695" lon="14.6104567"><ele>135.0</ele><time>2026-04-24T07:44:44.883Z</time></trkpt><trkpt lat="42.1557717" lon="14.6105233"><ele>135.0</ele><time>2026-04-24T07:44:46.883Z</time></trkpt><trkpt lat="42.1558417" lon="14.6105833"><ele>135.0</ele><time>2026-04-24T07:44:48.883Z</time></trkpt><trkpt lat="42.1559233" lon="14.610665"><ele>135.0</ele><time>2026-04-24T07:44:50.883Z</time></trkpt><trkpt lat="42.1559983" lon="14.6107267"><ele>134.83333333333334</ele><time>2026-04-24T07:44:52.883Z</time></trkpt><trkpt lat="42.1560933" lon="14.610755"><ele>134.66666666666666</ele><time>2026-04-24T07:44:54.882Z</time></trkpt><trkpt lat="42.1561867" lon="14.6108033"><ele>134.5</ele><time>2026-04-24T07:44:56.883Z</time></trkpt><trkpt lat="42.1562417" lon="14.6108567"><ele>134.33333333333331</ele><time>2026-04-24T07:44:57.882Z</time></trkpt><trkpt lat="42.1563167" lon="14.6109017"><ele>134.16666666666666</ele><time>2026-04-24T07:44:59.883Z</time></trkpt><trkpt lat="42.15638" lon="14.6109633"><ele>134.0</ele><time>2026-04-24T07:45:02.883Z</time></trkpt><trkpt lat="42.1564467" lon="14.6110017"><ele>134.0</ele><time>2026-04-24T07:45:05.882Z</time></trkpt><trkpt lat="42.1565433" lon="14.6109783"><ele>134.0</ele><time>2026-04-24T07:45:08.883Z</time></trkpt><trkpt lat="42.1566067" lon="14.6109267"><ele>134.0</ele><time>2026-04-24T07:45:10.883Z</time></trkpt><trkpt lat="42.1566667" lon="14.6108517"><ele>134.0</ele><time>2026-04-24T07:45:12.882Z</time></trkpt><trkpt lat="42.1567333" lon="14.61077"><ele>134.0</ele><time>2026-04-24T07:45:14.883Z</time></trkpt><trkpt lat="42.1567917" lon="14.610685"><ele>134.0</ele><time>2026-04-24T07:45:16.883Z</time></trkpt><trkpt lat="42.1568483" lon="14.6106017"><ele>134.0</ele><time>2026-04-24T07:45:18.882Z</time></trkpt><trkpt lat="42.1569" lon="14.6105167"><ele>134.0</ele><time>2026-04-24T07:45:20.882Z</time></trkpt><trkpt lat="42.1569683" lon="14.6104967"><ele>134.0</ele><time>2026-04-24T07:45:22.882Z</time></trkpt><trkpt lat="42.1570283" lon="14.610555"><ele>134.0</ele><time>2026-04-24T07:45:24.882Z</time></trkpt><trkpt lat="42.1570833" lon="14.6106467"><ele>134.0</ele><time>2026-04-24T07:45:26.883Z</time></trkpt><trkpt lat="42.1571467" lon="14.61074"><ele>134.0</ele><time>2026-04-24T07:45:28.883Z</time></trkpt><trkpt lat="42.1572083" lon="14.610835"><ele>134.0</ele><time>2026-04-24T07:45:30.883Z</time></trkpt><trkpt lat="42.1572583" lon="14.610945"><ele>134.0</ele><time>2026-04-24T07:45:32.883Z</time></trkpt><trkpt lat="42.1573117" lon="14.6110417"><ele>134.0</ele><time>2026-04-24T07:45:34.882Z</time></trkpt><trkpt lat="42.157365" lon="14.6111417"><ele>134.0</ele><time>2026-04-24T07:45:36.883Z</time></trkpt><trkpt lat="42.1574183" lon="14.6112517"><ele>134.0</ele><time>2026-04-24T07:45:38.883Z</time></trkpt><trkpt lat="42.157475" lon="14.611365"><ele>133.6</ele><time>2026-04-24T07:45:40.883Z</time></trkpt><trkpt lat="42.157535" lon="14.6114683"><ele>133.2</ele><time>2026-04-24T07:45:42.882Z</time></trkpt><trkpt lat="42.1575867" lon="14.611575"><ele>132.79999999999998</ele><time>2026-04-24T07:45:44.883Z</time></trkpt><trkpt lat="42.1576333" lon="14.6116767"><ele>132.4</ele><time>2026-04-24T07:45:46.882Z</time></trkpt><trkpt lat="42.1576817" lon="14.611795"><ele>132.0</ele><time>2026-04-24T07:45:48.882Z</time></trkpt><trkpt lat="42.1577333" lon="14.6119017"><ele>132.4</ele><time>2026-04-24T07:45:50.882Z</time></trkpt><trkpt lat="42.1577917" lon="14.6120017"><ele>132.79999999999998</ele><time>2026-04-24T07:45:52.883Z</time></trkpt><trkpt lat="42.1578567" lon="14.6121"><ele>133.2</ele><time>2026-04-24T07:45:54.883Z</time></trkpt><trkpt lat="42.1579217" lon="14.6122117"><ele>133.6</ele><time>2026-04-24T07:45:56.883Z</time></trkpt><trkpt lat="42.157975" lon="14.6123067"><ele>134.0</ele><time>2026-04-24T07:45:58.882Z</time></trkpt><trkpt lat="42.1580267" lon="14.6123967"><ele>134.0</ele><time>2026-04-24T07:46:00.882Z</time></trkpt><trkpt lat="42.1580767" lon="14.612475"><ele>134.0</ele><time>2026-04-24T07:46:02.883Z</time></trkpt><trkpt lat="42.1581233" lon="14.6125617"><ele>134.0</ele><time>2026-04-24T07:46:04.882Z</time></trkpt><trkpt lat="42.158165" lon="14.6126333"><ele>134.0</ele><time>2026-04-24T07:46:06.883Z</time></trkpt><trkpt lat="42.1582283" lon="14.6127017"><ele>134.0</ele><time>2026-04-24T07:46:09.883Z</time></trkpt><trkpt lat="42.1582917" lon="14.6127867"><ele>134.0</ele><time>2026-04-24T07:46:14.882Z</time></trkpt><trkpt lat="42.1583283" lon="14.6129067"><ele>133.66666666666666</ele><time>2026-04-24T07:46:17.882Z</time></trkpt><trkpt lat="42.15837" lon="14.613"><ele>133.33333333333331</ele><time>2026-04-24T07:46:19.883Z</time></trkpt><trkpt lat="42.1584083" lon="14.6130883"><ele>133.0</ele><time>2026-04-24T07:46:21.882Z</time></trkpt><trkpt lat="42.158455" lon="14.6131883"><ele>132.66666666666666</ele><time>2026-04-24T07:46:23.883Z</time></trkpt><trkpt lat="42.1585017" lon="14.6132633"><ele>132.33333333333334</ele><time>2026-04-24T07:46:25.883Z</time></trkpt><trkpt lat="42.15855" lon="14.6133317"><ele>132.0</ele><time>2026-04-24T07:46:27.883Z</time></trkpt><trkpt lat="42.158595" lon="14.6134083"><ele>132.0</ele><time>2026-04-24T07:46:29.883Z</time></trkpt><trkpt lat="42.15863" lon="14.6134883"><ele>132.0</ele><time>2026-04-24T07:46:31.883Z</time></trkpt><trkpt lat="42.158645" lon="14.6136017"><ele>132.0</ele><time>2026-04-24T07:46:34.882Z</time></trkpt><trkpt lat="42.1586567" lon="14.6137083"><ele>132.0</ele><time>2026-04-24T07:46:37.882Z</time></trkpt><trkpt lat="42.1586517" lon="14.6138383"><ele>132.0</ele><time>2026-04-24T07:46:40.883Z</time></trkpt><trkpt lat="42.1586633" lon="14.6139367"><ele>132.0</ele><time>2026-04-24T07:46:42.882Z</time></trkpt><trkpt lat="42.1586967" lon="14.614055"><ele>131.83333333333334</ele><time>2026-04-24T07:46:45.883Z</time></trkpt><trkpt lat="42.1587233" lon="14.61414"><ele>131.66666666666666</ele><time>2026-04-24T07:46:47.883Z</time></trkpt><trkpt lat="42.15875" lon="14.6142217"><ele>131.5</ele><time>2026-04-24T07:46:49.883Z</time></trkpt><trkpt lat="42.15877" lon="14.6143233"><ele>131.33333333333331</ele><time>2026-04-24T07:46:52.882Z</time></trkpt><trkpt lat="42.1588183" lon="14.6144083"><ele>131.16666666666666</ele><time>2026-04-24T07:46:55.883Z</time></trkpt><trkpt lat="42.1589133" lon="14.614405"><ele>131.0</ele><time>2026-04-24T07:46:58.882Z</time></trkpt><trkpt lat="42.1589783" lon="14.6144"><ele>131.16666666666666</ele><time>2026-04-24T07:47:00.882Z</time></trkpt><trkpt lat="42.1590533" lon="14.6143883"><ele>131.33333333333331</ele><time>2026-04-24T07:47:02.882Z</time></trkpt><trkpt lat="42.1591333" lon="14.6143817"><ele>131.5</ele><time>2026-04-24T07:47:04.882Z</time></trkpt><trkpt lat="42.1592167" lon="14.6143567"><ele>131.66666666666666</ele><time>2026-04-24T07:47:06.883Z</time></trkpt><trkpt lat="42.159305" lon="14.6143367"><ele>131.83333333333334</ele><time>2026-04-24T07:47:08.883Z</time></trkpt><trkpt lat="42.1593917" lon="14.6143083"><ele>132.0</ele><time>2026-04-24T07:47:10.882Z</time></trkpt><trkpt lat="42.1594833" lon="14.6142767"><ele>132.0</ele><time>2026-04-24T07:47:12.882Z</time></trkpt><trkpt lat="42.15957" lon="14.6142483"><ele>132.0</ele><time>2026-04-24T07:47:14.882Z</time></trkpt><trkpt lat="42.159645" lon="14.614245"><ele>132.0</ele><time>2026-04-24T07:47:16.882Z</time></trkpt><trkpt lat="42.1597267" lon="14.61423"><ele>132.0</ele><time>2026-04-24T07:47:19.883Z</time></trkpt><trkpt lat="42.15977" lon="14.61416"><ele>132.0</ele><time>2026-04-24T07:47:22.883Z</time></trkpt><trkpt lat="42.1597717" lon="14.6140583"><ele>132.0</ele><time>2026-04-24T07:47:26.882Z</time></trkpt><trkpt lat="42.1598083" lon="14.6139733"><ele>132.0</ele><time>2026-04-24T07:47:29.883Z</time></trkpt><trkpt lat="42.1597967" lon="14.6138817"><ele>132.0</ele><time>2026-04-24T07:47:31.882Z</time></trkpt><trkpt lat="42.1597683" lon="14.6137967"><ele>132.0</ele><time>2026-04-24T07:47:33.883Z</time></trkpt><trkpt lat="42.15973" lon="14.6137067"><ele>132.0</ele><time>2026-04-24T07:47:35.883Z</time></trkpt><trkpt lat="42.1596717" lon="14.6136117"><ele>132.0</ele><time>2026-04-24T07:47:38.882Z</time></trkpt><trkpt lat="42.1596333" lon="14.61354"><ele>132.0</ele><time>2026-04-24T07:47:40.883Z</time></trkpt><trkpt lat="42.1596" lon="14.61346"><ele>132.0</ele><time>2026-04-24T07:47:42.883Z</time></trkpt><trkpt lat="42.1595583" lon="14.6133617"><ele>132.33333333333334</ele><time>2026-04-24T07:47:45.883Z</time></trkpt><trkpt lat="42.1595" lon="14.6132767"><ele>132.66666666666666</ele><time>2026-04-24T07:47:48.883Z</time></trkpt><trkpt lat="42.159455" lon="14.6132033"><ele>133.0</ele><time>2026-04-24T07:47:51.882Z</time></trkpt><trkpt lat="42.1594233" lon="14.6130983"><ele>133.33333333333331</ele><time>2026-04-24T07:47:54.882Z</time></trkpt><trkpt lat="42.159435" lon="14.6129967"><ele>133.66666666666666</ele><time>2026-04-24T07:47:56.883Z</time></trkpt><trkpt lat="42.15947" lon="14.612925"><ele>134.0</ele><time>2026-04-24T07:47:58.883Z</time></trkpt><trkpt lat="42.159535" lon="14.6128517"><ele>133.5</ele><time>2026-04-24T07:48:01.882Z</time></trkpt><trkpt lat="42.1595783" lon="14.6127867"><ele>133.0</ele><time>2026-04-24T07:48:03.883Z</time></trkpt><trkpt lat="42.1596383" lon="14.6127333"><ele>132.5</ele><time>2026-04-24T07:48:05.883Z</time></trkpt><trkpt lat="42.1597033" lon="14.6126767"><ele>132.0</ele><time>2026-04-24T07:48:07.883Z</time></trkpt><trkpt lat="42.15977" lon="14.6126217"><ele>131.5</ele><time>2026-04-24T07:48:09.883Z</time></trkpt><trkpt lat="42.15985" lon="14.61256"><ele>131.0</ele><time>2026-04-24T07:48:11.883Z</time></trkpt><trkpt lat="42.15993" lon="14.6124883"><ele>130.2</ele><time>2026-04-24T07:48:13.882Z</time></trkpt><trkpt lat="42.16001" lon="14.6124267"><ele>129.39999999999998</ele><time>2026-04-24T07:48:15.883Z</time></trkpt><trkpt lat="42.1600933" lon="14.6123583"><ele>128.6</ele><time>2026-04-24T07:48:17.883Z</time></trkpt><trkpt lat="42.160185" lon="14.6122883"><ele>127.8</ele><time>2026-04-24T07:48:19.883Z</time></trkpt><trkpt lat="42.1602683" lon="14.61222"><ele>127.0</ele><time>2026-04-24T07:48:21.882Z</time></trkpt><trkpt lat="42.1603467" lon="14.61215"><ele>127.0</ele><time>2026-04-24T07:48:23.883Z</time></trkpt><trkpt lat="42.16043" lon="14.6120883"><ele>126.99999999999999</ele><time>2026-04-24T07:48:25.883Z</time></trkpt><trkpt lat="42.1605083" lon="14.612015"><ele>126.99999999999999</ele><time>2026-04-24T07:48:27.883Z</time></trkpt><trkpt lat="42.1605833" lon="14.611965"><ele>127.0</ele><time>2026-04-24T07:48:29.882Z</time></trkpt><trkpt lat="42.16066" lon="14.6119117"><ele>127.0</ele><time>2026-04-24T07:48:31.883Z</time></trkpt><trkpt lat="42.1607483" lon="14.611845"><ele>126.0</ele><time>2026-04-24T07:48:33.883Z</time></trkpt><trkpt lat="42.160835" lon="14.6118017"><ele>124.99999999999999</ele><time>2026-04-24T07:48:35.883Z</time></trkpt><trkpt lat="42.160925" lon="14.6117617"><ele>123.99999999999999</ele><time>2026-04-24T07:48:37.883Z</time></trkpt><trkpt lat="42.16102" lon="14.61172"><ele>123.0</ele><time>2026-04-24T07:48:39.884Z</time></trkpt><trkpt lat="42.1611117" lon="14.61169"><ele>122.0</ele><time>2026-04-24T07:48:41.884Z</time></trkpt><trkpt lat="42.161215" lon="14.6116733"><ele>122.0</ele><time>2026-04-24T07:48:43.883Z</time></trkpt><trkpt lat="42.1613067" lon="14.6116533"><ele>121.99999999999999</ele><time>2026-04-24T07:48:45.884Z</time></trkpt><trkpt lat="42.1613933" lon="14.6116483"><ele>121.99999999999999</ele><time>2026-04-24T07:48:47.884Z</time></trkpt><trkpt lat="42.1614933" lon="14.6116317"><ele>122.0</ele><time>2026-04-24T07:48:49.884Z</time></trkpt><trkpt lat="42.16159" lon="14.611615"><ele>122.0</ele><time>2026-04-24T07:48:51.884Z</time></trkpt><trkpt lat="42.161695" lon="14.6116033"><ele>122.39999999999999</ele><time>2026-04-24T07:48:53.883Z</time></trkpt><trkpt lat="42.16179" lon="14.611595"><ele>122.79999999999998</ele><time>2026-04-24T07:48:55.884Z</time></trkpt><trkpt lat="42.16188" lon="14.6115917"><ele>123.2</ele><time>2026-04-24T07:48:57.883Z</time></trkpt><trkpt lat="42.1619717" lon="14.6115917"><ele>123.6</ele><time>2026-04-24T07:48:59.884Z</time></trkpt><trkpt lat="42.16207" lon="14.6115933"><ele>124.0</ele><time>2026-04-24T07:49:01.884Z</time></trkpt><trkpt lat="42.16217" lon="14.6115917"><ele>124.0</ele><time>2026-04-24T07:49:03.884Z</time></trkpt><trkpt lat="42.1622683" lon="14.6115933"><ele>124.0</ele><time>2026-04-24T07:49:05.884Z</time></trkpt><trkpt lat="42.16236" lon="14.6115933"><ele>124.0</ele><time>2026-04-24T07:49:07.884Z</time></trkpt><trkpt lat="42.162455" lon="14.6116067"><ele>124.0</ele><time>2026-04-24T07:49:09.883Z</time></trkpt><trkpt lat="42.1625567" lon="14.611605"><ele>124.0</ele><time>2026-04-24T07:49:11.884Z</time></trkpt><trkpt lat="42.16265" lon="14.611615"><ele>124.0</ele><time>2026-04-24T07:49:13.884Z</time></trkpt><trkpt lat="42.1627417" lon="14.6116083"><ele>124.0</ele><time>2026-04-24T07:49:15.884Z</time></trkpt><trkpt lat="42.1628417" lon="14.6116133"><ele>124.0</ele><time>2026-04-24T07:49:17.884Z</time></trkpt><trkpt lat="42.1629267" lon="14.6116417"><ele>124.0</ele><time>2026-04-24T07:49:19.884Z</time></trkpt><trkpt lat="42.1630117" lon="14.61166"><ele>124.0</ele><time>2026-04-24T07:49:21.884Z</time></trkpt><trkpt lat="42.163085" lon="14.61172"><ele>124.0</ele><time>2026-04-24T07:49:23.884Z</time></trkpt><trkpt lat="42.1631683" lon="14.61179"><ele>124.0</ele><time>2026-04-24T07:49:25.884Z</time></trkpt><trkpt lat="42.1632583" lon="14.6118567"><ele>124.0</ele><time>2026-04-24T07:49:27.884Z</time></trkpt><trkpt lat="42.163345" lon="14.61194"><ele>124.0</ele><time>2026-04-24T07:49:29.884Z</time></trkpt><trkpt lat="42.163435" lon="14.61202"><ele>124.0</ele><time>2026-04-24T07:49:31.883Z</time></trkpt><trkpt lat="42.1635183" lon="14.6120933"><ele>123.6</ele><time>2026-04-24T07:49:33.883Z</time></trkpt><trkpt lat="42.1636033" lon="14.6121717"><ele>123.2</ele><time>2026-04-24T07:49:35.884Z</time></trkpt><trkpt lat="42.16368" lon="14.6122567"><ele>122.79999999999998</ele><time>2026-04-24T07:49:37.884Z</time></trkpt><trkpt lat="42.1637583" lon="14.61235"><ele>122.39999999999999</ele><time>2026-04-24T07:49:39.883Z</time></trkpt><trkpt lat="42.1638333" lon="14.612425"><ele>122.0</ele><time>2026-04-24T07:49:41.884Z</time></trkpt><trkpt lat="42.1639083" lon="14.6125167"><ele>122.0</ele><time>2026-04-24T07:49:43.883Z</time></trkpt><trkpt lat="42.1639917" lon="14.612615"><ele>121.99999999999999</ele><time>2026-04-24T07:49:45.884Z</time></trkpt><trkpt lat="42.1640683" lon="14.6127117"><ele>121.99999999999999</ele><time>2026-04-24T07:49:47.884Z</time></trkpt><trkpt lat="42.1641483" lon="14.6128083"><ele>122.0</ele><time>2026-04-24T07:49:49.884Z</time></trkpt><trkpt lat="42.164235" lon="14.6129033"><ele>122.0</ele><time>2026-04-24T07:49:51.884Z</time></trkpt><trkpt lat="42.16432" lon="14.6129883"><ele>121.39999999999999</ele><time>2026-04-24T07:49:53.884Z</time></trkpt><trkpt lat="42.1644133" lon="14.6130567"><ele>120.79999999999998</ele><time>2026-04-24T07:49:55.883Z</time></trkpt><trkpt lat="42.1645017" lon="14.6131267"><ele>120.2</ele><time>2026-04-24T07:49:57.884Z</time></trkpt><trkpt lat="42.16458" lon="14.6131983"><ele>119.6</ele><time>2026-04-24T07:49:59.884Z</time></trkpt><trkpt lat="42.16466" lon="14.6132483"><ele>119.0</ele><time>2026-04-24T07:50:01.884Z</time></trkpt><trkpt lat="42.164755" lon="14.6132733"><ele>119.0</ele><time>2026-04-24T07:50:03.884Z</time></trkpt><trkpt lat="42.16485" lon="14.613295"><ele>119.0</ele><time>2026-04-24T07:50:05.883Z</time></trkpt><trkpt lat="42.1649467" lon="14.6133067"><ele>119.0</ele><time>2026-04-24T07:50:07.883Z</time></trkpt><trkpt lat="42.165045" lon="14.6133067"><ele>119.0</ele><time>2026-04-24T07:50:09.884Z</time></trkpt><trkpt lat="42.1651467" lon="14.613305"><ele>119.0</ele><time>2026-04-24T07:50:11.883Z</time></trkpt><trkpt lat="42.16524" lon="14.6133117"><ele>118.80000000000001</ele><time>2026-04-24T07:50:13.884Z</time></trkpt><trkpt lat="42.1653367" lon="14.6133267"><ele>118.60000000000001</ele><time>2026-04-24T07:50:15.883Z</time></trkpt><trkpt lat="42.165435" lon="14.6133433"><ele>118.4</ele><time>2026-04-24T07:50:17.884Z</time></trkpt><trkpt lat="42.1655317" lon="14.6133683"><ele>118.2</ele><time>2026-04-24T07:50:19.883Z</time></trkpt><trkpt lat="42.1656267" lon="14.6134067"><ele>118.0</ele><time>2026-04-24T07:50:21.883Z</time></trkpt><trkpt lat="42.16572" lon="14.6134517"><ele>118.0</ele><time>2026-04-24T07:50:23.884Z</time></trkpt><trkpt lat="42.1658083" lon="14.6134933"><ele>118.00000000000001</ele><time>2026-04-24T07:50:25.884Z</time></trkpt><trkpt lat="42.1659017" lon="14.613525"><ele>118.00000000000001</ele><time>2026-04-24T07:50:27.883Z</time></trkpt><trkpt lat="42.165995" lon="14.61355"><ele>118.0</ele><time>2026-04-24T07:50:29.883Z</time></trkpt><trkpt lat="42.1660883" lon="14.6135717"><ele>118.0</ele><time>2026-04-24T07:50:31.883Z</time></trkpt><trkpt lat="42.16618" lon="14.61359"><ele>118.00000000000001</ele><time>2026-04-24T07:50:33.884Z</time></trkpt><trkpt lat="42.1662667" lon="14.61361"><ele>118.0</ele><time>2026-04-24T07:50:35.884Z</time></trkpt><trkpt lat="42.166355" lon="14.61362"><ele>118.0</ele><time>2026-04-24T07:50:37.884Z</time></trkpt><trkpt lat="42.1664483" lon="14.6136167"><ele>118.0</ele><time>2026-04-24T07:50:39.883Z</time></trkpt><trkpt lat="42.1665367" lon="14.61362"><ele>118.00000000000001</ele><time>2026-04-24T07:50:41.883Z</time></trkpt><trkpt lat="42.16662" lon="14.6136267"><ele>118.0</ele><time>2026-04-24T07:50:43.883Z</time></trkpt><trkpt lat="42.1667167" lon="14.613605"><ele>118.0</ele><time>2026-04-24T07:50:45.884Z</time></trkpt><trkpt lat="42.1668133" lon="14.6135867"><ele>118.00000000000001</ele><time>2026-04-24T07:50:47.884Z</time></trkpt><trkpt lat="42.166905" lon="14.61358"><ele>118.00000000000001</ele><time>2026-04-24T07:50:49.884Z</time></trkpt><trkpt lat="42.1669967" lon="14.6136017"><ele>118.0</ele><time>2026-04-24T07:50:51.884Z</time></trkpt><trkpt lat="42.1670767" lon="14.6136517"><ele>118.0</ele><time>2026-04-24T07:50:53.883Z</time></trkpt><trkpt lat="42.1671283" lon="14.6137483"><ele>118.00000000000001</ele><time>2026-04-24T07:50:55.884Z</time></trkpt><trkpt lat="42.1671583" lon="14.61386"><ele>118.0</ele><time>2026-04-24T07:50:57.884Z</time></trkpt><trkpt lat="42.1671967" lon="14.6139733"><ele>118.0</ele><time>2026-04-24T07:50:59.884Z</time></trkpt><trkpt lat="42.1672333" lon="14.6140667"><ele>118.0</ele><time>2026-04-24T07:51:01.884Z</time></trkpt><trkpt lat="42.1672583" lon="14.6141567"><ele>118.00000000000001</ele><time>2026-04-24T07:51:04.884Z</time></trkpt><trkpt lat="42.167295" lon="14.6142633"><ele>118.0</ele><time>2026-04-24T07:51:09.884Z</time></trkpt><trkpt lat="42.1673283" lon="14.6143517"><ele>118.00000000000001</ele><time>2026-04-24T07:51:11.884Z</time></trkpt><trkpt lat="42.1673583" lon="14.6144367"><ele>118.0</ele><time>2026-04-24T07:51:13.884Z</time></trkpt><trkpt lat="42.1673917" lon="14.614535"><ele>118.0</ele><time>2026-04-24T07:51:15.884Z</time></trkpt><trkpt lat="42.16743" lon="14.6146417"><ele>118.0</ele><time>2026-04-24T07:51:17.884Z</time></trkpt><trkpt lat="42.1674667" lon="14.614755"><ele>118.00000000000001</ele><time>2026-04-24T07:51:19.883Z</time></trkpt><trkpt lat="42.1675033" lon="14.6148633"><ele>118.0</ele><time>2026-04-24T07:51:21.884Z</time></trkpt><trkpt lat="42.167545" lon="14.6149667"><ele>117.4</ele><time>2026-04-24T07:51:23.883Z</time></trkpt><trkpt lat="42.1675867" lon="14.6150783"><ele>116.80000000000001</ele><time>2026-04-24T07:51:25.884Z</time></trkpt><trkpt lat="42.1676367" lon="14.6151867"><ele>116.2</ele><time>2026-04-24T07:51:27.883Z</time></trkpt><trkpt lat="42.167695" lon="14.6152883"><ele>115.6</ele><time>2026-04-24T07:51:29.884Z</time></trkpt><trkpt lat="42.1677433" lon="14.615385"><ele>115.0</ele><time>2026-04-24T07:51:31.884Z</time></trkpt><trkpt lat="42.1678" lon="14.615485"><ele>114.66666666666667</ele><time>2026-04-24T07:51:33.884Z</time></trkpt><trkpt lat="42.1678467" lon="14.615585"><ele>114.33333333333334</ele><time>2026-04-24T07:51:35.884Z</time></trkpt><trkpt lat="42.1679133" lon="14.6156733"><ele>114.0</ele><time>2026-04-24T07:51:37.884Z</time></trkpt><trkpt lat="42.1679867" lon="14.61575"><ele>113.66666666666666</ele><time>2026-04-24T07:51:39.883Z</time></trkpt><trkpt lat="42.168055" lon="14.6158333"><ele>113.33333333333333</ele><time>2026-04-24T07:51:41.884Z</time></trkpt><trkpt lat="42.16812" lon="14.615895"><ele>113.0</ele><time>2026-04-24T07:51:43.884Z</time></trkpt><trkpt lat="42.168185" lon="14.6159533"><ele>112.83333333333333</ele><time>2026-04-24T07:51:45.884Z</time></trkpt><trkpt lat="42.1682433" lon="14.61601"><ele>112.66666666666666</ele><time>2026-04-24T07:51:47.884Z</time></trkpt><trkpt lat="42.1683033" lon="14.6160783"><ele>112.5</ele><time>2026-04-24T07:51:49.883Z</time></trkpt><trkpt lat="42.1683617" lon="14.616145"><ele>112.33333333333334</ele><time>2026-04-24T07:51:51.883Z</time></trkpt><trkpt lat="42.1684233" lon="14.6162117"><ele>112.16666666666667</ele><time>2026-04-24T07:51:53.884Z</time></trkpt><trkpt lat="42.168485" lon="14.61628"><ele>112.0</ele><time>2026-04-24T07:51:55.884Z</time></trkpt><trkpt lat="42.168555" lon="14.6163567"><ele>112.00000000000001</ele><time>2026-04-24T07:51:57.883Z</time></trkpt><trkpt lat="42.1686233" lon="14.6164383"><ele>112.0</ele><time>2026-04-24T07:51:59.884Z</time></trkpt><trkpt lat="42.1686817" lon="14.616535"><ele>112.0</ele><time>2026-04-24T07:52:01.884Z</time></trkpt><trkpt lat="42.1687283" lon="14.6166283"><ele>112.0</ele><time>2026-04-24T07:52:03.884Z</time></trkpt><trkpt lat="42.1687817" lon="14.61672"><ele>112.00000000000001</ele><time>2026-04-24T07:52:05.883Z</time></trkpt><trkpt lat="42.1688333" lon="14.6168183"><ele>112.0</ele><time>2026-04-24T07:52:07.883Z</time></trkpt><trkpt lat="42.1688567" lon="14.61692"><ele>112.16666666666667</ele><time>2026-04-24T07:52:09.884Z</time></trkpt><trkpt lat="42.1688733" lon="14.61703"><ele>112.33333333333334</ele><time>2026-04-24T07:52:11.884Z</time></trkpt><trkpt lat="42.1688917" lon="14.6171483"><ele>112.5</ele><time>2026-04-24T07:52:13.884Z</time></trkpt><trkpt lat="42.168915" lon="14.617255"><ele>112.66666666666666</ele><time>2026-04-24T07:52:15.884Z</time></trkpt><trkpt lat="42.1689433" lon="14.6173483"><ele>112.83333333333333</ele><time>2026-04-24T07:52:17.884Z</time></trkpt><trkpt lat="42.1689767" lon="14.6174417"><ele>113.0</ele><time>2026-04-24T07:52:19.883Z</time></trkpt><trkpt lat="42.1690117" lon="14.617525"><ele>112.85714285714286</ele><time>2026-04-24T07:52:21.883Z</time></trkpt><trkpt lat="42.1690267" lon="14.6176167"><ele>112.71428571428571</ele><time>2026-04-24T07:52:23.884Z</time></trkpt><trkpt lat="42.1690333" lon="14.617705"><ele>112.57142857142857</ele><time>2026-04-24T07:52:25.884Z</time></trkpt><trkpt lat="42.16904" lon="14.61779"><ele>112.42857142857143</ele><time>2026-04-24T07:52:27.884Z</time></trkpt><trkpt lat="42.1690367" lon="14.617885"><ele>112.28571428571428</ele><time>2026-04-24T07:52:29.884Z</time></trkpt><trkpt lat="42.1690283" lon="14.6179767"><ele>112.14285714285714</ele><time>2026-04-24T07:52:31.884Z</time></trkpt><trkpt lat="42.1690233" lon="14.6180867"><ele>112.0</ele><time>2026-04-24T07:52:33.884Z</time></trkpt><trkpt lat="42.169025" lon="14.6181867"><ele>111.83333333333334</ele><time>2026-04-24T07:52:35.884Z</time></trkpt><trkpt lat="42.1690367" lon="14.6182967"><ele>111.66666666666667</ele><time>2026-04-24T07:52:37.884Z</time></trkpt><trkpt lat="42.1690533" lon="14.6184017"><ele>111.5</ele><time>2026-04-24T07:52:39.883Z</time></trkpt><trkpt lat="42.1690717" lon="14.6185017"><ele>111.33333333333334</ele><time>2026-04-24T07:52:41.883Z</time></trkpt><trkpt lat="42.169095" lon="14.61862"><ele>111.16666666666667</ele><time>2026-04-24T07:52:43.884Z</time></trkpt><trkpt lat="42.169125" lon="14.618745"><ele>111.0</ele><time>2026-04-24T07:52:45.884Z</time></trkpt><trkpt lat="42.169155" lon="14.61887"><ele>110.8</ele><time>2026-04-24T07:52:47.884Z</time></trkpt><trkpt lat="42.1691733" lon="14.6189983"><ele>110.6</ele><time>2026-04-24T07:52:49.883Z</time></trkpt><trkpt lat="42.1691833" lon="14.6191317"><ele>110.4</ele><time>2026-04-24T07:52:51.883Z</time></trkpt><trkpt lat="42.169175" lon="14.61927"><ele>110.2</ele><time>2026-04-24T07:52:53.884Z</time></trkpt><trkpt lat="42.1691667" lon="14.619405"><ele>110.0</ele><time>2026-04-24T07:52:55.883Z</time></trkpt><trkpt lat="42.16916" lon="14.6195383"><ele>109.6</ele><time>2026-04-24T07:52:57.884Z</time></trkpt><trkpt lat="42.169155" lon="14.6196817"><ele>109.2</ele><time>2026-04-24T07:52:59.884Z</time></trkpt><trkpt lat="42.16918" lon="14.61982"><ele>108.80000000000001</ele><time>2026-04-24T07:53:01.884Z</time></trkpt><trkpt lat="42.1692283" lon="14.6199567"><ele>108.4</ele><time>2026-04-24T07:53:03.884Z</time></trkpt><trkpt lat="42.1693017" lon="14.6200833"><ele>108.0</ele><time>2026-04-24T07:53:05.883Z</time></trkpt><trkpt lat="42.1693517" lon="14.6201483"><ele>108.0</ele><time>2026-04-24T07:53:06.884Z</time></trkpt><trkpt lat="42.1694017" lon="14.6202117"><ele>108.0</ele><time>2026-04-24T07:53:07.884Z</time></trkpt><trkpt lat="42.1694517" lon="14.6202817"><ele>108.0</ele><time>2026-04-24T07:53:08.883Z</time></trkpt><trkpt lat="42.1694917" lon="14.62036"><ele>108.0</ele><time>2026-04-24T07:53:09.884Z</time></trkpt><trkpt lat="42.169525" lon="14.6204483"><ele>108.0</ele><time>2026-04-24T07:53:10.883Z</time></trkpt><trkpt lat="42.1695517" lon="14.6205433"><ele>108.0</ele><time>2026-04-24T07:53:11.884Z</time></trkpt><trkpt lat="42.169575" lon="14.6206467"><ele>108.0</ele><time>2026-04-24T07:53:12.883Z</time></trkpt><trkpt lat="42.1696033" lon="14.6207467"><ele>107.83333333333333</ele><time>2026-04-24T07:53:13.883Z</time></trkpt><trkpt lat="42.169625" lon="14.6208383"><ele>107.66666666666666</ele><time>2026-04-24T07:53:14.884Z</time></trkpt><trkpt lat="42.169645" lon="14.6209267"><ele>107.5</ele><time>2026-04-24T07:53:15.883Z</time></trkpt><trkpt lat="42.1696583" lon="14.6210167"><ele>107.33333333333333</ele><time>2026-04-24T07:53:16.884Z</time></trkpt><trkpt lat="42.1696583" lon="14.621105"><ele>107.16666666666666</ele><time>2026-04-24T07:53:17.884Z</time></trkpt><trkpt lat="42.1696633" lon="14.6211967"><ele>107.0</ele><time>2026-04-24T07:53:18.884Z</time></trkpt><trkpt lat="42.169665" lon="14.6213583"><ele>106.6</ele><time>2026-04-24T07:53:20.884Z</time></trkpt><trkpt lat="42.1696783" lon="14.6215017"><ele>106.19999999999999</ele><time>2026-04-24T07:53:22.884Z</time></trkpt><trkpt lat="42.1697133" lon="14.62162"><ele>105.8</ele><time>2026-04-24T07:53:24.884Z</time></trkpt><trkpt lat="42.1697567" lon="14.62171"><ele>105.4</ele><time>2026-04-24T07:53:26.884Z</time></trkpt><trkpt lat="42.1698117" lon="14.621795"><ele>105.0</ele><time>2026-04-24T07:53:28.883Z</time></trkpt><trkpt lat="42.16988" lon="14.621885"><ele>104.66666666666667</ele><time>2026-04-24T07:53:31.884Z</time></trkpt><trkpt lat="42.1699683" lon="14.6219333"><ele>104.33333333333334</ele><time>2026-04-24T07:53:34.883Z</time></trkpt><trkpt lat="42.1700333" lon="14.6219583"><ele>104.0</ele><time>2026-04-24T07:53:36.884Z</time></trkpt><trkpt lat="42.1701" lon="14.6219967"><ele>103.66666666666667</ele><time>2026-04-24T07:53:38.883Z</time></trkpt><trkpt lat="42.1701717" lon="14.6220367"><ele>103.33333333333334</ele><time>2026-04-24T07:53:40.884Z</time></trkpt><trkpt lat="42.1702417" lon="14.6220633"><ele>103.0</ele><time>2026-04-24T07:53:42.883Z</time></trkpt><trkpt lat="42.1703183" lon="14.6220967"><ele>103.0</ele><time>2026-04-24T07:53:44.883Z</time></trkpt><trkpt lat="42.1703983" lon="14.6221233"><ele>103.0</ele><time>2026-04-24T07:53:46.884Z</time></trkpt><trkpt lat="42.1704783" lon="14.6221717"><ele>103.0</ele><time>2026-04-24T07:53:48.884Z</time></trkpt><trkpt lat="42.17055" lon="14.6222633"><ele>103.0</ele><time>2026-04-24T07:53:50.883Z</time></trkpt><trkpt lat="42.1706033" lon="14.6223933"><ele>103.0</ele><time>2026-04-24T07:53:52.884Z</time></trkpt><trkpt lat="42.1706283" lon="14.6225483"><ele>103.0</ele><time>2026-04-24T07:53:54.884Z</time></trkpt><trkpt lat="42.1706417" lon="14.6227217"><ele>103.0</ele><time>2026-04-24T07:53:56.884Z</time></trkpt><trkpt lat="42.1706433" lon="14.6228117"><ele>103.0</ele><time>2026-04-24T07:53:57.884Z</time></trkpt><trkpt lat="42.1706467" lon="14.6229017"><ele>103.0</ele><time>2026-04-24T07:53:58.884Z</time></trkpt><trkpt lat="42.1706533" lon="14.6229917"><ele>103.0</ele><time>2026-04-24T07:53:59.884Z</time></trkpt><trkpt lat="42.1706517" lon="14.6231617"><ele>103.0</ele><time>2026-04-24T07:54:01.884Z</time></trkpt><trkpt lat="42.1706533" lon="14.62332"><ele>103.0</ele><time>2026-04-24T07:54:03.884Z</time></trkpt><trkpt lat="42.170645" lon="14.6234717"><ele>103.0</ele><time>2026-04-24T07:54:05.884Z</time></trkpt><trkpt lat="42.1706267" lon="14.6236083"><ele>103.0</ele><time>2026-04-24T07:54:07.884Z</time></trkpt><trkpt lat="42.1705967" lon="14.62376"><ele>103.0</ele><time>2026-04-24T07:54:09.884Z</time></trkpt><trkpt lat="42.17056" lon="14.62388"><ele>103.0</ele><time>2026-04-24T07:54:11.884Z</time></trkpt><trkpt lat="42.1705167" lon="14.623995"><ele>103.0</ele><time>2026-04-24T07:54:13.883Z</time></trkpt><trkpt lat="42.1704767" lon="14.6241233"><ele>103.0</ele><time>2026-04-24T07:54:15.883Z</time></trkpt><trkpt lat="42.1704333" lon="14.624255"><ele>103.0</ele><time>2026-04-24T07:54:17.884Z</time></trkpt><trkpt lat="42.1703983" lon="14.6243783"><ele>103.0</ele><time>2026-04-24T07:54:19.884Z</time></trkpt><trkpt lat="42.170365" lon="14.6245233"><ele>102.25</ele><time>2026-04-24T07:54:21.883Z</time></trkpt><trkpt lat="42.170335" lon="14.62468"><ele>101.5</ele><time>2026-04-24T07:54:23.883Z</time></trkpt><trkpt lat="42.1703" lon="14.6248333"><ele>100.75</ele><time>2026-04-24T07:54:25.884Z</time></trkpt><trkpt lat="42.1702583" lon="14.6249917"><ele>100.0</ele><time>2026-04-24T07:54:27.884Z</time></trkpt><trkpt lat="42.170225" lon="14.6251517"><ele>100.0</ele><time>2026-04-24T07:54:29.884Z</time></trkpt><trkpt lat="42.1701917" lon="14.6253083"><ele>100.0</ele><time>2026-04-24T07:54:31.884Z</time></trkpt><trkpt lat="42.17016" lon="14.62544"><ele>100.0</ele><time>2026-04-24T07:54:33.884Z</time></trkpt><trkpt lat="42.1701417" lon="14.6255517"><ele>100.0</ele><time>2026-04-24T07:54:35.884Z</time></trkpt><trkpt lat="42.1701433" lon="14.6256933"><ele>100.0</ele><time>2026-04-24T07:54:37.884Z</time></trkpt><trkpt lat="42.170155" lon="14.625825"><ele>99.4</ele><time>2026-04-24T07:54:39.884Z</time></trkpt><trkpt lat="42.1701817" lon="14.6259533"><ele>98.8</ele><time>2026-04-24T07:54:41.884Z</time></trkpt><trkpt lat="42.17021" lon="14.62608"><ele>98.19999999999999</ele><time>2026-04-24T07:54:43.884Z</time></trkpt><trkpt lat="42.1702367" lon="14.626205"><ele>97.6</ele><time>2026-04-24T07:54:45.884Z</time></trkpt><trkpt lat="42.1702633" lon="14.6263267"><ele>97.0</ele><time>2026-04-24T07:54:47.884Z</time></trkpt><trkpt lat="42.17029" lon="14.6264433"><ele>96.6</ele><time>2026-04-24T07:54:49.884Z</time></trkpt><trkpt lat="42.170315" lon="14.6265667"><ele>96.19999999999999</ele><time>2026-04-24T07:54:51.883Z</time></trkpt><trkpt lat="42.1703383" lon="14.62669"><ele>95.8</ele><time>2026-04-24T07:54:53.884Z</time></trkpt><trkpt lat="42.1703567" lon="14.6268233"><ele>95.4</ele><time>2026-04-24T07:54:55.884Z</time></trkpt><trkpt lat="42.1703967" lon="14.6269417"><ele>95.0</ele><time>2026-04-24T07:54:57.884Z</time></trkpt><trkpt lat="42.17045" lon="14.62703"><ele>94.83333333333334</ele><time>2026-04-24T07:54:59.884Z</time></trkpt><trkpt lat="42.1705133" lon="14.62708"><ele>94.66666666666667</ele><time>2026-04-24T07:55:01.884Z</time></trkpt><trkpt lat="42.170595" lon="14.62708"><ele>94.5</ele><time>2026-04-24T07:55:03.884Z</time></trkpt><trkpt lat="42.1706767" lon="14.62705"><ele>94.33333333333333</ele><time>2026-04-24T07:55:05.884Z</time></trkpt><trkpt lat="42.17076" lon="14.6270217"><ele>94.16666666666666</ele><time>2026-04-24T07:55:07.884Z</time></trkpt><trkpt lat="42.1708467" lon="14.6269967"><ele>94.0</ele><time>2026-04-24T07:55:09.884Z</time></trkpt><trkpt lat="42.1709283" lon="14.626975"><ele>94.0</ele><time>2026-04-24T07:55:11.884Z</time></trkpt><trkpt lat="42.17101" lon="14.6269583"><ele>94.0</ele><time>2026-04-24T07:55:13.884Z</time></trkpt><trkpt lat="42.171095" lon="14.626965"><ele>94.0</ele><time>2026-04-24T07:55:15.884Z</time></trkpt><trkpt lat="42.1711783" lon="14.626995"><ele>94.0</ele><time>2026-04-24T07:55:17.883Z</time></trkpt><trkpt lat="42.17126" lon="14.6270333"><ele>94.0</ele><time>2026-04-24T07:55:19.884Z</time></trkpt><trkpt lat="42.17134" lon="14.6270717"><ele>94.0</ele><time>2026-04-24T07:55:21.883Z</time></trkpt><trkpt lat="42.1714167" lon="14.627115"><ele>94.0</ele><time>2026-04-24T07:55:23.884Z</time></trkpt><trkpt lat="42.1715067" lon="14.62716"><ele>94.0</ele><time>2026-04-24T07:55:25.883Z</time></trkpt><trkpt lat="42.1715933" lon="14.6272067"><ele>94.0</ele><time>2026-04-24T07:55:27.884Z</time></trkpt><trkpt lat="42.1716767" lon="14.627255"><ele>94.0</ele><time>2026-04-24T07:55:29.884Z</time></trkpt><trkpt lat="42.171755" lon="14.6272967"><ele>94.0</ele><time>2026-04-24T07:55:31.884Z</time></trkpt><trkpt lat="42.1718333" lon="14.6273367"><ele>94.0</ele><time>2026-04-24T07:55:33.884Z</time></trkpt><trkpt lat="42.171915" lon="14.62738"><ele>94.0</ele><time>2026-04-24T07:55:35.883Z</time></trkpt><trkpt lat="42.171995" lon="14.627425"><ele>94.0</ele><time>2026-04-24T07:55:37.883Z</time></trkpt><trkpt lat="42.1720783" lon="14.6274683"><ele>94.0</ele><time>2026-04-24T07:55:39.884Z</time></trkpt><trkpt lat="42.17217" lon="14.6275167"><ele>94.0</ele><time>2026-04-24T07:55:41.884Z</time></trkpt><trkpt lat="42.1722617" lon="14.6275683"><ele>94.0</ele><time>2026-04-24T07:55:43.884Z</time></trkpt><trkpt lat="42.1723517" lon="14.62762"><ele>93.6</ele><time>2026-04-24T07:55:45.884Z</time></trkpt><trkpt lat="42.1724417" lon="14.6276817"><ele>93.2</ele><time>2026-04-24T07:55:47.883Z</time></trkpt><trkpt lat="42.1725283" lon="14.627745"><ele>92.8</ele><time>2026-04-24T07:55:49.884Z</time></trkpt><trkpt lat="42.172625" lon="14.627795"><ele>92.39999999999999</ele><time>2026-04-24T07:55:51.884Z</time></trkpt><trkpt lat="42.1727217" lon="14.62786"><ele>92.0</ele><time>2026-04-24T07:55:53.884Z</time></trkpt><trkpt lat="42.1728083" lon="14.62793"><ele>91.8</ele><time>2026-04-24T07:55:55.884Z</time></trkpt><trkpt lat="42.1728967" lon="14.6280017"><ele>91.6</ele><time>2026-04-24T07:55:57.884Z</time></trkpt><trkpt lat="42.172985" lon="14.6280667"><ele>91.39999999999999</ele><time>2026-04-24T07:55:59.884Z</time></trkpt><trkpt lat="42.17307" lon="14.6281283"><ele>91.19999999999999</ele><time>2026-04-24T07:56:01.884Z</time></trkpt><trkpt lat="42.1731483" lon="14.6281933"><ele>91.0</ele><time>2026-04-24T07:56:03.884Z</time></trkpt><trkpt lat="42.1732283" lon="14.6282533"><ele>91.0</ele><time>2026-04-24T07:56:05.884Z</time></trkpt><trkpt lat="42.173305" lon="14.6283133"><ele>91.0</ele><time>2026-04-24T07:56:07.884Z</time></trkpt><trkpt lat="42.1733817" lon="14.6283767"><ele>91.0</ele><time>2026-04-24T07:56:09.884Z</time></trkpt><trkpt lat="42.1734533" lon="14.6284367"><ele>91.0</ele><time>2026-04-24T07:56:11.883Z</time></trkpt><trkpt lat="42.1735283" lon="14.62849"><ele>91.0</ele><time>2026-04-24T07:56:13.883Z</time></trkpt><trkpt lat="42.1735983" lon="14.628545"><ele>91.0</ele><time>2026-04-24T07:56:15.884Z</time></trkpt><trkpt lat="42.173665" lon="14.6286017"><ele>90.66666666666666</ele><time>2026-04-24T07:56:17.883Z</time></trkpt><trkpt lat="42.1737367" lon="14.6286483"><ele>90.33333333333333</ele><time>2026-04-24T07:56:19.883Z</time></trkpt><trkpt lat="42.1738083" lon="14.6286983"><ele>90.0</ele><time>2026-04-24T07:56:21.883Z</time></trkpt><trkpt lat="42.1738783" lon="14.6287367"><ele>89.66666666666667</ele><time>2026-04-24T07:56:23.883Z</time></trkpt><trkpt lat="42.1739417" lon="14.62879"><ele>89.33333333333334</ele><time>2026-04-24T07:56:25.884Z</time></trkpt><trkpt lat="42.1740183" lon="14.6288433"><ele>89.0</ele><time>2026-04-24T07:56:27.884Z</time></trkpt><trkpt lat="42.17409" lon="14.6289"><ele>88.83333333333334</ele><time>2026-04-24T07:56:29.884Z</time></trkpt><trkpt lat="42.1741567" lon="14.6289583"><ele>88.66666666666667</ele><time>2026-04-24T07:56:31.884Z</time></trkpt><trkpt lat="42.1742183" lon="14.6290183"><ele>88.5</ele><time>2026-04-24T07:56:33.884Z</time></trkpt><trkpt lat="42.1742717" lon="14.6290917"><ele>88.33333333333333</ele><time>2026-04-24T07:56:35.884Z</time></trkpt><trkpt lat="42.1743233" lon="14.6291683"><ele>88.16666666666666</ele><time>2026-04-24T07:56:37.884Z</time></trkpt><trkpt lat="42.174375" lon="14.62925"><ele>88.0</ele><time>2026-04-24T07:56:39.884Z</time></trkpt><trkpt lat="42.1744267" lon="14.6293333"><ele>88.0</ele><time>2026-04-24T07:56:41.883Z</time></trkpt><trkpt lat="42.1744783" lon="14.6294133"><ele>88.0</ele><time>2026-04-24T07:56:43.884Z</time></trkpt><trkpt lat="42.174535" lon="14.62949"><ele>88.0</ele><time>2026-04-24T07:56:45.883Z</time></trkpt><trkpt lat="42.17459" lon="14.6295817"><ele>88.0</ele><time>2026-04-24T07:56:47.883Z</time></trkpt><trkpt lat="42.174645" lon="14.6296717"><ele>88.0</ele><time>2026-04-24T07:56:49.884Z</time></trkpt><trkpt lat="42.1747083" lon="14.6297433"><ele>88.0</ele><time>2026-04-24T07:56:51.884Z</time></trkpt><trkpt lat="42.174775" lon="14.6298083"><ele>88.0</ele><time>2026-04-24T07:56:53.884Z</time></trkpt><trkpt lat="42.1748467" lon="14.6298667"><ele>88.0</ele><time>2026-04-24T07:56:55.884Z</time></trkpt><trkpt lat="42.1749183" lon="14.6299283"><ele>88.0</ele><time>2026-04-24T07:56:57.884Z</time></trkpt><trkpt lat="42.17499" lon="14.6299883"><ele>88.0</ele><time>2026-04-24T07:56:59.884Z</time></trkpt><trkpt lat="42.175065" lon="14.6300433"><ele>88.0</ele><time>2026-04-24T07:57:01.883Z</time></trkpt><trkpt lat="42.17514" lon="14.6301117"><ele>88.0</ele><time>2026-04-24T07:57:03.884Z</time></trkpt><trkpt lat="42.175205" lon="14.6301767"><ele>88.0</ele><time>2026-04-24T07:57:05.884Z</time></trkpt><trkpt lat="42.1752717" lon="14.6302567"><ele>88.0</ele><time>2026-04-24T07:57:07.884Z</time></trkpt><trkpt lat="42.1753467" lon="14.6303267"><ele>88.0</ele><time>2026-04-24T07:57:09.884Z</time></trkpt><trkpt lat="42.175425" lon="14.6303917"><ele>88.0</ele><time>2026-04-24T07:57:11.884Z</time></trkpt><trkpt lat="42.1755133" lon="14.63045"><ele>88.0</ele><time>2026-04-24T07:57:13.884Z</time></trkpt><trkpt lat="42.1755917" lon="14.63052"><ele>88.0</ele><time>2026-04-24T07:57:15.884Z</time></trkpt><trkpt lat="42.1756767" lon="14.6305867"><ele>88.0</ele><time>2026-04-24T07:57:17.884Z</time></trkpt><trkpt lat="42.1757533" lon="14.6306583"><ele>88.0</ele><time>2026-04-24T07:57:19.884Z</time></trkpt><trkpt lat="42.175825" lon="14.6307317"><ele>88.0</ele><time>2026-04-24T07:57:21.884Z</time></trkpt><trkpt lat="42.175905" lon="14.6308117"><ele>88.0</ele><time>2026-04-24T07:57:23.884Z</time></trkpt><trkpt lat="42.176" lon="14.6308933"><ele>88.0</ele><time>2026-04-24T07:57:25.884Z</time></trkpt><trkpt lat="42.1760883" lon="14.6309633"><ele>88.0</ele><time>2026-04-24T07:57:27.884Z</time></trkpt><trkpt lat="42.17618" lon="14.63104"><ele>88.0</ele><time>2026-04-24T07:57:29.884Z</time></trkpt><trkpt lat="42.1762733" lon="14.63112"><ele>88.0</ele><time>2026-04-24T07:57:31.884Z</time></trkpt><trkpt lat="42.176365" lon="14.6312067"><ele>88.0</ele><time>2026-04-24T07:57:33.883Z</time></trkpt><trkpt lat="42.17642" lon="14.631255"><ele>87.28571428571429</ele><time>2026-04-24T07:57:34.883Z</time></trkpt><trkpt lat="42.176475" lon="14.631305"><ele>86.57142857142857</ele><time>2026-04-24T07:57:35.884Z</time></trkpt><trkpt lat="42.1765367" lon="14.6313467"><ele>85.85714285714286</ele><time>2026-04-24T07:57:36.884Z</time></trkpt><trkpt lat="42.1765983" lon="14.6313933"><ele>85.14285714285714</ele><time>2026-04-24T07:57:37.884Z</time></trkpt><trkpt lat="42.1766583" lon="14.6314417"><ele>84.42857142857143</ele><time>2026-04-24T07:57:38.884Z</time></trkpt><trkpt lat="42.1767233" lon="14.63149"><ele>83.71428571428571</ele><time>2026-04-24T07:57:39.883Z</time></trkpt><trkpt lat="42.176785" lon="14.63154"><ele>83.0</ele><time>2026-04-24T07:57:40.883Z</time></trkpt><trkpt lat="42.1768483" lon="14.6315883"><ele>82.57142857142857</ele><time>2026-04-24T07:57:41.884Z</time></trkpt><trkpt lat="42.1769167" lon="14.6316333"><ele>82.14285714285715</ele><time>2026-04-24T07:57:42.884Z</time></trkpt><trkpt lat="42.1769817" lon="14.631685"><ele>81.71428571428572</ele><time>2026-04-24T07:57:43.883Z</time></trkpt><trkpt lat="42.17705" lon="14.6317333"><ele>81.28571428571428</ele><time>2026-04-24T07:57:44.883Z</time></trkpt><trkpt lat="42.1771117" lon="14.6317783"><ele>80.85714285714286</ele><time>2026-04-24T07:57:45.884Z</time></trkpt><trkpt lat="42.1771767" lon="14.631825"><ele>80.42857142857143</ele><time>2026-04-24T07:57:46.884Z</time></trkpt><trkpt lat="42.177235" lon="14.6318667"><ele>80.0</ele><time>2026-04-24T07:57:47.884Z</time></trkpt><trkpt lat="42.1772967" lon="14.631915"><ele>79.5</ele><time>2026-04-24T07:57:48.883Z</time></trkpt><trkpt lat="42.1773533" lon="14.63197"><ele>79.0</ele><time>2026-04-24T07:57:49.884Z</time></trkpt><trkpt lat="42.1774217" lon="14.6320183"><ele>78.5</ele><time>2026-04-24T07:57:50.884Z</time></trkpt><trkpt lat="42.1774983" lon="14.632055"><ele>78.0</ele><time>2026-04-24T07:57:51.884Z</time></trkpt><trkpt lat="42.177575" lon="14.6320867"><ele>77.5</ele><time>2026-04-24T07:57:52.884Z</time></trkpt><trkpt lat="42.1776583" lon="14.632105"><ele>77.0</ele><time>2026-04-24T07:57:53.883Z</time></trkpt><trkpt lat="42.1777467" lon="14.6321167"><ele>75.33333333333334</ele><time>2026-04-24T07:57:54.883Z</time></trkpt><trkpt lat="42.17783" lon="14.6321217"><ele>73.66666666666667</ele><time>2026-04-24T07:57:55.884Z</time></trkpt><trkpt lat="42.1779133" lon="14.6321217"><ele>72.0</ele><time>2026-04-24T07:57:56.884Z</time></trkpt><trkpt lat="42.1779933" lon="14.632115"><ele>70.33333333333333</ele><time>2026-04-24T07:57:57.883Z</time></trkpt><trkpt lat="42.1780783" lon="14.6321033"><ele>68.66666666666666</ele><time>2026-04-24T07:57:58.884Z</time></trkpt><trkpt lat="42.1781633" lon="14.6320867"><ele>67.0</ele><time>2026-04-24T07:57:59.884Z</time></trkpt><trkpt lat="42.17825" lon="14.63206"><ele>67.8</ele><time>2026-04-24T07:58:00.883Z</time></trkpt><trkpt lat="42.1783417" lon="14.6320367"><ele>68.6</ele><time>2026-04-24T07:58:01.884Z</time></trkpt><trkpt lat="42.1784283" lon="14.6320083"><ele>69.39999999999999</ele><time>2026-04-24T07:58:02.884Z</time></trkpt><trkpt lat="42.1785217" lon="14.6319767"><ele>70.2</ele><time>2026-04-24T07:58:03.884Z</time></trkpt><trkpt lat="42.1786117" lon="14.6319467"><ele>71.0</ele><time>2026-04-24T07:58:04.884Z</time></trkpt><trkpt lat="42.1787017" lon="14.63192"><ele>71.0</ele><time>2026-04-24T07:58:05.884Z</time></trkpt><trkpt lat="42.17879" lon="14.6318933"><ele>71.0</ele><time>2026-04-24T07:58:06.884Z</time></trkpt><trkpt lat="42.1788767" lon="14.6318617"><ele>71.0</ele><time>2026-04-24T07:58:07.884Z</time></trkpt><trkpt lat="42.17896" lon="14.6318333"><ele>71.0</ele><time>2026-04-24T07:58:08.884Z</time></trkpt><trkpt lat="42.1790433" lon="14.6318083"><ele>71.0</ele><time>2026-04-24T07:58:09.884Z</time></trkpt><trkpt lat="42.1791233" lon="14.63178"><ele>71.0</ele><time>2026-04-24T07:58:10.884Z</time></trkpt><trkpt lat="42.179205" lon="14.6317517"><ele>70.16666666666667</ele><time>2026-04-24T07:58:11.884Z</time></trkpt><trkpt lat="42.1792883" lon="14.6317317"><ele>69.33333333333334</ele><time>2026-04-24T07:58:12.883Z</time></trkpt><trkpt lat="42.1793717" lon="14.6317083"><ele>68.5</ele><time>2026-04-24T07:58:13.884Z</time></trkpt><trkpt lat="42.1794567" lon="14.6316833"><ele>67.66666666666667</ele><time>2026-04-24T07:58:14.884Z</time></trkpt><trkpt lat="42.1795333" lon="14.631665"><ele>66.83333333333333</ele><time>2026-04-24T07:58:15.884Z</time></trkpt><trkpt lat="42.1796183" lon="14.6316417"><ele>66.0</ele><time>2026-04-24T07:58:16.883Z</time></trkpt><trkpt lat="42.1797017" lon="14.63162"><ele>66.0</ele><time>2026-04-24T07:58:17.884Z</time></trkpt><trkpt lat="42.1797867" lon="14.631595"><ele>66.0</ele><time>2026-04-24T07:58:18.883Z</time></trkpt><trkpt lat="42.17987" lon="14.6315733"><ele>66.0</ele><time>2026-04-24T07:58:19.883Z</time></trkpt><trkpt lat="42.1799517" lon="14.6315467"><ele>66.0</ele><time>2026-04-24T07:58:20.884Z</time></trkpt><trkpt lat="42.180035" lon="14.6315217"><ele>66.0</ele><time>2026-04-24T07:58:21.884Z</time></trkpt><trkpt lat="42.1801167" lon="14.6315017"><ele>66.0</ele><time>2026-04-24T07:58:22.884Z</time></trkpt><trkpt lat="42.1801933" lon="14.631475"><ele>65.0</ele><time>2026-04-24T07:58:23.883Z</time></trkpt><trkpt lat="42.180275" lon="14.6314533"><ele>64.0</ele><time>2026-04-24T07:58:24.883Z</time></trkpt><trkpt lat="42.1803583" lon="14.6314317"><ele>63.0</ele><time>2026-04-24T07:58:25.884Z</time></trkpt><trkpt lat="42.18044" lon="14.63141"><ele>62.0</ele><time>2026-04-24T07:58:26.884Z</time></trkpt><trkpt lat="42.1805167" lon="14.6313917"><ele>61.0</ele><time>2026-04-24T07:58:27.883Z</time></trkpt><trkpt lat="42.1805933" lon="14.631365"><ele>60.0</ele><time>2026-04-24T07:58:28.884Z</time></trkpt><trkpt lat="42.1806767" lon="14.6313417"><ele>59.5</ele><time>2026-04-24T07:58:29.884Z</time></trkpt><trkpt lat="42.18076" lon="14.6313133"><ele>59.0</ele><time>2026-04-24T07:58:30.883Z</time></trkpt><trkpt lat="42.1808433" lon="14.6312917"><ele>58.5</ele><time>2026-04-24T07:58:31.883Z</time></trkpt><trkpt lat="42.1809267" lon="14.6312783"><ele>58.0</ele><time>2026-04-24T07:58:32.884Z</time></trkpt><trkpt lat="42.18101" lon="14.6312717"><ele>57.5</ele><time>2026-04-24T07:58:33.884Z</time></trkpt><trkpt lat="42.1810917" lon="14.63128"><ele>57.0</ele><time>2026-04-24T07:58:34.883Z</time></trkpt><trkpt lat="42.1811783" lon="14.6312983"><ele>57.0</ele><time>2026-04-24T07:58:35.884Z</time></trkpt><trkpt lat="42.181265" lon="14.631335"><ele>57.0</ele><time>2026-04-24T07:58:36.884Z</time></trkpt><trkpt lat="42.1813483" lon="14.6313717"><ele>57.0</ele><time>2026-04-24T07:58:37.883Z</time></trkpt><trkpt lat="42.1814333" lon="14.6314117"><ele>57.0</ele><time>2026-04-24T07:58:38.884Z</time></trkpt><trkpt lat="42.1815183" lon="14.6314383"><ele>57.0</ele><time>2026-04-24T07:58:39.884Z</time></trkpt><trkpt lat="42.1816083" lon="14.6314433"><ele>57.0</ele><time>2026-04-24T07:58:40.883Z</time></trkpt><trkpt lat="42.1817" lon="14.6314383"><ele>55.8</ele><time>2026-04-24T07:58:41.883Z</time></trkpt><trkpt lat="42.18179" lon="14.63144"><ele>54.6</ele><time>2026-04-24T07:58:42.884Z</time></trkpt><trkpt lat="42.181885" lon="14.63144"><ele>53.4</ele><time>2026-04-24T07:58:43.884Z</time></trkpt><trkpt lat="42.1819783" lon="14.6314483"><ele>52.199999999999996</ele><time>2026-04-24T07:58:44.883Z</time></trkpt><trkpt lat="42.1820717" lon="14.631445"><ele>51.0</ele><time>2026-04-24T07:58:45.884Z</time></trkpt><trkpt lat="42.1821567" lon="14.63144"><ele>51.0</ele><time>2026-04-24T07:58:46.884Z</time></trkpt><trkpt lat="42.1822433" lon="14.6314367"><ele>51.0</ele><time>2026-04-24T07:58:47.883Z</time></trkpt><trkpt lat="42.1823233" lon="14.6314333"><ele>51.0</ele><time>2026-04-24T07:58:48.883Z</time></trkpt><trkpt lat="42.1824083" lon="14.6314183"><ele>51.0</ele><time>2026-04-24T07:58:49.884Z</time></trkpt><trkpt lat="42.182495" lon="14.6314"><ele>51.0</ele><time>2026-04-24T07:58:50.884Z</time></trkpt><trkpt lat="42.18258" lon="14.63138"><ele>51.0</ele><time>2026-04-24T07:58:51.883Z</time></trkpt><trkpt lat="42.182665" lon="14.6313567"><ele>49.5</ele><time>2026-04-24T07:58:52.884Z</time></trkpt><trkpt lat="42.1827483" lon="14.631325"><ele>48.0</ele><time>2026-04-24T07:58:53.884Z</time></trkpt><trkpt lat="42.182835" lon="14.6313083"><ele>46.5</ele><time>2026-04-24T07:58:54.884Z</time></trkpt><trkpt lat="42.1829217" lon="14.6313033"><ele>45.0</ele><time>2026-04-24T07:58:55.883Z</time></trkpt><trkpt lat="42.1830083" lon="14.6313117"><ele>43.5</ele><time>2026-04-24T07:58:56.884Z</time></trkpt><trkpt lat="42.1830883" lon="14.63134"><ele>42.0</ele><time>2026-04-24T07:58:57.883Z</time></trkpt><trkpt lat="42.183165" lon="14.6313783"><ele>40.666666666666664</ele><time>2026-04-24T07:58:58.884Z</time></trkpt><trkpt lat="42.1832383" lon="14.631435"><ele>39.333333333333336</ele><time>2026-04-24T07:58:59.884Z</time></trkpt><trkpt lat="42.1833033" lon="14.6314983"><ele>38.0</ele><time>2026-04-24T07:59:00.883Z</time></trkpt><trkpt lat="42.1833683" lon="14.6315717"><ele>36.66666666666667</ele><time>2026-04-24T07:59:01.883Z</time></trkpt><trkpt lat="42.1834317" lon="14.631635"><ele>35.333333333333336</ele><time>2026-04-24T07:59:02.884Z</time></trkpt><trkpt lat="42.1834883" lon="14.6317"><ele>34.0</ele><time>2026-04-24T07:59:03.883Z</time></trkpt><trkpt lat="42.183545" lon="14.6317583"><ele>34.0</ele><time>2026-04-24T07:59:04.884Z</time></trkpt><trkpt lat="42.1836033" lon="14.63182"><ele>34.0</ele><time>2026-04-24T07:59:05.883Z</time></trkpt><trkpt lat="42.1836567" lon="14.6318867"><ele>34.0</ele><time>2026-04-24T07:59:06.884Z</time></trkpt><trkpt lat="42.1837167" lon="14.6319583"><ele>34.0</ele><time>2026-04-24T07:59:07.884Z</time></trkpt><trkpt lat="42.183785" lon="14.6320333"><ele>34.0</ele><time>2026-04-24T07:59:08.883Z</time></trkpt><trkpt lat="42.183855" lon="14.6321083"><ele>34.0</ele><time>2026-04-24T07:59:09.883Z</time></trkpt><trkpt lat="42.1839233" lon="14.6321833"><ele>32.8</ele><time>2026-04-24T07:59:10.884Z</time></trkpt><trkpt lat="42.1839967" lon="14.6322617"><ele>31.599999999999998</ele><time>2026-04-24T07:59:11.884Z</time></trkpt><trkpt lat="42.18407" lon="14.6323433"><ele>30.4</ele><time>2026-04-24T07:59:12.883Z</time></trkpt><trkpt lat="42.1841417" lon="14.6324317"><ele>29.2</ele><time>2026-04-24T07:59:13.884Z</time></trkpt><trkpt lat="42.184225" lon="14.6325217"><ele>28.0</ele><time>2026-04-24T07:59:14.884Z</time></trkpt><trkpt lat="42.1843067" lon="14.6326067"><ele>27.0</ele><time>2026-04-24T07:59:15.884Z</time></trkpt><trkpt lat="42.1843883" lon="14.6327"><ele>25.999999999999996</ele><time>2026-04-24T07:59:16.884Z</time></trkpt><trkpt lat="42.1844733" lon="14.632795"><ele>25.0</ele><time>2026-04-24T07:59:17.883Z</time></trkpt><trkpt lat="42.1845617" lon="14.6328867"><ele>24.0</ele><time>2026-04-24T07:59:18.883Z</time></trkpt><trkpt lat="42.1846433" lon="14.63298"><ele>23.0</ele><time>2026-04-24T07:59:19.884Z</time></trkpt><trkpt lat="42.184725" lon="14.6330717"><ele>22.2</ele><time>2026-04-24T07:59:20.884Z</time></trkpt><trkpt lat="42.1848083" lon="14.6331517"><ele>21.4</ele><time>2026-04-24T07:59:21.883Z</time></trkpt><trkpt lat="42.1848867" lon="14.6332367"><ele>20.599999999999998</ele><time>2026-04-24T07:59:22.884Z</time></trkpt><trkpt lat="42.18496" lon="14.6333217"><ele>19.799999999999997</ele><time>2026-04-24T07:59:23.884Z</time></trkpt><trkpt lat="42.1850283" lon="14.6334017"><ele>19.0</ele><time>2026-04-24T07:59:24.884Z</time></trkpt><trkpt lat="42.185095" lon="14.6334717"><ele>18.857142857142858</ele><time>2026-04-24T07:59:25.884Z</time></trkpt><trkpt lat="42.1851583" lon="14.6335417"><ele>18.714285714285715</ele><time>2026-04-24T07:59:26.884Z</time></trkpt><trkpt lat="42.1852167" lon="14.6336133"><ele>18.571428571428573</ele><time>2026-04-24T07:59:27.884Z</time></trkpt><trkpt lat="42.1852767" lon="14.6336767"><ele>18.42857142857143</ele><time>2026-04-24T07:59:28.884Z</time></trkpt><trkpt lat="42.1853333" lon="14.6337267"><ele>18.285714285714285</ele><time>2026-04-24T07:59:29.884Z</time></trkpt><trkpt lat="42.1853883" lon="14.6337833"><ele>18.142857142857146</ele><time>2026-04-24T07:59:30.884Z</time></trkpt><trkpt lat="42.1854367" lon="14.6338383"><ele>18.0</ele><time>2026-04-24T07:59:31.883Z</time></trkpt><trkpt lat="42.1855167" lon="14.6339317"><ele>17.2</ele><time>2026-04-24T07:59:33.883Z</time></trkpt><trkpt lat="42.18561" lon="14.6339933"><ele>16.4</ele><time>2026-04-24T07:59:35.884Z</time></trkpt><trkpt lat="42.185715" lon="14.6339933"><ele>15.599999999999998</ele><time>2026-04-24T07:59:37.883Z</time></trkpt><trkpt lat="42.18581" lon="14.6339833"><ele>14.799999999999999</ele><time>2026-04-24T07:59:39.884Z</time></trkpt><trkpt lat="42.1859083" lon="14.6339717"><ele>14.0</ele><time>2026-04-24T07:59:41.883Z</time></trkpt><trkpt lat="42.1860083" lon="14.6339633"><ele>13.799999999999999</ele><time>2026-04-24T07:59:43.884Z</time></trkpt><trkpt lat="42.1861067" lon="14.6339417"><ele>13.599999999999998</ele><time>2026-04-24T07:59:45.884Z</time></trkpt><trkpt lat="42.186195" lon="14.6339283"><ele>13.4</ele><time>2026-04-24T07:59:47.883Z</time></trkpt><trkpt lat="42.1862867" lon="14.6339083"><ele>13.2</ele><time>2026-04-24T07:59:49.883Z</time></trkpt><trkpt lat="42.1863783" lon="14.633895"><ele>13.0</ele><time>2026-04-24T07:59:51.884Z</time></trkpt><trkpt lat="42.1864783" lon="14.6338767"><ele>12.8</ele><time>2026-04-24T07:59:53.884Z</time></trkpt><trkpt lat="42.1865817" lon="14.63385"><ele>12.600000000000001</ele><time>2026-04-24T07:59:55.883Z</time></trkpt><trkpt lat="42.1866933" lon="14.6338267"><ele>12.399999999999999</ele><time>2026-04-24T07:59:57.883Z</time></trkpt><trkpt lat="42.1867917" lon="14.63381"><ele>12.2</ele><time>2026-04-24T07:59:59.884Z</time></trkpt><trkpt lat="42.1868917" lon="14.633795"><ele>12.0</ele><time>2026-04-24T08:00:01.884Z</time></trkpt><trkpt lat="42.1870017" lon="14.633775"><ele>12.0</ele><time>2026-04-24T08:00:03.883Z</time></trkpt><trkpt lat="42.1870983" lon="14.6337483"><ele>12.0</ele><time>2026-04-24T08:00:05.884Z</time></trkpt><trkpt lat="42.1872033" lon="14.6337367"><ele>12.0</ele><time>2026-04-24T08:00:07.883Z</time></trkpt><trkpt lat="42.1873033" lon="14.633725"><ele>12.0</ele><time>2026-04-24T08:00:09.883Z</time></trkpt><trkpt lat="42.1873983" lon="14.6337033"><ele>12.0</ele><time>2026-04-24T08:00:11.884Z</time></trkpt><trkpt lat="42.1874767" lon="14.6336867"><ele>11.999999999999998</ele><time>2026-04-24T08:00:13.884Z</time></trkpt><trkpt lat="42.1875567" lon="14.6336783"><ele>12.0</ele><time>2026-04-24T08:00:15.884Z</time></trkpt><trkpt lat="42.1876333" lon="14.6336733"><ele>12.0</ele><time>2026-04-24T08:00:17.884Z</time></trkpt><trkpt lat="42.1877033" lon="14.6336567"><ele>12.0</ele><time>2026-04-24T08:00:19.884Z</time></trkpt><trkpt lat="42.1877733" lon="14.6336467"><ele>12.0</ele><time>2026-04-24T08:00:21.884Z</time></trkpt><trkpt lat="42.1878367" lon="14.6336383"><ele>11.999999999999998</ele><time>2026-04-24T08:00:23.883Z</time></trkpt><trkpt lat="42.1879183" lon="14.6336283"><ele>12.0</ele><time>2026-04-24T08:00:26.884Z</time></trkpt><trkpt lat="42.1880033" lon="14.6336083"><ele>12.5</ele><time>2026-04-24T08:00:29.884Z</time></trkpt><trkpt lat="42.1880933" lon="14.6336017"><ele>13.0</ele><time>2026-04-24T08:00:32.883Z</time></trkpt><trkpt lat="42.1881783" lon="14.6335883"><ele>13.5</ele><time>2026-04-24T08:00:35.884Z</time></trkpt><trkpt lat="42.1882417" lon="14.6335733"><ele>14.0</ele><time>2026-04-24T08:00:37.884Z</time></trkpt><trkpt lat="42.188305" lon="14.6335617"><ele>14.5</ele><time>2026-04-24T08:00:39.884Z</time></trkpt><trkpt lat="42.1883917" lon="14.6335483"><ele>15.0</ele><time>2026-04-24T08:00:42.884Z</time></trkpt><trkpt lat="42.18848" lon="14.6335333"><ele>15.5</ele><time>2026-04-24T08:00:45.883Z</time></trkpt><trkpt lat="42.18857" lon="14.6335217"><ele>16.0</ele><time>2026-04-24T08:00:48.883Z</time></trkpt><trkpt lat="42.1886567" lon="14.6335117"><ele>16.5</ele><time>2026-04-24T08:00:51.884Z</time></trkpt><trkpt lat="42.1887467" lon="14.6334933"><ele>17.0</ele><time>2026-04-24T08:00:54.884Z</time></trkpt><trkpt lat="42.1888133" lon="14.633485"><ele>17.5</ele><time>2026-04-24T08:00:56.883Z</time></trkpt><trkpt lat="42.188885" lon="14.6334683"><ele>18.0</ele><time>2026-04-24T08:00:58.883Z</time></trkpt><trkpt lat="42.1889583" lon="14.6334533"><ele>18.142857142857146</ele><time>2026-04-24T08:01:00.884Z</time></trkpt><trkpt lat="42.1890367" lon="14.633445"><ele>18.285714285714285</ele><time>2026-04-24T08:01:02.883Z</time></trkpt><trkpt lat="42.1891017" lon="14.633435"><ele>18.42857142857143</ele><time>2026-04-24T08:01:04.884Z</time></trkpt><trkpt lat="42.1891767" lon="14.63342"><ele>18.571428571428573</ele><time>2026-04-24T08:01:06.884Z</time></trkpt><trkpt lat="42.1892483" lon="14.6334133"><ele>18.714285714285715</ele><time>2026-04-24T08:01:08.884Z</time></trkpt><trkpt lat="42.1893167" lon="14.6333967"><ele>18.857142857142858</ele><time>2026-04-24T08:01:10.884Z</time></trkpt><trkpt lat="42.189385" lon="14.6333767"><ele>19.0</ele><time>2026-04-24T08:01:12.883Z</time></trkpt><trkpt lat="42.1894483" lon="14.6333633"><ele>19.0</ele><time>2026-04-24T08:01:14.883Z</time></trkpt><trkpt lat="42.189515" lon="14.6333417"><ele>19.0</ele><time>2026-04-24T08:01:16.884Z</time></trkpt><trkpt lat="42.1895783" lon="14.63333"><ele>19.0</ele><time>2026-04-24T08:01:18.884Z</time></trkpt><trkpt lat="42.1896533" lon="14.6333233"><ele>19.0</ele><time>2026-04-24T08:01:20.884Z</time></trkpt><trkpt lat="42.18972" lon="14.63331"><ele>19.0</ele><time>2026-04-24T08:01:22.884Z</time></trkpt><trkpt lat="42.1897883" lon="14.6332967"><ele>19.0</ele><time>2026-04-24T08:01:24.883Z</time></trkpt><trkpt lat="42.1898533" lon="14.6332733"><ele>19.0</ele><time>2026-04-24T08:01:26.884Z</time></trkpt><trkpt lat="42.189915" lon="14.6332467"><ele>19.0</ele><time>2026-04-24T08:01:28.883Z</time></trkpt><trkpt lat="42.189975" lon="14.63322"><ele>19.0</ele><time>2026-04-24T08:01:30.883Z</time></trkpt><trkpt lat="42.19006" lon="14.6331817"><ele>19.0</ele><time>2026-04-24T08:01:33.884Z</time></trkpt><trkpt lat="42.1901517" lon="14.6331733"><ele>19.0</ele><time>2026-04-24T08:01:36.883Z</time></trkpt><trkpt lat="42.19022" lon="14.6331833"><ele>19.0</ele><time>2026-04-24T08:01:38.884Z</time></trkpt><trkpt lat="42.1902983" lon="14.6331867"><ele>19.0</ele><time>2026-04-24T08:01:40.884Z</time></trkpt><trkpt lat="42.190385" lon="14.6331783"><ele>19.0</ele><time>2026-04-24T08:01:42.884Z</time></trkpt><trkpt lat="42.1904717" lon="14.6331683"><ele>19.0</ele><time>2026-04-24T08:01:44.884Z</time></trkpt><trkpt lat="42.190555" lon="14.6331633"><ele>19.0</ele><time>2026-04-24T08:01:46.884Z</time></trkpt><trkpt lat="42.1906467" lon="14.6331583"><ele>19.0</ele><time>2026-04-24T08:01:48.884Z</time></trkpt><trkpt lat="42.1907333" lon="14.6331517"><ele>19.0</ele><time>2026-04-24T08:01:50.884Z</time></trkpt><trkpt lat="42.190825" lon="14.6331433"><ele>19.0</ele><time>2026-04-24T08:01:52.884Z</time></trkpt><trkpt lat="42.1909217" lon="14.6331283"><ele>18.166666666666664</ele><time>2026-04-24T08:01:54.884Z</time></trkpt><trkpt lat="42.1910167" lon="14.6331283"><ele>17.333333333333332</ele><time>2026-04-24T08:01:56.883Z</time></trkpt><trkpt lat="42.191105" lon="14.633125"><ele>16.5</ele><time>2026-04-24T08:01:58.884Z</time></trkpt><trkpt lat="42.191185" lon="14.6331217"><ele>15.666666666666668</ele><time>2026-04-24T08:02:00.884Z</time></trkpt><trkpt lat="42.1912533" lon="14.6331167"><ele>14.833333333333334</ele><time>2026-04-24T08:02:02.883Z</time></trkpt><trkpt lat="42.1913183" lon="14.6331033"><ele>14.0</ele><time>2026-04-24T08:02:04.884Z</time></trkpt><trkpt lat="42.1914133" lon="14.6330983"><ele>14.000000000000002</ele><time>2026-04-24T08:02:07.884Z</time></trkpt><trkpt lat="42.1914817" lon="14.6330883"><ele>14.0</ele><time>2026-04-24T08:02:09.884Z</time></trkpt><trkpt lat="42.1915733" lon="14.6330667"><ele>14.0</ele><time>2026-04-24T08:02:12.884Z</time></trkpt><trkpt lat="42.1916633" lon="14.6330333"><ele>14.0</ele><time>2026-04-24T08:02:15.884Z</time></trkpt><trkpt lat="42.1917283" lon="14.6330067"><ele>14.000000000000002</ele><time>2026-04-24T08:02:17.883Z</time></trkpt><trkpt lat="42.191815" lon="14.63298"><ele>14.0</ele><time>2026-04-24T08:02:20.884Z</time></trkpt><trkpt lat="42.1918867" lon="14.6329833"><ele>13.500000000000002</ele><time>2026-04-24T08:02:23.884Z</time></trkpt><trkpt lat="42.191945" lon="14.6330367"><ele>13.0</ele><time>2026-04-24T08:02:26.884Z</time></trkpt><trkpt lat="42.1919983" lon="14.6331017"><ele>12.5</ele><time>2026-04-24T08:02:29.883Z</time></trkpt><trkpt lat="42.19207" lon="14.633155"><ele>12.0</ele><time>2026-04-24T08:02:32.884Z</time></trkpt><trkpt lat="42.192165" lon="14.6331767"><ele>11.5</ele><time>2026-04-24T08:02:35.883Z</time></trkpt><trkpt lat="42.1922517" lon="14.6332"><ele>11.0</ele><time>2026-04-24T08:02:38.884Z</time></trkpt><trkpt lat="42.1923333" lon="14.6332133"><ele>11.5</ele><time>2026-04-24T08:02:41.884Z</time></trkpt><trkpt lat="42.192405" lon="14.6331933"><ele>12.0</ele><time>2026-04-24T08:02:44.884Z</time></trkpt><trkpt lat="42.1924883" lon="14.633185"><ele>12.5</ele><time>2026-04-24T08:02:48.883Z</time></trkpt><trkpt lat="42.192575" lon="14.6331617"><ele>13.0</ele><time>2026-04-24T08:02:51.884Z</time></trkpt><trkpt lat="42.1926433" lon="14.6331333"><ele>13.500000000000002</ele><time>2026-04-24T08:02:53.883Z</time></trkpt><trkpt lat="42.1927167" lon="14.6331017"><ele>14.0</ele><time>2026-04-24T08:02:55.883Z</time></trkpt><trkpt lat="42.192795" lon="14.63306"><ele>14.000000000000002</ele><time>2026-04-24T08:02:57.884Z</time></trkpt><trkpt lat="42.192875" lon="14.6330117"><ele>14.0</ele><time>2026-04-24T08:02:59.884Z</time></trkpt><trkpt lat="42.1929633" lon="14.63296"><ele>14.0</ele><time>2026-04-24T08:03:01.884Z</time></trkpt><trkpt lat="42.1930483" lon="14.6328917"><ele>14.0</ele><time>2026-04-24T08:03:03.884Z</time></trkpt><trkpt lat="42.1931033" lon="14.6328467"><ele>14.000000000000002</ele><time>2026-04-24T08:03:04.883Z</time></trkpt><trkpt lat="42.1931583" lon="14.63274"><ele>14.0</ele><time>2026-04-24T08:03:06.884Z</time></trkpt><trkpt lat="42.193215" lon="14.6326267"><ele>13.2</ele><time>2026-04-24T08:03:08.883Z</time></trkpt><trkpt lat="42.1933067" lon="14.6325433"><ele>12.399999999999999</ele><time>2026-04-24T08:03:10.884Z</time></trkpt><trkpt lat="42.1934317" lon="14.63251"><ele>11.6</ele><time>2026-04-24T08:03:12.884Z</time></trkpt><trkpt lat="42.1934917" lon="14.6324833"><ele>10.8</ele><time>2026-04-24T08:03:13.884Z</time></trkpt><trkpt lat="42.19358" lon="14.632375"><ele>10.0</ele><time>2026-04-24T08:03:15.883Z</time></trkpt><trkpt lat="42.193635" lon="14.632235"><ele>10.0</ele><time>2026-04-24T08:03:17.884Z</time></trkpt><trkpt lat="42.1937083" lon="14.632095"><ele>10.0</ele><time>2026-04-24T08:03:19.884Z</time></trkpt><trkpt lat="42.19375" lon="14.63202"><ele>10.0</ele><time>2026-04-24T08:03:20.884Z</time></trkpt><trkpt lat="42.1937833" lon="14.6319383"><ele>10.0</ele><time>2026-04-24T08:03:21.884Z</time></trkpt><trkpt lat="42.1938167" lon="14.6318617"><ele>10.0</ele><time>2026-04-24T08:03:22.884Z</time></trkpt><trkpt lat="42.1938733" lon="14.63173"><ele>10.0</ele><time>2026-04-24T08:03:24.884Z</time></trkpt><trkpt lat="42.1939283" lon="14.6316033"><ele>10.166666666666668</ele><time>2026-04-24T08:03:26.883Z</time></trkpt><trkpt lat="42.1939767" lon="14.6314867"><ele>10.333333333333334</ele><time>2026-04-24T08:03:28.883Z</time></trkpt><trkpt lat="42.19402" lon="14.6313783"><ele>10.5</ele><time>2026-04-24T08:03:30.884Z</time></trkpt><trkpt lat="42.19406" lon="14.6312783"><ele>10.666666666666666</ele><time>2026-04-24T08:03:32.883Z</time></trkpt><trkpt lat="42.1941" lon="14.631185"><ele>10.833333333333332</ele><time>2026-04-24T08:03:34.883Z</time></trkpt><trkpt lat="42.1941383" lon="14.6310933"><ele>11.0</ele><time>2026-04-24T08:03:36.884Z</time></trkpt><trkpt lat="42.19417" lon="14.6310067"><ele>10.166666666666666</ele><time>2026-04-24T08:03:38.884Z</time></trkpt><trkpt lat="42.194205" lon="14.6309133"><ele>9.333333333333332</ele><time>2026-04-24T08:03:40.884Z</time></trkpt><trkpt lat="42.1942433" lon="14.630805"><ele>8.5</ele><time>2026-04-24T08:03:42.884Z</time></trkpt><trkpt lat="42.194285" lon="14.6307283"><ele>7.666666666666666</ele><time>2026-04-24T08:03:44.884Z</time></trkpt><trkpt lat="42.1943233" lon="14.6306533"><ele>6.833333333333333</ele><time>2026-04-24T08:03:46.883Z</time></trkpt><trkpt lat="42.19436" lon="14.6305617"><ele>6.0</ele><time>2026-04-24T08:03:48.883Z</time></trkpt><trkpt lat="42.1943933" lon="14.63047"><ele>5.999999999999999</ele><time>2026-04-24T08:03:50.884Z</time></trkpt><trkpt lat="42.194425" lon="14.630375"><ele>6.0</ele><time>2026-04-24T08:03:52.884Z</time></trkpt><trkpt lat="42.1944567" lon="14.6302867"><ele>6.0</ele><time>2026-04-24T08:03:54.884Z</time></trkpt><trkpt lat="42.194485" lon="14.6301983"><ele>6.0</ele><time>2026-04-24T08:03:56.884Z</time></trkpt><trkpt lat="42.194515" lon="14.630105"><ele>6.0</ele><time>2026-04-24T08:03:58.883Z</time></trkpt><trkpt lat="42.19455" lon="14.6300117"><ele>5.999999999999999</ele><time>2026-04-24T08:04:00.884Z</time></trkpt><trkpt lat="42.194585" lon="14.6299217"><ele>6.0</ele><time>2026-04-24T08:04:02.883Z</time></trkpt><trkpt lat="42.1946133" lon="14.6298267"><ele>6.333333333333333</ele><time>2026-04-24T08:04:04.883Z</time></trkpt><trkpt lat="42.19465" lon="14.6297317"><ele>6.666666666666666</ele><time>2026-04-24T08:04:06.883Z</time></trkpt><trkpt lat="42.1946833" lon="14.62964"><ele>7.0</ele><time>2026-04-24T08:04:08.884Z</time></trkpt><trkpt lat="42.19472" lon="14.629565"><ele>7.333333333333333</ele><time>2026-04-24T08:04:10.883Z</time></trkpt><trkpt lat="42.1947633" lon="14.62945"><ele>7.666666666666666</ele><time>2026-04-24T08:04:13.883Z</time></trkpt><trkpt lat="42.1947933" lon="14.6293367"><ele>8.0</ele><time>2026-04-24T08:04:16.884Z</time></trkpt><trkpt lat="42.1948183" lon="14.6292583"><ele>7.666666666666666</ele><time>2026-04-24T08:04:18.883Z</time></trkpt><trkpt lat="42.1948617" lon="14.6291533"><ele>7.333333333333333</ele><time>2026-04-24T08:04:21.884Z</time></trkpt><trkpt lat="42.1949" lon="14.6290517"><ele>7.0</ele><time>2026-04-24T08:04:24.883Z</time></trkpt><trkpt lat="42.1949383" lon="14.628955"><ele>6.666666666666666</ele><time>2026-04-24T08:04:27.884Z</time></trkpt><trkpt lat="42.1949783" lon="14.62886"><ele>6.333333333333333</ele><time>2026-04-24T08:04:30.884Z</time></trkpt><trkpt lat="42.1950167" lon="14.6287567"><ele>6.0</ele><time>2026-04-24T08:04:33.884Z</time></trkpt><trkpt lat="42.19506" lon="14.628645"><ele>6.333333333333333</ele><time>2026-04-24T08:04:36.883Z</time></trkpt><trkpt lat="42.1950917" lon="14.6285617"><ele>6.666666666666666</ele><time>2026-04-24T08:04:38.884Z</time></trkpt><trkpt lat="42.1951233" lon="14.628475"><ele>7.0</ele><time>2026-04-24T08:04:40.884Z</time></trkpt><trkpt lat="42.1951567" lon="14.6283733"><ele>7.333333333333333</ele><time>2026-04-24T08:04:42.883Z</time></trkpt><trkpt lat="42.1951717" lon="14.6282517"><ele>7.666666666666666</ele><time>2026-04-24T08:04:44.884Z</time></trkpt><trkpt lat="42.1951467" lon="14.6281433"><ele>8.0</ele><time>2026-04-24T08:04:46.884Z</time></trkpt><trkpt lat="42.1950933" lon="14.6280683"><ele>8.0</ele><time>2026-04-24T08:04:48.883Z</time></trkpt><trkpt lat="42.195035" lon="14.6280267"><ele>7.999999999999999</ele><time>2026-04-24T08:04:50.884Z</time></trkpt><trkpt lat="42.1949667" lon="14.6279683"><ele>8.0</ele><time>2026-04-24T08:04:53.883Z</time></trkpt><trkpt lat="42.1949083" lon="14.62793"><ele>8.0</ele><time>2026-04-24T08:04:55.883Z</time></trkpt><trkpt lat="42.1948517" lon="14.6278817"><ele>7.999999999999999</ele><time>2026-04-24T08:04:57.884Z</time></trkpt><trkpt lat="42.1948233" lon="14.627805"><ele>8.0</ele><time>2026-04-24T08:04:59.883Z</time></trkpt><trkpt lat="42.1948183" lon="14.627705"><ele>8.0</ele><time>2026-04-24T08:05:02.884Z</time></trkpt><trkpt lat="42.1948333" lon="14.6276133"><ele>8.166666666666666</ele><time>2026-04-24T08:05:05.883Z</time></trkpt><trkpt lat="42.1948617" lon="14.6275283"><ele>8.333333333333332</ele><time>2026-04-24T08:05:08.884Z</time></trkpt><trkpt lat="42.1949233" lon="14.6274267"><ele>8.5</ele><time>2026-04-24T08:05:11.883Z</time></trkpt><trkpt lat="42.1950033" lon="14.6274017"><ele>8.666666666666666</ele><time>2026-04-24T08:05:13.884Z</time></trkpt><trkpt lat="42.1950983" lon="14.627415"><ele>8.833333333333334</ele><time>2026-04-24T08:05:15.884Z</time></trkpt><trkpt lat="42.1951917" lon="14.6274567"><ele>9.0</ele><time>2026-04-24T08:05:17.884Z</time></trkpt><trkpt lat="42.1952967" lon="14.6275483"><ele>9.0</ele><time>2026-04-24T08:05:19.883Z</time></trkpt><trkpt lat="42.1953433" lon="14.6276217"><ele>9.0</ele><time>2026-04-24T08:05:20.884Z</time></trkpt><trkpt lat="42.19539" lon="14.6276983"><ele>9.0</ele><time>2026-04-24T08:05:21.883Z</time></trkpt><trkpt lat="42.1954317" lon="14.6277783"><ele>9.0</ele><time>2026-04-24T08:05:22.884Z</time></trkpt><trkpt lat="42.1954733" lon="14.6278617"><ele>9.0</ele><time>2026-04-24T08:05:23.883Z</time></trkpt><trkpt lat="42.1955317" lon="14.62794"><ele>9.0</ele><time>2026-04-24T08:05:24.884Z</time></trkpt><trkpt lat="42.1955667" lon="14.6280383"><ele>8.833333333333334</ele><time>2026-04-24T08:05:25.884Z</time></trkpt><trkpt lat="42.1956033" lon="14.6281233"><ele>8.666666666666666</ele><time>2026-04-24T08:05:26.884Z</time></trkpt><trkpt lat="42.1956583" lon="14.6282383"><ele>8.5</ele><time>2026-04-24T08:05:28.884Z</time></trkpt><trkpt lat="42.1957083" lon="14.6283567"><ele>8.333333333333332</ele><time>2026-04-24T08:05:30.884Z</time></trkpt><trkpt lat="42.1957483" lon="14.6284567"><ele>8.166666666666666</ele><time>2026-04-24T08:05:32.884Z</time></trkpt><trkpt lat="42.1957767" lon="14.628555"><ele>8.0</ele><time>2026-04-24T08:05:34.884Z</time></trkpt><trkpt lat="42.1958067" lon="14.6286533"><ele>7.428571428571428</ele><time>2026-04-24T08:05:36.884Z</time></trkpt><trkpt lat="42.1958317" lon="14.6287467"><ele>6.857142857142856</ele><time>2026-04-24T08:05:38.884Z</time></trkpt><trkpt lat="42.1958467" lon="14.6288333"><ele>6.285714285714286</ele><time>2026-04-24T08:05:40.884Z</time></trkpt><trkpt lat="42.1958583" lon="14.6289183"><ele>5.7142857142857135</ele><time>2026-04-24T08:05:42.883Z</time></trkpt><trkpt lat="42.1958733" lon="14.629045"><ele>5.142857142857142</ele><time>2026-04-24T08:05:45.883Z</time></trkpt><trkpt lat="42.195875" lon="14.62913"><ele>4.571428571428571</ele><time>2026-04-24T08:05:47.884Z</time></trkpt><trkpt lat="42.195875" lon="14.629215"><ele>4.0</ele><time>2026-04-24T08:05:49.883Z</time></trkpt><trkpt lat="42.195925" lon="14.6292933"><ele>3.9999999999999996</ele><time>2026-04-24T08:05:52.883Z</time></trkpt><trkpt lat="42.1959767" lon="14.6292183"><ele>4.0</ele><time>2026-04-24T08:05:55.884Z</time></trkpt><trkpt lat="42.19599" lon="14.6291267"><ele>4.0</ele><time>2026-04-24T08:05:57.884Z</time></trkpt><trkpt lat="42.1960067" lon="14.629035"><ele>4.0</ele><time>2026-04-24T08:05:59.883Z</time></trkpt><trkpt lat="42.1960583" lon="14.6289517"><ele>3.9999999999999996</ele><time>2026-04-24T08:06:21.884Z</time></trkpt><trkpt lat="42.1960883" lon="14.6288433"><ele>4.0</ele><time>2026-04-24T08:06:24.884Z</time></trkpt><trkpt lat="42.1961167" lon="14.6287217"><ele>4.0</ele><time>2026-04-24T08:06:27.883Z</time></trkpt><trkpt lat="42.1961317" lon="14.6286333"><ele>3.9999999999999996</ele><time>2026-04-24T08:06:29.884Z</time></trkpt><trkpt lat="42.1961483" lon="14.6285383"><ele>4.0</ele><time>2026-04-24T08:06:31.884Z</time></trkpt><trkpt lat="42.19617" lon="14.62845"><ele>4.0</ele><time>2026-04-24T08:06:33.884Z</time></trkpt><trkpt lat="42.1962" lon="14.6283617"><ele>3.9999999999999996</ele><time>2026-04-24T08:06:35.883Z</time></trkpt><trkpt lat="42.196235" lon="14.6282733"><ele>4.0</ele><time>2026-04-24T08:06:37.884Z</time></trkpt><trkpt lat="42.19627" lon="14.6281833"><ele>4.0</ele><time>2026-04-24T08:06:39.884Z</time></trkpt><trkpt lat="42.1963017" lon="14.628095"><ele>3.9999999999999996</ele><time>2026-04-24T08:06:41.884Z</time></trkpt><trkpt lat="42.1963367" lon="14.6280017"><ele>4.0</ele><time>2026-04-24T08:06:43.883Z</time></trkpt><trkpt lat="42.1963633" lon="14.62791"><ele>4.0</ele><time>2026-04-24T08:06:45.884Z</time></trkpt><trkpt lat="42.196395" lon="14.6278083"><ele>4.0</ele><time>2026-04-24T08:06:47.884Z</time></trkpt><trkpt lat="42.19643" lon="14.627715"><ele>3.9999999999999996</ele><time>2026-04-24T08:06:49.884Z</time></trkpt><trkpt lat="42.19646" lon="14.6276283"><ele>4.0</ele><time>2026-04-24T08:06:51.883Z</time></trkpt><trkpt lat="42.1964883" lon="14.62754"><ele>3.6666666666666665</ele><time>2026-04-24T08:06:53.884Z</time></trkpt><trkpt lat="42.1965267" lon="14.62744"><ele>3.333333333333333</ele><time>2026-04-24T08:06:55.884Z</time></trkpt><trkpt lat="42.1965567" lon="14.62735"><ele>3.0</ele><time>2026-04-24T08:06:57.883Z</time></trkpt><trkpt lat="42.1965867" lon="14.6272567"><ele>2.6666666666666665</ele><time>2026-04-24T08:06:59.883Z</time></trkpt><trkpt lat="42.1966217" lon="14.62716"><ele>2.333333333333333</ele><time>2026-04-24T08:07:01.884Z</time></trkpt><trkpt lat="42.1966633" lon="14.6270633"><ele>2.0</ele><time>2026-04-24T08:07:03.884Z</time></trkpt><trkpt lat="42.1967" lon="14.626965"><ele>1.6666666666666665</ele><time>2026-04-24T08:07:05.884Z</time></trkpt><trkpt lat="42.196735" lon="14.626875"><ele>1.3333333333333333</ele><time>2026-04-24T08:07:07.884Z</time></trkpt><trkpt lat="42.19677" lon="14.6267967"><ele>1.0</ele><time>2026-04-24T08:07:09.883Z</time></trkpt><trkpt lat="42.1968017" lon="14.6267"><ele>0.6666666666666666</ele><time>2026-04-24T08:07:11.883Z</time></trkpt><trkpt lat="42.1968317" lon="14.6265933"><ele>0.3333333333333333</ele><time>2026-04-24T08:07:13.884Z</time></trkpt><trkpt lat="42.196865" lon="14.6265"><ele>0.0</ele><time>2026-04-24T08:07:15.884Z</time></trkpt><trkpt lat="42.1968967" lon="14.626395"><ele>0.0</ele><time>2026-04-24T08:07:17.883Z</time></trkpt><trkpt lat="42.19693" lon="14.626295"><ele>0.0</ele><time>2026-04-24T08:07:19.884Z</time></trkpt><trkpt lat="42.1969633" lon="14.626205"><ele>0.0</ele><time>2026-04-24T08:07:21.883Z</time></trkpt><trkpt lat="42.1969933" lon="14.62611"><ele>0.0</ele><time>2026-04-24T08:07:23.884Z</time></trkpt><trkpt lat="42.1970283" lon="14.6260167"><ele>0.0</ele><time>2026-04-24T08:07:25.883Z</time></trkpt><trkpt lat="42.19706" lon="14.6259217"><ele>0.0</ele><time>2026-04-24T08:07:27.883Z</time></trkpt><trkpt lat="42.1970933" lon="14.6258283"><ele>1.1666666666666667</ele><time>2026-04-24T08:07:29.884Z</time></trkpt><trkpt lat="42.19713" lon="14.625735"><ele>2.3333333333333335</ele><time>2026-04-24T08:07:31.884Z</time></trkpt><trkpt lat="42.1971667" lon="14.6256517"><ele>3.5</ele><time>2026-04-24T08:07:33.884Z</time></trkpt><trkpt lat="42.1971983" lon="14.6255533"><ele>4.666666666666667</ele><time>2026-04-24T08:07:35.884Z</time></trkpt><trkpt lat="42.1972333" lon="14.6254633"><ele>5.833333333333334</ele><time>2026-04-24T08:07:37.884Z</time></trkpt><trkpt lat="42.1972733" lon="14.6253683"><ele>7.0</ele><time>2026-04-24T08:07:39.884Z</time></trkpt><trkpt lat="42.1973017" lon="14.6252767"><ele>6.666666666666667</ele><time>2026-04-24T08:07:41.884Z</time></trkpt><trkpt lat="42.197335" lon="14.6251783"><ele>6.333333333333334</ele><time>2026-04-24T08:07:43.883Z</time></trkpt><trkpt lat="42.1973717" lon="14.6250767"><ele>6.0</ele><time>2026-04-24T08:07:45.884Z</time></trkpt><trkpt lat="42.1974033" lon="14.624975"><ele>5.666666666666667</ele><time>2026-04-24T08:07:47.884Z</time></trkpt><trkpt lat="42.1974383" lon="14.6248733"><ele>5.333333333333334</ele><time>2026-04-24T08:07:49.883Z</time></trkpt><trkpt lat="42.1974717" lon="14.624775"><ele>5.0</ele><time>2026-04-24T08:07:51.884Z</time></trkpt><trkpt lat="42.1975067" lon="14.6246817"><ele>5.0</ele><time>2026-04-24T08:07:53.883Z</time></trkpt><trkpt lat="42.1975367" lon="14.6245883"><ele>5.0</ele><time>2026-04-24T08:07:55.884Z</time></trkpt><trkpt lat="42.1975667" lon="14.62449"><ele>5.0</ele><time>2026-04-24T08:07:57.884Z</time></trkpt><trkpt lat="42.1976" lon="14.6243917"><ele>5.0</ele><time>2026-04-24T08:07:59.884Z</time></trkpt><trkpt lat="42.1976333" lon="14.6242983"><ele>5.0</ele><time>2026-04-24T08:08:01.884Z</time></trkpt><trkpt lat="42.1976633" lon="14.6242"><ele>5.0</ele><time>2026-04-24T08:08:03.884Z</time></trkpt><trkpt lat="42.1976917" lon="14.624105"><ele>5.666666666666667</ele><time>2026-04-24T08:08:05.884Z</time></trkpt><trkpt lat="42.1977233" lon="14.6240083"><ele>6.333333333333334</ele><time>2026-04-24T08:08:07.884Z</time></trkpt><trkpt lat="42.19775" lon="14.6239117"><ele>7.0</ele><time>2026-04-24T08:08:09.884Z</time></trkpt><trkpt lat="42.1977783" lon="14.6238133"><ele>7.666666666666667</ele><time>2026-04-24T08:08:11.884Z</time></trkpt><trkpt lat="42.1978033" lon="14.623715"><ele>8.333333333333334</ele><time>2026-04-24T08:08:13.883Z</time></trkpt><trkpt lat="42.197835" lon="14.6236283"><ele>9.0</ele><time>2026-04-24T08:08:15.884Z</time></trkpt><trkpt lat="42.1978633" lon="14.6235317"><ele>9.285714285714286</ele><time>2026-04-24T08:08:17.883Z</time></trkpt><trkpt lat="42.1978933" lon="14.6234383"><ele>9.571428571428571</ele><time>2026-04-24T08:08:19.883Z</time></trkpt><trkpt lat="42.1979133" lon="14.6233467"><ele>9.857142857142858</ele><time>2026-04-24T08:08:21.883Z</time></trkpt><trkpt lat="42.1979383" lon="14.6232567"><ele>10.142857142857142</ele><time>2026-04-24T08:08:23.883Z</time></trkpt><trkpt lat="42.197965" lon="14.623165"><ele>10.428571428571429</ele><time>2026-04-24T08:08:25.884Z</time></trkpt><trkpt lat="42.1979933" lon="14.623075"><ele>10.714285714285715</ele><time>2026-04-24T08:08:27.884Z</time></trkpt><trkpt lat="42.198025" lon="14.6229783"><ele>11.0</ele><time>2026-04-24T08:08:29.884Z</time></trkpt><trkpt lat="42.19805" lon="14.6228867"><ele>11.428571428571429</ele><time>2026-04-24T08:08:31.883Z</time></trkpt><trkpt lat="42.1980783" lon="14.622795"><ele>11.857142857142858</ele><time>2026-04-24T08:08:33.884Z</time></trkpt><trkpt lat="42.1981" lon="14.6226967"><ele>12.285714285714285</ele><time>2026-04-24T08:08:35.883Z</time></trkpt><trkpt lat="42.198125" lon="14.6226117"><ele>12.714285714285715</ele><time>2026-04-24T08:08:37.883Z</time></trkpt><trkpt lat="42.1981533" lon="14.6225267"><ele>13.142857142857142</ele><time>2026-04-24T08:08:39.883Z</time></trkpt><trkpt lat="42.1981833" lon="14.6224333"><ele>13.571428571428571</ele><time>2026-04-24T08:08:41.884Z</time></trkpt><trkpt lat="42.1982117" lon="14.62234"><ele>14.0</ele><time>2026-04-24T08:08:43.883Z</time></trkpt><trkpt lat="42.1982383" lon="14.622245"><ele>13.142857142857142</ele><time>2026-04-24T08:08:45.884Z</time></trkpt><trkpt lat="42.198265" lon="14.6221483"><ele>12.285714285714285</ele><time>2026-04-24T08:08:47.883Z</time></trkpt><trkpt lat="42.1982933" lon="14.6220533"><ele>11.428571428571429</ele><time>2026-04-24T08:08:49.884Z</time></trkpt><trkpt lat="42.1983233" lon="14.621955"><ele>10.571428571428571</ele><time>2026-04-24T08:08:51.883Z</time></trkpt><trkpt lat="42.19835" lon="14.6218617"><ele>9.714285714285714</ele><time>2026-04-24T08:08:53.883Z</time></trkpt><trkpt lat="42.1983733" lon="14.6217717"><ele>8.857142857142858</ele><time>2026-04-24T08:08:55.883Z</time></trkpt><trkpt lat="42.1984017" lon="14.621685"><ele>8.0</ele><time>2026-04-24T08:08:57.884Z</time></trkpt><trkpt lat="42.1984233" lon="14.6215883"><ele>8.0</ele><time>2026-04-24T08:08:59.884Z</time></trkpt><trkpt lat="42.19845" lon="14.621495"><ele>7.999999999999999</ele><time>2026-04-24T08:09:01.884Z</time></trkpt><trkpt lat="42.1984833" lon="14.6213983"><ele>8.0</ele><time>2026-04-24T08:09:03.883Z</time></trkpt><trkpt lat="42.19851" lon="14.6213133"><ele>8.0</ele><time>2026-04-24T08:09:05.884Z</time></trkpt><trkpt lat="42.1985367" lon="14.6212233"><ele>7.999999999999999</ele><time>2026-04-24T08:09:07.883Z</time></trkpt><trkpt lat="42.1985617" lon="14.6211333"><ele>8.0</ele><time>2026-04-24T08:09:09.883Z</time></trkpt><trkpt lat="42.198585" lon="14.6210417"><ele>8.0</ele><time>2026-04-24T08:09:11.883Z</time></trkpt><trkpt lat="42.1986083" lon="14.62095"><ele>8.142857142857142</ele><time>2026-04-24T08:09:13.884Z</time></trkpt><trkpt lat="42.1986317" lon="14.6208567"><ele>8.285714285714285</ele><time>2026-04-24T08:09:15.884Z</time></trkpt><trkpt lat="42.1986533" lon="14.6207667"><ele>8.428571428571429</ele><time>2026-04-24T08:09:17.884Z</time></trkpt><trkpt lat="42.1986767" lon="14.62068"><ele>8.571428571428571</ele><time>2026-04-24T08:09:19.883Z</time></trkpt><trkpt lat="42.1987033" lon="14.6205867"><ele>8.714285714285715</ele><time>2026-04-24T08:09:21.884Z</time></trkpt><trkpt lat="42.198725" lon="14.620495"><ele>8.857142857142858</ele><time>2026-04-24T08:09:23.883Z</time></trkpt><trkpt lat="42.1987483" lon="14.62041"><ele>9.0</ele><time>2026-04-24T08:09:25.884Z</time></trkpt><trkpt lat="42.19877" lon="14.62033"><ele>9.000000000000002</ele><time>2026-04-24T08:09:27.884Z</time></trkpt><trkpt lat="42.1987933" lon="14.6202417"><ele>9.0</ele><time>2026-04-24T08:09:29.884Z</time></trkpt><trkpt lat="42.19882" lon="14.6201517"><ele>9.0</ele><time>2026-04-24T08:09:31.884Z</time></trkpt><trkpt lat="42.1988483" lon="14.620065"><ele>9.0</ele><time>2026-04-24T08:09:33.884Z</time></trkpt><trkpt lat="42.198875" lon="14.6199733"><ele>9.0</ele><time>2026-04-24T08:09:35.884Z</time></trkpt><trkpt lat="42.1989017" lon="14.6198817"><ele>9.000000000000002</ele><time>2026-04-24T08:09:37.883Z</time></trkpt><trkpt lat="42.198925" lon="14.6197967"><ele>9.0</ele><time>2026-04-24T08:09:39.883Z</time></trkpt><trkpt lat="42.1989533" lon="14.6197117"><ele>9.000000000000002</ele><time>2026-04-24T08:09:41.883Z</time></trkpt><trkpt lat="42.198985" lon="14.6196317"><ele>9.0</ele><time>2026-04-24T08:09:43.884Z</time></trkpt><trkpt lat="42.1990117" lon="14.6195467"><ele>9.0</ele><time>2026-04-24T08:09:45.883Z</time></trkpt><trkpt lat="42.1990383" lon="14.6194583"><ele>9.0</ele><time>2026-04-24T08:09:47.884Z</time></trkpt><trkpt lat="42.1990633" lon="14.6193767"><ele>9.0</ele><time>2026-04-24T08:09:49.884Z</time></trkpt><trkpt lat="42.1990933" lon="14.6193"><ele>9.000000000000002</ele><time>2026-04-24T08:09:51.884Z</time></trkpt><trkpt lat="42.19912" lon="14.6192217"><ele>9.0</ele><time>2026-04-24T08:09:53.884Z</time></trkpt><trkpt lat="42.199145" lon="14.61914"><ele>8.0</ele><time>2026-04-24T08:09:55.884Z</time></trkpt><trkpt lat="42.1991733" lon="14.61906"><ele>7.0</ele><time>2026-04-24T08:09:57.884Z</time></trkpt><trkpt lat="42.199205" lon="14.6189667"><ele>6.0</ele><time>2026-04-24T08:09:59.883Z</time></trkpt><trkpt lat="42.1992467" lon="14.618865"><ele>5.0</ele><time>2026-04-24T08:10:02.883Z</time></trkpt><trkpt lat="42.1992667" lon="14.6187617"><ele>4.0</ele><time>2026-04-24T08:10:23.883Z</time></trkpt><trkpt lat="42.1993067" lon="14.6186817"><ele>3.0</ele><time>2026-04-24T08:10:26.882Z</time></trkpt><trkpt lat="42.1993383" lon="14.61858"><ele>2.9999999999999996</ele><time>2026-04-24T08:10:29.882Z</time></trkpt><trkpt lat="42.1993667" lon="14.6184883"><ele>3.0</ele><time>2026-04-24T08:10:32.882Z</time></trkpt><trkpt lat="42.199395" lon="14.6184117"><ele>3.0</ele><time>2026-04-24T08:10:35.883Z</time></trkpt><trkpt lat="42.19943" lon="14.61832"><ele>3.0</ele><time>2026-04-24T08:10:38.883Z</time></trkpt><trkpt lat="42.1994583" lon="14.6182117"><ele>3.0</ele><time>2026-04-24T08:10:41.882Z</time></trkpt><trkpt lat="42.1994867" lon="14.61813"><ele>2.9999999999999996</ele><time>2026-04-24T08:10:43.883Z</time></trkpt><trkpt lat="42.1995183" lon="14.61804"><ele>3.0</ele><time>2026-04-24T08:10:45.883Z</time></trkpt><trkpt lat="42.199545" lon="14.6179517"><ele>3.0</ele><time>2026-04-24T08:10:47.883Z</time></trkpt><trkpt lat="42.1995717" lon="14.61787"><ele>3.0</ele><time>2026-04-24T08:10:49.883Z</time></trkpt><trkpt lat="42.1996117" lon="14.6177617"><ele>3.0</ele><time>2026-04-24T08:10:52.882Z</time></trkpt><trkpt lat="42.1996583" lon="14.6176517"><ele>3.0</ele><time>2026-04-24T08:10:55.882Z</time></trkpt><trkpt lat="42.1996883" lon="14.6175667"><ele>3.0</ele><time>2026-04-24T08:10:57.883Z</time></trkpt><trkpt lat="42.1997167" lon="14.6174783"><ele>3.0</ele><time>2026-04-24T08:10:59.882Z</time></trkpt><trkpt lat="42.199745" lon="14.61739"><ele>2.714285714285714</ele><time>2026-04-24T08:11:01.882Z</time></trkpt><trkpt lat="42.199775" lon="14.617295"><ele>2.4285714285714284</ele><time>2026-04-24T08:11:03.883Z</time></trkpt><trkpt lat="42.1998033" lon="14.617205"><ele>2.142857142857143</ele><time>2026-04-24T08:11:05.883Z</time></trkpt><trkpt lat="42.1998333" lon="14.6171183"><ele>1.857142857142857</ele><time>2026-04-24T08:11:07.882Z</time></trkpt><trkpt lat="42.1998667" lon="14.6170233"><ele>1.5714285714285712</ele><time>2026-04-24T08:11:09.883Z</time></trkpt><trkpt lat="42.1999" lon="14.6169333"><ele>1.2857142857142856</ele><time>2026-04-24T08:11:11.882Z</time></trkpt><trkpt lat="42.1999283" lon="14.616845"><ele>1.0</ele><time>2026-04-24T08:11:13.882Z</time></trkpt><trkpt lat="42.19996" lon="14.6167567"><ele>1.0</ele><time>2026-04-24T08:11:15.882Z</time></trkpt><trkpt lat="42.199985" lon="14.6166667"><ele>0.9999999999999999</ele><time>2026-04-24T08:11:17.883Z</time></trkpt><trkpt lat="42.2000167" lon="14.6165733"><ele>1.0</ele><time>2026-04-24T08:11:19.883Z</time></trkpt><trkpt lat="42.20005" lon="14.6164883"><ele>1.0</ele><time>2026-04-24T08:11:21.883Z</time></trkpt><trkpt lat="42.2000817" lon="14.6163933"><ele>0.9999999999999999</ele><time>2026-04-24T08:11:23.882Z</time></trkpt><trkpt lat="42.2001117" lon="14.6163"><ele>1.0</ele><time>2026-04-24T08:11:25.882Z</time></trkpt><trkpt lat="42.20014" lon="14.6162117"><ele>1.0</ele><time>2026-04-24T08:11:27.883Z</time></trkpt><trkpt lat="42.2001683" lon="14.6161217"><ele>1.4285714285714284</ele><time>2026-04-24T08:11:29.882Z</time></trkpt><trkpt lat="42.200205" lon="14.616035"><ele>1.857142857142857</ele><time>2026-04-24T08:11:31.883Z</time></trkpt><trkpt lat="42.200235" lon="14.6159567"><ele>2.2857142857142856</ele><time>2026-04-24T08:11:33.882Z</time></trkpt><trkpt lat="42.2002667" lon="14.6158733"><ele>2.714285714285714</ele><time>2026-04-24T08:11:35.883Z</time></trkpt><trkpt lat="42.200295" lon="14.6157867"><ele>3.1428571428571423</ele><time>2026-04-24T08:11:37.883Z</time></trkpt><trkpt lat="42.200325" lon="14.6156917"><ele>3.571428571428571</ele><time>2026-04-24T08:11:39.883Z</time></trkpt><trkpt lat="42.200365" lon="14.61562"><ele>4.0</ele><time>2026-04-24T08:11:41.883Z</time></trkpt><trkpt lat="42.2004317" lon="14.6155733"><ele>4.0</ele><time>2026-04-24T08:11:44.883Z</time></trkpt><trkpt lat="42.2005" lon="14.61552"><ele>3.9999999999999996</ele><time>2026-04-24T08:11:47.883Z</time></trkpt><trkpt lat="42.2005367" lon="14.61545"><ele>4.0</ele><time>2026-04-24T08:11:50.882Z</time></trkpt><trkpt lat="42.2005533" lon="14.6153467"><ele>4.0</ele><time>2026-04-24T08:11:54.882Z</time></trkpt><trkpt lat="42.2005533" lon="14.6152383"><ele>3.9999999999999996</ele><time>2026-04-24T08:11:58.883Z</time></trkpt><trkpt lat="42.200585" lon="14.6151583"><ele>4.0</ele><time>2026-04-24T08:12:00.883Z</time></trkpt><trkpt lat="42.2006317" lon="14.6151"><ele>4.0</ele><time>2026-04-24T08:12:02.883Z</time></trkpt><trkpt lat="42.2006983" lon="14.6150717"><ele>3.833333333333333</ele><time>2026-04-24T08:12:04.882Z</time></trkpt><trkpt lat="42.2007783" lon="14.61505"><ele>3.6666666666666665</ele><time>2026-04-24T08:12:06.882Z</time></trkpt><trkpt lat="42.2008617" lon="14.6150283"><ele>3.5</ele><time>2026-04-24T08:12:08.883Z</time></trkpt><trkpt lat="42.20094" lon="14.6150133"><ele>3.333333333333333</ele><time>2026-04-24T08:12:10.882Z</time></trkpt><trkpt lat="42.2010133" lon="14.6149983"><ele>3.1666666666666665</ele><time>2026-04-24T08:12:12.883Z</time></trkpt><trkpt lat="42.20108" lon="14.6149817"><ele>3.0</ele><time>2026-04-24T08:12:14.882Z</time></trkpt><trkpt lat="42.2011417" lon="14.6149617"><ele>3.0</ele><time>2026-04-24T08:12:16.883Z</time></trkpt><trkpt lat="42.2011967" lon="14.6149167"><ele>3.0</ele><time>2026-04-24T08:12:18.883Z</time></trkpt><trkpt lat="42.20127" lon="14.6148417"><ele>3.0</ele><time>2026-04-24T08:12:21.883Z</time></trkpt><trkpt lat="42.2013417" lon="14.6147733"><ele>3.0</ele><time>2026-04-24T08:12:24.883Z</time></trkpt><trkpt lat="42.2013917" lon="14.6146917"><ele>3.0</ele><time>2026-04-24T08:12:27.883Z</time></trkpt><trkpt lat="42.2014433" lon="14.6146033"><ele>3.0</ele><time>2026-04-24T08:12:31.883Z</time></trkpt><trkpt lat="42.20148" lon="14.6145067"><ele>3.0</ele><time>2026-04-24T08:12:35.883Z</time></trkpt><trkpt lat="42.2014467" lon="14.6145817"><ele>3.0</ele><time>2026-04-24T08:13:06.883Z</time></trkpt><trkpt lat="42.2014033" lon="14.6146517"><ele>3.0</ele><time>2026-04-24T08:13:09.883Z</time></trkpt><trkpt lat="42.20135" lon="14.6147383"><ele>3.0</ele><time>2026-04-24T08:13:12.882Z</time></trkpt><trkpt lat="42.2012883" lon="14.614825"><ele>3.0</ele><time>2026-04-24T08:13:15.883Z</time></trkpt><trkpt lat="42.201235" lon="14.6148783"><ele>3.0</ele><time>2026-04-24T08:13:17.883Z</time></trkpt><trkpt lat="42.2011533" lon="14.61495"><ele>3.0</ele><time>2026-04-24T08:13:20.883Z</time></trkpt><trkpt lat="42.2010717" lon="14.6149817"><ele>3.0</ele><time>2026-04-24T08:13:23.882Z</time></trkpt><trkpt lat="42.2009933" lon="14.6149983"><ele>3.0</ele><time>2026-04-24T08:13:26.883Z</time></trkpt><trkpt lat="42.2009167" lon="14.6150033"><ele>3.0</ele><time>2026-04-24T08:13:29.883Z</time></trkpt><trkpt lat="42.2008317" lon="14.615015"><ele>3.0</ele><time>2026-04-24T08:13:32.883Z</time></trkpt><trkpt lat="42.2007467" lon="14.615035"><ele>3.0</ele><time>2026-04-24T08:13:35.882Z</time></trkpt><trkpt lat="42.200665" lon="14.61506"><ele>3.1666666666666665</ele><time>2026-04-24T08:13:38.883Z</time></trkpt><trkpt lat="42.2006017" lon="14.61513"><ele>3.333333333333333</ele><time>2026-04-24T08:13:41.883Z</time></trkpt><trkpt lat="42.2005517" lon="14.61522"><ele>3.5</ele><time>2026-04-24T08:13:44.882Z</time></trkpt><trkpt lat="42.2004983" lon="14.6152817"><ele>3.6666666666666665</ele><time>2026-04-24T08:13:47.883Z</time></trkpt><trkpt lat="42.2004317" lon="14.6153683"><ele>3.833333333333333</ele><time>2026-04-24T08:13:50.883Z</time></trkpt><trkpt lat="42.2003683" lon="14.6154633"><ele>4.0</ele><time>2026-04-24T08:13:53.882Z</time></trkpt><trkpt lat="42.200335" lon="14.6155383"><ele>3.9999999999999996</ele><time>2026-04-24T08:13:55.883Z</time></trkpt><trkpt lat="42.2002983" lon="14.6156217"><ele>4.0</ele><time>2026-04-24T08:13:57.883Z</time></trkpt><trkpt lat="42.2002683" lon="14.6157"><ele>4.0</ele><time>2026-04-24T08:13:59.883Z</time></trkpt><trkpt lat="42.200225" lon="14.615815"><ele>4.0</ele><time>2026-04-24T08:14:02.882Z</time></trkpt><trkpt lat="42.2001883" lon="14.6158933"><ele>3.9999999999999996</ele><time>2026-04-24T08:14:04.883Z</time></trkpt><trkpt lat="42.20016" lon="14.6159933"><ele>4.0</ele><time>2026-04-24T08:14:06.883Z</time></trkpt><trkpt lat="42.2001217" lon="14.6160983"><ele>3.571428571428571</ele><time>2026-04-24T08:14:08.883Z</time></trkpt><trkpt lat="42.2000967" lon="14.6161967"><ele>3.1428571428571423</ele><time>2026-04-24T08:14:10.882Z</time></trkpt><trkpt lat="42.2000633" lon="14.6162833"><ele>2.714285714285714</ele><time>2026-04-24T08:14:12.883Z</time></trkpt><trkpt lat="42.2000367" lon="14.6163717"><ele>2.2857142857142856</ele><time>2026-04-24T08:14:14.882Z</time></trkpt><trkpt lat="42.2000033" lon="14.61646"><ele>1.857142857142857</ele><time>2026-04-24T08:14:16.883Z</time></trkpt><trkpt lat="42.1999717" lon="14.6165533"><ele>1.4285714285714284</ele><time>2026-04-24T08:14:18.882Z</time></trkpt><trkpt lat="42.1999417" lon="14.6166483"><ele>1.0</ele><time>2026-04-24T08:14:20.882Z</time></trkpt><trkpt lat="42.1999117" lon="14.61674"><ele>1.0</ele><time>2026-04-24T08:14:22.882Z</time></trkpt><trkpt lat="42.1998817" lon="14.616835"><ele>0.9999999999999999</ele><time>2026-04-24T08:14:24.882Z</time></trkpt><trkpt lat="42.1998517" lon="14.6169267"><ele>1.0</ele><time>2026-04-24T08:14:26.882Z</time></trkpt><trkpt lat="42.19982" lon="14.61702"><ele>1.0</ele><time>2026-04-24T08:14:28.883Z</time></trkpt><trkpt lat="42.1997933" lon="14.617105"><ele>0.9999999999999999</ele><time>2026-04-24T08:14:30.882Z</time></trkpt><trkpt lat="42.19977" lon="14.61719"><ele>1.0</ele><time>2026-04-24T08:14:32.883Z</time></trkpt><trkpt lat="42.1997367" lon="14.6172767"><ele>1.0</ele><time>2026-04-24T08:14:34.883Z</time></trkpt><trkpt lat="42.1997033" lon="14.61737"><ele>1.3333333333333333</ele><time>2026-04-24T08:14:36.883Z</time></trkpt><trkpt lat="42.1996733" lon="14.6174733"><ele>1.6666666666666665</ele><time>2026-04-24T08:14:38.882Z</time></trkpt><trkpt lat="42.199645" lon="14.6175767"><ele>2.0</ele><time>2026-04-24T08:14:40.882Z</time></trkpt><trkpt lat="42.199615" lon="14.6176783"><ele>2.3333333333333335</ele><time>2026-04-24T08:14:42.883Z</time></trkpt><trkpt lat="42.19959" lon="14.6177733"><ele>2.6666666666666665</ele><time>2026-04-24T08:14:44.883Z</time></trkpt><trkpt lat="42.199555" lon="14.6178467"><ele>3.0</ele><time>2026-04-24T08:14:46.883Z</time></trkpt><trkpt lat="42.19951" lon="14.6179517"><ele>3.0</ele><time>2026-04-24T08:14:48.882Z</time></trkpt><trkpt lat="42.199475" lon="14.61805"><ele>3.0</ele><time>2026-04-24T08:14:50.882Z</time></trkpt><trkpt lat="42.1994383" lon="14.6181483"><ele>3.0</ele><time>2026-04-24T08:14:52.882Z</time></trkpt><trkpt lat="42.199405" lon="14.6182483"><ele>3.0</ele><time>2026-04-24T08:14:54.882Z</time></trkpt><trkpt lat="42.1993717" lon="14.6183483"><ele>3.0</ele><time>2026-04-24T08:14:56.882Z</time></trkpt><trkpt lat="42.19934" lon="14.6184483"><ele>3.0</ele><time>2026-04-24T08:14:58.883Z</time></trkpt><trkpt lat="42.199305" lon="14.6185467"><ele>3.0</ele><time>2026-04-24T08:15:00.883Z</time></trkpt><trkpt lat="42.1992617" lon="14.618645"><ele>3.0</ele><time>2026-04-24T08:15:02.883Z</time></trkpt><trkpt lat="42.1992317" lon="14.6187483"><ele>3.0</ele><time>2026-04-24T08:15:04.883Z</time></trkpt><trkpt lat="42.199205" lon="14.6188483"><ele>3.0</ele><time>2026-04-24T08:15:06.883Z</time></trkpt><trkpt lat="42.1991733" lon="14.6189467"><ele>3.0</ele><time>2026-04-24T08:15:08.882Z</time></trkpt><trkpt lat="42.1991417" lon="14.6190483"><ele>3.0</ele><time>2026-04-24T08:15:10.883Z</time></trkpt><trkpt lat="42.1991033" lon="14.6191483"><ele>2.8333333333333335</ele><time>2026-04-24T08:15:12.882Z</time></trkpt><trkpt lat="42.1990667" lon="14.6192417"><ele>2.6666666666666665</ele><time>2026-04-24T08:15:14.883Z</time></trkpt><trkpt lat="42.19903" lon="14.6193417"><ele>2.5</ele><time>2026-04-24T08:15:16.883Z</time></trkpt><trkpt lat="42.1989817" lon="14.6194483"><ele>2.333333333333333</ele><time>2026-04-24T08:15:18.882Z</time></trkpt><trkpt lat="42.19894" lon="14.6195583"><ele>2.1666666666666665</ele><time>2026-04-24T08:15:20.883Z</time></trkpt><trkpt lat="42.1989083" lon="14.6196617"><ele>2.0</ele><time>2026-04-24T08:15:22.883Z</time></trkpt><trkpt lat="42.1988683" lon="14.6197717"><ele>3.4000000000000004</ele><time>2026-04-24T08:15:24.883Z</time></trkpt><trkpt lat="42.1988267" lon="14.6198933"><ele>4.800000000000001</ele><time>2026-04-24T08:15:26.883Z</time></trkpt><trkpt lat="42.1987933" lon="14.6200017"><ele>6.2</ele><time>2026-04-24T08:15:28.882Z</time></trkpt><trkpt lat="42.1987583" lon="14.62012"><ele>7.6000000000000005</ele><time>2026-04-24T08:15:30.882Z</time></trkpt><trkpt lat="42.198725" lon="14.62024"><ele>9.0</ele><time>2026-04-24T08:15:32.882Z</time></trkpt><trkpt lat="42.1986983" lon="14.6203633"><ele>9.0</ele><time>2026-04-24T08:15:34.883Z</time></trkpt><trkpt lat="42.198665" lon="14.620505"><ele>9.0</ele><time>2026-04-24T08:15:36.883Z</time></trkpt><trkpt lat="42.1986367" lon="14.620635"><ele>9.0</ele><time>2026-04-24T08:15:38.882Z</time></trkpt><trkpt lat="42.198605" lon="14.6207633"><ele>9.0</ele><time>2026-04-24T08:15:40.883Z</time></trkpt><trkpt lat="42.198565" lon="14.6208917"><ele>9.0</ele><time>2026-04-24T08:15:42.882Z</time></trkpt><trkpt lat="42.19853" lon="14.6210183"><ele>9.0</ele><time>2026-04-24T08:15:44.883Z</time></trkpt><trkpt lat="42.1984967" lon="14.621135"><ele>9.0</ele><time>2026-04-24T08:15:46.883Z</time></trkpt><trkpt lat="42.19846" lon="14.6212583"><ele>9.0</ele><time>2026-04-24T08:15:48.883Z</time></trkpt><trkpt lat="42.19842" lon="14.6213833"><ele>9.0</ele><time>2026-04-24T08:15:50.883Z</time></trkpt><trkpt lat="42.19838" lon="14.621505"><ele>9.0</ele><time>2026-04-24T08:15:52.883Z</time></trkpt><trkpt lat="42.1983367" lon="14.621625"><ele>8.833333333333334</ele><time>2026-04-24T08:15:54.883Z</time></trkpt><trkpt lat="42.1983" lon="14.6217383"><ele>8.666666666666666</ele><time>2026-04-24T08:15:56.883Z</time></trkpt><trkpt lat="42.1982717" lon="14.6218567"><ele>8.5</ele><time>2026-04-24T08:15:58.883Z</time></trkpt><trkpt lat="42.1982483" lon="14.6219567"><ele>8.333333333333332</ele><time>2026-04-24T08:16:00.883Z</time></trkpt><trkpt lat="42.1982233" lon="14.6220733"><ele>8.166666666666666</ele><time>2026-04-24T08:16:02.882Z</time></trkpt><trkpt lat="42.1981983" lon="14.6221933"><ele>8.0</ele><time>2026-04-24T08:16:04.883Z</time></trkpt><trkpt lat="42.1981633" lon="14.6223067"><ele>8.600000000000001</ele><time>2026-04-24T08:16:06.883Z</time></trkpt><trkpt lat="42.1981317" lon="14.6224267"><ele>9.200000000000001</ele><time>2026-04-24T08:16:08.882Z</time></trkpt><trkpt lat="42.1981" lon="14.62254"><ele>9.8</ele><time>2026-04-24T08:16:10.883Z</time></trkpt><trkpt lat="42.1980683" lon="14.6226533"><ele>10.4</ele><time>2026-04-24T08:16:12.882Z</time></trkpt><trkpt lat="42.1980367" lon="14.622765"><ele>11.0</ele><time>2026-04-24T08:16:14.883Z</time></trkpt><trkpt lat="42.1979967" lon="14.6228733"><ele>11.0</ele><time>2026-04-24T08:16:16.883Z</time></trkpt><trkpt lat="42.197955" lon="14.6229783"><ele>11.0</ele><time>2026-04-24T08:16:18.883Z</time></trkpt><trkpt lat="42.19792" lon="14.6230867"><ele>11.0</ele><time>2026-04-24T08:16:20.882Z</time></trkpt><trkpt lat="42.1978983" lon="14.6231867"><ele>11.0</ele><time>2026-04-24T08:16:22.883Z</time></trkpt><trkpt lat="42.1978783" lon="14.6232983"><ele>11.0</ele><time>2026-04-24T08:16:24.883Z</time></trkpt><trkpt lat="42.1978483" lon="14.6234117"><ele>11.0</ele><time>2026-04-24T08:16:26.882Z</time></trkpt><trkpt lat="42.19782" lon="14.623525"><ele>11.0</ele><time>2026-04-24T08:16:28.883Z</time></trkpt><trkpt lat="42.1977917" lon="14.6236433"><ele>11.0</ele><time>2026-04-24T08:16:30.883Z</time></trkpt><trkpt lat="42.1977617" lon="14.62375"><ele>11.0</ele><time>2026-04-24T08:16:32.882Z</time></trkpt><trkpt lat="42.1977283" lon="14.62386"><ele>11.0</ele><time>2026-04-24T08:16:34.883Z</time></trkpt><trkpt lat="42.1976967" lon="14.6239683"><ele>11.0</ele><time>2026-04-24T08:16:36.883Z</time></trkpt><trkpt lat="42.1976633" lon="14.6240833"><ele>11.0</ele><time>2026-04-24T08:16:38.883Z</time></trkpt><trkpt lat="42.19763" lon="14.6241983"><ele>10.666666666666666</ele><time>2026-04-24T08:16:40.883Z</time></trkpt><trkpt lat="42.1975967" lon="14.6243067"><ele>10.333333333333332</ele><time>2026-04-24T08:16:42.883Z</time></trkpt><trkpt lat="42.197555" lon="14.6244083"><ele>10.0</ele><time>2026-04-24T08:16:44.883Z</time></trkpt><trkpt lat="42.19752" lon="14.62452"><ele>9.666666666666666</ele><time>2026-04-24T08:16:46.883Z</time></trkpt><trkpt lat="42.1974833" lon="14.6246317"><ele>9.333333333333334</ele><time>2026-04-24T08:16:48.882Z</time></trkpt><trkpt lat="42.197445" lon="14.62474"><ele>9.0</ele><time>2026-04-24T08:16:50.883Z</time></trkpt><trkpt lat="42.1974067" lon="14.6248483"><ele>8.6</ele><time>2026-04-24T08:16:52.882Z</time></trkpt><trkpt lat="42.1973683" lon="14.6249583"><ele>8.2</ele><time>2026-04-24T08:16:54.883Z</time></trkpt><trkpt lat="42.1973267" lon="14.625065"><ele>7.799999999999999</ele><time>2026-04-24T08:16:56.883Z</time></trkpt><trkpt lat="42.1972883" lon="14.6251733"><ele>7.3999999999999995</ele><time>2026-04-24T08:16:58.883Z</time></trkpt><trkpt lat="42.1972517" lon="14.6252867"><ele>7.0</ele><time>2026-04-24T08:17:00.883Z</time></trkpt><trkpt lat="42.1972083" lon="14.6253967"><ele>7.000000000000001</ele><time>2026-04-24T08:17:02.883Z</time></trkpt><trkpt lat="42.19717" lon="14.6255017"><ele>7.0</ele><time>2026-04-24T08:17:04.883Z</time></trkpt><trkpt lat="42.197135" lon="14.62561"><ele>7.0</ele><time>2026-04-24T08:17:06.883Z</time></trkpt><trkpt lat="42.1970967" lon="14.6257117"><ele>7.0</ele><time>2026-04-24T08:17:08.883Z</time></trkpt><trkpt lat="42.1970567" lon="14.6258133"><ele>7.000000000000001</ele><time>2026-04-24T08:17:10.883Z</time></trkpt><trkpt lat="42.197025" lon="14.6259083"><ele>7.0</ele><time>2026-04-24T08:17:12.883Z</time></trkpt><trkpt lat="42.19699" lon="14.626005"><ele>7.000000000000001</ele><time>2026-04-24T08:17:14.883Z</time></trkpt><trkpt lat="42.1969517" lon="14.6261067"><ele>7.0</ele><time>2026-04-24T08:17:16.883Z</time></trkpt><trkpt lat="42.1969133" lon="14.6262183"><ele>7.0</ele><time>2026-04-24T08:17:18.883Z</time></trkpt><trkpt lat="42.1968767" lon="14.6263233"><ele>7.0</ele><time>2026-04-24T08:17:20.883Z</time></trkpt><trkpt lat="42.1968383" lon="14.62642"><ele>7.000000000000001</ele><time>2026-04-24T08:17:22.883Z</time></trkpt><trkpt lat="42.1968" lon="14.626525"><ele>7.0</ele><time>2026-04-24T08:17:24.883Z</time></trkpt><trkpt lat="42.196765" lon="14.626625"><ele>6.166666666666667</ele><time>2026-04-24T08:17:26.883Z</time></trkpt><trkpt lat="42.19673" lon="14.626725"><ele>5.333333333333334</ele><time>2026-04-24T08:17:28.883Z</time></trkpt><trkpt lat="42.1966933" lon="14.6268367"><ele>4.5</ele><time>2026-04-24T08:17:30.883Z</time></trkpt><trkpt lat="42.196655" lon="14.626945"><ele>3.666666666666667</ele><time>2026-04-24T08:17:32.883Z</time></trkpt><trkpt lat="42.1966167" lon="14.6270567"><ele>2.833333333333333</ele><time>2026-04-24T08:17:34.882Z</time></trkpt><trkpt lat="42.19657" lon="14.62716"><ele>2.0</ele><time>2026-04-24T08:17:36.882Z</time></trkpt><trkpt lat="42.1965283" lon="14.627265"><ele>2.333333333333333</ele><time>2026-04-24T08:17:38.883Z</time></trkpt><trkpt lat="42.1964917" lon="14.627375"><ele>2.6666666666666665</ele><time>2026-04-24T08:17:40.883Z</time></trkpt><trkpt lat="42.1964567" lon="14.6274783"><ele>3.0</ele><time>2026-04-24T08:17:42.883Z</time></trkpt><trkpt lat="42.1964233" lon="14.6275767"><ele>3.333333333333333</ele><time>2026-04-24T08:17:44.883Z</time></trkpt><trkpt lat="42.196385" lon="14.6276767"><ele>3.6666666666666665</ele><time>2026-04-24T08:17:46.883Z</time></trkpt><trkpt lat="42.1963517" lon="14.627785"><ele>4.0</ele><time>2026-04-24T08:17:48.883Z</time></trkpt><trkpt lat="42.1963183" lon="14.6278883"><ele>3.9999999999999996</ele><time>2026-04-24T08:17:50.882Z</time></trkpt><trkpt lat="42.1962833" lon="14.6279883"><ele>4.0</ele><time>2026-04-24T08:17:52.882Z</time></trkpt><trkpt lat="42.19625" lon="14.6280817"><ele>4.0</ele><time>2026-04-24T08:17:54.883Z</time></trkpt><trkpt lat="42.19622" lon="14.628175"><ele>4.0</ele><time>2026-04-24T08:17:56.883Z</time></trkpt><trkpt lat="42.196185" lon="14.628265"><ele>3.9999999999999996</ele><time>2026-04-24T08:17:58.883Z</time></trkpt><trkpt lat="42.19614" lon="14.6283733"><ele>4.0</ele><time>2026-04-24T08:18:01.883Z</time></trkpt><trkpt lat="42.19612" lon="14.6285033"><ele>3.9999999999999996</ele><time>2026-04-24T08:18:04.883Z</time></trkpt><trkpt lat="42.1961133" lon="14.6285917"><ele>4.0</ele><time>2026-04-24T08:18:06.883Z</time></trkpt><trkpt lat="42.1961083" lon="14.62869"><ele>4.0</ele><time>2026-04-24T08:18:08.883Z</time></trkpt><trkpt lat="42.1961" lon="14.6287883"><ele>4.0</ele><time>2026-04-24T08:18:10.882Z</time></trkpt><trkpt lat="42.1960983" lon="14.6288983"><ele>3.9999999999999996</ele><time>2026-04-24T08:18:12.883Z</time></trkpt><trkpt lat="42.19609" lon="14.6290217"><ele>4.0</ele><time>2026-04-24T08:18:14.882Z</time></trkpt><trkpt lat="42.19607" lon="14.6291433"><ele>3.9999999999999996</ele><time>2026-04-24T08:18:16.883Z</time></trkpt><trkpt lat="42.1960383" lon="14.629245"><ele>4.0</ele><time>2026-04-24T08:18:18.882Z</time></trkpt><trkpt lat="42.196" lon="14.629315"><ele>4.0</ele><time>2026-04-24T08:18:20.883Z</time></trkpt><trkpt lat="42.1959583" lon="14.6294"><ele>4.0</ele><time>2026-04-24T08:18:22.883Z</time></trkpt><trkpt lat="42.195925" lon="14.6295"><ele>3.9999999999999996</ele><time>2026-04-24T08:18:24.883Z</time></trkpt><trkpt lat="42.1958967" lon="14.6296"><ele>4.0</ele><time>2026-04-24T08:18:26.883Z</time></trkpt><trkpt lat="42.1958717" lon="14.62969"><ele>3.8571428571428568</ele><time>2026-04-24T08:18:28.882Z</time></trkpt><trkpt lat="42.1958433" lon="14.6297683"><ele>3.714285714285714</ele><time>2026-04-24T08:18:30.882Z</time></trkpt><trkpt lat="42.1958167" lon="14.6298517"><ele>3.571428571428571</ele><time>2026-04-24T08:18:32.883Z</time></trkpt><trkpt lat="42.1957817" lon="14.6299567"><ele>3.4285714285714284</ele><time>2026-04-24T08:18:35.883Z</time></trkpt><trkpt lat="42.1957483" lon="14.630055"><ele>3.2857142857142856</ele><time>2026-04-24T08:18:38.882Z</time></trkpt><trkpt lat="42.1957233" lon="14.630135"><ele>3.1428571428571423</ele><time>2026-04-24T08:18:40.882Z</time></trkpt><trkpt lat="42.1957" lon="14.6302233"><ele>3.0</ele><time>2026-04-24T08:18:42.883Z</time></trkpt><trkpt lat="42.1956783" lon="14.6303183"><ele>3.1666666666666665</ele><time>2026-04-24T08:18:44.883Z</time></trkpt><trkpt lat="42.1956517" lon="14.6304183"><ele>3.333333333333333</ele><time>2026-04-24T08:18:46.883Z</time></trkpt><trkpt lat="42.1956217" lon="14.6305167"><ele>3.5</ele><time>2026-04-24T08:18:48.882Z</time></trkpt><trkpt lat="42.195595" lon="14.63061"><ele>3.6666666666666665</ele><time>2026-04-24T08:18:50.883Z</time></trkpt><trkpt lat="42.19557" lon="14.6307133"><ele>3.833333333333333</ele><time>2026-04-24T08:18:52.883Z</time></trkpt><trkpt lat="42.1955433" lon="14.6308133"><ele>4.0</ele><time>2026-04-24T08:18:54.882Z</time></trkpt><trkpt lat="42.1955167" lon="14.6309133"><ele>3.9999999999999996</ele><time>2026-04-24T08:18:56.883Z</time></trkpt><trkpt lat="42.1954867" lon="14.6310083"><ele>4.0</ele><time>2026-04-24T08:18:58.882Z</time></trkpt><trkpt lat="42.1954567" lon="14.6311117"><ele>4.0</ele><time>2026-04-24T08:19:00.882Z</time></trkpt><trkpt lat="42.1954283" lon="14.6312083"><ele>4.0</ele><time>2026-04-24T08:19:02.883Z</time></trkpt><trkpt lat="42.1954017" lon="14.6313083"><ele>3.9999999999999996</ele><time>2026-04-24T08:19:04.882Z</time></trkpt><trkpt lat="42.1953783" lon="14.6314017"><ele>4.0</ele><time>2026-04-24T08:19:06.883Z</time></trkpt><trkpt lat="42.1953483" lon="14.631495"><ele>3.9999999999999996</ele><time>2026-04-24T08:19:08.882Z</time></trkpt><trkpt lat="42.1953183" lon="14.6315933"><ele>4.0</ele><time>2026-04-24T08:19:10.883Z</time></trkpt><trkpt lat="42.1952917" lon="14.6316967"><ele>4.0</ele><time>2026-04-24T08:19:12.883Z</time></trkpt><trkpt lat="42.1952567" lon="14.6317933"><ele>4.0</ele><time>2026-04-24T08:19:14.883Z</time></trkpt><trkpt lat="42.1952267" lon="14.6318933"><ele>3.9999999999999996</ele><time>2026-04-24T08:19:16.883Z</time></trkpt><trkpt lat="42.1952" lon="14.632005"><ele>4.0</ele><time>2026-04-24T08:19:18.882Z</time></trkpt><trkpt lat="42.1951717" lon="14.6321167"><ele>4.166666666666666</ele><time>2026-04-24T08:19:20.883Z</time></trkpt><trkpt lat="42.1951383" lon="14.6322233"><ele>4.333333333333333</ele><time>2026-04-24T08:19:22.883Z</time></trkpt><trkpt lat="42.19511" lon="14.6323333"><ele>4.5</ele><time>2026-04-24T08:19:24.883Z</time></trkpt><trkpt lat="42.1950817" lon="14.6324467"><ele>4.666666666666667</ele><time>2026-04-24T08:19:26.883Z</time></trkpt><trkpt lat="42.195055" lon="14.63255"><ele>4.833333333333334</ele><time>2026-04-24T08:19:28.883Z</time></trkpt><trkpt lat="42.1950333" lon="14.6326333"><ele>5.0</ele><time>2026-04-24T08:19:30.883Z</time></trkpt><trkpt lat="42.1949983" lon="14.632745"><ele>5.142857142857142</ele><time>2026-04-24T08:20:48.885Z</time></trkpt><trkpt lat="42.1949817" lon="14.6328283"><ele>5.285714285714286</ele><time>2026-04-24T08:20:50.884Z</time></trkpt><trkpt lat="42.1949533" lon="14.6329117"><ele>5.428571428571429</ele><time>2026-04-24T08:20:52.885Z</time></trkpt><trkpt lat="42.1949267" lon="14.6329933"><ele>5.571428571428571</ele><time>2026-04-24T08:20:54.884Z</time></trkpt><trkpt lat="42.1949" lon="14.6330883"><ele>5.714285714285714</ele><time>2026-04-24T08:20:56.885Z</time></trkpt><trkpt lat="42.194875" lon="14.6331867"><ele>5.857142857142857</ele><time>2026-04-24T08:20:58.885Z</time></trkpt><trkpt lat="42.19485" lon="14.6332833"><ele>6.0</ele><time>2026-04-24T08:21:00.885Z</time></trkpt><trkpt lat="42.194825" lon="14.63338"><ele>6.0</ele><time>2026-04-24T08:21:02.885Z</time></trkpt><trkpt lat="42.1948017" lon="14.6334767"><ele>6.0</ele><time>2026-04-24T08:21:04.885Z</time></trkpt><trkpt lat="42.194775" lon="14.6335633"><ele>6.0</ele><time>2026-04-24T08:21:06.885Z</time></trkpt><trkpt lat="42.1947517" lon="14.6336533"><ele>6.0</ele><time>2026-04-24T08:21:08.884Z</time></trkpt><trkpt lat="42.1947267" lon="14.6337383"><ele>6.0</ele><time>2026-04-24T08:21:10.885Z</time></trkpt><trkpt lat="42.1946933" lon="14.633855"><ele>6.0</ele><time>2026-04-24T08:21:13.884Z</time></trkpt><trkpt lat="42.1946633" lon="14.6339583"><ele>5.666666666666667</ele><time>2026-04-24T08:21:16.884Z</time></trkpt><trkpt lat="42.1946" lon="14.6340183"><ele>5.333333333333333</ele><time>2026-04-24T08:21:20.885Z</time></trkpt><trkpt lat="42.19457" lon="14.6340983"><ele>5.0</ele><time>2026-04-24T08:21:22.885Z</time></trkpt><trkpt lat="42.1945467" lon="14.6341883"><ele>4.666666666666666</ele><time>2026-04-24T08:21:24.885Z</time></trkpt><trkpt lat="42.1945233" lon="14.63428"><ele>4.333333333333333</ele><time>2026-04-24T08:21:26.884Z</time></trkpt><trkpt lat="42.1944983" lon="14.6343667"><ele>4.0</ele><time>2026-04-24T08:21:28.885Z</time></trkpt><trkpt lat="42.1944667" lon="14.6344883"><ele>3.714285714285714</ele><time>2026-04-24T08:21:31.885Z</time></trkpt><trkpt lat="42.1944433" lon="14.634575"><ele>3.428571428571428</ele><time>2026-04-24T08:21:33.885Z</time></trkpt><trkpt lat="42.1944183" lon="14.6346667"><ele>3.142857142857143</ele><time>2026-04-24T08:21:35.885Z</time></trkpt><trkpt lat="42.1943883" lon="14.6347933"><ele>2.8571428571428568</ele><time>2026-04-24T08:21:38.885Z</time></trkpt><trkpt lat="42.1943633" lon="14.6348833"><ele>2.571428571428571</ele><time>2026-04-24T08:21:40.885Z</time></trkpt><trkpt lat="42.1943417" lon="14.6349667"><ele>2.2857142857142856</ele><time>2026-04-24T08:21:42.885Z</time></trkpt><trkpt lat="42.19432" lon="14.63506"><ele>2.0</ele><time>2026-04-24T08:21:44.884Z</time></trkpt><trkpt lat="42.1942783" lon="14.63517"><ele>1.9999999999999998</ele><time>2026-04-24T08:21:46.885Z</time></trkpt><trkpt lat="42.1942433" lon="14.635265"><ele>2.0</ele><time>2026-04-24T08:21:48.884Z</time></trkpt><trkpt lat="42.1942183" lon="14.6353633"><ele>2.0</ele><time>2026-04-24T08:21:50.884Z</time></trkpt><trkpt lat="42.1941833" lon="14.6354583"><ele>2.0</ele><time>2026-04-24T08:21:52.885Z</time></trkpt><trkpt lat="42.1941483" lon="14.63556"><ele>1.9999999999999998</ele><time>2026-04-24T08:21:54.885Z</time></trkpt><trkpt lat="42.1941217" lon="14.6356617"><ele>2.0</ele><time>2026-04-24T08:21:56.884Z</time></trkpt><trkpt lat="42.194095" lon="14.6357683"><ele>1.9999999999999998</ele><time>2026-04-24T08:21:58.885Z</time></trkpt><trkpt lat="42.1940633" lon="14.6358733"><ele>2.0</ele><time>2026-04-24T08:22:00.885Z</time></trkpt><trkpt lat="42.1940317" lon="14.6359817"><ele>2.0</ele><time>2026-04-24T08:22:02.885Z</time></trkpt><trkpt lat="42.194005" lon="14.6360783"><ele>2.0</ele><time>2026-04-24T08:22:04.884Z</time></trkpt><trkpt lat="42.1939817" lon="14.636185"><ele>1.9999999999999998</ele><time>2026-04-24T08:22:06.885Z</time></trkpt><trkpt lat="42.1939567" lon="14.6362867"><ele>2.0</ele><time>2026-04-24T08:22:08.885Z</time></trkpt><trkpt lat="42.1939367" lon="14.6363967"><ele>1.9999999999999998</ele><time>2026-04-24T08:22:10.884Z</time></trkpt><trkpt lat="42.1939067" lon="14.6364933"><ele>2.0</ele><time>2026-04-24T08:22:12.884Z</time></trkpt><trkpt lat="42.1938783" lon="14.6365867"><ele>2.0</ele><time>2026-04-24T08:22:14.885Z</time></trkpt><trkpt lat="42.1938483" lon="14.6366867"><ele>2.0</ele><time>2026-04-24T08:22:16.884Z</time></trkpt><trkpt lat="42.1938233" lon="14.6368"><ele>1.9999999999999998</ele><time>2026-04-24T08:22:18.885Z</time></trkpt><trkpt lat="42.1937917" lon="14.6368983"><ele>2.0</ele><time>2026-04-24T08:22:20.884Z</time></trkpt><trkpt lat="42.1937567" lon="14.6370117"><ele>1.857142857142857</ele><time>2026-04-24T08:22:22.885Z</time></trkpt><trkpt lat="42.1937217" lon="14.6371133"><ele>1.714285714285714</ele><time>2026-04-24T08:22:24.885Z</time></trkpt><trkpt lat="42.1936883" lon="14.6372117"><ele>1.5714285714285714</ele><time>2026-04-24T08:22:26.884Z</time></trkpt><trkpt lat="42.1936567" lon="14.637305"><ele>1.4285714285714284</ele><time>2026-04-24T08:22:28.884Z</time></trkpt><trkpt lat="42.19363" lon="14.6373967"><ele>1.2857142857142856</ele><time>2026-04-24T08:22:30.885Z</time></trkpt><trkpt lat="42.1936067" lon="14.63748"><ele>1.1428571428571428</ele><time>2026-04-24T08:22:32.885Z</time></trkpt><trkpt lat="42.19358" lon="14.6375667"><ele>1.0</ele><time>2026-04-24T08:22:34.885Z</time></trkpt><trkpt lat="42.193555" lon="14.6376483"><ele>0.9999999999999999</ele><time>2026-04-24T08:22:36.884Z</time></trkpt><trkpt lat="42.1935333" lon="14.6377283"><ele>1.0</ele><time>2026-04-24T08:22:38.885Z</time></trkpt><trkpt lat="42.1935067" lon="14.637845"><ele>1.0</ele><time>2026-04-24T08:22:41.885Z</time></trkpt><trkpt lat="42.1934767" lon="14.63796"><ele>1.0</ele><time>2026-04-24T08:22:44.885Z</time></trkpt><trkpt lat="42.1934483" lon="14.6380617"><ele>0.9999999999999999</ele><time>2026-04-24T08:22:47.884Z</time></trkpt><trkpt lat="42.1934233" lon="14.638175"><ele>1.0</ele><time>2026-04-24T08:22:50.884Z</time></trkpt><trkpt lat="42.19341" lon="14.6382783"><ele>0.9999999999999999</ele><time>2026-04-24T08:22:53.884Z</time></trkpt><trkpt lat="42.1933967" lon="14.6383683"><ele>1.0</ele><time>2026-04-24T08:22:56.885Z</time></trkpt><trkpt lat="42.1933867" lon="14.63846"><ele>1.0</ele><time>2026-04-24T08:22:59.885Z</time></trkpt><trkpt lat="42.193355" lon="14.6385783"><ele>1.0</ele><time>2026-04-24T08:23:02.885Z</time></trkpt><trkpt lat="42.1933317" lon="14.63867"><ele>0.9999999999999999</ele><time>2026-04-24T08:23:04.885Z</time></trkpt><trkpt lat="42.1933083" lon="14.638765"><ele>1.0</ele><time>2026-04-24T08:23:06.885Z</time></trkpt><trkpt lat="42.193285" lon="14.638865"><ele>0.9999999999999999</ele><time>2026-04-24T08:23:08.885Z</time></trkpt><trkpt lat="42.19326" lon="14.6389683"><ele>1.0</ele><time>2026-04-24T08:23:10.885Z</time></trkpt><trkpt lat="42.1932367" lon="14.63907"><ele>1.0</ele><time>2026-04-24T08:23:12.885Z</time></trkpt><trkpt lat="42.1932117" lon="14.6391733"><ele>1.0</ele><time>2026-04-24T08:23:14.885Z</time></trkpt><trkpt lat="42.1931867" lon="14.63928"><ele>0.9999999999999999</ele><time>2026-04-24T08:23:16.885Z</time></trkpt><trkpt lat="42.19316" lon="14.6393883"><ele>1.0</ele><time>2026-04-24T08:23:18.884Z</time></trkpt><trkpt lat="42.19314" lon="14.6394883"><ele>0.6666666666666666</ele><time>2026-04-24T08:23:20.884Z</time></trkpt><trkpt lat="42.1931183" lon="14.6395867"><ele>0.3333333333333333</ele><time>2026-04-24T08:23:22.885Z</time></trkpt><trkpt lat="42.1930883" lon="14.6396817"><ele>0.0</ele><time>2026-04-24T08:23:24.884Z</time></trkpt><trkpt lat="42.1930583" lon="14.639785"><ele>-0.3333333333333333</ele><time>2026-04-24T08:23:26.885Z</time></trkpt><trkpt lat="42.19303" lon="14.6398883"><ele>-0.6666666666666666</ele><time>2026-04-24T08:23:28.885Z</time></trkpt><trkpt lat="42.193" lon="14.6399933"><ele>-1.0</ele><time>2026-04-24T08:23:30.884Z</time></trkpt><trkpt lat="42.19297" lon="14.6400917"><ele>-1.0</ele><time>2026-04-24T08:23:32.885Z</time></trkpt><trkpt lat="42.1929417" lon="14.6401967"><ele>-0.9999999999999999</ele><time>2026-04-24T08:23:34.885Z</time></trkpt><trkpt lat="42.1929167" lon="14.6402917"><ele>-1.0</ele><time>2026-04-24T08:23:36.885Z</time></trkpt><trkpt lat="42.192895" lon="14.640385"><ele>-1.0</ele><time>2026-04-24T08:23:38.885Z</time></trkpt><trkpt lat="42.192875" lon="14.640475"><ele>-0.9999999999999999</ele><time>2026-04-24T08:23:40.885Z</time></trkpt><trkpt lat="42.1928533" lon="14.640565"><ele>-1.0</ele><time>2026-04-24T08:23:42.884Z</time></trkpt><trkpt lat="42.1928283" lon="14.6406533"><ele>-1.0</ele><time>2026-04-24T08:23:44.884Z</time></trkpt><trkpt lat="42.1928067" lon="14.6407383"><ele>-0.8333333333333333</ele><time>2026-04-24T08:23:46.885Z</time></trkpt><trkpt lat="42.1927883" lon="14.6408217"><ele>-0.6666666666666666</ele><time>2026-04-24T08:23:48.885Z</time></trkpt><trkpt lat="42.1927633" lon="14.6409317"><ele>-0.5</ele><time>2026-04-24T08:23:51.885Z</time></trkpt><trkpt lat="42.19274" lon="14.64102"><ele>-0.3333333333333333</ele><time>2026-04-24T08:23:54.884Z</time></trkpt><trkpt lat="42.1927133" lon="14.6411233"><ele>-0.16666666666666666</ele><time>2026-04-24T08:23:58.885Z</time></trkpt><trkpt lat="42.19268" lon="14.6412167"><ele>0.0</ele><time>2026-04-24T08:24:01.885Z</time></trkpt><trkpt lat="42.1926267" lon="14.6413217"><ele>0.0</ele><time>2026-04-24T08:24:04.885Z</time></trkpt><trkpt lat="42.1925983" lon="14.6413983"><ele>0.0</ele><time>2026-04-24T08:24:06.885Z</time></trkpt><trkpt lat="42.1925683" lon="14.641475"><ele>0.0</ele><time>2026-04-24T08:24:08.885Z</time></trkpt><trkpt lat="42.19254" lon="14.6415817"><ele>0.0</ele><time>2026-04-24T08:24:11.885Z</time></trkpt><trkpt lat="42.19252" lon="14.641695"><ele>0.0</ele><time>2026-04-24T08:24:14.884Z</time></trkpt><trkpt lat="42.1924983" lon="14.6418033"><ele>0.0</ele><time>2026-04-24T08:24:17.885Z</time></trkpt><trkpt lat="42.192475" lon="14.6418833"><ele>0.0</ele><time>2026-04-24T08:24:19.884Z</time></trkpt><trkpt lat="42.19245" lon="14.6419667"><ele>0.0</ele><time>2026-04-24T08:24:21.884Z</time></trkpt><trkpt lat="42.1924233" lon="14.6420583"><ele>0.0</ele><time>2026-04-24T08:24:23.885Z</time></trkpt><trkpt lat="42.192395" lon="14.6421517"><ele>0.0</ele><time>2026-04-24T08:24:25.885Z</time></trkpt><trkpt lat="42.1923733" lon="14.642245"><ele>0.0</ele><time>2026-04-24T08:24:27.885Z</time></trkpt><trkpt lat="42.19235" lon="14.64233"><ele>0.0</ele><time>2026-04-24T08:24:29.885Z</time></trkpt><trkpt lat="42.1923167" lon="14.6424483"><ele>0.0</ele><time>2026-04-24T08:24:32.884Z</time></trkpt><trkpt lat="42.19229" lon="14.64253"><ele>0.0</ele><time>2026-04-24T08:24:34.885Z</time></trkpt><trkpt lat="42.1922617" lon="14.64261"><ele>0.0</ele><time>2026-04-24T08:24:36.885Z</time></trkpt><trkpt lat="42.1922383" lon="14.64271"><ele>0.0</ele><time>2026-04-24T08:24:39.885Z</time></trkpt><trkpt lat="42.192185" lon="14.642795"><ele>0.0</ele><time>2026-04-24T08:24:43.884Z</time></trkpt><trkpt lat="42.1921483" lon="14.6429083"><ele>0.0</ele><time>2026-04-24T08:24:46.884Z</time></trkpt><trkpt lat="42.1921267" lon="14.64299"><ele>0.0</ele><time>2026-04-24T08:24:48.885Z</time></trkpt><trkpt lat="42.19211" lon="14.6430783"><ele>0.0</ele><time>2026-04-24T08:24:50.884Z</time></trkpt><trkpt lat="42.192095" lon="14.6431617"><ele>0.0</ele><time>2026-04-24T08:24:52.885Z</time></trkpt><trkpt lat="42.1920817" lon="14.6432467"><ele>0.0</ele><time>2026-04-24T08:24:54.885Z</time></trkpt><trkpt lat="42.1920567" lon="14.64336"><ele>0.0</ele><time>2026-04-24T08:24:57.885Z</time></trkpt><trkpt lat="42.1920317" lon="14.6434667"><ele>0.0</ele><time>2026-04-24T08:25:00.885Z</time></trkpt><trkpt lat="42.1920033" lon="14.6435717"><ele>0.0</ele><time>2026-04-24T08:25:03.885Z</time></trkpt><trkpt lat="42.1919983" lon="14.6436667"><ele>0.0</ele><time>2026-04-24T08:25:06.885Z</time></trkpt><trkpt lat="42.1919867" lon="14.643755"><ele>0.0</ele><time>2026-04-24T08:25:09.885Z</time></trkpt><trkpt lat="42.1919567" lon="14.6438633"><ele>0.0</ele><time>2026-04-24T08:25:13.884Z</time></trkpt><trkpt lat="42.1919383" lon="14.6439617"><ele>0.0</ele><time>2026-04-24T08:25:16.884Z</time></trkpt><trkpt lat="42.1919133" lon="14.64407"><ele>0.0</ele><time>2026-04-24T08:25:19.885Z</time></trkpt><trkpt lat="42.191895" lon="14.6441883"><ele>0.0</ele><time>2026-04-24T08:25:22.885Z</time></trkpt><trkpt lat="42.191875" lon="14.6443083"><ele>0.0</ele><time>2026-04-24T08:25:25.885Z</time></trkpt><trkpt lat="42.1918533" lon="14.644415"><ele>0.0</ele><time>2026-04-24T08:25:28.884Z</time></trkpt><trkpt lat="42.1918383" lon="14.6445183"><ele>0.3333333333333333</ele><time>2026-04-24T08:25:31.885Z</time></trkpt><trkpt lat="42.1918233" lon="14.6446117"><ele>0.6666666666666666</ele><time>2026-04-24T08:25:34.885Z</time></trkpt><trkpt lat="42.19179" lon="14.6446933"><ele>1.0</ele><time>2026-04-24T08:25:37.884Z</time></trkpt><trkpt lat="42.19171" lon="14.6446633"><ele>1.3333333333333333</ele><time>2026-04-24T08:25:40.885Z</time></trkpt><trkpt lat="42.1916233" lon="14.6446117"><ele>1.6666666666666665</ele><time>2026-04-24T08:25:43.885Z</time></trkpt><trkpt lat="42.19154" lon="14.6445617"><ele>2.0</ele><time>2026-04-24T08:25:46.884Z</time></trkpt><trkpt lat="42.1914667" lon="14.6445183"><ele>2.0</ele><time>2026-04-24T08:25:49.885Z</time></trkpt><trkpt lat="42.19139" lon="14.6444567"><ele>1.9999999999999998</ele><time>2026-04-24T08:25:52.885Z</time></trkpt><trkpt lat="42.1913317" lon="14.6444167"><ele>2.0</ele><time>2026-04-24T08:25:54.885Z</time></trkpt><trkpt lat="42.1912633" lon="14.6443867"><ele>2.0</ele><time>2026-04-24T08:25:56.885Z</time></trkpt><trkpt lat="42.1912" lon="14.6443583"><ele>1.9999999999999998</ele><time>2026-04-24T08:25:58.885Z</time></trkpt><trkpt lat="42.1911117" lon="14.6443517"><ele>2.0</ele><time>2026-04-24T08:26:01.885Z</time></trkpt><trkpt lat="42.1910483" lon="14.6443583"><ele>2.0</ele><time>2026-04-24T08:26:03.885Z</time></trkpt><trkpt lat="42.1909583" lon="14.64436"><ele>2.0</ele><time>2026-04-24T08:26:06.884Z</time></trkpt><trkpt lat="42.1908717" lon="14.6443733"><ele>1.9999999999999998</ele><time>2026-04-24T08:26:09.884Z</time></trkpt><trkpt lat="42.1908083" lon="14.64439"><ele>2.0</ele><time>2026-04-24T08:26:11.884Z</time></trkpt><trkpt lat="42.1907467" lon="14.6444083"><ele>2.0</ele><time>2026-04-24T08:26:13.885Z</time></trkpt><trkpt lat="42.1906783" lon="14.64443"><ele>1.9999999999999998</ele><time>2026-04-24T08:26:15.885Z</time></trkpt><trkpt lat="42.1906083" lon="14.64445"><ele>2.0</ele><time>2026-04-24T08:26:17.885Z</time></trkpt><trkpt lat="42.1905433" lon="14.6444767"><ele>2.0</ele><time>2026-04-24T08:26:19.884Z</time></trkpt><trkpt lat="42.1904767" lon="14.644495"><ele>2.142857142857143</ele><time>2026-04-24T08:26:21.884Z</time></trkpt><trkpt lat="42.190405" lon="14.6445217"><ele>2.2857142857142856</ele><time>2026-04-24T08:26:23.884Z</time></trkpt><trkpt lat="42.1903367" lon="14.6445567"><ele>2.4285714285714284</ele><time>2026-04-24T08:26:25.884Z</time></trkpt><trkpt lat="42.1902783" lon="14.6445933"><ele>2.571428571428571</ele><time>2026-04-24T08:26:27.884Z</time></trkpt><trkpt lat="42.1902267" lon="14.644675"><ele>2.7142857142857144</ele><time>2026-04-24T08:26:30.884Z</time></trkpt><trkpt lat="42.1901967" lon="14.644785"><ele>2.8571428571428568</ele><time>2026-04-24T08:26:33.885Z</time></trkpt><trkpt lat="42.19017" lon="14.6448667"><ele>3.0</ele><time>2026-04-24T08:26:35.885Z</time></trkpt><trkpt lat="42.1901367" lon="14.644955"><ele>2.9999999999999996</ele><time>2026-04-24T08:26:37.885Z</time></trkpt><trkpt lat="42.19011" lon="14.645035"><ele>3.0</ele><time>2026-04-24T08:26:39.885Z</time></trkpt><trkpt lat="42.1900733" lon="14.6451283"><ele>3.0</ele><time>2026-04-24T08:26:42.885Z</time></trkpt><trkpt lat="42.1900433" lon="14.64523"><ele>3.0</ele><time>2026-04-24T08:26:46.884Z</time></trkpt><trkpt lat="42.1900117" lon="14.6453133"><ele>3.0</ele><time>2026-04-24T08:26:50.885Z</time></trkpt><trkpt lat="42.1899733" lon="14.6453883"><ele>2.9999999999999996</ele><time>2026-04-24T08:26:54.885Z</time></trkpt><trkpt lat="42.18993" lon="14.64547"><ele>3.0</ele><time>2026-04-24T08:26:59.885Z</time></trkpt><trkpt lat="42.1898867" lon="14.6455567"><ele>2.9999999999999996</ele><time>2026-04-24T08:27:04.884Z</time></trkpt><trkpt lat="42.18985" lon="14.6456367"><ele>3.0</ele><time>2026-04-24T08:27:08.885Z</time></trkpt><trkpt lat="42.1898217" lon="14.6457383"><ele>3.0</ele><time>2026-04-24T08:27:12.885Z</time></trkpt><trkpt lat="42.1897967" lon="14.64584"><ele>3.0</ele><time>2026-04-24T08:27:16.884Z</time></trkpt><trkpt lat="42.18978" lon="14.6459283"><ele>3.0</ele><time>2026-04-24T08:27:19.885Z</time></trkpt><trkpt lat="42.18977" lon="14.64602"><ele>2.9999999999999996</ele><time>2026-04-24T08:27:22.885Z</time></trkpt><trkpt lat="42.1897483" lon="14.6461167"><ele>3.0</ele><time>2026-04-24T08:27:25.885Z</time></trkpt><trkpt lat="42.1897467" lon="14.6462217"><ele>3.3333333333333335</ele><time>2026-04-24T08:27:28.885Z</time></trkpt><trkpt lat="42.189745" lon="14.6463283"><ele>3.666666666666667</ele><time>2026-04-24T08:27:31.885Z</time></trkpt><trkpt lat="42.1897283" lon="14.6464367"><ele>4.0</ele><time>2026-04-24T08:27:34.884Z</time></trkpt><trkpt lat="42.1897133" lon="14.6465517"><ele>4.333333333333334</ele><time>2026-04-24T08:27:37.885Z</time></trkpt><trkpt lat="42.1897017" lon="14.6466633"><ele>4.666666666666667</ele><time>2026-04-24T08:27:40.884Z</time></trkpt><trkpt lat="42.189695" lon="14.64677"><ele>5.0</ele><time>2026-04-24T08:27:43.885Z</time></trkpt><trkpt lat="42.1896883" lon="14.6468867"><ele>4.833333333333334</ele><time>2026-04-24T08:27:46.884Z</time></trkpt><trkpt lat="42.18967" lon="14.647"><ele>4.666666666666667</ele><time>2026-04-24T08:27:49.884Z</time></trkpt><trkpt lat="42.189675" lon="14.647115"><ele>4.5</ele><time>2026-04-24T08:27:52.885Z</time></trkpt><trkpt lat="42.189685" lon="14.6472133"><ele>4.333333333333333</ele><time>2026-04-24T08:27:55.885Z</time></trkpt><trkpt lat="42.1896783" lon="14.6473167"><ele>4.166666666666666</ele><time>2026-04-24T08:27:58.884Z</time></trkpt><trkpt lat="42.1896733" lon="14.6474133"><ele>4.0</ele><time>2026-04-24T08:28:01.885Z</time></trkpt><trkpt lat="42.18967" lon="14.6475183"><ele>3.9999999999999996</ele><time>2026-04-24T08:28:04.884Z</time></trkpt><trkpt lat="42.1896683" lon="14.6476283"><ele>4.0</ele><time>2026-04-24T08:28:07.884Z</time></trkpt><trkpt lat="42.189665" lon="14.64774"><ele>4.0</ele><time>2026-04-24T08:28:10.885Z</time></trkpt><trkpt lat="42.1896667" lon="14.6478433"><ele>4.0</ele><time>2026-04-24T08:28:13.885Z</time></trkpt><trkpt lat="42.1896683" lon="14.6479467"><ele>3.9999999999999996</ele><time>2026-04-24T08:28:16.885Z</time></trkpt><trkpt lat="42.189685" lon="14.6480533"><ele>4.0</ele><time>2026-04-24T08:28:19.885Z</time></trkpt><trkpt lat="42.1896867" lon="14.6481517"><ele>4.5</ele><time>2026-04-24T08:28:22.885Z</time></trkpt><trkpt lat="42.18968" lon="14.64826"><ele>5.0</ele><time>2026-04-24T08:28:25.885Z</time></trkpt><trkpt lat="42.1896717" lon="14.64837"><ele>5.5</ele><time>2026-04-24T08:28:28.884Z</time></trkpt><trkpt lat="42.1896617" lon="14.64847"><ele>6.0</ele><time>2026-04-24T08:28:31.885Z</time></trkpt><trkpt lat="42.18966" lon="14.6485733"><ele>6.500000000000001</ele><time>2026-04-24T08:28:34.885Z</time></trkpt><trkpt lat="42.189655" lon="14.6486767"><ele>7.0</ele><time>2026-04-24T08:28:37.885Z</time></trkpt><trkpt lat="42.18965" lon="14.6487817"><ele>7.666666666666667</ele><time>2026-04-24T08:28:40.884Z</time></trkpt><trkpt lat="42.189645" lon="14.648895"><ele>8.333333333333334</ele><time>2026-04-24T08:28:43.885Z</time></trkpt><trkpt lat="42.1896317" lon="14.6490033"><ele>9.0</ele><time>2026-04-24T08:28:46.885Z</time></trkpt><trkpt lat="42.1896233" lon="14.6491133"><ele>9.666666666666666</ele><time>2026-04-24T08:28:49.885Z</time></trkpt><trkpt lat="42.1896217" lon="14.6492283"><ele>10.333333333333332</ele><time>2026-04-24T08:28:52.885Z</time></trkpt><trkpt lat="42.18962" lon="14.6493167"><ele>11.0</ele><time>2026-04-24T08:28:54.885Z</time></trkpt><trkpt lat="42.189605" lon="14.64942"><ele>12.571428571428571</ele><time>2026-04-24T08:28:57.884Z</time></trkpt><trkpt lat="42.189545" lon="14.6495017"><ele>14.142857142857142</ele><time>2026-04-24T08:29:00.884Z</time></trkpt><trkpt lat="42.189485" lon="14.6495683"><ele>15.714285714285715</ele><time>2026-04-24T08:29:03.885Z</time></trkpt><trkpt lat="42.1894317" lon="14.6496283"><ele>17.285714285714285</ele><time>2026-04-24T08:29:06.885Z</time></trkpt><trkpt lat="42.1893783" lon="14.6496733"><ele>18.857142857142858</ele><time>2026-04-24T08:29:09.885Z</time></trkpt><trkpt lat="42.1893333" lon="14.6497567"><ele>20.42857142857143</ele><time>2026-04-24T08:29:13.885Z</time></trkpt><trkpt lat="42.189325" lon="14.6498517"><ele>22.0</ele><time>2026-04-24T08:29:17.885Z</time></trkpt><trkpt lat="42.1893267" lon="14.6499367"><ele>22.0</ele><time>2026-04-24T08:29:22.885Z</time></trkpt><trkpt lat="42.1892783" lon="14.6500033"><ele>22.0</ele><time>2026-04-24T08:29:29.885Z</time></trkpt><trkpt lat="42.1892317" lon="14.6500733"><ele>22.0</ele><time>2026-04-24T08:29:34.885Z</time></trkpt><trkpt lat="42.1892017" lon="14.6501617"><ele>22.0</ele><time>2026-04-24T08:29:40.885Z</time></trkpt><trkpt lat="42.1891617" lon="14.6502583"><ele>22.0</ele><time>2026-04-24T08:29:44.885Z</time></trkpt><trkpt lat="42.1891217" lon="14.6503617"><ele>22.0</ele><time>2026-04-24T08:29:48.884Z</time></trkpt><trkpt lat="42.189095" lon="14.6504433"><ele>22.0</ele><time>2026-04-24T08:29:51.884Z</time></trkpt><trkpt lat="42.1890717" lon="14.65054"><ele>23.0</ele><time>2026-04-24T08:29:55.885Z</time></trkpt><trkpt lat="42.18904" lon="14.6506283"><ele>24.0</ele><time>2026-04-24T08:29:58.884Z</time></trkpt><trkpt lat="42.1890067" lon="14.6507117"><ele>25.0</ele><time>2026-04-24T08:30:01.884Z</time></trkpt><trkpt lat="42.1889733" lon="14.6507917"><ele>26.0</ele><time>2026-04-24T08:30:04.885Z</time></trkpt><trkpt lat="42.1889367" lon="14.650905"><ele>27.000000000000004</ele><time>2026-04-24T08:30:07.885Z</time></trkpt><trkpt lat="42.1889067" lon="14.65102"><ele>28.0</ele><time>2026-04-24T08:30:10.885Z</time></trkpt><trkpt lat="42.188875" lon="14.6511217"><ele>31.333333333333336</ele><time>2026-04-24T08:30:13.884Z</time></trkpt><trkpt lat="42.1888317" lon="14.651205"><ele>34.66666666666667</ele><time>2026-04-24T08:30:16.884Z</time></trkpt><trkpt lat="42.1887917" lon="14.6512917"><ele>38.0</ele><time>2026-04-24T08:30:19.885Z</time></trkpt><trkpt lat="42.188755" lon="14.6514117"><ele>41.333333333333336</ele><time>2026-04-24T08:30:22.884Z</time></trkpt><trkpt lat="42.18874" lon="14.651495"><ele>44.666666666666664</ele><time>2026-04-24T08:30:24.885Z</time></trkpt><trkpt lat="42.1887333" lon="14.651595"><ele>48.0</ele><time>2026-04-24T08:30:27.885Z</time></trkpt><trkpt lat="42.18871" lon="14.6516917"><ele>48.0</ele><time>2026-04-24T08:30:31.885Z</time></trkpt><trkpt lat="42.1886867" lon="14.651795"><ele>48.0</ele><time>2026-04-24T08:30:34.885Z</time></trkpt><trkpt lat="42.1886533" lon="14.6519"><ele>48.0</ele><time>2026-04-24T08:30:37.885Z</time></trkpt><trkpt lat="42.188635" lon="14.6519983"><ele>48.0</ele><time>2026-04-24T08:30:41.884Z</time></trkpt><trkpt lat="42.1886083" lon="14.652115"><ele>48.0</ele><time>2026-04-24T08:30:45.884Z</time></trkpt><trkpt lat="42.188595" lon="14.65223"><ele>48.0</ele><time>2026-04-24T08:30:48.885Z</time></trkpt><trkpt lat="42.1885967" lon="14.6523317"><ele>47.285714285714285</ele><time>2026-04-24T08:30:51.885Z</time></trkpt><trkpt lat="42.1885883" lon="14.652425"><ele>46.57142857142857</ele><time>2026-04-24T08:30:55.885Z</time></trkpt><trkpt lat="42.188585" lon="14.6525183"><ele>45.85714285714286</ele><time>2026-04-24T08:31:02.885Z</time></trkpt><trkpt lat="42.18852" lon="14.6526317"><ele>45.14285714285714</ele><time>2026-04-24T08:31:51.884Z</time></trkpt><trkpt lat="42.188465" lon="14.652675"><ele>44.42857142857143</ele><time>2026-04-24T08:32:27.884Z</time></trkpt><trkpt lat="42.188415" lon="14.6527483"><ele>43.714285714285715</ele><time>2026-04-24T08:32:33.885Z</time></trkpt><trkpt lat="42.18838" lon="14.6528233"><ele>43.0</ele><time>2026-04-24T08:32:37.885Z</time></trkpt><trkpt lat="42.1883233" lon="14.6528917"><ele>44.00000000000001</ele><time>2026-04-24T08:32:44.885Z</time></trkpt><trkpt lat="42.1882567" lon="14.6529267"><ele>45.0</ele><time>2026-04-24T08:32:46.884Z</time></trkpt><trkpt lat="42.1882033" lon="14.6529767"><ele>46.0</ele><time>2026-04-24T08:32:48.885Z</time></trkpt><trkpt lat="42.1881567" lon="14.653055"><ele>47.0</ele><time>2026-04-24T08:32:51.884Z</time></trkpt><trkpt lat="42.188095" lon="14.6531267"><ele>48.0</ele><time>2026-04-24T08:32:55.885Z</time></trkpt><trkpt lat="42.1880367" lon="14.653195"><ele>49.00000000000001</ele><time>2026-04-24T08:32:58.885Z</time></trkpt><trkpt lat="42.1879883" lon="14.6532567"><ele>50.0</ele><time>2026-04-24T08:33:01.885Z</time></trkpt><trkpt lat="42.1879517" lon="14.6533267"><ele>50.00000000000001</ele><time>2026-04-24T08:33:05.885Z</time></trkpt><trkpt lat="42.18788" lon="14.6533933"><ele>50.0</ele><time>2026-04-24T08:33:10.884Z</time></trkpt><trkpt lat="42.1878167" lon="14.653445"><ele>50.0</ele><time>2026-04-24T08:33:13.885Z</time></trkpt><trkpt lat="42.187765" lon="14.653505"><ele>50.0</ele><time>2026-04-24T08:33:16.885Z</time></trkpt><trkpt lat="42.187715" lon="14.6535617"><ele>50.0</ele><time>2026-04-24T08:33:19.885Z</time></trkpt><trkpt lat="42.1876533" lon="14.6536333"><ele>50.00000000000001</ele><time>2026-04-24T08:33:22.885Z</time></trkpt><trkpt lat="42.1876133" lon="14.653715"><ele>50.0</ele><time>2026-04-24T08:33:25.885Z</time></trkpt><trkpt lat="42.1875783" lon="14.6538117"><ele>50.42857142857143</ele><time>2026-04-24T08:33:28.884Z</time></trkpt><trkpt lat="42.1875267" lon="14.6538933"><ele>50.85714285714286</ele><time>2026-04-24T08:33:31.885Z</time></trkpt><trkpt lat="42.1874617" lon="14.653955"><ele>51.28571428571429</ele><time>2026-04-24T08:33:34.885Z</time></trkpt><trkpt lat="42.18741" lon="14.6540233"><ele>51.714285714285715</ele><time>2026-04-24T08:33:37.884Z</time></trkpt><trkpt lat="42.1873717" lon="14.654095"><ele>52.14285714285714</ele><time>2026-04-24T08:33:40.885Z</time></trkpt><trkpt lat="42.1873383" lon="14.6541783"><ele>52.57142857142858</ele><time>2026-04-24T08:33:43.885Z</time></trkpt><trkpt lat="42.1873067" lon="14.6542783"><ele>53.0</ele><time>2026-04-24T08:33:46.884Z</time></trkpt><trkpt lat="42.1872667" lon="14.6543833"><ele>52.66666666666667</ele><time>2026-04-24T08:33:49.884Z</time></trkpt><trkpt lat="42.1872217" lon="14.6544783"><ele>52.333333333333336</ele><time>2026-04-24T08:33:52.885Z</time></trkpt><trkpt lat="42.1871833" lon="14.6545767"><ele>52.0</ele><time>2026-04-24T08:33:55.884Z</time></trkpt><trkpt lat="42.1871333" lon="14.6546783"><ele>51.66666666666667</ele><time>2026-04-24T08:33:58.885Z</time></trkpt><trkpt lat="42.1870733" lon="14.6547617"><ele>51.333333333333336</ele><time>2026-04-24T08:34:01.885Z</time></trkpt><trkpt lat="42.1870017" lon="14.65482"><ele>51.0</ele><time>2026-04-24T08:34:04.885Z</time></trkpt><trkpt lat="42.1869217" lon="14.65483"><ele>51.0</ele><time>2026-04-24T08:34:07.885Z</time></trkpt><trkpt lat="42.186835" lon="14.65483"><ele>51.0</ele><time>2026-04-24T08:34:10.885Z</time></trkpt><trkpt lat="42.1867633" lon="14.6548117"><ele>51.0</ele><time>2026-04-24T08:34:13.885Z</time></trkpt><trkpt lat="42.186705" lon="14.6547483"><ele>51.0</ele><time>2026-04-24T08:34:16.885Z</time></trkpt><trkpt lat="42.1866667" lon="14.6546633"><ele>51.0</ele><time>2026-04-24T08:34:19.885Z</time></trkpt><trkpt lat="42.186625" lon="14.6545717"><ele>51.0</ele><time>2026-04-24T08:34:22.884Z</time></trkpt><trkpt lat="42.1865883" lon="14.654475"><ele>51.333333333333336</ele><time>2026-04-24T08:34:25.884Z</time></trkpt><trkpt lat="42.18655" lon="14.6543883"><ele>51.66666666666667</ele><time>2026-04-24T08:34:28.884Z</time></trkpt><trkpt lat="42.1865067" lon="14.6543017"><ele>52.0</ele><time>2026-04-24T08:34:31.884Z</time></trkpt><trkpt lat="42.1864633" lon="14.6542117"><ele>52.333333333333336</ele><time>2026-04-24T08:34:34.884Z</time></trkpt><trkpt lat="42.1864217" lon="14.65412"><ele>52.66666666666667</ele><time>2026-04-24T08:34:37.885Z</time></trkpt><trkpt lat="42.1863833" lon="14.6540233"><ele>53.0</ele><time>2026-04-24T08:34:40.885Z</time></trkpt><trkpt lat="42.18634" lon="14.6539317"><ele>53.00000000000001</ele><time>2026-04-24T08:34:43.885Z</time></trkpt><trkpt lat="42.1862967" lon="14.6538417"><ele>53.0</ele><time>2026-04-24T08:34:46.884Z</time></trkpt><trkpt lat="42.1862583" lon="14.6537533"><ele>53.0</ele><time>2026-04-24T08:34:49.885Z</time></trkpt><trkpt lat="42.1862167" lon="14.65366"><ele>53.0</ele><time>2026-04-24T08:34:52.884Z</time></trkpt><trkpt lat="42.1861817" lon="14.653565"><ele>53.00000000000001</ele><time>2026-04-24T08:34:55.885Z</time></trkpt><trkpt lat="42.186145" lon="14.653465"><ele>53.0</ele><time>2026-04-24T08:34:58.885Z</time></trkpt><trkpt lat="42.18612" lon="14.65337"><ele>53.16666666666667</ele><time>2026-04-24T08:35:01.884Z</time></trkpt><trkpt lat="42.1860917" lon="14.653275"><ele>53.333333333333336</ele><time>2026-04-24T08:35:04.884Z</time></trkpt><trkpt lat="42.1860617" lon="14.6531817"><ele>53.5</ele><time>2026-04-24T08:35:07.884Z</time></trkpt><trkpt lat="42.186025" lon="14.6531"><ele>53.66666666666667</ele><time>2026-04-24T08:35:10.884Z</time></trkpt><trkpt lat="42.1859517" lon="14.6530933"><ele>53.833333333333336</ele><time>2026-04-24T08:35:15.885Z</time></trkpt><trkpt lat="42.185895" lon="14.6531717"><ele>54.0</ele><time>2026-04-24T08:35:18.885Z</time></trkpt><trkpt lat="42.18583" lon="14.65326"><ele>54.0</ele><time>2026-04-24T08:35:21.885Z</time></trkpt><trkpt lat="42.1857783" lon="14.6533267"><ele>54.0</ele><time>2026-04-24T08:35:23.885Z</time></trkpt><trkpt lat="42.185725" lon="14.6534017"><ele>54.0</ele><time>2026-04-24T08:35:25.885Z</time></trkpt><trkpt lat="42.1856617" lon="14.65346"><ele>54.0</ele><time>2026-04-24T08:35:27.885Z</time></trkpt><trkpt lat="42.1855917" lon="14.65351"><ele>54.0</ele><time>2026-04-24T08:35:29.884Z</time></trkpt><trkpt lat="42.1855217" lon="14.6535617"><ele>54.0</ele><time>2026-04-24T08:35:31.884Z</time></trkpt><trkpt lat="42.1854533" lon="14.6536183"><ele>53.833333333333336</ele><time>2026-04-24T08:35:33.884Z</time></trkpt><trkpt lat="42.1853817" lon="14.6536767"><ele>53.66666666666667</ele><time>2026-04-24T08:35:35.885Z</time></trkpt><trkpt lat="42.1853067" lon="14.6537383"><ele>53.5</ele><time>2026-04-24T08:35:37.884Z</time></trkpt><trkpt lat="42.1852283" lon="14.6538"><ele>53.333333333333336</ele><time>2026-04-24T08:35:39.884Z</time></trkpt><trkpt lat="42.18515" lon="14.653865"><ele>53.16666666666667</ele><time>2026-04-24T08:35:41.885Z</time></trkpt><trkpt lat="42.1850733" lon="14.6539283"><ele>53.0</ele><time>2026-04-24T08:35:43.884Z</time></trkpt><trkpt lat="42.184995" lon="14.65399"><ele>53.00000000000001</ele><time>2026-04-24T08:35:45.884Z</time></trkpt><trkpt lat="42.1849233" lon="14.6540517"><ele>53.0</ele><time>2026-04-24T08:35:47.885Z</time></trkpt><trkpt lat="42.18485" lon="14.65411"><ele>53.0</ele><time>2026-04-24T08:35:49.885Z</time></trkpt><trkpt lat="42.1847717" lon="14.6541683"><ele>53.0</ele><time>2026-04-24T08:35:51.885Z</time></trkpt><trkpt lat="42.1846917" lon="14.65424"><ele>53.00000000000001</ele><time>2026-04-24T08:35:53.884Z</time></trkpt><trkpt lat="42.184615" lon="14.6543033"><ele>53.0</ele><time>2026-04-24T08:35:55.885Z</time></trkpt><trkpt lat="42.1845333" lon="14.6543717"><ele>53.16666666666667</ele><time>2026-04-24T08:35:57.885Z</time></trkpt><trkpt lat="42.18446" lon="14.65443"><ele>53.333333333333336</ele><time>2026-04-24T08:35:59.884Z</time></trkpt><trkpt lat="42.1843883" lon="14.6544933"><ele>53.5</ele><time>2026-04-24T08:36:01.885Z</time></trkpt><trkpt lat="42.184315" lon="14.6545617"><ele>53.66666666666667</ele><time>2026-04-24T08:36:03.885Z</time></trkpt><trkpt lat="42.1842433" lon="14.6546217"><ele>53.833333333333336</ele><time>2026-04-24T08:36:05.884Z</time></trkpt><trkpt lat="42.1841733" lon="14.6546733"><ele>54.0</ele><time>2026-04-24T08:36:07.885Z</time></trkpt><trkpt lat="42.1841033" lon="14.6547283"><ele>54.0</ele><time>2026-04-24T08:36:09.884Z</time></trkpt><trkpt lat="42.1840317" lon="14.65479"><ele>54.0</ele><time>2026-04-24T08:36:11.885Z</time></trkpt><trkpt lat="42.1839567" lon="14.6548467"><ele>54.0</ele><time>2026-04-24T08:36:13.885Z</time></trkpt><trkpt lat="42.183885" lon="14.65491"><ele>54.0</ele><time>2026-04-24T08:36:15.885Z</time></trkpt><trkpt lat="42.1838117" lon="14.6549683"><ele>54.0</ele><time>2026-04-24T08:36:17.885Z</time></trkpt><trkpt lat="42.1837317" lon="14.655025"><ele>54.0</ele><time>2026-04-24T08:36:19.885Z</time></trkpt><trkpt lat="42.1836533" lon="14.655075"><ele>53.833333333333336</ele><time>2026-04-24T08:36:21.885Z</time></trkpt><trkpt lat="42.1835767" lon="14.6551383"><ele>53.66666666666667</ele><time>2026-04-24T08:36:23.885Z</time></trkpt><trkpt lat="42.1835" lon="14.655205"><ele>53.5</ele><time>2026-04-24T08:36:25.885Z</time></trkpt><trkpt lat="42.1834283" lon="14.65527"><ele>53.333333333333336</ele><time>2026-04-24T08:36:27.884Z</time></trkpt><trkpt lat="42.1833583" lon="14.6553367"><ele>53.16666666666667</ele><time>2026-04-24T08:36:29.885Z</time></trkpt><trkpt lat="42.1832883" lon="14.6554"><ele>53.0</ele><time>2026-04-24T08:36:31.885Z</time></trkpt><trkpt lat="42.1832133" lon="14.6554567"><ele>53.16666666666667</ele><time>2026-04-24T08:36:33.884Z</time></trkpt><trkpt lat="42.1831367" lon="14.65552"><ele>53.333333333333336</ele><time>2026-04-24T08:36:35.884Z</time></trkpt><trkpt lat="42.183065" lon="14.6555783"><ele>53.5</ele><time>2026-04-24T08:36:37.885Z</time></trkpt><trkpt lat="42.1829917" lon="14.6556367"><ele>53.66666666666667</ele><time>2026-04-24T08:36:39.885Z</time></trkpt><trkpt lat="42.18292" lon="14.6556967"><ele>53.833333333333336</ele><time>2026-04-24T08:36:41.885Z</time></trkpt><trkpt lat="42.1828467" lon="14.65576"><ele>54.0</ele><time>2026-04-24T08:36:43.885Z</time></trkpt><trkpt lat="42.18277" lon="14.6558167"><ele>54.0</ele><time>2026-04-24T08:36:45.885Z</time></trkpt><trkpt lat="42.1826933" lon="14.6558717"><ele>54.0</ele><time>2026-04-24T08:36:47.884Z</time></trkpt><trkpt lat="42.1826183" lon="14.655935"><ele>54.0</ele><time>2026-04-24T08:36:49.885Z</time></trkpt><trkpt lat="42.1825483" lon="14.656"><ele>54.0</ele><time>2026-04-24T08:36:51.885Z</time></trkpt><trkpt lat="42.1824833" lon="14.656075"><ele>54.0</ele><time>2026-04-24T08:36:53.885Z</time></trkpt><trkpt lat="42.18242" lon="14.65615"><ele>54.0</ele><time>2026-04-24T08:36:55.884Z</time></trkpt><trkpt lat="42.182355" lon="14.6562233"><ele>54.166666666666664</ele><time>2026-04-24T08:36:57.885Z</time></trkpt><trkpt lat="42.1822833" lon="14.6562883"><ele>54.33333333333333</ele><time>2026-04-24T08:36:59.885Z</time></trkpt><trkpt lat="42.1822133" lon="14.6563617"><ele>54.5</ele><time>2026-04-24T08:37:01.884Z</time></trkpt><trkpt lat="42.1821433" lon="14.6564333"><ele>54.666666666666664</ele><time>2026-04-24T08:37:03.885Z</time></trkpt><trkpt lat="42.1820733" lon="14.6565083"><ele>54.83333333333333</ele><time>2026-04-24T08:37:05.885Z</time></trkpt><trkpt lat="42.1820083" lon="14.6565833"><ele>55.0</ele><time>2026-04-24T08:37:07.885Z</time></trkpt><trkpt lat="42.18194" lon="14.6566617"><ele>54.99999999999999</ele><time>2026-04-24T08:37:09.884Z</time></trkpt><trkpt lat="42.1818717" lon="14.6567417"><ele>55.0</ele><time>2026-04-24T08:37:11.885Z</time></trkpt><trkpt lat="42.1818" lon="14.6568167"><ele>55.0</ele><time>2026-04-24T08:37:13.884Z</time></trkpt><trkpt lat="42.1817333" lon="14.6568917"><ele>55.0</ele><time>2026-04-24T08:37:15.884Z</time></trkpt><trkpt lat="42.181665" lon="14.65696"><ele>54.99999999999999</ele><time>2026-04-24T08:37:17.885Z</time></trkpt><trkpt lat="42.1815983" lon="14.657035"><ele>55.0</ele><time>2026-04-24T08:37:19.885Z</time></trkpt><trkpt lat="42.18153" lon="14.65711"><ele>54.99999999999999</ele><time>2026-04-24T08:37:21.885Z</time></trkpt><trkpt lat="42.181465" lon="14.6571833"><ele>55.0</ele><time>2026-04-24T08:37:23.884Z</time></trkpt><trkpt lat="42.1813983" lon="14.6572583"><ele>55.0</ele><time>2026-04-24T08:37:25.885Z</time></trkpt><trkpt lat="42.1813317" lon="14.6573367"><ele>55.0</ele><time>2026-04-24T08:37:27.885Z</time></trkpt><trkpt lat="42.1812617" lon="14.6574117"><ele>54.99999999999999</ele><time>2026-04-24T08:37:29.885Z</time></trkpt><trkpt lat="42.181195" lon="14.657485"><ele>55.0</ele><time>2026-04-24T08:37:31.885Z</time></trkpt><trkpt lat="42.1811233" lon="14.65756"><ele>54.99999999999999</ele><time>2026-04-24T08:37:33.885Z</time></trkpt><trkpt lat="42.1810517" lon="14.6576283"><ele>55.0</ele><time>2026-04-24T08:37:35.885Z</time></trkpt><trkpt lat="42.1809817" lon="14.6577017"><ele>55.0</ele><time>2026-04-24T08:37:37.885Z</time></trkpt><trkpt lat="42.18091" lon="14.6577733"><ele>55.0</ele><time>2026-04-24T08:37:39.885Z</time></trkpt><trkpt lat="42.1808333" lon="14.65784"><ele>54.99999999999999</ele><time>2026-04-24T08:37:41.885Z</time></trkpt><trkpt lat="42.1807567" lon="14.657905"><ele>55.0</ele><time>2026-04-24T08:37:43.884Z</time></trkpt><trkpt lat="42.180675" lon="14.6579667"><ele>54.8</ele><time>2026-04-24T08:37:45.885Z</time></trkpt><trkpt lat="42.180595" lon="14.6580267"><ele>54.6</ele><time>2026-04-24T08:37:47.884Z</time></trkpt><trkpt lat="42.1805183" lon="14.6580883"><ele>54.400000000000006</ele><time>2026-04-24T08:37:49.885Z</time></trkpt><trkpt lat="42.1804383" lon="14.6581583"><ele>54.2</ele><time>2026-04-24T08:37:51.884Z</time></trkpt><trkpt lat="42.18036" lon="14.65824"><ele>54.0</ele><time>2026-04-24T08:37:53.885Z</time></trkpt><trkpt lat="42.180285" lon="14.6583333"><ele>54.0</ele><time>2026-04-24T08:37:55.885Z</time></trkpt><trkpt lat="42.1802133" lon="14.6584317"><ele>54.00000000000001</ele><time>2026-04-24T08:37:57.885Z</time></trkpt><trkpt lat="42.1801467" lon="14.65854"><ele>54.00000000000001</ele><time>2026-04-24T08:37:59.885Z</time></trkpt><trkpt lat="42.1800817" lon="14.6586633"><ele>54.0</ele><time>2026-04-24T08:38:01.884Z</time></trkpt><trkpt lat="42.18002" lon="14.6587783"><ele>54.0</ele><time>2026-04-24T08:38:03.884Z</time></trkpt><trkpt lat="42.179955" lon="14.658895"><ele>53.75</ele><time>2026-04-24T08:38:05.885Z</time></trkpt><trkpt lat="42.1798867" lon="14.6590117"><ele>53.5</ele><time>2026-04-24T08:38:07.884Z</time></trkpt><trkpt lat="42.1798183" lon="14.6591367"><ele>53.25</ele><time>2026-04-24T08:38:09.885Z</time></trkpt><trkpt lat="42.1797483" lon="14.6592617"><ele>53.0</ele><time>2026-04-24T08:38:11.885Z</time></trkpt><trkpt lat="42.17968" lon="14.6593867"><ele>52.25</ele><time>2026-04-24T08:38:13.884Z</time></trkpt><trkpt lat="42.1796117" lon="14.6595117"><ele>51.5</ele><time>2026-04-24T08:38:15.884Z</time></trkpt><trkpt lat="42.179545" lon="14.6596433"><ele>50.75</ele><time>2026-04-24T08:38:17.885Z</time></trkpt><trkpt lat="42.1794717" lon="14.6597617"><ele>50.0</ele><time>2026-04-24T08:38:19.885Z</time></trkpt><trkpt lat="42.1794017" lon="14.659885"><ele>50.0</ele><time>2026-04-24T08:38:21.884Z</time></trkpt><trkpt lat="42.1793267" lon="14.660015"><ele>50.0</ele><time>2026-04-24T08:38:23.884Z</time></trkpt><trkpt lat="42.1792533" lon="14.66015"><ele>50.0</ele><time>2026-04-24T08:38:25.885Z</time></trkpt><trkpt lat="42.1791783" lon="14.660275"><ele>50.0</ele><time>2026-04-24T08:38:27.885Z</time></trkpt><trkpt lat="42.1791017" lon="14.6604017"><ele>50.0</ele><time>2026-04-24T08:38:29.884Z</time></trkpt><trkpt lat="42.1790283" lon="14.6605333"><ele>50.0</ele><time>2026-04-24T08:38:31.885Z</time></trkpt><trkpt lat="42.1789667" lon="14.660655"><ele>50.0</ele><time>2026-04-24T08:38:33.885Z</time></trkpt><trkpt lat="42.178915" lon="14.6607733"><ele>50.0</ele><time>2026-04-24T08:38:35.885Z</time></trkpt><trkpt lat="42.17887" lon="14.6608917"><ele>50.0</ele><time>2026-04-24T08:38:37.884Z</time></trkpt><trkpt lat="42.1788367" lon="14.6610117"><ele>50.2</ele><time>2026-04-24T08:38:39.884Z</time></trkpt><trkpt lat="42.17881" lon="14.66113"><ele>50.4</ele><time>2026-04-24T08:38:41.884Z</time></trkpt><trkpt lat="42.178785" lon="14.6612583"><ele>50.599999999999994</ele><time>2026-04-24T08:38:43.885Z</time></trkpt><trkpt lat="42.1787583" lon="14.6613883"><ele>50.8</ele><time>2026-04-24T08:38:45.884Z</time></trkpt><trkpt lat="42.1787367" lon="14.6615133"><ele>51.0</ele><time>2026-04-24T08:38:47.885Z</time></trkpt><trkpt lat="42.1787083" lon="14.6616417"><ele>51.0</ele><time>2026-04-24T08:38:49.885Z</time></trkpt><trkpt lat="42.1786733" lon="14.66178"><ele>51.0</ele><time>2026-04-24T08:38:51.884Z</time></trkpt><trkpt lat="42.1786383" lon="14.6619233"><ele>51.0</ele><time>2026-04-24T08:38:53.884Z</time></trkpt><trkpt lat="42.1786217" lon="14.662065"><ele>51.0</ele><time>2026-04-24T08:38:55.884Z</time></trkpt><trkpt lat="42.1785883" lon="14.6622033"><ele>51.0</ele><time>2026-04-24T08:38:57.884Z</time></trkpt><trkpt lat="42.178575" lon="14.6622867"><ele>50.5</ele><time>2026-04-24T08:38:58.884Z</time></trkpt><trkpt lat="42.1785483" lon="14.66244"><ele>50.0</ele><time>2026-04-24T08:39:00.884Z</time></trkpt><trkpt lat="42.17852" lon="14.6625883"><ele>49.5</ele><time>2026-04-24T08:39:02.885Z</time></trkpt><trkpt lat="42.1784767" lon="14.662735"><ele>49.0</ele><time>2026-04-24T08:39:04.885Z</time></trkpt><trkpt lat="42.178425" lon="14.6628733"><ele>49.0</ele><time>2026-04-24T08:39:06.885Z</time></trkpt><trkpt lat="42.1783717" lon="14.6630033"><ele>49.0</ele><time>2026-04-24T08:39:08.885Z</time></trkpt><trkpt lat="42.1783083" lon="14.66313"><ele>49.0</ele><time>2026-04-24T08:39:10.885Z</time></trkpt><trkpt lat="42.1782417" lon="14.6632383"><ele>49.0</ele><time>2026-04-24T08:39:12.885Z</time></trkpt><trkpt lat="42.1781783" lon="14.6633617"><ele>49.0</ele><time>2026-04-24T08:39:14.884Z</time></trkpt><trkpt lat="42.1781133" lon="14.66349"><ele>49.0</ele><time>2026-04-24T08:39:16.885Z</time></trkpt><trkpt lat="42.17805" lon="14.6636133"><ele>49.0</ele><time>2026-04-24T08:39:18.885Z</time></trkpt><trkpt lat="42.177975" lon="14.6637417"><ele>49.0</ele><time>2026-04-24T08:39:20.885Z</time></trkpt><trkpt lat="42.17793" lon="14.663805"><ele>49.0</ele><time>2026-04-24T08:39:21.885Z</time></trkpt><trkpt lat="42.1778717" lon="14.6639233"><ele>49.0</ele><time>2026-04-24T08:39:23.884Z</time></trkpt><trkpt lat="42.1778117" lon="14.6640433"><ele>48.800000000000004</ele><time>2026-04-24T08:39:25.885Z</time></trkpt><trkpt lat="42.1777583" lon="14.664165"><ele>48.6</ele><time>2026-04-24T08:39:27.884Z</time></trkpt><trkpt lat="42.1777" lon="14.6642817"><ele>48.4</ele><time>2026-04-24T08:39:29.885Z</time></trkpt><trkpt lat="42.1776317" lon="14.6643917"><ele>48.2</ele><time>2026-04-24T08:39:31.884Z</time></trkpt><trkpt lat="42.17756" lon="14.664485"><ele>48.0</ele><time>2026-04-24T08:39:33.885Z</time></trkpt><trkpt lat="42.1774883" lon="14.6645867"><ele>47.8</ele><time>2026-04-24T08:39:35.884Z</time></trkpt><trkpt lat="42.1774167" lon="14.664685"><ele>47.599999999999994</ele><time>2026-04-24T08:39:37.885Z</time></trkpt><trkpt lat="42.177345" lon="14.6647767"><ele>47.400000000000006</ele><time>2026-04-24T08:39:39.884Z</time></trkpt><trkpt lat="42.1772717" lon="14.6648633"><ele>47.2</ele><time>2026-04-24T08:39:41.885Z</time></trkpt><trkpt lat="42.1772067" lon="14.664955"><ele>47.0</ele><time>2026-04-24T08:39:43.885Z</time></trkpt><trkpt lat="42.1771233" lon="14.665045"><ele>47.5</ele><time>2026-04-24T08:39:45.885Z</time></trkpt><trkpt lat="42.1770317" lon="14.6651433"><ele>48.0</ele><time>2026-04-24T08:39:47.884Z</time></trkpt><trkpt lat="42.1769433" lon="14.66526"><ele>48.5</ele><time>2026-04-24T08:39:49.884Z</time></trkpt><trkpt lat="42.1768717" lon="14.6653583"><ele>49.0</ele><time>2026-04-24T08:39:51.884Z</time></trkpt><trkpt lat="42.1767917" lon="14.66546"><ele>49.0</ele><time>2026-04-24T08:39:53.884Z</time></trkpt><trkpt lat="42.1767167" lon="14.66556"><ele>49.0</ele><time>2026-04-24T08:39:55.885Z</time></trkpt><trkpt lat="42.1766283" lon="14.6656617"><ele>49.0</ele><time>2026-04-24T08:39:57.884Z</time></trkpt><trkpt lat="42.17654" lon="14.6657633"><ele>49.0</ele><time>2026-04-24T08:39:59.885Z</time></trkpt><trkpt lat="42.176455" lon="14.6658667"><ele>49.0</ele><time>2026-04-24T08:40:01.885Z</time></trkpt><trkpt lat="42.1763683" lon="14.6659683"><ele>49.0</ele><time>2026-04-24T08:40:03.885Z</time></trkpt><trkpt lat="42.1762683" lon="14.666065"><ele>49.0</ele><time>2026-04-24T08:40:05.885Z</time></trkpt><trkpt lat="42.1761583" lon="14.6661583"><ele>49.0</ele><time>2026-04-24T08:40:07.885Z</time></trkpt><trkpt lat="42.176105" lon="14.6662067"><ele>49.0</ele><time>2026-04-24T08:40:08.884Z</time></trkpt><trkpt lat="42.1760467" lon="14.666245"><ele>48.49999999999999</ele><time>2026-04-24T08:40:09.885Z</time></trkpt><trkpt lat="42.1759867" lon="14.6662817"><ele>48.0</ele><time>2026-04-24T08:40:10.885Z</time></trkpt><trkpt lat="42.17592" lon="14.6663183"><ele>47.5</ele><time>2026-04-24T08:40:11.885Z</time></trkpt><trkpt lat="42.1758567" lon="14.6663617"><ele>47.0</ele><time>2026-04-24T08:40:12.885Z</time></trkpt><trkpt lat="42.1757883" lon="14.6664083"><ele>46.5</ele><time>2026-04-24T08:40:13.885Z</time></trkpt><trkpt lat="42.1757183" lon="14.6664617"><ele>46.0</ele><time>2026-04-24T08:40:14.884Z</time></trkpt><trkpt lat="42.175645" lon="14.6665217"><ele>45.4</ele><time>2026-04-24T08:40:15.884Z</time></trkpt><trkpt lat="42.1755717" lon="14.6665917"><ele>44.8</ele><time>2026-04-24T08:40:16.885Z</time></trkpt><trkpt lat="42.1754967" lon="14.66666"><ele>44.199999999999996</ele><time>2026-04-24T08:40:17.885Z</time></trkpt><trkpt lat="42.1754217" lon="14.6667367"><ele>43.599999999999994</ele><time>2026-04-24T08:40:18.885Z</time></trkpt><trkpt lat="42.1753433" lon="14.6668233"><ele>43.0</ele><time>2026-04-24T08:40:19.885Z</time></trkpt><trkpt lat="42.175265" lon="14.66692"><ele>42.599999999999994</ele><time>2026-04-24T08:40:20.884Z</time></trkpt><trkpt lat="42.175185" lon="14.6670117"><ele>42.199999999999996</ele><time>2026-04-24T08:40:21.884Z</time></trkpt><trkpt lat="42.1751033" lon="14.6671067"><ele>41.8</ele><time>2026-04-24T08:40:22.885Z</time></trkpt><trkpt lat="42.1750167" lon="14.667195"><ele>41.4</ele><time>2026-04-24T08:40:23.884Z</time></trkpt><trkpt lat="42.1749367" lon="14.667285"><ele>41.0</ele><time>2026-04-24T08:40:24.884Z</time></trkpt><trkpt lat="42.1748633" lon="14.6673717"><ele>41.666666666666664</ele><time>2026-04-24T08:40:25.885Z</time></trkpt><trkpt lat="42.1747883" lon="14.66746"><ele>42.33333333333333</ele><time>2026-04-24T08:40:26.885Z</time></trkpt><trkpt lat="42.17472" lon="14.6675433"><ele>43.0</ele><time>2026-04-24T08:40:27.885Z</time></trkpt><trkpt lat="42.17466" lon="14.6676133"><ele>43.666666666666664</ele><time>2026-04-24T08:40:28.885Z</time></trkpt><trkpt lat="42.174605" lon="14.667675"><ele>44.333333333333336</ele><time>2026-04-24T08:40:29.885Z</time></trkpt><trkpt lat="42.1745617" lon="14.6677367"><ele>45.0</ele><time>2026-04-24T08:40:30.885Z</time></trkpt><trkpt lat="42.17449" lon="14.6678283"><ele>45.333333333333336</ele><time>2026-04-24T08:40:32.885Z</time></trkpt><trkpt lat="42.1744367" lon="14.66789"><ele>45.666666666666664</ele><time>2026-04-24T08:40:34.885Z</time></trkpt><trkpt lat="42.1743767" lon="14.667985"><ele>46.0</ele><time>2026-04-24T08:40:37.885Z</time></trkpt><trkpt lat="42.1743333" lon="14.6680917"><ele>46.33333333333333</ele><time>2026-04-24T08:40:40.884Z</time></trkpt><trkpt lat="42.1743133" lon="14.6681783"><ele>46.666666666666664</ele><time>2026-04-24T08:40:42.885Z</time></trkpt><trkpt lat="42.1742883" lon="14.6682767"><ele>47.0</ele><time>2026-04-24T08:40:44.884Z</time></trkpt><trkpt lat="42.1742833" lon="14.668365"><ele>47.0</ele><time>2026-04-24T08:40:46.885Z</time></trkpt><trkpt lat="42.1742733" lon="14.6684583"><ele>47.0</ele><time>2026-04-24T08:40:48.885Z</time></trkpt><trkpt lat="42.1742667" lon="14.6685733"><ele>47.0</ele><time>2026-04-24T08:40:51.885Z</time></trkpt><trkpt lat="42.1742467" lon="14.668685"><ele>47.0</ele><time>2026-04-24T08:40:54.885Z</time></trkpt><trkpt lat="42.1742283" lon="14.6687733"><ele>47.0</ele><time>2026-04-24T08:40:56.885Z</time></trkpt><trkpt lat="42.1742117" lon="14.6688667"><ele>47.0</ele><time>2026-04-24T08:40:58.885Z</time></trkpt><trkpt lat="42.1741967" lon="14.66896"><ele>47.0</ele><time>2026-04-24T08:41:00.885Z</time></trkpt><trkpt lat="42.1741633" lon="14.6690717"><ele>47.0</ele><time>2026-04-24T08:41:03.884Z</time></trkpt><trkpt lat="42.1741433" lon="14.6691783"><ele>47.0</ele><time>2026-04-24T08:41:05.885Z</time></trkpt><trkpt lat="42.1741083" lon="14.66929"><ele>47.0</ele><time>2026-04-24T08:41:07.885Z</time></trkpt><trkpt lat="42.1740717" lon="14.6693967"><ele>47.0</ele><time>2026-04-24T08:41:09.885Z</time></trkpt><trkpt lat="42.1740383" lon="14.6695033"><ele>47.0</ele><time>2026-04-24T08:41:11.885Z</time></trkpt><trkpt lat="42.1739983" lon="14.6696033"><ele>47.166666666666664</ele><time>2026-04-24T08:41:13.884Z</time></trkpt><trkpt lat="42.17396" lon="14.6697067"><ele>47.33333333333333</ele><time>2026-04-24T08:41:15.885Z</time></trkpt><trkpt lat="42.1739233" lon="14.6698"><ele>47.5</ele><time>2026-04-24T08:41:17.885Z</time></trkpt><trkpt lat="42.173885" lon="14.6698967"><ele>47.666666666666664</ele><time>2026-04-24T08:41:19.885Z</time></trkpt><trkpt lat="42.1738483" lon="14.6699867"><ele>47.833333333333336</ele><time>2026-04-24T08:41:21.885Z</time></trkpt><trkpt lat="42.17381" lon="14.6700867"><ele>48.0</ele><time>2026-04-24T08:41:23.885Z</time></trkpt><trkpt lat="42.173755" lon="14.670195"><ele>47.8</ele><time>2026-04-24T08:41:25.884Z</time></trkpt><trkpt lat="42.1737083" lon="14.670295"><ele>47.599999999999994</ele><time>2026-04-24T08:41:27.885Z</time></trkpt><trkpt lat="42.1736633" lon="14.6703967"><ele>47.400000000000006</ele><time>2026-04-24T08:41:29.885Z</time></trkpt><trkpt lat="42.17362" lon="14.6704983"><ele>47.2</ele><time>2026-04-24T08:41:31.885Z</time></trkpt><trkpt lat="42.1735767" lon="14.6706133"><ele>47.0</ele><time>2026-04-24T08:41:33.885Z</time></trkpt><trkpt lat="42.173535" lon="14.67073"><ele>47.0</ele><time>2026-04-24T08:41:35.884Z</time></trkpt><trkpt lat="42.1734933" lon="14.6708517"><ele>47.0</ele><time>2026-04-24T08:41:37.884Z</time></trkpt><trkpt lat="42.1734383" lon="14.6709883"><ele>47.0</ele><time>2026-04-24T08:41:39.884Z</time></trkpt><trkpt lat="42.1733767" lon="14.6711233"><ele>47.0</ele><time>2026-04-24T08:41:41.884Z</time></trkpt><trkpt lat="42.1733117" lon="14.671275"><ele>46.5</ele><time>2026-04-24T08:41:43.885Z</time></trkpt><trkpt lat="42.173275" lon="14.6713533"><ele>46.0</ele><time>2026-04-24T08:41:44.885Z</time></trkpt><trkpt lat="42.1732433" lon="14.6714417"><ele>45.5</ele><time>2026-04-24T08:41:45.885Z</time></trkpt><trkpt lat="42.1732083" lon="14.6715367"><ele>45.0</ele><time>2026-04-24T08:41:46.884Z</time></trkpt><trkpt lat="42.1731717" lon="14.67163"><ele>44.5</ele><time>2026-04-24T08:41:47.885Z</time></trkpt><trkpt lat="42.1731267" lon="14.6717233"><ele>44.0</ele><time>2026-04-24T08:41:48.885Z</time></trkpt><trkpt lat="42.17308" lon="14.67182"><ele>44.0</ele><time>2026-04-24T08:41:49.885Z</time></trkpt><trkpt lat="42.1730367" lon="14.6719183"><ele>44.0</ele><time>2026-04-24T08:41:50.885Z</time></trkpt><trkpt lat="42.172995" lon="14.6720217"><ele>44.0</ele><time>2026-04-24T08:41:51.885Z</time></trkpt><trkpt lat="42.1729483" lon="14.67212"><ele>44.0</ele><time>2026-04-24T08:41:52.884Z</time></trkpt><trkpt lat="42.1729" lon="14.6722133"><ele>44.0</ele><time>2026-04-24T08:41:53.884Z</time></trkpt><trkpt lat="42.1728617" lon="14.6723083"><ele>44.0</ele><time>2026-04-24T08:41:54.885Z</time></trkpt><trkpt lat="42.1728233" lon="14.6724017"><ele>44.0</ele><time>2026-04-24T08:41:55.885Z</time></trkpt><trkpt lat="42.1727917" lon="14.67249"><ele>44.0</ele><time>2026-04-24T08:41:56.885Z</time></trkpt><trkpt lat="42.1727567" lon="14.672575"><ele>44.0</ele><time>2026-04-24T08:41:57.885Z</time></trkpt><trkpt lat="42.172725" lon="14.6726583"><ele>44.0</ele><time>2026-04-24T08:41:58.884Z</time></trkpt><trkpt lat="42.1726933" lon="14.672735"><ele>44.0</ele><time>2026-04-24T08:41:59.885Z</time></trkpt><trkpt lat="42.1726267" lon="14.6728483"><ele>44.0</ele><time>2026-04-24T08:42:01.884Z</time></trkpt><trkpt lat="42.1725617" lon="14.6729317"><ele>44.0</ele><time>2026-04-24T08:42:03.885Z</time></trkpt><trkpt lat="42.172505" lon="14.6730083"><ele>44.0</ele><time>2026-04-24T08:42:05.884Z</time></trkpt><trkpt lat="42.1724483" lon="14.6730783"><ele>44.0</ele><time>2026-04-24T08:42:07.885Z</time></trkpt><trkpt lat="42.17239" lon="14.6731433"><ele>44.0</ele><time>2026-04-24T08:42:09.884Z</time></trkpt><trkpt lat="42.1723283" lon="14.673215"><ele>44.0</ele><time>2026-04-24T08:42:11.885Z</time></trkpt><trkpt lat="42.172265" lon="14.6732867"><ele>44.0</ele><time>2026-04-24T08:42:13.885Z</time></trkpt><trkpt lat="42.17221" lon="14.673355"><ele>44.166666666666664</ele><time>2026-04-24T08:42:15.885Z</time></trkpt><trkpt lat="42.1721633" lon="14.6734267"><ele>44.33333333333333</ele><time>2026-04-24T08:42:17.885Z</time></trkpt><trkpt lat="42.1721133" lon="14.6734983"><ele>44.5</ele><time>2026-04-24T08:42:19.884Z</time></trkpt><trkpt lat="42.172065" lon="14.673575"><ele>44.666666666666664</ele><time>2026-04-24T08:42:21.885Z</time></trkpt><trkpt lat="42.1720233" lon="14.6736533"><ele>44.833333333333336</ele><time>2026-04-24T08:42:23.884Z</time></trkpt><trkpt lat="42.1719733" lon="14.67374"><ele>45.0</ele><time>2026-04-24T08:42:25.885Z</time></trkpt><trkpt lat="42.17193" lon="14.67383"><ele>45.333333333333336</ele><time>2026-04-24T08:42:27.884Z</time></trkpt><trkpt lat="42.1718883" lon="14.6739167"><ele>45.666666666666664</ele><time>2026-04-24T08:42:29.885Z</time></trkpt><trkpt lat="42.1718417" lon="14.6740033"><ele>46.0</ele><time>2026-04-24T08:42:31.885Z</time></trkpt><trkpt lat="42.1717967" lon="14.6740933"><ele>46.33333333333333</ele><time>2026-04-24T08:42:33.885Z</time></trkpt><trkpt lat="42.1717517" lon="14.6741867"><ele>46.666666666666664</ele><time>2026-04-24T08:42:35.884Z</time></trkpt><trkpt lat="42.17171" lon="14.6742717"><ele>47.0</ele><time>2026-04-24T08:42:37.885Z</time></trkpt><trkpt lat="42.1716717" lon="14.6743567"><ele>46.83333333333333</ele><time>2026-04-24T08:42:39.885Z</time></trkpt><trkpt lat="42.1716283" lon="14.674445"><ele>46.666666666666664</ele><time>2026-04-24T08:42:41.885Z</time></trkpt><trkpt lat="42.171575" lon="14.674535"><ele>46.5</ele><time>2026-04-24T08:42:43.884Z</time></trkpt><trkpt lat="42.1715283" lon="14.67462"><ele>46.333333333333336</ele><time>2026-04-24T08:42:45.885Z</time></trkpt><trkpt lat="42.1714783" lon="14.6747017"><ele>46.16666666666667</ele><time>2026-04-24T08:42:47.885Z</time></trkpt><trkpt lat="42.171425" lon="14.67478"><ele>46.0</ele><time>2026-04-24T08:42:49.885Z</time></trkpt><trkpt lat="42.171355" lon="14.674845"><ele>46.333333333333336</ele><time>2026-04-24T08:42:51.884Z</time></trkpt><trkpt lat="42.17129" lon="14.6749033"><ele>46.66666666666667</ele><time>2026-04-24T08:42:53.884Z</time></trkpt><trkpt lat="42.171245" lon="14.67497"><ele>47.0</ele><time>2026-04-24T08:42:55.884Z</time></trkpt><trkpt lat="42.1712583" lon="14.6750633"><ele>47.333333333333336</ele><time>2026-04-24T08:42:57.885Z</time></trkpt><trkpt lat="42.1713367" lon="14.6751567"><ele>47.666666666666664</ele><time>2026-04-24T08:42:59.885Z</time></trkpt><trkpt lat="42.1714417" lon="14.67523"><ele>48.0</ele><time>2026-04-24T08:43:01.885Z</time></trkpt><trkpt lat="42.1715533" lon="14.6753083"><ele>47.2</ele><time>2026-04-24T08:43:03.885Z</time></trkpt><trkpt lat="42.1716117" lon="14.6753483"><ele>46.4</ele><time>2026-04-24T08:43:04.885Z</time></trkpt><trkpt lat="42.171725" lon="14.675425"><ele>45.6</ele><time>2026-04-24T08:43:06.885Z</time></trkpt><trkpt lat="42.171835" lon="14.6755017"><ele>44.800000000000004</ele><time>2026-04-24T08:43:08.885Z</time></trkpt><trkpt lat="42.171895" lon="14.6755367"><ele>44.0</ele><time>2026-04-24T08:43:09.884Z</time></trkpt><trkpt lat="42.1720083" lon="14.6756083"><ele>44.0</ele><time>2026-04-24T08:43:11.885Z</time></trkpt><trkpt lat="42.1721117" lon="14.6756833"><ele>44.0</ele><time>2026-04-24T08:43:13.885Z</time></trkpt><trkpt lat="42.1721667" lon="14.675725"><ele>44.0</ele><time>2026-04-24T08:43:14.884Z</time></trkpt><trkpt lat="42.1722267" lon="14.675765"><ele>44.0</ele><time>2026-04-24T08:43:15.885Z</time></trkpt><trkpt lat="42.1723367" lon="14.675845"><ele>44.0</ele><time>2026-04-24T08:43:17.884Z</time></trkpt><trkpt lat="42.1723933" lon="14.6758867"><ele>44.0</ele><time>2026-04-24T08:43:18.884Z</time></trkpt><trkpt lat="42.1725" lon="14.675965"><ele>43.75</ele><time>2026-04-24T08:43:20.885Z</time></trkpt><trkpt lat="42.1726033" lon="14.6760367"><ele>43.5</ele><time>2026-04-24T08:43:22.885Z</time></trkpt><trkpt lat="42.1727" lon="14.6761183"><ele>43.25</ele><time>2026-04-24T08:43:24.885Z</time></trkpt><trkpt lat="42.1727983" lon="14.67619"><ele>43.0</ele><time>2026-04-24T08:43:26.884Z</time></trkpt><trkpt lat="42.1728967" lon="14.6762617"><ele>42.5</ele><time>2026-04-24T08:43:28.885Z</time></trkpt><trkpt lat="42.173" lon="14.67633"><ele>42.0</ele><time>2026-04-24T08:43:30.884Z</time></trkpt><trkpt lat="42.1731" lon="14.6763983"><ele>41.5</ele><time>2026-04-24T08:43:32.884Z</time></trkpt><trkpt lat="42.173205" lon="14.6764667"><ele>41.0</ele><time>2026-04-24T08:43:34.885Z</time></trkpt><trkpt lat="42.1733067" lon="14.6765333"><ele>41.0</ele><time>2026-04-24T08:43:36.884Z</time></trkpt><trkpt lat="42.1734017" lon="14.67659"><ele>41.0</ele><time>2026-04-24T08:43:38.885Z</time></trkpt><trkpt lat="42.1735033" lon="14.6766633"><ele>41.0</ele><time>2026-04-24T08:43:40.885Z</time></trkpt><trkpt lat="42.1735667" lon="14.6767033"><ele>41.0</ele><time>2026-04-24T08:43:41.885Z</time></trkpt><trkpt lat="42.17363" lon="14.6767417"><ele>41.0</ele><time>2026-04-24T08:43:42.885Z</time></trkpt><trkpt lat="42.1736933" lon="14.6767867"><ele>41.0</ele><time>2026-04-24T08:43:43.885Z</time></trkpt><trkpt lat="42.1737517" lon="14.6768333"><ele>41.0</ele><time>2026-04-24T08:43:44.885Z</time></trkpt><trkpt lat="42.1738083" lon="14.67688"><ele>41.0</ele><time>2026-04-24T08:43:45.884Z</time></trkpt><trkpt lat="42.1738617" lon="14.67693"><ele>41.0</ele><time>2026-04-24T08:43:46.884Z</time></trkpt><trkpt lat="42.1739167" lon="14.6769717"><ele>41.0</ele><time>2026-04-24T08:43:47.885Z</time></trkpt><trkpt lat="42.17402" lon="14.6770617"><ele>41.0</ele><time>2026-04-24T08:43:49.885Z</time></trkpt><trkpt lat="42.174115" lon="14.6771433"><ele>41.0</ele><time>2026-04-24T08:43:51.884Z</time></trkpt><trkpt lat="42.1742" lon="14.6772217"><ele>40.599999999999994</ele><time>2026-04-24T08:43:53.885Z</time></trkpt><trkpt lat="42.1742867" lon="14.677295"><ele>40.199999999999996</ele><time>2026-04-24T08:43:55.885Z</time></trkpt><trkpt lat="42.1743683" lon="14.677365"><ele>39.8</ele><time>2026-04-24T08:43:57.884Z</time></trkpt><trkpt lat="42.1744517" lon="14.677415"><ele>39.4</ele><time>2026-04-24T08:43:59.885Z</time></trkpt><trkpt lat="42.1745333" lon="14.6774533"><ele>39.0</ele><time>2026-04-24T08:44:01.885Z</time></trkpt><trkpt lat="42.1746117" lon="14.6774867"><ele>39.0</ele><time>2026-04-24T08:44:03.885Z</time></trkpt><trkpt lat="42.174695" lon="14.6775083"><ele>39.0</ele><time>2026-04-24T08:44:05.885Z</time></trkpt><trkpt lat="42.1747733" lon="14.67752"><ele>39.0</ele><time>2026-04-24T08:44:07.885Z</time></trkpt><trkpt lat="42.1748367" lon="14.6775267"><ele>39.0</ele><time>2026-04-24T08:44:09.884Z</time></trkpt><trkpt lat="42.174905" lon="14.67753"><ele>39.0</ele><time>2026-04-24T08:44:11.884Z</time></trkpt><trkpt lat="42.17499" lon="14.677535"><ele>39.0</ele><time>2026-04-24T08:44:14.884Z</time></trkpt><trkpt lat="42.1750817" lon="14.67755"><ele>38.85714285714286</ele><time>2026-04-24T08:44:17.885Z</time></trkpt><trkpt lat="42.1751517" lon="14.677545"><ele>38.71428571428571</ele><time>2026-04-24T08:44:19.885Z</time></trkpt><trkpt lat="42.1752233" lon="14.6775317"><ele>38.57142857142857</ele><time>2026-04-24T08:44:21.885Z</time></trkpt><trkpt lat="42.1752933" lon="14.677515"><ele>38.42857142857143</ele><time>2026-04-24T08:44:23.885Z</time></trkpt><trkpt lat="42.1753583" lon="14.67749"><ele>38.28571428571429</ele><time>2026-04-24T08:44:25.885Z</time></trkpt><trkpt lat="42.1754267" lon="14.6774533"><ele>38.14285714285714</ele><time>2026-04-24T08:44:27.885Z</time></trkpt><trkpt lat="42.1754983" lon="14.6774117"><ele>38.0</ele><time>2026-04-24T08:44:29.885Z</time></trkpt><trkpt lat="42.1755733" lon="14.6774067"><ele>38.0</ele><time>2026-04-24T08:44:31.885Z</time></trkpt><trkpt lat="42.1756467" lon="14.6774517"><ele>38.0</ele><time>2026-04-24T08:44:34.884Z</time></trkpt><trkpt lat="42.1756633" lon="14.677555"><ele>38.0</ele><time>2026-04-24T08:44:37.884Z</time></trkpt><trkpt lat="42.1756483" lon="14.6776767"><ele>38.0</ele><time>2026-04-24T08:44:40.885Z</time></trkpt><trkpt lat="42.1756417" lon="14.677775"><ele>38.0</ele><time>2026-04-24T08:44:42.884Z</time></trkpt><trkpt lat="42.1756383" lon="14.67787"><ele>38.0</ele><time>2026-04-24T08:44:44.885Z</time></trkpt><trkpt lat="42.1756283" lon="14.6779617"><ele>37.83333333333333</ele><time>2026-04-24T08:44:46.884Z</time></trkpt><trkpt lat="42.1756033" lon="14.678085"><ele>37.666666666666664</ele><time>2026-04-24T08:44:49.884Z</time></trkpt><trkpt lat="42.175575" lon="14.678205"><ele>37.5</ele><time>2026-04-24T08:44:52.885Z</time></trkpt><trkpt lat="42.1755367" lon="14.67828"><ele>37.333333333333336</ele><time>2026-04-24T08:44:54.885Z</time></trkpt><trkpt lat="42.1754933" lon="14.6783567"><ele>37.16666666666667</ele><time>2026-04-24T08:44:56.885Z</time></trkpt><trkpt lat="42.175445" lon="14.67843"><ele>37.0</ele><time>2026-04-24T08:44:58.884Z</time></trkpt><trkpt lat="42.1753933" lon="14.67851"><ele>37.0</ele><time>2026-04-24T08:45:00.885Z</time></trkpt><trkpt lat="42.17535" lon="14.6785867"><ele>37.0</ele><time>2026-04-24T08:45:02.884Z</time></trkpt><trkpt lat="42.175305" lon="14.6786533"><ele>37.0</ele><time>2026-04-24T08:45:04.884Z</time></trkpt><trkpt lat="42.1752567" lon="14.6787217"><ele>37.0</ele><time>2026-04-24T08:45:06.885Z</time></trkpt><trkpt lat="42.1752167" lon="14.6788033"><ele>37.0</ele><time>2026-04-24T08:45:08.885Z</time></trkpt><trkpt lat="42.1751767" lon="14.6788967"><ele>37.0</ele><time>2026-04-24T08:45:10.884Z</time></trkpt><trkpt lat="42.175145" lon="14.6789883"><ele>37.0</ele><time>2026-04-24T08:45:12.884Z</time></trkpt><trkpt lat="42.1751267" lon="14.6790933"><ele>37.0</ele><time>2026-04-24T08:45:14.885Z</time></trkpt><trkpt lat="42.1751233" lon="14.6792133"><ele>37.0</ele><time>2026-04-24T08:45:16.884Z</time></trkpt><trkpt lat="42.17515" lon="14.6793317"><ele>37.0</ele><time>2026-04-24T08:45:18.884Z</time></trkpt><trkpt lat="42.175205" lon="14.6794367"><ele>37.0</ele><time>2026-04-24T08:45:20.885Z</time></trkpt><trkpt lat="42.17527" lon="14.6795383"><ele>37.0</ele><time>2026-04-24T08:45:22.884Z</time></trkpt><trkpt lat="42.175335" lon="14.6796317"><ele>36.800000000000004</ele><time>2026-04-24T08:45:24.885Z</time></trkpt><trkpt lat="42.1753983" lon="14.6797233"><ele>36.6</ele><time>2026-04-24T08:45:26.885Z</time></trkpt><trkpt lat="42.175465" lon="14.6798217"><ele>36.400000000000006</ele><time>2026-04-24T08:45:28.885Z</time></trkpt><trkpt lat="42.17553" lon="14.6799167"><ele>36.2</ele><time>2026-04-24T08:45:30.884Z</time></trkpt><trkpt lat="42.1755967" lon="14.6800183"><ele>36.0</ele><time>2026-04-24T08:45:32.885Z</time></trkpt><trkpt lat="42.175665" lon="14.6801083"><ele>36.0</ele><time>2026-04-24T08:45:34.885Z</time></trkpt><trkpt lat="42.175735" lon="14.6802017"><ele>36.0</ele><time>2026-04-24T08:45:36.885Z</time></trkpt><trkpt lat="42.17581" lon="14.6802933"><ele>36.0</ele><time>2026-04-24T08:45:38.885Z</time></trkpt><trkpt lat="42.17588" lon="14.68038"><ele>36.0</ele><time>2026-04-24T08:45:40.885Z</time></trkpt><trkpt lat="42.1759567" lon="14.6804733"><ele>36.0</ele><time>2026-04-24T08:45:42.884Z</time></trkpt><trkpt lat="42.1760217" lon="14.6805683"><ele>35.4</ele><time>2026-04-24T08:45:44.885Z</time></trkpt><trkpt lat="42.1760817" lon="14.68067"><ele>34.8</ele><time>2026-04-24T08:45:46.885Z</time></trkpt><trkpt lat="42.1761267" lon="14.68077"><ele>34.199999999999996</ele><time>2026-04-24T08:45:48.885Z</time></trkpt><trkpt lat="42.1761683" lon="14.6808817"><ele>33.6</ele><time>2026-04-24T08:45:50.885Z</time></trkpt><trkpt lat="42.1762033" lon="14.680995"><ele>33.0</ele><time>2026-04-24T08:45:52.884Z</time></trkpt><trkpt lat="42.176235" lon="14.6811033"><ele>32.857142857142854</ele><time>2026-04-24T08:45:54.885Z</time></trkpt><trkpt lat="42.1762633" lon="14.6812067"><ele>32.714285714285715</ele><time>2026-04-24T08:45:56.884Z</time></trkpt><trkpt lat="42.1762867" lon="14.6812933"><ele>32.57142857142857</ele><time>2026-04-24T08:45:58.884Z</time></trkpt><trkpt lat="42.17634" lon="14.6813483"><ele>32.42857142857143</ele><time>2026-04-24T08:46:01.885Z</time></trkpt><trkpt lat="42.1764033" lon="14.68137"><ele>32.285714285714285</ele><time>2026-04-24T08:46:04.885Z</time></trkpt><trkpt lat="42.17649" lon="14.6814"><ele>32.14285714285714</ele><time>2026-04-24T08:46:07.885Z</time></trkpt><trkpt lat="42.1765583" lon="14.6814483"><ele>32.0</ele><time>2026-04-24T08:46:09.885Z</time></trkpt><trkpt lat="42.1766217" lon="14.6814933"><ele>31.999999999999996</ele><time>2026-04-24T08:46:11.885Z</time></trkpt><trkpt lat="42.1766783" lon="14.681555"><ele>32.0</ele><time>2026-04-24T08:46:13.885Z</time></trkpt><trkpt lat="42.17669" lon="14.6816517"><ele>32.0</ele><time>2026-04-24T08:46:16.885Z</time></trkpt><trkpt lat="42.176645" lon="14.6817317"><ele>32.0</ele><time>2026-04-24T08:46:18.885Z</time></trkpt><trkpt lat="42.176625" lon="14.68182"><ele>31.999999999999996</ele><time>2026-04-24T08:46:20.885Z</time></trkpt><trkpt lat="42.1765933" lon="14.6819233"><ele>32.0</ele><time>2026-04-24T08:46:22.884Z</time></trkpt><trkpt lat="42.1765583" lon="14.6820333"><ele>31.0</ele><time>2026-04-24T08:46:24.885Z</time></trkpt><trkpt lat="42.1765233" lon="14.6821483"><ele>30.000000000000004</ele><time>2026-04-24T08:46:26.885Z</time></trkpt><trkpt lat="42.17653" lon="14.6822733"><ele>29.000000000000004</ele><time>2026-04-24T08:46:28.885Z</time></trkpt><trkpt lat="42.1765567" lon="14.682375"><ele>28.0</ele><time>2026-04-24T08:46:30.885Z</time></trkpt><trkpt lat="42.17662" lon="14.68246"><ele>27.0</ele><time>2026-04-24T08:46:32.884Z</time></trkpt><trkpt lat="42.1767033" lon="14.682525"><ele>27.0</ele><time>2026-04-24T08:46:34.885Z</time></trkpt><trkpt lat="42.1767967" lon="14.6825717"><ele>27.000000000000004</ele><time>2026-04-24T08:46:36.884Z</time></trkpt><trkpt lat="42.1768967" lon="14.6826017"><ele>27.000000000000004</ele><time>2026-04-24T08:46:38.885Z</time></trkpt><trkpt lat="42.1769933" lon="14.682635"><ele>27.0</ele><time>2026-04-24T08:46:40.885Z</time></trkpt><trkpt lat="42.177085" lon="14.6826667"><ele>27.0</ele><time>2026-04-24T08:46:42.884Z</time></trkpt><trkpt lat="42.1771783" lon="14.6826883"><ele>27.0</ele><time>2026-04-24T08:46:44.884Z</time></trkpt><trkpt lat="42.1772783" lon="14.682705"><ele>27.000000000000004</ele><time>2026-04-24T08:46:46.885Z</time></trkpt><trkpt lat="42.177375" lon="14.68272"><ele>27.000000000000004</ele><time>2026-04-24T08:46:48.885Z</time></trkpt><trkpt lat="42.1774833" lon="14.6827417"><ele>27.0</ele><time>2026-04-24T08:46:50.885Z</time></trkpt><trkpt lat="42.1776" lon="14.6827667"><ele>27.0</ele><time>2026-04-24T08:46:52.884Z</time></trkpt><trkpt lat="42.1776633" lon="14.6827783"><ele>25.8</ele><time>2026-04-24T08:46:53.885Z</time></trkpt><trkpt lat="42.1777883" lon="14.6828017"><ele>24.6</ele><time>2026-04-24T08:46:55.885Z</time></trkpt><trkpt lat="42.1778533" lon="14.6828133"><ele>23.400000000000002</ele><time>2026-04-24T08:46:56.884Z</time></trkpt><trkpt lat="42.17797" lon="14.6828417"><ele>22.200000000000003</ele><time>2026-04-24T08:46:58.885Z</time></trkpt><trkpt lat="42.178075" lon="14.68286"><ele>21.0</ele><time>2026-04-24T08:47:00.885Z</time></trkpt><trkpt lat="42.1781717" lon="14.6828767"><ele>21.5</ele><time>2026-04-24T08:47:02.885Z</time></trkpt><trkpt lat="42.1782533" lon="14.6828917"><ele>22.0</ele><time>2026-04-24T08:47:04.884Z</time></trkpt><trkpt lat="42.178325" lon="14.6829033"><ele>22.5</ele><time>2026-04-24T08:47:06.884Z</time></trkpt><trkpt lat="42.1783983" lon="14.682915"><ele>23.0</ele><time>2026-04-24T08:47:08.885Z</time></trkpt><trkpt lat="42.17847" lon="14.6829267"><ele>23.5</ele><time>2026-04-24T08:47:10.885Z</time></trkpt><trkpt lat="42.178545" lon="14.682935"><ele>24.0</ele><time>2026-04-24T08:47:12.884Z</time></trkpt><trkpt lat="42.1786183" lon="14.6829583"><ele>24.0</ele><time>2026-04-24T08:47:14.884Z</time></trkpt><trkpt lat="42.1786917" lon="14.6829783"><ele>24.0</ele><time>2026-04-24T08:47:16.885Z</time></trkpt><trkpt lat="42.1787683" lon="14.683"><ele>24.0</ele><time>2026-04-24T08:47:18.884Z</time></trkpt><trkpt lat="42.17884" lon="14.6830167"><ele>24.0</ele><time>2026-04-24T08:47:20.885Z</time></trkpt><trkpt lat="42.178905" lon="14.68303"><ele>24.0</ele><time>2026-04-24T08:47:22.885Z</time></trkpt><trkpt lat="42.1789917" lon="14.6830583"><ele>24.0</ele><time>2026-04-24T08:47:25.885Z</time></trkpt><trkpt lat="42.1790717" lon="14.6830967"><ele>23.166666666666668</ele><time>2026-04-24T08:47:28.885Z</time></trkpt><trkpt lat="42.1791217" lon="14.6831717"><ele>22.333333333333332</ele><time>2026-04-24T08:47:31.885Z</time></trkpt><trkpt lat="42.179135" lon="14.6833017"><ele>21.5</ele><time>2026-04-24T08:47:34.885Z</time></trkpt><trkpt lat="42.1791367" lon="14.6833917"><ele>20.666666666666664</ele><time>2026-04-24T08:47:36.885Z</time></trkpt><trkpt lat="42.179145" lon="14.6834833"><ele>19.833333333333332</ele><time>2026-04-24T08:47:38.885Z</time></trkpt><trkpt lat="42.1791367" lon="14.6835817"><ele>19.0</ele><time>2026-04-24T08:47:40.885Z</time></trkpt><trkpt lat="42.179115" lon="14.6836833"><ele>18.57142857142857</ele><time>2026-04-24T08:47:42.884Z</time></trkpt><trkpt lat="42.179075" lon="14.6837817"><ele>18.142857142857146</ele><time>2026-04-24T08:47:44.884Z</time></trkpt><trkpt lat="42.1790283" lon="14.6838683"><ele>17.714285714285715</ele><time>2026-04-24T08:47:46.884Z</time></trkpt><trkpt lat="42.1789717" lon="14.6839317"><ele>17.285714285714285</ele><time>2026-04-24T08:47:48.885Z</time></trkpt><trkpt lat="42.1789117" lon="14.6839867"><ele>16.857142857142854</ele><time>2026-04-24T08:47:50.884Z</time></trkpt><trkpt lat="42.1788567" lon="14.6840383"><ele>16.428571428571427</ele><time>2026-04-24T08:47:52.885Z</time></trkpt><trkpt lat="42.1788067" lon="14.6840967"><ele>16.0</ele><time>2026-04-24T08:47:54.885Z</time></trkpt><trkpt lat="42.1787467" lon="14.6841483"><ele>15.999999999999998</ele><time>2026-04-24T08:47:56.885Z</time></trkpt><trkpt lat="42.1786883" lon="14.6842"><ele>16.0</ele><time>2026-04-24T08:47:58.885Z</time></trkpt><trkpt lat="42.17863" lon="14.6842333"><ele>16.0</ele><time>2026-04-24T08:48:00.885Z</time></trkpt><trkpt lat="42.178545" lon="14.6842783"><ele>16.0</ele><time>2026-04-24T08:48:03.884Z</time></trkpt><trkpt lat="42.178475" lon="14.6843067"><ele>15.999999999999998</ele><time>2026-04-24T08:48:06.885Z</time></trkpt><trkpt lat="42.1783883" lon="14.6843383"><ele>16.0</ele><time>2026-04-24T08:48:09.885Z</time></trkpt><trkpt lat="42.1783067" lon="14.6843683"><ele>15.999999999999998</ele><time>2026-04-24T08:48:12.885Z</time></trkpt><trkpt lat="42.17823" lon="14.684395"><ele>16.0</ele><time>2026-04-24T08:48:15.884Z</time></trkpt><trkpt lat="42.17815" lon="14.6844183"><ele>16.0</ele><time>2026-04-24T08:48:18.885Z</time></trkpt><trkpt lat="42.1780833" lon="14.6844267"><ele>16.0</ele><time>2026-04-24T08:48:20.883Z</time></trkpt><trkpt lat="42.1780067" lon="14.6844433"><ele>15.999999999999998</ele><time>2026-04-24T08:48:22.884Z</time></trkpt><trkpt lat="42.1779133" lon="14.68445"><ele>16.0</ele><time>2026-04-24T08:48:24.884Z</time></trkpt><trkpt lat="42.177835" lon="14.6844717"><ele>15.333333333333332</ele><time>2026-04-24T08:48:26.883Z</time></trkpt><trkpt lat="42.1777617" lon="14.6845017"><ele>14.666666666666666</ele><time>2026-04-24T08:48:28.883Z</time></trkpt><trkpt lat="42.1776967" lon="14.684555"><ele>14.0</ele><time>2026-04-24T08:48:30.883Z</time></trkpt><trkpt lat="42.1776517" lon="14.68463"><ele>13.333333333333332</ele><time>2026-04-24T08:48:32.884Z</time></trkpt><trkpt lat="42.1776183" lon="14.684735"><ele>12.666666666666666</ele><time>2026-04-24T08:48:35.884Z</time></trkpt><trkpt lat="42.1776133" lon="14.684835"><ele>12.0</ele><time>2026-04-24T08:48:38.884Z</time></trkpt><trkpt lat="42.1776267" lon="14.6849367"><ele>12.0</ele><time>2026-04-24T08:48:41.884Z</time></trkpt><trkpt lat="42.17769" lon="14.68503"><ele>12.0</ele><time>2026-04-24T08:48:44.883Z</time></trkpt><trkpt lat="42.1777417" lon="14.6850833"><ele>12.0</ele><time>2026-04-24T08:48:46.884Z</time></trkpt><trkpt lat="42.177795" lon="14.68514"><ele>12.0</ele><time>2026-04-24T08:48:48.884Z</time></trkpt><trkpt lat="42.1778533" lon="14.685205"><ele>12.0</ele><time>2026-04-24T08:48:50.883Z</time></trkpt><trkpt lat="42.1779233" lon="14.68527"><ele>12.0</ele><time>2026-04-24T08:48:52.883Z</time></trkpt><trkpt lat="42.1779967" lon="14.6853367"><ele>12.333333333333334</ele><time>2026-04-24T08:48:54.884Z</time></trkpt><trkpt lat="42.1780667" lon="14.685405"><ele>12.666666666666668</ele><time>2026-04-24T08:48:56.883Z</time></trkpt><trkpt lat="42.1781367" lon="14.6854617"><ele>13.0</ele><time>2026-04-24T08:48:58.883Z</time></trkpt><trkpt lat="42.1782033" lon="14.685515"><ele>13.333333333333334</ele><time>2026-04-24T08:49:00.884Z</time></trkpt><trkpt lat="42.1782617" lon="14.68557"><ele>13.666666666666668</ele><time>2026-04-24T08:49:02.884Z</time></trkpt><trkpt lat="42.178335" lon="14.6856467"><ele>14.0</ele><time>2026-04-24T08:49:05.883Z</time></trkpt><trkpt lat="42.1784067" lon="14.6857033"><ele>13.142857142857142</ele><time>2026-04-24T08:49:08.883Z</time></trkpt><trkpt lat="42.178465" lon="14.6857667"><ele>12.285714285714285</ele><time>2026-04-24T08:49:11.883Z</time></trkpt><trkpt lat="42.1785217" lon="14.685815"><ele>11.428571428571429</ele><time>2026-04-24T08:49:14.884Z</time></trkpt><trkpt lat="42.1785883" lon="14.685865"><ele>10.571428571428571</ele><time>2026-04-24T08:49:18.884Z</time></trkpt><trkpt lat="42.1786533" lon="14.685905"><ele>9.714285714285714</ele><time>2026-04-24T08:49:22.883Z</time></trkpt><trkpt lat="42.1787133" lon="14.6859633"><ele>8.857142857142858</ele><time>2026-04-24T08:49:26.884Z</time></trkpt><trkpt lat="42.17878" lon="14.686025"><ele>8.0</ele><time>2026-04-24T08:49:30.884Z</time></trkpt><trkpt lat="42.17883" lon="14.6860783"><ele>9.0</ele><time>2026-04-24T08:49:34.884Z</time></trkpt><trkpt lat="42.1788783" lon="14.6861333"><ele>10.0</ele><time>2026-04-24T08:49:38.883Z</time></trkpt><trkpt lat="42.17893" lon="14.6862017"><ele>11.0</ele><time>2026-04-24T08:49:42.884Z</time></trkpt><trkpt lat="42.1789717" lon="14.68627"><ele>12.0</ele><time>2026-04-24T08:49:46.884Z</time></trkpt><trkpt lat="42.1790183" lon="14.6863583"><ele>13.0</ele><time>2026-04-24T08:49:51.884Z</time></trkpt><trkpt lat="42.17905" lon="14.6864317"><ele>14.0</ele><time>2026-04-24T08:49:55.883Z</time></trkpt><trkpt lat="42.1790817" lon="14.6865283"><ele>15.0</ele><time>2026-04-24T08:50:00.884Z</time></trkpt><trkpt lat="42.179085" lon="14.686615"><ele>15.0</ele><time>2026-04-24T08:50:04.883Z</time></trkpt><trkpt lat="42.1791067" lon="14.6867067"><ele>15.0</ele><time>2026-04-24T08:50:08.883Z</time></trkpt><trkpt lat="42.17912" lon="14.6867933"><ele>15.0</ele><time>2026-04-24T08:50:12.884Z</time></trkpt><trkpt lat="42.1791433" lon="14.6868783"><ele>15.0</ele><time>2026-04-24T08:50:16.884Z</time></trkpt><trkpt lat="42.179155" lon="14.6869633"><ele>15.0</ele><time>2026-04-24T08:50:20.884Z</time></trkpt><trkpt lat="42.1791583" lon="14.68705"><ele>15.0</ele><time>2026-04-24T08:50:24.884Z</time></trkpt><trkpt lat="42.1791533" lon="14.68714"><ele>15.0</ele><time>2026-04-24T08:50:28.883Z</time></trkpt><trkpt lat="42.17914" lon="14.6872283"><ele>15.142857142857142</ele><time>2026-04-24T08:50:32.884Z</time></trkpt><trkpt lat="42.17912" lon="14.6873283"><ele>15.285714285714285</ele><time>2026-04-24T08:50:37.884Z</time></trkpt><trkpt lat="42.1790967" lon="14.6874183"><ele>15.428571428571427</ele><time>2026-04-24T08:50:41.884Z</time></trkpt><trkpt lat="42.17906" lon="14.6874883"><ele>15.571428571428571</ele><time>2026-04-24T08:50:45.883Z</time></trkpt><trkpt lat="42.1790183" lon="14.6875533"><ele>15.714285714285712</ele><time>2026-04-24T08:50:49.883Z</time></trkpt><trkpt lat="42.17896" lon="14.68759"><ele>15.857142857142856</ele><time>2026-04-24T08:50:53.884Z</time></trkpt><trkpt lat="42.17889" lon="14.6876183"><ele>16.0</ele><time>2026-04-24T08:50:57.884Z</time></trkpt><trkpt lat="42.178815" lon="14.6876267"><ele>17.142857142857142</ele><time>2026-04-24T08:51:02.884Z</time></trkpt><trkpt lat="42.1787433" lon="14.6876117"><ele>18.285714285714285</ele><time>2026-04-24T08:51:07.883Z</time></trkpt><trkpt lat="42.17868" lon="14.687615"><ele>19.428571428571427</ele><time>2026-04-24T08:51:11.884Z</time></trkpt><trkpt lat="42.1786167" lon="14.6876217"><ele>20.57142857142857</ele><time>2026-04-24T08:51:15.884Z</time></trkpt><trkpt lat="42.1785433" lon="14.6876367"><ele>21.714285714285715</ele><time>2026-04-24T08:51:19.884Z</time></trkpt><trkpt lat="42.17847" lon="14.68766"><ele>22.857142857142854</ele><time>2026-04-24T08:51:23.883Z</time></trkpt><trkpt lat="42.1784033" lon="14.68769"><ele>24.0</ele><time>2026-04-24T08:51:27.884Z</time></trkpt><trkpt lat="42.1783317" lon="14.68772"><ele>24.833333333333332</ele><time>2026-04-24T08:51:31.884Z</time></trkpt><trkpt lat="42.17826" lon="14.6877617"><ele>25.666666666666664</ele><time>2026-04-24T08:51:35.884Z</time></trkpt><trkpt lat="42.1781917" lon="14.6878033"><ele>26.5</ele><time>2026-04-24T08:51:39.883Z</time></trkpt><trkpt lat="42.17812" lon="14.6878433"><ele>27.333333333333332</ele><time>2026-04-24T08:51:43.883Z</time></trkpt><trkpt lat="42.1780583" lon="14.687875"><ele>28.166666666666664</ele><time>2026-04-24T08:51:46.884Z</time></trkpt><trkpt lat="42.1779867" lon="14.6879317"><ele>29.0</ele><time>2026-04-24T08:51:49.883Z</time></trkpt><trkpt lat="42.1779167" lon="14.6880033"><ele>28.999999999999996</ele><time>2026-04-24T08:51:52.884Z</time></trkpt><trkpt lat="42.1778633" lon="14.6880683"><ele>29.0</ele><time>2026-04-24T08:51:54.884Z</time></trkpt><trkpt lat="42.1778033" lon="14.6881333"><ele>29.0</ele><time>2026-04-24T08:51:56.884Z</time></trkpt><trkpt lat="42.1777433" lon="14.6882133"><ele>29.0</ele><time>2026-04-24T08:51:58.884Z</time></trkpt><trkpt lat="42.1776867" lon="14.688295"><ele>28.999999999999996</ele><time>2026-04-24T08:52:00.883Z</time></trkpt><trkpt lat="42.1776267" lon="14.6883667"><ele>29.0</ele><time>2026-04-24T08:52:02.884Z</time></trkpt><trkpt lat="42.1775767" lon="14.68843"><ele>28.999999999999996</ele><time>2026-04-24T08:52:04.884Z</time></trkpt><trkpt lat="42.177535" lon="14.6884967"><ele>29.0</ele><time>2026-04-24T08:52:06.884Z</time></trkpt><trkpt lat="42.177495" lon="14.6885633"><ele>29.0</ele><time>2026-04-24T08:52:08.883Z</time></trkpt><trkpt lat="42.177455" lon="14.6886383"><ele>29.0</ele><time>2026-04-24T08:52:10.884Z</time></trkpt><trkpt lat="42.1774017" lon="14.688735"><ele>28.999999999999996</ele><time>2026-04-24T08:52:13.883Z</time></trkpt><trkpt lat="42.1773533" lon="14.6888233"><ele>29.0</ele><time>2026-04-24T08:52:16.884Z</time></trkpt><trkpt lat="42.177285" lon="14.6889017"><ele>29.499999999999996</ele><time>2026-04-24T08:52:19.884Z</time></trkpt><trkpt lat="42.1772083" lon="14.6889683"><ele>30.0</ele><time>2026-04-24T08:52:22.884Z</time></trkpt><trkpt lat="42.177125" lon="14.6890083"><ele>30.5</ele><time>2026-04-24T08:52:25.884Z</time></trkpt><trkpt lat="42.1770467" lon="14.689015"><ele>31.0</ele><time>2026-04-24T08:52:28.884Z</time></trkpt><trkpt lat="42.1769617" lon="14.6890017"><ele>31.499999999999996</ele><time>2026-04-24T08:52:31.884Z</time></trkpt><trkpt lat="42.176875" lon="14.68901"><ele>32.0</ele><time>2026-04-24T08:52:34.884Z</time></trkpt><trkpt lat="42.1767867" lon="14.689035"><ele>32.0</ele><time>2026-04-24T08:52:37.883Z</time></trkpt><trkpt lat="42.1767233" lon="14.6890583"><ele>31.999999999999996</ele><time>2026-04-24T08:52:39.884Z</time></trkpt><trkpt lat="42.17665" lon="14.6891183"><ele>32.0</ele><time>2026-04-24T08:52:42.884Z</time></trkpt><trkpt lat="42.1766033" lon="14.6891833"><ele>32.0</ele><time>2026-04-24T08:52:44.884Z</time></trkpt><trkpt lat="42.1765633" lon="14.6892533"><ele>31.999999999999996</ele><time>2026-04-24T08:52:46.883Z</time></trkpt><trkpt lat="42.1765283" lon="14.68933"><ele>32.0</ele><time>2026-04-24T08:52:48.883Z</time></trkpt><trkpt lat="42.1764883" lon="14.6894067"><ele>32.0</ele><time>2026-04-24T08:52:50.884Z</time></trkpt><trkpt lat="42.176455" lon="14.6894867"><ele>32.33333333333333</ele><time>2026-04-24T08:52:52.884Z</time></trkpt><trkpt lat="42.1764217" lon="14.689575"><ele>32.666666666666664</ele><time>2026-04-24T08:52:54.884Z</time></trkpt><trkpt lat="42.1763917" lon="14.6896667"><ele>33.0</ele><time>2026-04-24T08:52:56.884Z</time></trkpt><trkpt lat="42.1763583" lon="14.6897583"><ele>33.333333333333336</ele><time>2026-04-24T08:52:58.883Z</time></trkpt><trkpt lat="42.1763317" lon="14.6898567"><ele>33.66666666666667</ele><time>2026-04-24T08:53:00.883Z</time></trkpt><trkpt lat="42.1763017" lon="14.6899583"><ele>34.0</ele><time>2026-04-24T08:53:02.884Z</time></trkpt><trkpt lat="42.1762667" lon="14.6900483"><ele>33.99999999999999</ele><time>2026-04-24T08:53:04.883Z</time></trkpt><trkpt lat="42.1762367" lon="14.6901383"><ele>34.0</ele><time>2026-04-24T08:53:06.884Z</time></trkpt><trkpt lat="42.1762067" lon="14.6902233"><ele>34.0</ele><time>2026-04-24T08:53:08.884Z</time></trkpt><trkpt lat="42.1761817" lon="14.6903067"><ele>34.0</ele><time>2026-04-24T08:53:10.884Z</time></trkpt><trkpt lat="42.176155" lon="14.6903983"><ele>34.0</ele><time>2026-04-24T08:53:12.884Z</time></trkpt><trkpt lat="42.176125" lon="14.6904817"><ele>33.99999999999999</ele><time>2026-04-24T08:53:14.884Z</time></trkpt><trkpt lat="42.1760933" lon="14.6905717"><ele>34.0</ele><time>2026-04-24T08:53:16.883Z</time></trkpt><trkpt lat="42.176065" lon="14.69065"><ele>34.14285714285714</ele><time>2026-04-24T08:53:18.883Z</time></trkpt><trkpt lat="42.1760333" lon="14.69073"><ele>34.285714285714285</ele><time>2026-04-24T08:53:20.884Z</time></trkpt><trkpt lat="42.1760033" lon="14.6908183"><ele>34.42857142857143</ele><time>2026-04-24T08:53:22.884Z</time></trkpt><trkpt lat="42.1759733" lon="14.69091"><ele>34.57142857142857</ele><time>2026-04-24T08:53:24.884Z</time></trkpt><trkpt lat="42.175945" lon="14.6909933"><ele>34.714285714285715</ele><time>2026-04-24T08:53:26.883Z</time></trkpt><trkpt lat="42.1759117" lon="14.6910717"><ele>34.857142857142854</ele><time>2026-04-24T08:53:28.884Z</time></trkpt><trkpt lat="42.175885" lon="14.69116"><ele>35.0</ele><time>2026-04-24T08:53:30.883Z</time></trkpt><trkpt lat="42.1758517" lon="14.6912583"><ele>35.166666666666664</ele><time>2026-04-24T08:53:32.883Z</time></trkpt><trkpt lat="42.1758283" lon="14.6913583"><ele>35.33333333333333</ele><time>2026-04-24T08:53:34.884Z</time></trkpt><trkpt lat="42.1758033" lon="14.691445"><ele>35.5</ele><time>2026-04-24T08:53:36.884Z</time></trkpt><trkpt lat="42.1757517" lon="14.691515"><ele>35.666666666666664</ele><time>2026-04-24T08:53:38.884Z</time></trkpt><trkpt lat="42.1757117" lon="14.6916017"><ele>35.833333333333336</ele><time>2026-04-24T08:53:40.884Z</time></trkpt><trkpt lat="42.175675" lon="14.6916967"><ele>36.0</ele><time>2026-04-24T08:53:42.884Z</time></trkpt><trkpt lat="42.1756433" lon="14.691795"><ele>35.85714285714286</ele><time>2026-04-24T08:53:44.883Z</time></trkpt><trkpt lat="42.1756033" lon="14.69189"><ele>35.714285714285715</ele><time>2026-04-24T08:53:46.883Z</time></trkpt><trkpt lat="42.1755783" lon="14.6919833"><ele>35.57142857142857</ele><time>2026-04-24T08:53:48.883Z</time></trkpt><trkpt lat="42.175545" lon="14.6920667"><ele>35.42857142857143</ele><time>2026-04-24T08:53:50.884Z</time></trkpt><trkpt lat="42.175505" lon="14.6921517"><ele>35.285714285714285</ele><time>2026-04-24T08:53:52.884Z</time></trkpt><trkpt lat="42.1754617" lon="14.6922383"><ele>35.142857142857146</ele><time>2026-04-24T08:53:54.883Z</time></trkpt><trkpt lat="42.1754233" lon="14.6923217"><ele>35.0</ele><time>2026-04-24T08:53:56.884Z</time></trkpt><trkpt lat="42.1753783" lon="14.6924017"><ele>35.0</ele><time>2026-04-24T08:53:58.883Z</time></trkpt><trkpt lat="42.1753233" lon="14.6924817"><ele>35.0</ele><time>2026-04-24T08:54:00.884Z</time></trkpt><trkpt lat="42.1752717" lon="14.6925583"><ele>35.0</ele><time>2026-04-24T08:54:02.883Z</time></trkpt><trkpt lat="42.1752183" lon="14.6926267"><ele>35.0</ele><time>2026-04-24T08:54:04.883Z</time></trkpt><trkpt lat="42.1751667" lon="14.6927067"><ele>35.0</ele><time>2026-04-24T08:54:06.884Z</time></trkpt><trkpt lat="42.1751167" lon="14.6927883"><ele>35.0</ele><time>2026-04-24T08:54:08.884Z</time></trkpt><trkpt lat="42.1750683" lon="14.692875"><ele>35.0</ele><time>2026-04-24T08:54:10.883Z</time></trkpt><trkpt lat="42.1750117" lon="14.6929367"><ele>35.0</ele><time>2026-04-24T08:54:12.884Z</time></trkpt><trkpt lat="42.1749483" lon="14.6929767"><ele>35.0</ele><time>2026-04-24T08:54:14.883Z</time></trkpt><trkpt lat="42.1748833" lon="14.693015"><ele>35.0</ele><time>2026-04-24T08:54:16.883Z</time></trkpt><trkpt lat="42.17482" lon="14.693065"><ele>35.0</ele><time>2026-04-24T08:54:18.883Z</time></trkpt><trkpt lat="42.1747533" lon="14.6931217"><ele>35.0</ele><time>2026-04-24T08:54:20.884Z</time></trkpt><trkpt lat="42.1746883" lon="14.6931767"><ele>35.0</ele><time>2026-04-24T08:54:22.884Z</time></trkpt><trkpt lat="42.1746317" lon="14.6932283"><ele>34.83333333333333</ele><time>2026-04-24T08:54:24.883Z</time></trkpt><trkpt lat="42.1745733" lon="14.69328"><ele>34.666666666666664</ele><time>2026-04-24T08:54:26.883Z</time></trkpt><trkpt lat="42.1744917" lon="14.6933383"><ele>34.5</ele><time>2026-04-24T08:54:29.884Z</time></trkpt><trkpt lat="42.1744383" lon="14.69339"><ele>34.333333333333336</ele><time>2026-04-24T08:54:31.884Z</time></trkpt><trkpt lat="42.1743783" lon="14.6934517"><ele>34.16666666666667</ele><time>2026-04-24T08:54:33.883Z</time></trkpt><trkpt lat="42.1743183" lon="14.6935367"><ele>34.0</ele><time>2026-04-24T08:54:35.884Z</time></trkpt><trkpt lat="42.17424" lon="14.6935833"><ele>34.0</ele><time>2026-04-24T08:54:38.884Z</time></trkpt><trkpt lat="42.17418" lon="14.6935383"><ele>34.0</ele><time>2026-04-24T08:54:40.884Z</time></trkpt><trkpt lat="42.1741117" lon="14.6934833"><ele>34.0</ele><time>2026-04-24T08:54:42.883Z</time></trkpt><trkpt lat="42.1740383" lon="14.69344"><ele>34.0</ele><time>2026-04-24T08:54:44.883Z</time></trkpt><trkpt lat="42.1739717" lon="14.6934"><ele>34.0</ele><time>2026-04-24T08:54:46.884Z</time></trkpt><trkpt lat="42.1738983" lon="14.693355"><ele>34.0</ele><time>2026-04-24T08:54:48.884Z</time></trkpt><trkpt lat="42.17383" lon="14.69331"><ele>34.0</ele><time>2026-04-24T08:54:50.884Z</time></trkpt><trkpt lat="42.173765" lon="14.693265"><ele>34.0</ele><time>2026-04-24T08:54:52.883Z</time></trkpt><trkpt lat="42.1737" lon="14.6932117"><ele>34.0</ele><time>2026-04-24T08:54:54.884Z</time></trkpt><trkpt lat="42.1736233" lon="14.6931567"><ele>34.0</ele><time>2026-04-24T08:54:56.884Z</time></trkpt><trkpt lat="42.1735333" lon="14.693105"><ele>34.0</ele><time>2026-04-24T08:54:58.884Z</time></trkpt><trkpt lat="42.1734567" lon="14.6930583"><ele>34.0</ele><time>2026-04-24T08:55:00.884Z</time></trkpt><trkpt lat="42.1733817" lon="14.6930167"><ele>34.0</ele><time>2026-04-24T08:55:02.884Z</time></trkpt><trkpt lat="42.1733033" lon="14.6929717"><ele>34.0</ele><time>2026-04-24T08:55:04.884Z</time></trkpt><trkpt lat="42.17323" lon="14.6929133"><ele>34.0</ele><time>2026-04-24T08:55:06.883Z</time></trkpt><trkpt lat="42.173155" lon="14.6928633"><ele>34.0</ele><time>2026-04-24T08:55:08.884Z</time></trkpt><trkpt lat="42.17308" lon="14.6928117"><ele>34.0</ele><time>2026-04-24T08:55:10.884Z</time></trkpt><trkpt lat="42.173005" lon="14.69276"><ele>34.0</ele><time>2026-04-24T08:55:12.884Z</time></trkpt><trkpt lat="42.1729267" lon="14.6927067"><ele>34.333333333333336</ele><time>2026-04-24T08:55:14.883Z</time></trkpt><trkpt lat="42.17285" lon="14.69266"><ele>34.66666666666667</ele><time>2026-04-24T08:55:16.883Z</time></trkpt><trkpt lat="42.1727733" lon="14.6926133"><ele>35.0</ele><time>2026-04-24T08:55:18.884Z</time></trkpt><trkpt lat="42.1727" lon="14.6925633"><ele>35.333333333333336</ele><time>2026-04-24T08:55:20.883Z</time></trkpt><trkpt lat="42.1726233" lon="14.6925183"><ele>35.666666666666664</ele><time>2026-04-24T08:55:22.884Z</time></trkpt><trkpt lat="42.1725483" lon="14.6924733"><ele>36.0</ele><time>2026-04-24T08:55:24.884Z</time></trkpt><trkpt lat="42.1724683" lon="14.6924233"><ele>36.0</ele><time>2026-04-24T08:55:26.883Z</time></trkpt><trkpt lat="42.17239" lon="14.6923833"><ele>36.0</ele><time>2026-04-24T08:55:28.884Z</time></trkpt><trkpt lat="42.1723133" lon="14.6923367"><ele>36.0</ele><time>2026-04-24T08:55:30.884Z</time></trkpt><trkpt lat="42.1722433" lon="14.6922817"><ele>36.0</ele><time>2026-04-24T08:55:32.884Z</time></trkpt><trkpt lat="42.1721683" lon="14.692235"><ele>36.0</ele><time>2026-04-24T08:55:34.884Z</time></trkpt><trkpt lat="42.1720967" lon="14.6921883"><ele>36.0</ele><time>2026-04-24T08:55:36.884Z</time></trkpt><trkpt lat="42.1720217" lon="14.6921367"><ele>36.166666666666664</ele><time>2026-04-24T08:55:38.883Z</time></trkpt><trkpt lat="42.17195" lon="14.692085"><ele>36.333333333333336</ele><time>2026-04-24T08:55:40.883Z</time></trkpt><trkpt lat="42.17187" lon="14.69204"><ele>36.5</ele><time>2026-04-24T08:55:42.884Z</time></trkpt><trkpt lat="42.17179" lon="14.6919917"><ele>36.66666666666667</ele><time>2026-04-24T08:55:44.883Z</time></trkpt><trkpt lat="42.171715" lon="14.6919483"><ele>36.833333333333336</ele><time>2026-04-24T08:55:46.884Z</time></trkpt><trkpt lat="42.1716417" lon="14.6918983"><ele>37.0</ele><time>2026-04-24T08:55:48.883Z</time></trkpt><trkpt lat="42.171575" lon="14.69185"><ele>36.5</ele><time>2026-04-24T08:55:50.883Z</time></trkpt><trkpt lat="42.17151" lon="14.6918"><ele>36.0</ele><time>2026-04-24T08:55:52.884Z</time></trkpt><trkpt lat="42.1714367" lon="14.6917533"><ele>35.5</ele><time>2026-04-24T08:55:54.884Z</time></trkpt><trkpt lat="42.1713617" lon="14.691715"><ele>35.0</ele><time>2026-04-24T08:55:56.884Z</time></trkpt><trkpt lat="42.1712867" lon="14.691675"><ele>34.5</ele><time>2026-04-24T08:55:58.884Z</time></trkpt><trkpt lat="42.171215" lon="14.69163"><ele>34.0</ele><time>2026-04-24T08:56:00.884Z</time></trkpt><trkpt lat="42.1711517" lon="14.691585"><ele>34.0</ele><time>2026-04-24T08:56:02.884Z</time></trkpt><trkpt lat="42.1710983" lon="14.6915383"><ele>34.0</ele><time>2026-04-24T08:56:04.883Z</time></trkpt><trkpt lat="42.1710167" lon="14.6914917"><ele>34.0</ele><time>2026-04-24T08:56:07.883Z</time></trkpt><trkpt lat="42.17094" lon="14.6915133"><ele>34.0</ele><time>2026-04-24T08:56:11.884Z</time></trkpt><trkpt lat="42.1708933" lon="14.6915983"><ele>34.0</ele><time>2026-04-24T08:56:15.884Z</time></trkpt><trkpt lat="42.170845" lon="14.6917117"><ele>34.0</ele><time>2026-04-24T08:56:18.884Z</time></trkpt><trkpt lat="42.170815" lon="14.6917983"><ele>34.0</ele><time>2026-04-24T08:56:20.883Z</time></trkpt><trkpt lat="42.1707883" lon="14.69189"><ele>34.0</ele><time>2026-04-24T08:56:22.883Z</time></trkpt><trkpt lat="42.1707583" lon="14.6919867"><ele>34.0</ele><time>2026-04-24T08:56:24.883Z</time></trkpt><trkpt lat="42.1707267" lon="14.692085"><ele>34.0</ele><time>2026-04-24T08:56:26.884Z</time></trkpt><trkpt lat="42.1706967" lon="14.6921817"><ele>34.0</ele><time>2026-04-24T08:56:28.883Z</time></trkpt><trkpt lat="42.1706617" lon="14.69227"><ele>34.0</ele><time>2026-04-24T08:56:30.884Z</time></trkpt><trkpt lat="42.17061" lon="14.6923667"><ele>34.16666666666667</ele><time>2026-04-24T08:56:32.884Z</time></trkpt><trkpt lat="42.17057" lon="14.6924667"><ele>34.333333333333336</ele><time>2026-04-24T08:56:34.884Z</time></trkpt><trkpt lat="42.1705317" lon="14.69257"><ele>34.5</ele><time>2026-04-24T08:56:36.883Z</time></trkpt><trkpt lat="42.1704967" lon="14.6926633"><ele>34.666666666666664</ele><time>2026-04-24T08:56:38.884Z</time></trkpt><trkpt lat="42.1704617" lon="14.69275"><ele>34.83333333333333</ele><time>2026-04-24T08:56:40.884Z</time></trkpt><trkpt lat="42.17042" lon="14.6928467"><ele>35.0</ele><time>2026-04-24T08:56:42.884Z</time></trkpt><trkpt lat="42.1703783" lon="14.692945"><ele>35.33333333333333</ele><time>2026-04-24T08:56:44.884Z</time></trkpt><trkpt lat="42.1703417" lon="14.693045"><ele>35.666666666666664</ele><time>2026-04-24T08:56:46.883Z</time></trkpt><trkpt lat="42.1703117" lon="14.693145"><ele>36.0</ele><time>2026-04-24T08:56:48.884Z</time></trkpt><trkpt lat="42.170275" lon="14.693245"><ele>36.333333333333336</ele><time>2026-04-24T08:56:50.883Z</time></trkpt><trkpt lat="42.1702467" lon="14.6933467"><ele>36.66666666666667</ele><time>2026-04-24T08:56:52.883Z</time></trkpt><trkpt lat="42.1702133" lon="14.6934483"><ele>37.0</ele><time>2026-04-24T08:56:54.883Z</time></trkpt><trkpt lat="42.1701767" lon="14.6935367"><ele>37.16666666666667</ele><time>2026-04-24T08:56:56.883Z</time></trkpt><trkpt lat="42.1701367" lon="14.693635"><ele>37.333333333333336</ele><time>2026-04-24T08:56:58.884Z</time></trkpt><trkpt lat="42.1701" lon="14.69374"><ele>37.5</ele><time>2026-04-24T08:57:00.884Z</time></trkpt><trkpt lat="42.1700683" lon="14.693845"><ele>37.666666666666664</ele><time>2026-04-24T08:57:02.883Z</time></trkpt><trkpt lat="42.1700333" lon="14.69395"><ele>37.83333333333333</ele><time>2026-04-24T08:57:04.883Z</time></trkpt><trkpt lat="42.17" lon="14.694055"><ele>38.0</ele><time>2026-04-24T08:57:06.884Z</time></trkpt><trkpt lat="42.1699667" lon="14.6941667"><ele>38.0</ele><time>2026-04-24T08:57:08.884Z</time></trkpt><trkpt lat="42.1699383" lon="14.6942567"><ele>38.0</ele><time>2026-04-24T08:57:10.884Z</time></trkpt><trkpt lat="42.1699017" lon="14.6943467"><ele>38.0</ele><time>2026-04-24T08:57:12.884Z</time></trkpt><trkpt lat="42.1698633" lon="14.694445"><ele>38.0</ele><time>2026-04-24T08:57:14.884Z</time></trkpt><trkpt lat="42.1698283" lon="14.6945467"><ele>38.0</ele><time>2026-04-24T08:57:16.884Z</time></trkpt><trkpt lat="42.1697917" lon="14.694645"><ele>38.0</ele><time>2026-04-24T08:57:18.884Z</time></trkpt><trkpt lat="42.169755" lon="14.6947567"><ele>37.5</ele><time>2026-04-24T08:57:20.884Z</time></trkpt><trkpt lat="42.1697183" lon="14.6948683"><ele>37.0</ele><time>2026-04-24T08:57:22.884Z</time></trkpt><trkpt lat="42.16969" lon="14.6949717"><ele>36.5</ele><time>2026-04-24T08:57:24.884Z</time></trkpt><trkpt lat="42.16965" lon="14.69507"><ele>36.0</ele><time>2026-04-24T08:57:26.884Z</time></trkpt><trkpt lat="42.1695933" lon="14.6951433"><ele>35.5</ele><time>2026-04-24T08:57:28.884Z</time></trkpt><trkpt lat="42.169525" lon="14.6951983"><ele>35.0</ele><time>2026-04-24T08:57:30.884Z</time></trkpt><trkpt lat="42.1694483" lon="14.695235"><ele>35.0</ele><time>2026-04-24T08:57:32.883Z</time></trkpt><trkpt lat="42.1693717" lon="14.695245"><ele>35.0</ele><time>2026-04-24T08:57:34.884Z</time></trkpt><trkpt lat="42.169295" lon="14.6952283"><ele>35.0</ele><time>2026-04-24T08:57:36.884Z</time></trkpt><trkpt lat="42.1692167" lon="14.6951933"><ele>35.0</ele><time>2026-04-24T08:57:38.884Z</time></trkpt><trkpt lat="42.16915" lon="14.695145"><ele>35.0</ele><time>2026-04-24T08:57:40.883Z</time></trkpt><trkpt lat="42.1690817" lon="14.6950983"><ele>35.0</ele><time>2026-04-24T08:57:42.883Z</time></trkpt><trkpt lat="42.1690033" lon="14.6950517"><ele>35.5</ele><time>2026-04-24T08:57:44.883Z</time></trkpt><trkpt lat="42.1689283" lon="14.695005"><ele>36.0</ele><time>2026-04-24T08:57:46.884Z</time></trkpt><trkpt lat="42.1688517" lon="14.6949667"><ele>36.5</ele><time>2026-04-24T08:57:48.883Z</time></trkpt><trkpt lat="42.1687783" lon="14.6949167"><ele>37.0</ele><time>2026-04-24T08:57:50.884Z</time></trkpt><trkpt lat="42.1687083" lon="14.6948717"><ele>37.5</ele><time>2026-04-24T08:57:52.883Z</time></trkpt><trkpt lat="42.1686383" lon="14.6948333"><ele>38.0</ele><time>2026-04-24T08:57:54.884Z</time></trkpt><trkpt lat="42.168565" lon="14.6948017"><ele>38.0</ele><time>2026-04-24T08:57:56.884Z</time></trkpt><trkpt lat="42.1684883" lon="14.69476"><ele>38.0</ele><time>2026-04-24T08:57:58.884Z</time></trkpt><trkpt lat="42.1684217" lon="14.6947217"><ele>38.0</ele><time>2026-04-24T08:58:00.884Z</time></trkpt><trkpt lat="42.1683667" lon="14.69468"><ele>38.0</ele><time>2026-04-24T08:58:02.884Z</time></trkpt><trkpt lat="42.168285" lon="14.6946333"><ele>38.0</ele><time>2026-04-24T08:58:05.884Z</time></trkpt><trkpt lat="42.16824" lon="14.6945583"><ele>38.0</ele><time>2026-04-24T08:58:08.884Z</time></trkpt><trkpt lat="42.168315" lon="14.6945283"><ele>38.0</ele><time>2026-04-24T08:58:13.884Z</time></trkpt><trkpt lat="42.1683833" lon="14.6945483"><ele>38.0</ele><time>2026-04-24T08:58:15.883Z</time></trkpt><trkpt lat="42.16846" lon="14.6945517"><ele>38.0</ele><time>2026-04-24T08:58:17.884Z</time></trkpt><trkpt lat="42.168535" lon="14.6945133"><ele>38.0</ele><time>2026-04-24T08:58:19.884Z</time></trkpt><trkpt lat="42.1686017" lon="14.6944483"><ele>38.0</ele><time>2026-04-24T08:58:21.884Z</time></trkpt><trkpt lat="42.1686667" lon="14.69438"><ele>38.0</ele><time>2026-04-24T08:58:23.883Z</time></trkpt><trkpt lat="42.1687217" lon="14.6943067"><ele>38.5</ele><time>2026-04-24T08:58:25.884Z</time></trkpt><trkpt lat="42.1687633" lon="14.694215"><ele>39.0</ele><time>2026-04-24T08:58:27.884Z</time></trkpt><trkpt lat="42.1687883" lon="14.69411"><ele>39.5</ele><time>2026-04-24T08:58:29.883Z</time></trkpt><trkpt lat="42.168825" lon="14.6940133"><ele>40.0</ele><time>2026-04-24T08:58:31.883Z</time></trkpt><trkpt lat="42.1688617" lon="14.69392"><ele>40.5</ele><time>2026-04-24T08:58:33.884Z</time></trkpt><trkpt lat="42.168895" lon="14.6938317"><ele>41.0</ele><time>2026-04-24T08:58:35.883Z</time></trkpt><trkpt lat="42.16893" lon="14.6937467"><ele>41.0</ele><time>2026-04-24T08:58:37.883Z</time></trkpt><trkpt lat="42.1689633" lon="14.6936533"><ele>41.0</ele><time>2026-04-24T08:58:39.884Z</time></trkpt><trkpt lat="42.1689983" lon="14.69356"><ele>41.0</ele><time>2026-04-24T08:58:41.883Z</time></trkpt><trkpt lat="42.169035" lon="14.6934667"><ele>41.0</ele><time>2026-04-24T08:58:43.884Z</time></trkpt><trkpt lat="42.1690683" lon="14.69336"><ele>41.0</ele><time>2026-04-24T08:58:45.884Z</time></trkpt><trkpt lat="42.169105" lon="14.6932517"><ele>41.0</ele><time>2026-04-24T08:58:47.883Z</time></trkpt><trkpt lat="42.1691417" lon="14.693155"><ele>40.666666666666664</ele><time>2026-04-24T08:58:49.883Z</time></trkpt><trkpt lat="42.1691767" lon="14.6930517"><ele>40.33333333333333</ele><time>2026-04-24T08:58:51.883Z</time></trkpt><trkpt lat="42.1692167" lon="14.6929417"><ele>40.0</ele><time>2026-04-24T08:58:53.884Z</time></trkpt><trkpt lat="42.1692583" lon="14.6928333"><ele>39.666666666666664</ele><time>2026-04-24T08:58:55.883Z</time></trkpt><trkpt lat="42.1692983" lon="14.6927267"><ele>39.333333333333336</ele><time>2026-04-24T08:58:57.884Z</time></trkpt><trkpt lat="42.169335" lon="14.692615"><ele>39.0</ele><time>2026-04-24T08:58:59.884Z</time></trkpt><trkpt lat="42.1693733" lon="14.6925133"><ele>39.0</ele><time>2026-04-24T08:59:01.884Z</time></trkpt><trkpt lat="42.1694083" lon="14.692405"><ele>39.0</ele><time>2026-04-24T08:59:03.883Z</time></trkpt><trkpt lat="42.1694467" lon="14.6922983"><ele>39.0</ele><time>2026-04-24T08:59:05.883Z</time></trkpt><trkpt lat="42.169485" lon="14.6921883"><ele>39.0</ele><time>2026-04-24T08:59:07.884Z</time></trkpt><trkpt lat="42.16952" lon="14.6920817"><ele>39.0</ele><time>2026-04-24T08:59:09.883Z</time></trkpt><trkpt lat="42.16956" lon="14.691975"><ele>39.0</ele><time>2026-04-24T08:59:11.883Z</time></trkpt><trkpt lat="42.1696017" lon="14.6918733"><ele>39.0</ele><time>2026-04-24T08:59:13.884Z</time></trkpt><trkpt lat="42.1696367" lon="14.6917783"><ele>39.0</ele><time>2026-04-24T08:59:15.883Z</time></trkpt><trkpt lat="42.16967" lon="14.6916883"><ele>39.0</ele><time>2026-04-24T08:59:17.884Z</time></trkpt><trkpt lat="42.1697033" lon="14.6915983"><ele>39.0</ele><time>2026-04-24T08:59:19.884Z</time></trkpt><trkpt lat="42.1697317" lon="14.69152"><ele>39.0</ele><time>2026-04-24T08:59:21.884Z</time></trkpt><trkpt lat="42.1697617" lon="14.691445"><ele>39.0</ele><time>2026-04-24T08:59:23.883Z</time></trkpt><trkpt lat="42.1698" lon="14.6913567"><ele>39.0</ele><time>2026-04-24T08:59:25.884Z</time></trkpt><trkpt lat="42.1698367" lon="14.6912683"><ele>38.5</ele><time>2026-04-24T08:59:27.884Z</time></trkpt><trkpt lat="42.169865" lon="14.6911883"><ele>38.0</ele><time>2026-04-24T08:59:29.883Z</time></trkpt><trkpt lat="42.169895" lon="14.6911117"><ele>37.5</ele><time>2026-04-24T08:59:31.884Z</time></trkpt><trkpt lat="42.1699333" lon="14.691005"><ele>37.0</ele><time>2026-04-24T08:59:34.884Z</time></trkpt><trkpt lat="42.16997" lon="14.69092"><ele>36.5</ele><time>2026-04-24T08:59:36.884Z</time></trkpt><trkpt lat="42.1700033" lon="14.6908233"><ele>36.0</ele><time>2026-04-24T08:59:38.884Z</time></trkpt><trkpt lat="42.170035" lon="14.6907233"><ele>36.0</ele><time>2026-04-24T08:59:40.884Z</time></trkpt><trkpt lat="42.1700683" lon="14.690615"><ele>36.0</ele><time>2026-04-24T08:59:42.884Z</time></trkpt><trkpt lat="42.1701067" lon="14.6905117"><ele>36.0</ele><time>2026-04-24T08:59:44.884Z</time></trkpt><trkpt lat="42.1701433" lon="14.6904017"><ele>36.0</ele><time>2026-04-24T08:59:46.884Z</time></trkpt><trkpt lat="42.1701767" lon="14.6902867"><ele>36.0</ele><time>2026-04-24T08:59:48.884Z</time></trkpt><trkpt lat="42.1702017" lon="14.6901517"><ele>36.2</ele><time>2026-04-24T08:59:50.884Z</time></trkpt><trkpt lat="42.1702283" lon="14.69003"><ele>36.400000000000006</ele><time>2026-04-24T08:59:52.884Z</time></trkpt><trkpt lat="42.17026" lon="14.6899033"><ele>36.6</ele><time>2026-04-24T08:59:54.883Z</time></trkpt><trkpt lat="42.17029" lon="14.6897867"><ele>36.800000000000004</ele><time>2026-04-24T08:59:56.884Z</time></trkpt><trkpt lat="42.1703167" lon="14.68967"><ele>37.0</ele><time>2026-04-24T08:59:58.884Z</time></trkpt><trkpt lat="42.1703483" lon="14.6895667"><ele>37.0</ele><time>2026-04-24T09:00:00.884Z</time></trkpt><trkpt lat="42.1703967" lon="14.6894767"><ele>37.0</ele><time>2026-04-24T09:00:02.884Z</time></trkpt><trkpt lat="42.1704533" lon="14.689385"><ele>37.0</ele><time>2026-04-24T09:00:04.883Z</time></trkpt><trkpt lat="42.1705017" lon="14.6892967"><ele>37.0</ele><time>2026-04-24T09:00:06.884Z</time></trkpt><trkpt lat="42.1705467" lon="14.6891917"><ele>37.0</ele><time>2026-04-24T09:00:08.883Z</time></trkpt><trkpt lat="42.170585" lon="14.689085"><ele>37.0</ele><time>2026-04-24T09:00:10.884Z</time></trkpt><trkpt lat="42.17062" lon="14.688985"><ele>37.0</ele><time>2026-04-24T09:00:12.884Z</time></trkpt><trkpt lat="42.170655" lon="14.688875"><ele>37.0</ele><time>2026-04-24T09:00:14.883Z</time></trkpt><trkpt lat="42.17069" lon="14.6887633"><ele>37.0</ele><time>2026-04-24T09:00:16.884Z</time></trkpt><trkpt lat="42.170725" lon="14.6886633"><ele>37.0</ele><time>2026-04-24T09:00:18.883Z</time></trkpt><trkpt lat="42.1707583" lon="14.6885683"><ele>37.0</ele><time>2026-04-24T09:00:20.883Z</time></trkpt><trkpt lat="42.17079" lon="14.68847"><ele>37.0</ele><time>2026-04-24T09:00:22.884Z</time></trkpt><trkpt lat="42.17083" lon="14.6883817"><ele>37.16666666666667</ele><time>2026-04-24T09:00:24.884Z</time></trkpt><trkpt lat="42.1708617" lon="14.688275"><ele>37.333333333333336</ele><time>2026-04-24T09:00:26.884Z</time></trkpt><trkpt lat="42.1708983" lon="14.6881667"><ele>37.5</ele><time>2026-04-24T09:00:28.884Z</time></trkpt><trkpt lat="42.1709333" lon="14.6880583"><ele>37.666666666666664</ele><time>2026-04-24T09:00:30.883Z</time></trkpt><trkpt lat="42.17097" lon="14.68796"><ele>37.83333333333333</ele><time>2026-04-24T09:00:32.884Z</time></trkpt><trkpt lat="42.1710067" lon="14.6878583"><ele>38.0</ele><time>2026-04-24T09:00:34.883Z</time></trkpt><trkpt lat="42.1710383" lon="14.68776"><ele>38.166666666666664</ele><time>2026-04-24T09:00:36.884Z</time></trkpt><trkpt lat="42.171075" lon="14.6876583"><ele>38.33333333333333</ele><time>2026-04-24T09:00:38.883Z</time></trkpt><trkpt lat="42.1711133" lon="14.687555"><ele>38.5</ele><time>2026-04-24T09:00:40.884Z</time></trkpt><trkpt lat="42.1711517" lon="14.6874383"><ele>38.666666666666664</ele><time>2026-04-24T09:00:42.884Z</time></trkpt><trkpt lat="42.1711817" lon="14.6873367"><ele>38.833333333333336</ele><time>2026-04-24T09:00:44.883Z</time></trkpt><trkpt lat="42.17122" lon="14.687235"><ele>39.0</ele><time>2026-04-24T09:00:46.884Z</time></trkpt><trkpt lat="42.1712517" lon="14.6871367"><ele>39.0</ele><time>2026-04-24T09:00:48.883Z</time></trkpt><trkpt lat="42.1712833" lon="14.6870367"><ele>39.0</ele><time>2026-04-24T09:00:50.884Z</time></trkpt><trkpt lat="42.1713217" lon="14.6869317"><ele>39.0</ele><time>2026-04-24T09:00:52.884Z</time></trkpt><trkpt lat="42.1713583" lon="14.68682"><ele>39.0</ele><time>2026-04-24T09:00:54.884Z</time></trkpt><trkpt lat="42.1713867" lon="14.68673"><ele>39.0</ele><time>2026-04-24T09:00:56.884Z</time></trkpt><trkpt lat="42.1714183" lon="14.6866333"><ele>39.0</ele><time>2026-04-24T09:00:58.883Z</time></trkpt><trkpt lat="42.17145" lon="14.686535"><ele>38.833333333333336</ele><time>2026-04-24T09:01:00.884Z</time></trkpt><trkpt lat="42.17148" lon="14.6864433"><ele>38.666666666666664</ele><time>2026-04-24T09:01:02.884Z</time></trkpt><trkpt lat="42.17151" lon="14.6863617"><ele>38.5</ele><time>2026-04-24T09:01:04.884Z</time></trkpt><trkpt lat="42.1715383" lon="14.68628"><ele>38.33333333333333</ele><time>2026-04-24T09:01:06.884Z</time></trkpt><trkpt lat="42.1715733" lon="14.6862"><ele>38.166666666666664</ele><time>2026-04-24T09:01:08.884Z</time></trkpt><trkpt lat="42.17161" lon="14.6860833"><ele>38.0</ele><time>2026-04-24T09:01:11.883Z</time></trkpt><trkpt lat="42.1716333" lon="14.68597"><ele>38.0</ele><time>2026-04-24T09:01:14.884Z</time></trkpt><trkpt lat="42.1716667" lon="14.6858717"><ele>38.0</ele><time>2026-04-24T09:01:17.884Z</time></trkpt><trkpt lat="42.1717117" lon="14.6857733"><ele>38.0</ele><time>2026-04-24T09:01:20.883Z</time></trkpt><trkpt lat="42.1717383" lon="14.685695"><ele>38.0</ele><time>2026-04-24T09:01:22.884Z</time></trkpt><trkpt lat="42.17177" lon="14.68561"><ele>38.0</ele><time>2026-04-24T09:01:24.884Z</time></trkpt><trkpt lat="42.1718" lon="14.6855167"><ele>38.0</ele><time>2026-04-24T09:01:26.884Z</time></trkpt><trkpt lat="42.1718317" lon="14.685425"><ele>38.0</ele><time>2026-04-24T09:01:28.883Z</time></trkpt><trkpt lat="42.17185" lon="14.6853417"><ele>38.0</ele><time>2026-04-24T09:01:30.884Z</time></trkpt><trkpt lat="42.1718717" lon="14.6852583"><ele>38.0</ele><time>2026-04-24T09:01:32.884Z</time></trkpt><trkpt lat="42.1719017" lon="14.6851717"><ele>38.0</ele><time>2026-04-24T09:01:34.883Z</time></trkpt><trkpt lat="42.17193" lon="14.6850817"><ele>38.0</ele><time>2026-04-24T09:01:36.884Z</time></trkpt><trkpt lat="42.1719533" lon="14.6850017"><ele>38.0</ele><time>2026-04-24T09:01:38.884Z</time></trkpt><trkpt lat="42.1719833" lon="14.6848967"><ele>38.0</ele><time>2026-04-24T09:01:41.884Z</time></trkpt><trkpt lat="42.1720067" lon="14.6848117"><ele>37.666666666666664</ele><time>2026-04-24T09:01:45.884Z</time></trkpt><trkpt lat="42.171935" lon="14.6847767"><ele>37.33333333333333</ele><time>2026-04-24T09:01:53.883Z</time></trkpt><trkpt lat="42.17186" lon="14.68481"><ele>37.0</ele><time>2026-04-24T09:01:56.884Z</time></trkpt><trkpt lat="42.1717783" lon="14.6848367"><ele>36.666666666666664</ele><time>2026-04-24T09:01:59.883Z</time></trkpt><trkpt lat="42.1717017" lon="14.6848683"><ele>36.333333333333336</ele><time>2026-04-24T09:02:02.884Z</time></trkpt><trkpt lat="42.1716183" lon="14.6849"><ele>36.0</ele><time>2026-04-24T09:02:05.884Z</time></trkpt><trkpt lat="42.1715333" lon="14.6849283"><ele>36.666666666666664</ele><time>2026-04-24T09:02:08.884Z</time></trkpt><trkpt lat="42.17145" lon="14.684965"><ele>37.333333333333336</ele><time>2026-04-24T09:02:11.884Z</time></trkpt><trkpt lat="42.1713667" lon="14.6849933"><ele>38.0</ele><time>2026-04-24T09:02:14.884Z</time></trkpt><trkpt lat="42.1712883" lon="14.6850233"><ele>38.66666666666667</ele><time>2026-04-24T09:02:17.884Z</time></trkpt><trkpt lat="42.171205" lon="14.6850533"><ele>39.333333333333336</ele><time>2026-04-24T09:02:20.884Z</time></trkpt><trkpt lat="42.1711233" lon="14.685085"><ele>40.0</ele><time>2026-04-24T09:02:23.884Z</time></trkpt><trkpt lat="42.1710417" lon="14.6851233"><ele>40.0</ele><time>2026-04-24T09:02:26.884Z</time></trkpt><trkpt lat="42.1709567" lon="14.6851617"><ele>40.0</ele><time>2026-04-24T09:02:29.884Z</time></trkpt><trkpt lat="42.17087" lon="14.6851983"><ele>40.0</ele><time>2026-04-24T09:02:32.884Z</time></trkpt><trkpt lat="42.1707783" lon="14.6852233"><ele>40.0</ele><time>2026-04-24T09:02:35.883Z</time></trkpt><trkpt lat="42.17069" lon="14.6852517"><ele>40.0</ele><time>2026-04-24T09:02:38.884Z</time></trkpt><trkpt lat="42.1706" lon="14.6852733"><ele>40.42857142857143</ele><time>2026-04-24T09:02:41.884Z</time></trkpt><trkpt lat="42.1705367" lon="14.6852933"><ele>40.85714285714286</ele><time>2026-04-24T09:02:43.884Z</time></trkpt><trkpt lat="42.1704733" lon="14.6853083"><ele>41.28571428571429</ele><time>2026-04-24T09:02:45.883Z</time></trkpt><trkpt lat="42.1703867" lon="14.6853433"><ele>41.714285714285715</ele><time>2026-04-24T09:02:48.883Z</time></trkpt><trkpt lat="42.1703283" lon="14.6853783"><ele>42.142857142857146</ele><time>2026-04-24T09:02:50.884Z</time></trkpt><trkpt lat="42.1702667" lon="14.6854083"><ele>42.57142857142858</ele><time>2026-04-24T09:02:52.883Z</time></trkpt><trkpt lat="42.1702" lon="14.6854333"><ele>43.0</ele><time>2026-04-24T09:02:54.884Z</time></trkpt><trkpt lat="42.1701317" lon="14.6854567"><ele>43.00000000000001</ele><time>2026-04-24T09:02:56.884Z</time></trkpt><trkpt lat="42.1700667" lon="14.6854767"><ele>43.0</ele><time>2026-04-24T09:02:58.883Z</time></trkpt><trkpt lat="42.170005" lon="14.6854967"><ele>43.0</ele><time>2026-04-24T09:03:00.883Z</time></trkpt><trkpt lat="42.1699183" lon="14.6855283"><ele>43.0</ele><time>2026-04-24T09:03:03.884Z</time></trkpt><trkpt lat="42.1698367" lon="14.6855617"><ele>43.0</ele><time>2026-04-24T09:03:06.884Z</time></trkpt><trkpt lat="42.16977" lon="14.6855867"><ele>43.00000000000001</ele><time>2026-04-24T09:03:08.884Z</time></trkpt><trkpt lat="42.1697067" lon="14.685605"><ele>43.0</ele><time>2026-04-24T09:03:10.883Z</time></trkpt><trkpt lat="42.169645" lon="14.6856267"><ele>43.16666666666667</ele><time>2026-04-24T09:03:12.884Z</time></trkpt><trkpt lat="42.1695817" lon="14.685655"><ele>43.333333333333336</ele><time>2026-04-24T09:03:14.884Z</time></trkpt><trkpt lat="42.169515" lon="14.6856833"><ele>43.5</ele><time>2026-04-24T09:03:16.884Z</time></trkpt><trkpt lat="42.1694317" lon="14.685715"><ele>43.666666666666664</ele><time>2026-04-24T09:03:19.884Z</time></trkpt><trkpt lat="42.1693483" lon="14.6857467"><ele>43.83333333333333</ele><time>2026-04-24T09:03:22.883Z</time></trkpt><trkpt lat="42.16928" lon="14.685765"><ele>44.0</ele><time>2026-04-24T09:03:24.884Z</time></trkpt><trkpt lat="42.1691867" lon="14.6857967"><ele>44.0</ele><time>2026-04-24T09:03:27.884Z</time></trkpt><trkpt lat="42.1691233" lon="14.6858167"><ele>44.0</ele><time>2026-04-24T09:03:29.883Z</time></trkpt><trkpt lat="42.169035" lon="14.6858517"><ele>44.0</ele><time>2026-04-24T09:03:32.883Z</time></trkpt><trkpt lat="42.1689517" lon="14.6858667"><ele>44.0</ele><time>2026-04-24T09:03:35.883Z</time></trkpt><trkpt lat="42.168925" lon="14.685775"><ele>44.0</ele><time>2026-04-24T09:03:38.884Z</time></trkpt><trkpt lat="42.1688983" lon="14.6856617"><ele>44.0</ele><time>2026-04-24T09:03:41.884Z</time></trkpt><trkpt lat="42.16889" lon="14.6855417"><ele>44.0</ele><time>2026-04-24T09:03:44.883Z</time></trkpt><trkpt lat="42.1688883" lon="14.6854433"><ele>44.0</ele><time>2026-04-24T09:03:46.883Z</time></trkpt><trkpt lat="42.168875" lon="14.68535"><ele>44.0</ele><time>2026-04-24T09:03:48.884Z</time></trkpt><trkpt lat="42.1688717" lon="14.6852617"><ele>44.0</ele><time>2026-04-24T09:03:50.884Z</time></trkpt><trkpt lat="42.1688633" lon="14.6851417"><ele>44.0</ele><time>2026-04-24T09:03:53.884Z</time></trkpt><trkpt lat="42.16886" lon="14.68505"><ele>44.0</ele><time>2026-04-24T09:03:55.884Z</time></trkpt><trkpt lat="42.1688533" lon="14.6849567"><ele>44.0</ele><time>2026-04-24T09:03:57.883Z</time></trkpt><trkpt lat="42.1688433" lon="14.6848617"><ele>44.166666666666664</ele><time>2026-04-24T09:03:59.884Z</time></trkpt><trkpt lat="42.1688367" lon="14.6847633"><ele>44.33333333333333</ele><time>2026-04-24T09:04:01.884Z</time></trkpt><trkpt lat="42.16883" lon="14.6846617"><ele>44.5</ele><time>2026-04-24T09:04:03.883Z</time></trkpt><trkpt lat="42.1688167" lon="14.6845633"><ele>44.666666666666664</ele><time>2026-04-24T09:04:05.884Z</time></trkpt><trkpt lat="42.1688083" lon="14.68446"><ele>44.833333333333336</ele><time>2026-04-24T09:04:07.884Z</time></trkpt><trkpt lat="42.1688017" lon="14.684345"><ele>45.0</ele><time>2026-04-24T09:04:09.884Z</time></trkpt><trkpt lat="42.1687917" lon="14.6842367"><ele>45.0</ele><time>2026-04-24T09:04:11.883Z</time></trkpt><trkpt lat="42.16878" lon="14.6841283"><ele>45.0</ele><time>2026-04-24T09:04:13.883Z</time></trkpt><trkpt lat="42.16877" lon="14.6840133"><ele>45.0</ele><time>2026-04-24T09:04:15.883Z</time></trkpt><trkpt lat="42.1687583" lon="14.6839067"><ele>45.0</ele><time>2026-04-24T09:04:17.883Z</time></trkpt><trkpt lat="42.1687567" lon="14.6838"><ele>45.0</ele><time>2026-04-24T09:04:19.884Z</time></trkpt><trkpt lat="42.1687567" lon="14.68369"><ele>45.0</ele><time>2026-04-24T09:04:21.883Z</time></trkpt><trkpt lat="42.1687433" lon="14.68358"><ele>45.166666666666664</ele><time>2026-04-24T09:04:23.883Z</time></trkpt><trkpt lat="42.1687333" lon="14.6834667"><ele>45.333333333333336</ele><time>2026-04-24T09:04:25.884Z</time></trkpt><trkpt lat="42.168725" lon="14.68336"><ele>45.5</ele><time>2026-04-24T09:04:27.883Z</time></trkpt><trkpt lat="42.1687167" lon="14.6832567"><ele>45.66666666666667</ele><time>2026-04-24T09:04:29.884Z</time></trkpt><trkpt lat="42.16872" lon="14.68316"><ele>45.833333333333336</ele><time>2026-04-24T09:04:31.884Z</time></trkpt><trkpt lat="42.168715" lon="14.6830517"><ele>46.0</ele><time>2026-04-24T09:04:33.884Z</time></trkpt><trkpt lat="42.1686967" lon="14.682945"><ele>46.0</ele><time>2026-04-24T09:04:35.884Z</time></trkpt><trkpt lat="42.1686883" lon="14.6828383"><ele>46.0</ele><time>2026-04-24T09:04:37.883Z</time></trkpt><trkpt lat="42.1686733" lon="14.6827317"><ele>46.0</ele><time>2026-04-24T09:04:39.884Z</time></trkpt><trkpt lat="42.1686583" lon="14.6826283"><ele>46.0</ele><time>2026-04-24T09:04:41.884Z</time></trkpt><trkpt lat="42.1686417" lon="14.6825433"><ele>46.0</ele><time>2026-04-24T09:04:43.884Z</time></trkpt><trkpt lat="42.16856" lon="14.6824817"><ele>46.0</ele><time>2026-04-24T09:04:46.884Z</time></trkpt><trkpt lat="42.1684783" lon="14.682465"><ele>46.16666666666667</ele><time>2026-04-24T09:04:48.883Z</time></trkpt><trkpt lat="42.1683967" lon="14.68245"><ele>46.333333333333336</ele><time>2026-04-24T09:04:50.883Z</time></trkpt><trkpt lat="42.1683133" lon="14.6824533"><ele>46.5</ele><time>2026-04-24T09:04:52.883Z</time></trkpt><trkpt lat="42.16824" lon="14.682445"><ele>46.666666666666664</ele><time>2026-04-24T09:04:54.883Z</time></trkpt><trkpt lat="42.1681683" lon="14.6824367"><ele>46.83333333333333</ele><time>2026-04-24T09:04:56.884Z</time></trkpt><trkpt lat="42.1680983" lon="14.6824267"><ele>47.0</ele><time>2026-04-24T09:04:58.883Z</time></trkpt><trkpt lat="42.1680267" lon="14.6824233"><ele>47.33333333333333</ele><time>2026-04-24T09:05:00.884Z</time></trkpt><trkpt lat="42.16795" lon="14.68242"><ele>47.666666666666664</ele><time>2026-04-24T09:05:02.884Z</time></trkpt><trkpt lat="42.16787" lon="14.68241"><ele>48.0</ele><time>2026-04-24T09:05:04.883Z</time></trkpt><trkpt lat="42.1677867" lon="14.68241"><ele>48.33333333333333</ele><time>2026-04-24T09:05:06.884Z</time></trkpt><trkpt lat="42.1677067" lon="14.6824067"><ele>48.666666666666664</ele><time>2026-04-24T09:05:08.884Z</time></trkpt><trkpt lat="42.16763" lon="14.6824033"><ele>49.0</ele><time>2026-04-24T09:05:10.883Z</time></trkpt><trkpt lat="42.167555" lon="14.6824067"><ele>48.99999999999999</ele><time>2026-04-24T09:05:12.884Z</time></trkpt><trkpt lat="42.1674783" lon="14.68241"><ele>49.0</ele><time>2026-04-24T09:05:14.884Z</time></trkpt><trkpt lat="42.1673983" lon="14.6824133"><ele>49.0</ele><time>2026-04-24T09:05:16.883Z</time></trkpt><trkpt lat="42.1673217" lon="14.6824117"><ele>49.0</ele><time>2026-04-24T09:05:18.884Z</time></trkpt><trkpt lat="42.1672467" lon="14.6824083"><ele>48.99999999999999</ele><time>2026-04-24T09:05:20.884Z</time></trkpt><trkpt lat="42.1671733" lon="14.6824067"><ele>49.0</ele><time>2026-04-24T09:05:22.884Z</time></trkpt><trkpt lat="42.1671017" lon="14.6824033"><ele>49.0</ele><time>2026-04-24T09:05:24.884Z</time></trkpt><trkpt lat="42.1670283" lon="14.6824067"><ele>49.0</ele><time>2026-04-24T09:05:26.884Z</time></trkpt><trkpt lat="42.166955" lon="14.682395"><ele>49.0</ele><time>2026-04-24T09:05:28.883Z</time></trkpt><trkpt lat="42.16688" lon="14.6823933"><ele>49.0</ele><time>2026-04-24T09:05:30.883Z</time></trkpt><trkpt lat="42.1668083" lon="14.6823933"><ele>49.0</ele><time>2026-04-24T09:05:32.884Z</time></trkpt><trkpt lat="42.166735" lon="14.6823933"><ele>49.0</ele><time>2026-04-24T09:05:34.883Z</time></trkpt><trkpt lat="42.1666683" lon="14.68239"><ele>49.0</ele><time>2026-04-24T09:05:36.884Z</time></trkpt><trkpt lat="42.1665983" lon="14.68238"><ele>48.99999999999999</ele><time>2026-04-24T09:05:38.883Z</time></trkpt><trkpt lat="42.166545" lon="14.68229"><ele>49.0</ele><time>2026-04-24T09:05:41.883Z</time></trkpt><trkpt lat="42.1665433" lon="14.6821783"><ele>49.0</ele><time>2026-04-24T09:05:43.883Z</time></trkpt><trkpt lat="42.1665433" lon="14.682065"><ele>49.0</ele><time>2026-04-24T09:05:45.884Z</time></trkpt><trkpt lat="42.1665467" lon="14.68193"><ele>48.99999999999999</ele><time>2026-04-24T09:05:47.884Z</time></trkpt><trkpt lat="42.1665467" lon="14.681845"><ele>49.0</ele><time>2026-04-24T09:05:48.884Z</time></trkpt><trkpt lat="42.16655" lon="14.681755"><ele>48.714285714285715</ele><time>2026-04-24T09:05:49.883Z</time></trkpt><trkpt lat="42.1665533" lon="14.6816633"><ele>48.42857142857143</ele><time>2026-04-24T09:05:50.884Z</time></trkpt><trkpt lat="42.1665617" lon="14.681575"><ele>48.14285714285714</ele><time>2026-04-24T09:05:51.883Z</time></trkpt><trkpt lat="42.16657" lon="14.6814817"><ele>47.85714285714286</ele><time>2026-04-24T09:05:52.884Z</time></trkpt><trkpt lat="42.1665883" lon="14.6813917"><ele>47.57142857142857</ele><time>2026-04-24T09:05:53.884Z</time></trkpt><trkpt lat="42.16662" lon="14.681305"><ele>47.285714285714285</ele><time>2026-04-24T09:05:54.883Z</time></trkpt><trkpt lat="42.16666" lon="14.6812167"><ele>47.0</ele><time>2026-04-24T09:05:55.883Z</time></trkpt><trkpt lat="42.1667083" lon="14.6811267"><ele>46.666666666666664</ele><time>2026-04-24T09:05:56.883Z</time></trkpt><trkpt lat="42.1667583" lon="14.6810417"><ele>46.33333333333333</ele><time>2026-04-24T09:05:57.884Z</time></trkpt><trkpt lat="42.1668083" lon="14.6809533"><ele>46.0</ele><time>2026-04-24T09:05:58.883Z</time></trkpt><trkpt lat="42.166845" lon="14.6808617"><ele>45.666666666666664</ele><time>2026-04-24T09:05:59.884Z</time></trkpt><trkpt lat="42.1668767" lon="14.6807633"><ele>45.333333333333336</ele><time>2026-04-24T09:06:00.884Z</time></trkpt><trkpt lat="42.166905" lon="14.6806617"><ele>45.0</ele><time>2026-04-24T09:06:01.883Z</time></trkpt><trkpt lat="42.1669333" lon="14.680565"><ele>45.0</ele><time>2026-04-24T09:06:02.883Z</time></trkpt><trkpt lat="42.16695" lon="14.6804683"><ele>45.0</ele><time>2026-04-24T09:06:03.884Z</time></trkpt><trkpt lat="42.1669683" lon="14.680365"><ele>45.0</ele><time>2026-04-24T09:06:04.883Z</time></trkpt><trkpt lat="42.1669883" lon="14.6802517"><ele>45.0</ele><time>2026-04-24T09:06:05.884Z</time></trkpt><trkpt lat="42.16701" lon="14.68014"><ele>45.0</ele><time>2026-04-24T09:06:06.884Z</time></trkpt><trkpt lat="42.167025" lon="14.6800267"><ele>45.0</ele><time>2026-04-24T09:06:07.884Z</time></trkpt><trkpt lat="42.16703" lon="14.6799217"><ele>45.0</ele><time>2026-04-24T09:06:08.884Z</time></trkpt><trkpt lat="42.1670283" lon="14.6798133"><ele>45.0</ele><time>2026-04-24T09:06:09.883Z</time></trkpt><trkpt lat="42.1670233" lon="14.679705"><ele>45.0</ele><time>2026-04-24T09:06:10.883Z</time></trkpt><trkpt lat="42.166995" lon="14.6796017"><ele>45.0</ele><time>2026-04-24T09:06:11.883Z</time></trkpt><trkpt lat="42.16696" lon="14.67951"><ele>45.0</ele><time>2026-04-24T09:06:12.883Z</time></trkpt><trkpt lat="42.16692" lon="14.6794233"><ele>45.0</ele><time>2026-04-24T09:06:13.883Z</time></trkpt><trkpt lat="42.1668833" lon="14.6793417"><ele>44.666666666666664</ele><time>2026-04-24T09:06:14.884Z</time></trkpt><trkpt lat="42.1668467" lon="14.67927"><ele>44.333333333333336</ele><time>2026-04-24T09:06:15.884Z</time></trkpt><trkpt lat="42.1668133" lon="14.6791917"><ele>44.0</ele><time>2026-04-24T09:06:16.884Z</time></trkpt><trkpt lat="42.1667883" lon="14.67911"><ele>43.66666666666667</ele><time>2026-04-24T09:06:17.884Z</time></trkpt><trkpt lat="42.16676" lon="14.67903"><ele>43.333333333333336</ele><time>2026-04-24T09:06:18.884Z</time></trkpt><trkpt lat="42.16675" lon="14.6788783"><ele>43.0</ele><time>2026-04-24T09:06:20.884Z</time></trkpt><trkpt lat="42.1668033" lon="14.67878"><ele>43.0</ele><time>2026-04-24T09:06:22.884Z</time></trkpt><trkpt lat="42.1668717" lon="14.67874"><ele>43.0</ele><time>2026-04-24T09:06:24.884Z</time></trkpt><trkpt lat="42.1669483" lon="14.678725"><ele>43.0</ele><time>2026-04-24T09:06:26.884Z</time></trkpt><trkpt lat="42.1670167" lon="14.6787083"><ele>43.0</ele><time>2026-04-24T09:06:28.884Z</time></trkpt><trkpt lat="42.1671067" lon="14.6786933"><ele>43.0</ele><time>2026-04-24T09:06:31.884Z</time></trkpt><trkpt lat="42.1671967" lon="14.6786967"><ele>43.0</ele><time>2026-04-24T09:06:34.884Z</time></trkpt><trkpt lat="42.16727" lon="14.678675"><ele>43.00000000000001</ele><time>2026-04-24T09:06:37.883Z</time></trkpt><trkpt lat="42.1673367" lon="14.6786267"><ele>43.0</ele><time>2026-04-24T09:06:40.884Z</time></trkpt><trkpt lat="42.1673817" lon="14.67854"><ele>43.0</ele><time>2026-04-24T09:06:44.883Z</time></trkpt><trkpt lat="42.167415" lon="14.6784567"><ele>43.0</ele><time>2026-04-24T09:06:49.884Z</time></trkpt><trkpt lat="42.1674433" lon="14.6783767"><ele>43.0</ele><time>2026-04-24T09:06:54.884Z</time></trkpt><trkpt lat="42.16745" lon="14.6782917"><ele>43.00000000000001</ele><time>2026-04-24T09:06:58.883Z</time></trkpt><trkpt lat="42.1674583" lon="14.678195"><ele>43.0</ele><time>2026-04-24T09:07:02.883Z</time></trkpt><trkpt lat="42.1674617" lon="14.6781067"><ele>43.57142857142858</ele><time>2026-04-24T09:07:06.884Z</time></trkpt><trkpt lat="42.16747" lon="14.6780133"><ele>44.142857142857146</ele><time>2026-04-24T09:07:10.884Z</time></trkpt><trkpt lat="42.1674733" lon="14.67792"><ele>44.714285714285715</ele><time>2026-04-24T09:07:14.883Z</time></trkpt><trkpt lat="42.1674883" lon="14.677815"><ele>45.28571428571429</ele><time>2026-04-24T09:07:18.884Z</time></trkpt><trkpt lat="42.1674933" lon="14.677715"><ele>45.857142857142854</ele><time>2026-04-24T09:07:22.884Z</time></trkpt><trkpt lat="42.1675083" lon="14.6776083"><ele>46.42857142857143</ele><time>2026-04-24T09:07:26.883Z</time></trkpt><trkpt lat="42.1675167" lon="14.6775117"><ele>47.0</ele><time>2026-04-24T09:07:29.883Z</time></trkpt><trkpt lat="42.1675183" lon="14.677405"><ele>47.714285714285715</ele><time>2026-04-24T09:07:33.884Z</time></trkpt><trkpt lat="42.1675183" lon="14.6773"><ele>48.42857142857143</ele><time>2026-04-24T09:07:37.883Z</time></trkpt><trkpt lat="42.1675233" lon="14.6772133"><ele>49.14285714285714</ele><time>2026-04-24T09:07:40.884Z</time></trkpt><trkpt lat="42.167515" lon="14.6771233"><ele>49.85714285714286</ele><time>2026-04-24T09:07:43.883Z</time></trkpt><trkpt lat="42.1675033" lon="14.6770117"><ele>50.57142857142858</ele><time>2026-04-24T09:07:46.884Z</time></trkpt><trkpt lat="42.1675017" lon="14.6769117"><ele>51.285714285714285</ele><time>2026-04-24T09:07:49.884Z</time></trkpt><trkpt lat="42.1675017" lon="14.6768017"><ele>52.0</ele><time>2026-04-24T09:07:52.884Z</time></trkpt><trkpt lat="42.1674983" lon="14.6766783"><ele>52.166666666666664</ele><time>2026-04-24T09:07:55.884Z</time></trkpt><trkpt lat="42.167495" lon="14.6765717"><ele>52.33333333333333</ele><time>2026-04-24T09:07:58.883Z</time></trkpt><trkpt lat="42.1675067" lon="14.6764583"><ele>52.5</ele><time>2026-04-24T09:08:01.884Z</time></trkpt><trkpt lat="42.1675117" lon="14.6763383"><ele>52.66666666666667</ele><time>2026-04-24T09:08:04.884Z</time></trkpt><trkpt lat="42.167525" lon="14.6762167"><ele>52.833333333333336</ele><time>2026-04-24T09:08:07.884Z</time></trkpt><trkpt lat="42.1675267" lon="14.6761233"><ele>53.0</ele><time>2026-04-24T09:08:09.884Z</time></trkpt><trkpt lat="42.1675317" lon="14.6760367"><ele>53.333333333333336</ele><time>2026-04-24T09:08:11.884Z</time></trkpt><trkpt lat="42.1675417" lon="14.6759183"><ele>53.66666666666667</ele><time>2026-04-24T09:08:14.883Z</time></trkpt><trkpt lat="42.167555" lon="14.675795"><ele>54.0</ele><time>2026-04-24T09:08:17.884Z</time></trkpt><trkpt lat="42.1675683" lon="14.6757067"><ele>54.33333333333333</ele><time>2026-04-24T09:08:19.884Z</time></trkpt><trkpt lat="42.1675783" lon="14.6756167"><ele>54.666666666666664</ele><time>2026-04-24T09:08:21.884Z</time></trkpt><trkpt lat="42.167595" lon="14.6754867"><ele>55.0</ele><time>2026-04-24T09:08:24.883Z</time></trkpt><trkpt lat="42.1676217" lon="14.6753967"><ele>54.99999999999999</ele><time>2026-04-24T09:08:26.884Z</time></trkpt><trkpt lat="42.1676417" lon="14.6753033"><ele>55.0</ele><time>2026-04-24T09:08:28.884Z</time></trkpt><trkpt lat="42.1676667" lon="14.6752083"><ele>55.0</ele><time>2026-04-24T09:08:30.883Z</time></trkpt><trkpt lat="42.1676933" lon="14.67512"><ele>55.0</ele><time>2026-04-24T09:08:32.883Z</time></trkpt><trkpt lat="42.1677217" lon="14.67504"><ele>55.0</ele><time>2026-04-24T09:08:34.884Z</time></trkpt><trkpt lat="42.1677467" lon="14.6749517"><ele>54.99999999999999</ele><time>2026-04-24T09:08:36.884Z</time></trkpt><trkpt lat="42.16778" lon="14.6748567"><ele>55.0</ele><time>2026-04-24T09:08:38.884Z</time></trkpt><trkpt lat="42.1678083" lon="14.6747533"><ele>54.99999999999999</ele><time>2026-04-24T09:08:40.884Z</time></trkpt><trkpt lat="42.1678383" lon="14.6746633"><ele>55.0</ele><time>2026-04-24T09:08:42.884Z</time></trkpt><trkpt lat="42.16787" lon="14.674575"><ele>55.0</ele><time>2026-04-24T09:08:44.883Z</time></trkpt><trkpt lat="42.16789" lon="14.67448"><ele>55.0</ele><time>2026-04-24T09:08:46.884Z</time></trkpt><trkpt lat="42.1679183" lon="14.6743717"><ele>54.99999999999999</ele><time>2026-04-24T09:08:48.884Z</time></trkpt><trkpt lat="42.1679533" lon="14.6742767"><ele>55.0</ele><time>2026-04-24T09:08:50.883Z</time></trkpt><trkpt lat="42.167985" lon="14.67418"><ele>55.166666666666664</ele><time>2026-04-24T09:08:52.884Z</time></trkpt><trkpt lat="42.168015" lon="14.6740767"><ele>55.33333333333333</ele><time>2026-04-24T09:08:54.883Z</time></trkpt><trkpt lat="42.1680383" lon="14.6739667"><ele>55.5</ele><time>2026-04-24T09:08:56.884Z</time></trkpt><trkpt lat="42.16807" lon="14.6738567"><ele>55.66666666666667</ele><time>2026-04-24T09:08:58.884Z</time></trkpt><trkpt lat="42.1680967" lon="14.6737467"><ele>55.833333333333336</ele><time>2026-04-24T09:09:00.883Z</time></trkpt><trkpt lat="42.1681233" lon="14.67365"><ele>56.0</ele><time>2026-04-24T09:09:02.884Z</time></trkpt><trkpt lat="42.1681467" lon="14.67355"><ele>56.00000000000001</ele><time>2026-04-24T09:09:04.884Z</time></trkpt><trkpt lat="42.1681683" lon="14.67345"><ele>56.0</ele><time>2026-04-24T09:09:06.883Z</time></trkpt><trkpt lat="42.1681883" lon="14.67336"><ele>56.0</ele><time>2026-04-24T09:09:08.884Z</time></trkpt><trkpt lat="42.1682133" lon="14.6732517"><ele>56.0</ele><time>2026-04-24T09:09:10.884Z</time></trkpt><trkpt lat="42.1682483" lon="14.6731417"><ele>56.00000000000001</ele><time>2026-04-24T09:09:12.883Z</time></trkpt><trkpt lat="42.1682767" lon="14.6730383"><ele>56.0</ele><time>2026-04-24T09:09:14.883Z</time></trkpt><trkpt lat="42.16831" lon="14.6729433"><ele>55.833333333333336</ele><time>2026-04-24T09:09:16.884Z</time></trkpt><trkpt lat="42.1683433" lon="14.6728383"><ele>55.66666666666667</ele><time>2026-04-24T09:09:18.884Z</time></trkpt><trkpt lat="42.16837" lon="14.6727317"><ele>55.5</ele><time>2026-04-24T09:09:20.883Z</time></trkpt><trkpt lat="42.1683933" lon="14.6726267"><ele>55.33333333333333</ele><time>2026-04-24T09:09:22.884Z</time></trkpt><trkpt lat="42.1684183" lon="14.6725217"><ele>55.166666666666664</ele><time>2026-04-24T09:09:24.883Z</time></trkpt><trkpt lat="42.1684467" lon="14.6724183"><ele>55.0</ele><time>2026-04-24T09:09:26.884Z</time></trkpt><trkpt lat="42.1684683" lon="14.6723"><ele>55.0</ele><time>2026-04-24T09:09:28.883Z</time></trkpt><trkpt lat="42.1684917" lon="14.6721767"><ele>55.0</ele><time>2026-04-24T09:09:30.884Z</time></trkpt><trkpt lat="42.1685033" lon="14.672055"><ele>55.0</ele><time>2026-04-24T09:09:32.883Z</time></trkpt><trkpt lat="42.1685167" lon="14.6719333"><ele>55.0</ele><time>2026-04-24T09:09:34.884Z</time></trkpt><trkpt lat="42.1685367" lon="14.6718067"><ele>55.0</ele><time>2026-04-24T09:09:36.883Z</time></trkpt><trkpt lat="42.1685617" lon="14.6716867"><ele>55.166666666666664</ele><time>2026-04-24T09:09:38.884Z</time></trkpt><trkpt lat="42.1685933" lon="14.6715683"><ele>55.33333333333333</ele><time>2026-04-24T09:09:40.883Z</time></trkpt><trkpt lat="42.168635" lon="14.6714583"><ele>55.5</ele><time>2026-04-24T09:09:42.883Z</time></trkpt><trkpt lat="42.168675" lon="14.6713583"><ele>55.66666666666667</ele><time>2026-04-24T09:09:44.884Z</time></trkpt><trkpt lat="42.16871" lon="14.67126"><ele>55.833333333333336</ele><time>2026-04-24T09:09:46.884Z</time></trkpt><trkpt lat="42.1687467" lon="14.6711717"><ele>56.0</ele><time>2026-04-24T09:09:48.884Z</time></trkpt><trkpt lat="42.1687917" lon="14.6710783"><ele>56.4</ele><time>2026-04-24T09:09:50.884Z</time></trkpt><trkpt lat="42.16883" lon="14.67097"><ele>56.8</ele><time>2026-04-24T09:09:52.884Z</time></trkpt><trkpt lat="42.1688683" lon="14.6708517"><ele>57.199999999999996</ele><time>2026-04-24T09:09:54.883Z</time></trkpt><trkpt lat="42.1689067" lon="14.6707317"><ele>57.599999999999994</ele><time>2026-04-24T09:09:56.883Z</time></trkpt><trkpt lat="42.1689367" lon="14.670625"><ele>58.0</ele><time>2026-04-24T09:09:58.884Z</time></trkpt><trkpt lat="42.168955" lon="14.670515"><ele>57.99999999999999</ele><time>2026-04-24T09:10:00.884Z</time></trkpt><trkpt lat="42.1689683" lon="14.6704067"><ele>58.0</ele><time>2026-04-24T09:10:02.883Z</time></trkpt><trkpt lat="42.1689833" lon="14.6703033"><ele>58.0</ele><time>2026-04-24T09:10:04.884Z</time></trkpt><trkpt lat="42.169015" lon="14.6701917"><ele>58.0</ele><time>2026-04-24T09:10:06.883Z</time></trkpt><trkpt lat="42.1690567" lon="14.6700767"><ele>57.99999999999999</ele><time>2026-04-24T09:10:08.884Z</time></trkpt><trkpt lat="42.1691" lon="14.66996"><ele>58.0</ele><time>2026-04-24T09:10:10.884Z</time></trkpt><trkpt lat="42.1691367" lon="14.6698583"><ele>57.666666666666664</ele><time>2026-04-24T09:10:12.884Z</time></trkpt><trkpt lat="42.1691733" lon="14.6697533"><ele>57.33333333333333</ele><time>2026-04-24T09:10:14.883Z</time></trkpt><trkpt lat="42.1692167" lon="14.6696433"><ele>57.0</ele><time>2026-04-24T09:10:16.884Z</time></trkpt><trkpt lat="42.169255" lon="14.6695317"><ele>56.66666666666667</ele><time>2026-04-24T09:10:18.884Z</time></trkpt><trkpt lat="42.1693" lon="14.6694283"><ele>56.333333333333336</ele><time>2026-04-24T09:10:20.883Z</time></trkpt><trkpt lat="42.1693333" lon="14.6693167"><ele>56.0</ele><time>2026-04-24T09:10:22.883Z</time></trkpt><trkpt lat="42.1693733" lon="14.669205"><ele>56.0</ele><time>2026-04-24T09:10:24.884Z</time></trkpt><trkpt lat="42.1694017" lon="14.6690867"><ele>55.99999999999999</ele><time>2026-04-24T09:10:26.884Z</time></trkpt><trkpt lat="42.169425" lon="14.66896"><ele>55.99999999999999</ele><time>2026-04-24T09:10:28.884Z</time></trkpt><trkpt lat="42.169445" lon="14.6688333"><ele>56.0</ele><time>2026-04-24T09:10:30.884Z</time></trkpt><trkpt lat="42.1694717" lon="14.6687117"><ele>56.0</ele><time>2026-04-24T09:10:32.884Z</time></trkpt><trkpt lat="42.1695033" lon="14.6685983"><ele>56.50000000000001</ele><time>2026-04-24T09:10:34.884Z</time></trkpt><trkpt lat="42.1695283" lon="14.668485"><ele>57.0</ele><time>2026-04-24T09:10:36.883Z</time></trkpt><trkpt lat="42.16956" lon="14.6683867"><ele>57.5</ele><time>2026-04-24T09:10:38.884Z</time></trkpt><trkpt lat="42.1696" lon="14.6682867"><ele>58.0</ele><time>2026-04-24T09:10:40.884Z</time></trkpt><trkpt lat="42.16964" lon="14.6681917"><ele>58.50000000000001</ele><time>2026-04-24T09:10:42.884Z</time></trkpt><trkpt lat="42.169685" lon="14.6680967"><ele>59.0</ele><time>2026-04-24T09:10:44.884Z</time></trkpt><trkpt lat="42.1697167" lon="14.6680017"><ele>59.0</ele><time>2026-04-24T09:10:46.883Z</time></trkpt><trkpt lat="42.16975" lon="14.6679083"><ele>59.0</ele><time>2026-04-24T09:10:48.884Z</time></trkpt><trkpt lat="42.1697783" lon="14.6678183"><ele>59.0</ele><time>2026-04-24T09:10:50.883Z</time></trkpt><trkpt lat="42.169805" lon="14.6677267"><ele>59.0</ele><time>2026-04-24T09:10:52.883Z</time></trkpt><trkpt lat="42.1698333" lon="14.6676367"><ele>59.0</ele><time>2026-04-24T09:10:54.884Z</time></trkpt><trkpt lat="42.16986" lon="14.6675367"><ele>59.0</ele><time>2026-04-24T09:10:56.884Z</time></trkpt><trkpt lat="42.16988" lon="14.6674417"><ele>59.0</ele><time>2026-04-24T09:10:58.884Z</time></trkpt><trkpt lat="42.169905" lon="14.6673467"><ele>59.0</ele><time>2026-04-24T09:11:00.883Z</time></trkpt><trkpt lat="42.1699283" lon="14.6672517"><ele>59.0</ele><time>2026-04-24T09:11:02.884Z</time></trkpt><trkpt lat="42.169945" lon="14.6671567"><ele>59.0</ele><time>2026-04-24T09:11:04.884Z</time></trkpt><trkpt lat="42.16996" lon="14.667065"><ele>59.0</ele><time>2026-04-24T09:11:06.883Z</time></trkpt><trkpt lat="42.169975" lon="14.666975"><ele>59.0</ele><time>2026-04-24T09:11:08.884Z</time></trkpt><trkpt lat="42.1699917" lon="14.6668767"><ele>59.0</ele><time>2026-04-24T09:11:10.884Z</time></trkpt><trkpt lat="42.1700133" lon="14.6667733"><ele>59.0</ele><time>2026-04-24T09:11:12.884Z</time></trkpt><trkpt lat="42.170035" lon="14.6666733"><ele>59.00000000000001</ele><time>2026-04-24T09:11:14.883Z</time></trkpt><trkpt lat="42.17006" lon="14.6665767"><ele>59.0</ele><time>2026-04-24T09:11:16.884Z</time></trkpt><trkpt lat="42.17009" lon="14.6664833"><ele>59.0</ele><time>2026-04-24T09:11:18.884Z</time></trkpt><trkpt lat="42.1701167" lon="14.6663967"><ele>59.0</ele><time>2026-04-24T09:11:20.884Z</time></trkpt><trkpt lat="42.1701367" lon="14.6663133"><ele>59.00000000000001</ele><time>2026-04-24T09:11:22.884Z</time></trkpt><trkpt lat="42.170175" lon="14.6662083"><ele>59.0</ele><time>2026-04-24T09:11:25.883Z</time></trkpt><trkpt lat="42.170215" lon="14.6660833"><ele>59.0</ele><time>2026-04-24T09:11:28.884Z</time></trkpt><trkpt lat="42.1702433" lon="14.6659883"><ele>59.0</ele><time>2026-04-24T09:11:30.884Z</time></trkpt><trkpt lat="42.1702733" lon="14.665905"><ele>59.0</ele><time>2026-04-24T09:11:32.883Z</time></trkpt><trkpt lat="42.1703083" lon="14.665825"><ele>59.0</ele><time>2026-04-24T09:11:34.884Z</time></trkpt><trkpt lat="42.17034" lon="14.66575"><ele>59.0</ele><time>2026-04-24T09:11:36.883Z</time></trkpt><trkpt lat="42.1703783" lon="14.6656383"><ele>59.0</ele><time>2026-04-24T09:11:39.884Z</time></trkpt><trkpt lat="42.1704083" lon="14.6655383"><ele>59.0</ele><time>2026-04-24T09:11:42.884Z</time></trkpt><trkpt lat="42.170435" lon="14.6654583"><ele>59.00000000000001</ele><time>2026-04-24T09:11:44.883Z</time></trkpt><trkpt lat="42.1704717" lon="14.6653567"><ele>59.0</ele><time>2026-04-24T09:11:46.883Z</time></trkpt><trkpt lat="42.1705017" lon="14.6652583"><ele>59.0</ele><time>2026-04-24T09:11:48.884Z</time></trkpt><trkpt lat="42.1705417" lon="14.665155"><ele>59.0</ele><time>2026-04-24T09:11:50.884Z</time></trkpt><trkpt lat="42.1705867" lon="14.6650517"><ele>59.00000000000001</ele><time>2026-04-24T09:11:52.884Z</time></trkpt><trkpt lat="42.1706283" lon="14.6649383"><ele>59.0</ele><time>2026-04-24T09:11:54.884Z</time></trkpt><trkpt lat="42.17067" lon="14.664815"><ele>58.5</ele><time>2026-04-24T09:11:56.884Z</time></trkpt><trkpt lat="42.1707217" lon="14.664685"><ele>58.0</ele><time>2026-04-24T09:11:58.884Z</time></trkpt><trkpt lat="42.1707733" lon="14.6645467"><ele>57.5</ele><time>2026-04-24T09:12:00.884Z</time></trkpt><trkpt lat="42.170835" lon="14.664415"><ele>57.0</ele><time>2026-04-24T09:12:02.884Z</time></trkpt><trkpt lat="42.17088" lon="14.6642717"><ele>56.833333333333336</ele><time>2026-04-24T09:12:04.883Z</time></trkpt><trkpt lat="42.17093" lon="14.66416"><ele>56.66666666666667</ele><time>2026-04-24T09:12:06.884Z</time></trkpt><trkpt lat="42.17098" lon="14.6640733"><ele>56.5</ele><time>2026-04-24T09:12:08.884Z</time></trkpt><trkpt lat="42.1710267" lon="14.6639967"><ele>56.333333333333336</ele><time>2026-04-24T09:12:10.884Z</time></trkpt><trkpt lat="42.1710783" lon="14.6639083"><ele>56.16666666666667</ele><time>2026-04-24T09:12:12.884Z</time></trkpt><trkpt lat="42.171115" lon="14.6638383"><ele>56.0</ele><time>2026-04-24T09:12:14.883Z</time></trkpt><trkpt lat="42.1711717" lon="14.6637467"><ele>56.00000000000001</ele><time>2026-04-24T09:12:17.884Z</time></trkpt><trkpt lat="42.171235" lon="14.66366"><ele>56.0</ele><time>2026-04-24T09:12:20.883Z</time></trkpt><trkpt lat="42.1712983" lon="14.6635733"><ele>56.0</ele><time>2026-04-24T09:12:23.883Z</time></trkpt><trkpt lat="42.1713633" lon="14.66348"><ele>56.0</ele><time>2026-04-24T09:12:26.884Z</time></trkpt><trkpt lat="42.1714067" lon="14.66341"><ele>56.00000000000001</ele><time>2026-04-24T09:12:28.883Z</time></trkpt><trkpt lat="42.171455" lon="14.6633383"><ele>56.0</ele><time>2026-04-24T09:12:30.884Z</time></trkpt><trkpt lat="42.1715083" lon="14.6632667"><ele>56.66666666666667</ele><time>2026-04-24T09:12:32.883Z</time></trkpt><trkpt lat="42.17156" lon="14.6631883"><ele>57.333333333333336</ele><time>2026-04-24T09:12:34.884Z</time></trkpt><trkpt lat="42.1716133" lon="14.663115"><ele>58.0</ele><time>2026-04-24T09:12:36.884Z</time></trkpt><trkpt lat="42.171665" lon="14.6630333"><ele>58.66666666666667</ele><time>2026-04-24T09:12:38.883Z</time></trkpt><trkpt lat="42.1717233" lon="14.6629567"><ele>59.333333333333336</ele><time>2026-04-24T09:12:40.884Z</time></trkpt><trkpt lat="42.1717783" lon="14.6628833"><ele>60.0</ele><time>2026-04-24T09:12:42.884Z</time></trkpt><trkpt lat="42.1718217" lon="14.6628033"><ele>60.333333333333336</ele><time>2026-04-24T09:12:44.884Z</time></trkpt><trkpt lat="42.1718633" lon="14.662715"><ele>60.66666666666667</ele><time>2026-04-24T09:12:46.884Z</time></trkpt><trkpt lat="42.1719" lon="14.6626283"><ele>61.0</ele><time>2026-04-24T09:12:48.884Z</time></trkpt><trkpt lat="42.1719383" lon="14.662545"><ele>61.333333333333336</ele><time>2026-04-24T09:12:50.884Z</time></trkpt><trkpt lat="42.1719683" lon="14.6624533"><ele>61.66666666666667</ele><time>2026-04-24T09:12:52.883Z</time></trkpt><trkpt lat="42.1720017" lon="14.662355"><ele>62.0</ele><time>2026-04-24T09:12:54.884Z</time></trkpt><trkpt lat="42.17202" lon="14.6622467"><ele>62.00000000000001</ele><time>2026-04-24T09:12:56.884Z</time></trkpt><trkpt lat="42.1720267" lon="14.6621383"><ele>62.0</ele><time>2026-04-24T09:12:58.883Z</time></trkpt><trkpt lat="42.172025" lon="14.6620383"><ele>62.0</ele><time>2026-04-24T09:13:00.883Z</time></trkpt><trkpt lat="42.1720167" lon="14.6619433"><ele>62.0</ele><time>2026-04-24T09:13:02.883Z</time></trkpt><trkpt lat="42.1720117" lon="14.6618367"><ele>62.00000000000001</ele><time>2026-04-24T09:13:04.884Z</time></trkpt><trkpt lat="42.1720017" lon="14.6617283"><ele>62.0</ele><time>2026-04-24T09:13:06.883Z</time></trkpt><trkpt lat="42.171995" lon="14.6616133"><ele>62.16666666666667</ele><time>2026-04-24T09:13:08.884Z</time></trkpt><trkpt lat="42.1719867" lon="14.661505"><ele>62.333333333333336</ele><time>2026-04-24T09:13:10.883Z</time></trkpt><trkpt lat="42.1719733" lon="14.6613967"><ele>62.5</ele><time>2026-04-24T09:13:12.883Z</time></trkpt><trkpt lat="42.171955" lon="14.6612967"><ele>62.66666666666667</ele><time>2026-04-24T09:13:14.884Z</time></trkpt><trkpt lat="42.17194" lon="14.661195"><ele>62.833333333333336</ele><time>2026-04-24T09:13:16.883Z</time></trkpt><trkpt lat="42.1719267" lon="14.6610933"><ele>63.0</ele><time>2026-04-24T09:13:18.884Z</time></trkpt><trkpt lat="42.17191" lon="14.6609917"><ele>63.0</ele><time>2026-04-24T09:13:20.884Z</time></trkpt><trkpt lat="42.17189" lon="14.6608917"><ele>63.0</ele><time>2026-04-24T09:13:22.884Z</time></trkpt><trkpt lat="42.17187" lon="14.66079"><ele>63.0</ele><time>2026-04-24T09:13:24.884Z</time></trkpt><trkpt lat="42.17186" lon="14.6606917"><ele>63.0</ele><time>2026-04-24T09:13:26.884Z</time></trkpt><trkpt lat="42.17185" lon="14.6605967"><ele>63.0</ele><time>2026-04-24T09:13:28.884Z</time></trkpt><trkpt lat="42.17183" lon="14.6604933"><ele>63.0</ele><time>2026-04-24T09:13:30.883Z</time></trkpt><trkpt lat="42.171805" lon="14.6604017"><ele>63.0</ele><time>2026-04-24T09:13:32.883Z</time></trkpt><trkpt lat="42.171785" lon="14.6603083"><ele>63.0</ele><time>2026-04-24T09:13:34.884Z</time></trkpt><trkpt lat="42.1717633" lon="14.6602117"><ele>63.0</ele><time>2026-04-24T09:13:36.883Z</time></trkpt><trkpt lat="42.171745" lon="14.6601117"><ele>63.0</ele><time>2026-04-24T09:13:38.884Z</time></trkpt><trkpt lat="42.1717317" lon="14.6600117"><ele>63.0</ele><time>2026-04-24T09:13:40.884Z</time></trkpt><trkpt lat="42.1717167" lon="14.65992"><ele>63.0</ele><time>2026-04-24T09:13:42.884Z</time></trkpt><trkpt lat="42.171695" lon="14.6598317"><ele>63.0</ele><time>2026-04-24T09:13:44.883Z</time></trkpt><trkpt lat="42.171675" lon="14.65974"><ele>63.14285714285714</ele><time>2026-04-24T09:13:46.884Z</time></trkpt><trkpt lat="42.1716567" lon="14.6596483"><ele>63.285714285714285</ele><time>2026-04-24T09:13:48.884Z</time></trkpt><trkpt lat="42.1716417" lon="14.6595517"><ele>63.42857142857143</ele><time>2026-04-24T09:13:50.884Z</time></trkpt><trkpt lat="42.1716183" lon="14.6594517"><ele>63.57142857142857</ele><time>2026-04-24T09:13:52.884Z</time></trkpt><trkpt lat="42.1715933" lon="14.6593517"><ele>63.71428571428571</ele><time>2026-04-24T09:13:54.884Z</time></trkpt><trkpt lat="42.1715717" lon="14.6592567"><ele>63.857142857142854</ele><time>2026-04-24T09:13:56.884Z</time></trkpt><trkpt lat="42.171545" lon="14.6591717"><ele>64.0</ele><time>2026-04-24T09:13:58.884Z</time></trkpt><trkpt lat="42.171525" lon="14.6590783"><ele>64.57142857142857</ele><time>2026-04-24T09:14:00.884Z</time></trkpt><trkpt lat="42.1714967" lon="14.6589833"><ele>65.14285714285714</ele><time>2026-04-24T09:14:02.883Z</time></trkpt><trkpt lat="42.1714717" lon="14.65889"><ele>65.71428571428571</ele><time>2026-04-24T09:14:04.884Z</time></trkpt><trkpt lat="42.17145" lon="14.6588033"><ele>66.28571428571428</ele><time>2026-04-24T09:14:06.883Z</time></trkpt><trkpt lat="42.1714267" lon="14.6587117"><ele>66.85714285714286</ele><time>2026-04-24T09:14:08.884Z</time></trkpt><trkpt lat="42.1714033" lon="14.6586233"><ele>67.42857142857142</ele><time>2026-04-24T09:14:10.884Z</time></trkpt><trkpt lat="42.171375" lon="14.6585333"><ele>68.0</ele><time>2026-04-24T09:14:12.883Z</time></trkpt><trkpt lat="42.1713417" lon="14.658445"><ele>68.14285714285714</ele><time>2026-04-24T09:14:14.884Z</time></trkpt><trkpt lat="42.171315" lon="14.658355"><ele>68.28571428571428</ele><time>2026-04-24T09:14:16.883Z</time></trkpt><trkpt lat="42.1712833" lon="14.658265"><ele>68.42857142857143</ele><time>2026-04-24T09:14:18.884Z</time></trkpt><trkpt lat="42.1712533" lon="14.65818"><ele>68.57142857142857</ele><time>2026-04-24T09:14:20.884Z</time></trkpt><trkpt lat="42.1712217" lon="14.6580883"><ele>68.71428571428572</ele><time>2026-04-24T09:14:22.883Z</time></trkpt><trkpt lat="42.1711917" lon="14.658"><ele>68.85714285714286</ele><time>2026-04-24T09:14:24.884Z</time></trkpt><trkpt lat="42.1711633" lon="14.65791"><ele>69.0</ele><time>2026-04-24T09:14:26.883Z</time></trkpt><trkpt lat="42.171135" lon="14.6578167"><ele>69.28571428571429</ele><time>2026-04-24T09:14:28.884Z</time></trkpt><trkpt lat="42.17111" lon="14.657725"><ele>69.57142857142858</ele><time>2026-04-24T09:14:30.884Z</time></trkpt><trkpt lat="42.171085" lon="14.657635"><ele>69.85714285714286</ele><time>2026-04-24T09:14:32.884Z</time></trkpt><trkpt lat="42.171065" lon="14.6575417"><ele>70.14285714285714</ele><time>2026-04-24T09:14:34.884Z</time></trkpt><trkpt lat="42.171035" lon="14.6574583"><ele>70.42857142857142</ele><time>2026-04-24T09:14:36.884Z</time></trkpt><trkpt lat="42.1710117" lon="14.65737"><ele>70.71428571428571</ele><time>2026-04-24T09:14:38.884Z</time></trkpt><trkpt lat="42.1709883" lon="14.65728"><ele>71.0</ele><time>2026-04-24T09:14:40.884Z</time></trkpt><trkpt lat="42.1709583" lon="14.6571983"><ele>71.0</ele><time>2026-04-24T09:14:42.884Z</time></trkpt><trkpt lat="42.1709283" lon="14.6571117"><ele>71.0</ele><time>2026-04-24T09:14:44.883Z</time></trkpt><trkpt lat="42.1709" lon="14.6570283"><ele>71.0</ele><time>2026-04-24T09:14:46.884Z</time></trkpt><trkpt lat="42.1708733" lon="14.65694"><ele>71.0</ele><time>2026-04-24T09:14:48.884Z</time></trkpt><trkpt lat="42.17084" lon="14.656855"><ele>71.0</ele><time>2026-04-24T09:14:50.883Z</time></trkpt><trkpt lat="42.1708083" lon="14.65677"><ele>71.0</ele><time>2026-04-24T09:14:52.884Z</time></trkpt><trkpt lat="42.170775" lon="14.6566817"><ele>71.0</ele><time>2026-04-24T09:14:54.884Z</time></trkpt><trkpt lat="42.1707383" lon="14.6566"><ele>71.14285714285714</ele><time>2026-04-24T09:14:56.884Z</time></trkpt><trkpt lat="42.1706983" lon="14.6565217"><ele>71.28571428571428</ele><time>2026-04-24T09:14:58.884Z</time></trkpt><trkpt lat="42.1706633" lon="14.6564417"><ele>71.42857142857143</ele><time>2026-04-24T09:15:00.884Z</time></trkpt><trkpt lat="42.17063" lon="14.6563617"><ele>71.57142857142857</ele><time>2026-04-24T09:15:02.884Z</time></trkpt><trkpt lat="42.170595" lon="14.65626"><ele>71.71428571428572</ele><time>2026-04-24T09:15:05.883Z</time></trkpt><trkpt lat="42.170575" lon="14.656165"><ele>71.85714285714286</ele><time>2026-04-24T09:15:08.884Z</time></trkpt><trkpt lat="42.17056" lon="14.6560617"><ele>72.0</ele><time>2026-04-24T09:15:11.883Z</time></trkpt><trkpt lat="42.1705667" lon="14.65597"><ele>72.33333333333333</ele><time>2026-04-24T09:15:14.883Z</time></trkpt><trkpt lat="42.1705883" lon="14.655875"><ele>72.66666666666667</ele><time>2026-04-24T09:15:17.883Z</time></trkpt><trkpt lat="42.1706" lon="14.655775"><ele>73.0</ele><time>2026-04-24T09:15:20.883Z</time></trkpt><trkpt lat="42.1705783" lon="14.6556667"><ele>73.33333333333334</ele><time>2026-04-24T09:15:23.883Z</time></trkpt><trkpt lat="42.1705267" lon="14.6556117"><ele>73.66666666666667</ele><time>2026-04-24T09:15:26.883Z</time></trkpt><trkpt lat="42.1704383" lon="14.6555883"><ele>74.0</ele><time>2026-04-24T09:15:29.883Z</time></trkpt><trkpt lat="42.1703533" lon="14.6555733"><ele>74.0</ele><time>2026-04-24T09:15:32.882Z</time></trkpt><trkpt lat="42.1702783" lon="14.65558"><ele>74.0</ele><time>2026-04-24T09:15:34.883Z</time></trkpt><trkpt lat="42.170195" lon="14.6555833"><ele>74.0</ele><time>2026-04-24T09:15:37.883Z</time></trkpt><trkpt lat="42.1701283" lon="14.6555683"><ele>74.0</ele><time>2026-04-24T09:15:39.882Z</time></trkpt><trkpt lat="42.1700567" lon="14.6555367"><ele>74.0</ele><time>2026-04-24T09:15:42.883Z</time></trkpt><trkpt lat="42.169985" lon="14.6555217"><ele>74.0</ele><time>2026-04-24T09:15:44.883Z</time></trkpt><trkpt lat="42.16992" lon="14.6555"><ele>74.0</ele><time>2026-04-24T09:15:46.883Z</time></trkpt><trkpt lat="42.1698433" lon="14.6554883"><ele>74.16666666666667</ele><time>2026-04-24T09:15:48.883Z</time></trkpt><trkpt lat="42.1697733" lon="14.6554783"><ele>74.33333333333334</ele><time>2026-04-24T09:15:50.883Z</time></trkpt><trkpt lat="42.1697067" lon="14.6554617"><ele>74.5</ele><time>2026-04-24T09:15:52.883Z</time></trkpt><trkpt lat="42.1696417" lon="14.6554417"><ele>74.66666666666667</ele><time>2026-04-24T09:15:54.883Z</time></trkpt><trkpt lat="42.1695517" lon="14.6554083"><ele>74.83333333333333</ele><time>2026-04-24T09:15:57.883Z</time></trkpt><trkpt lat="42.16949" lon="14.6553883"><ele>75.0</ele><time>2026-04-24T09:15:59.882Z</time></trkpt><trkpt lat="42.1693983" lon="14.6553617"><ele>74.99999999999999</ele><time>2026-04-24T09:16:02.882Z</time></trkpt><trkpt lat="42.1693367" lon="14.6553433"><ele>75.0</ele><time>2026-04-24T09:16:04.882Z</time></trkpt><trkpt lat="42.1692717" lon="14.6553483"><ele>75.0</ele><time>2026-04-24T09:16:06.883Z</time></trkpt><trkpt lat="42.1692117" lon="14.655395"><ele>75.0</ele><time>2026-04-24T09:16:08.882Z</time></trkpt><trkpt lat="42.1691617" lon="14.6554733"><ele>75.0</ele><time>2026-04-24T09:16:10.882Z</time></trkpt><trkpt lat="42.16912" lon="14.6555517"><ele>74.99999999999999</ele><time>2026-04-24T09:16:12.883Z</time></trkpt><trkpt lat="42.1690817" lon="14.65563"><ele>75.0</ele><time>2026-04-24T09:16:14.882Z</time></trkpt><trkpt lat="42.16905" lon="14.6557067"><ele>75.14285714285714</ele><time>2026-04-24T09:16:16.882Z</time></trkpt><trkpt lat="42.169015" lon="14.6557917"><ele>75.28571428571428</ele><time>2026-04-24T09:16:18.882Z</time></trkpt><trkpt lat="42.168985" lon="14.6558667"><ele>75.42857142857142</ele><time>2026-04-24T09:16:20.883Z</time></trkpt><trkpt lat="42.1689283" lon="14.6559667"><ele>75.57142857142857</ele><time>2026-04-24T09:16:23.883Z</time></trkpt><trkpt lat="42.1688967" lon="14.6560417"><ele>75.71428571428572</ele><time>2026-04-24T09:16:25.883Z</time></trkpt><trkpt lat="42.1688633" lon="14.65612"><ele>75.85714285714285</ele><time>2026-04-24T09:16:27.883Z</time></trkpt><trkpt lat="42.1688283" lon="14.65621"><ele>76.0</ele><time>2026-04-24T09:16:29.883Z</time></trkpt><trkpt lat="42.1687917" lon="14.656295"><ele>76.5</ele><time>2026-04-24T09:16:31.882Z</time></trkpt><trkpt lat="42.1687567" lon="14.65639"><ele>77.0</ele><time>2026-04-24T09:16:33.883Z</time></trkpt><trkpt lat="42.1687133" lon="14.6564883"><ele>77.5</ele><time>2026-04-24T09:16:35.883Z</time></trkpt><trkpt lat="42.16867" lon="14.656585"><ele>78.0</ele><time>2026-04-24T09:16:37.883Z</time></trkpt><trkpt lat="42.1686217" lon="14.6566783"><ele>78.5</ele><time>2026-04-24T09:16:39.883Z</time></trkpt><trkpt lat="42.1685767" lon="14.656785"><ele>79.0</ele><time>2026-04-24T09:16:41.883Z</time></trkpt><trkpt lat="42.1685383" lon="14.6568883"><ele>78.66666666666666</ele><time>2026-04-24T09:16:43.883Z</time></trkpt><trkpt lat="42.1685033" lon="14.6569817"><ele>78.33333333333333</ele><time>2026-04-24T09:16:45.883Z</time></trkpt><trkpt lat="42.168465" lon="14.6570667"><ele>78.0</ele><time>2026-04-24T09:16:47.883Z</time></trkpt><trkpt lat="42.1684267" lon="14.65715"><ele>77.66666666666667</ele><time>2026-04-24T09:16:49.883Z</time></trkpt><trkpt lat="42.1683917" lon="14.6572383"><ele>77.33333333333334</ele><time>2026-04-24T09:16:51.883Z</time></trkpt><trkpt lat="42.1683483" lon="14.6573333"><ele>77.0</ele><time>2026-04-24T09:16:53.883Z</time></trkpt><trkpt lat="42.16831" lon="14.6574317"><ele>77.0</ele><time>2026-04-24T09:16:55.883Z</time></trkpt><trkpt lat="42.16827" lon="14.6575267"><ele>77.0</ele><time>2026-04-24T09:16:57.883Z</time></trkpt><trkpt lat="42.168235" lon="14.65763"><ele>77.0</ele><time>2026-04-24T09:16:59.883Z</time></trkpt><trkpt lat="42.168195" lon="14.65772"><ele>77.0</ele><time>2026-04-24T09:17:01.883Z</time></trkpt><trkpt lat="42.1681517" lon="14.657795"><ele>77.0</ele><time>2026-04-24T09:17:03.882Z</time></trkpt><trkpt lat="42.1681083" lon="14.6578833"><ele>77.0</ele><time>2026-04-24T09:17:05.883Z</time></trkpt><trkpt lat="42.1680667" lon="14.657975"><ele>77.0</ele><time>2026-04-24T09:17:07.883Z</time></trkpt><trkpt lat="42.1680267" lon="14.65807"><ele>77.0</ele><time>2026-04-24T09:17:09.883Z</time></trkpt><trkpt lat="42.1679917" lon="14.658155"><ele>77.0</ele><time>2026-04-24T09:17:11.883Z</time></trkpt><trkpt lat="42.1679517" lon="14.6582417"><ele>77.0</ele><time>2026-04-24T09:17:13.883Z</time></trkpt><trkpt lat="42.1679133" lon="14.6583267"><ele>77.0</ele><time>2026-04-24T09:17:15.883Z</time></trkpt><trkpt lat="42.1678833" lon="14.658405"><ele>77.0</ele><time>2026-04-24T09:17:17.882Z</time></trkpt><trkpt lat="42.1678483" lon="14.6584817"><ele>77.0</ele><time>2026-04-24T09:17:19.882Z</time></trkpt><trkpt lat="42.167815" lon="14.6585717"><ele>76.83333333333334</ele><time>2026-04-24T09:17:21.883Z</time></trkpt><trkpt lat="42.16778" lon="14.6586667"><ele>76.66666666666667</ele><time>2026-04-24T09:17:23.883Z</time></trkpt><trkpt lat="42.1677483" lon="14.6587717"><ele>76.5</ele><time>2026-04-24T09:17:25.882Z</time></trkpt><trkpt lat="42.1676917" lon="14.658825"><ele>76.33333333333333</ele><time>2026-04-24T09:17:27.36Z</time></trkpt><trkpt lat="42.1676783" lon="14.6589983"><ele>76.16666666666666</ele><time>2026-04-24T09:17:28.384Z</time></trkpt><trkpt lat="42.167635" lon="14.65909"><ele>76.0</ele><time>2026-04-24T09:17:30.884Z</time></trkpt><trkpt lat="42.1675917" lon="14.659175"><ele>76.0</ele><time>2026-04-24T09:17:32.883Z</time></trkpt><trkpt lat="42.16755" lon="14.6592483"><ele>76.0</ele><time>2026-04-24T09:17:34.884Z</time></trkpt><trkpt lat="42.1675117" lon="14.65933"><ele>76.0</ele><time>2026-04-24T09:17:36.884Z</time></trkpt><trkpt lat="42.1674733" lon="14.6594033"><ele>76.0</ele><time>2026-04-24T09:17:38.884Z</time></trkpt><trkpt lat="42.1674367" lon="14.659495"><ele>76.0</ele><time>2026-04-24T09:17:40.883Z</time></trkpt><trkpt lat="42.1674033" lon="14.6595867"><ele>76.0</ele><time>2026-04-24T09:17:42.883Z</time></trkpt><trkpt lat="42.1673717" lon="14.6596767"><ele>76.0</ele><time>2026-04-24T09:17:44.884Z</time></trkpt><trkpt lat="42.1673417" lon="14.6597667"><ele>76.16666666666666</ele><time>2026-04-24T09:17:46.884Z</time></trkpt><trkpt lat="42.16731" lon="14.6598567"><ele>76.33333333333333</ele><time>2026-04-24T09:17:48.884Z</time></trkpt><trkpt lat="42.1672833" lon="14.65995"><ele>76.5</ele><time>2026-04-24T09:17:50.884Z</time></trkpt><trkpt lat="42.1672583" lon="14.6600533"><ele>76.66666666666667</ele><time>2026-04-24T09:17:52.884Z</time></trkpt><trkpt lat="42.1672367" lon="14.6601617"><ele>76.83333333333334</ele><time>2026-04-24T09:17:54.883Z</time></trkpt><trkpt lat="42.1672133" lon="14.6602717"><ele>77.0</ele><time>2026-04-24T09:17:56.884Z</time></trkpt><trkpt lat="42.1671917" lon="14.660395"><ele>77.0</ele><time>2026-04-24T09:17:58.884Z</time></trkpt><trkpt lat="42.167165" lon="14.6605267"><ele>77.0</ele><time>2026-04-24T09:18:00.884Z</time></trkpt><trkpt lat="42.1671617" lon="14.6606683"><ele>77.0</ele><time>2026-04-24T09:18:02.884Z</time></trkpt><trkpt lat="42.1671617" lon="14.66081"><ele>77.0</ele><time>2026-04-24T09:18:04.883Z</time></trkpt><trkpt lat="42.1671617" lon="14.6609533"><ele>77.0</ele><time>2026-04-24T09:18:06.884Z</time></trkpt><trkpt lat="42.16717" lon="14.6610967"><ele>76.4</ele><time>2026-04-24T09:18:08.883Z</time></trkpt><trkpt lat="42.1671817" lon="14.6612417"><ele>75.80000000000001</ele><time>2026-04-24T09:18:10.883Z</time></trkpt><trkpt lat="42.1671983" lon="14.66139"><ele>75.2</ele><time>2026-04-24T09:18:12.884Z</time></trkpt><trkpt lat="42.1672167" lon="14.6615233"><ele>74.60000000000001</ele><time>2026-04-24T09:18:14.884Z</time></trkpt><trkpt lat="42.1672483" lon="14.6616317"><ele>74.0</ele><time>2026-04-24T09:18:16.884Z</time></trkpt><trkpt lat="42.167265" lon="14.6617317"><ele>74.0</ele><time>2026-04-24T09:18:18.884Z</time></trkpt><trkpt lat="42.1672633" lon="14.6618233"><ele>74.0</ele><time>2026-04-24T09:18:20.883Z</time></trkpt><trkpt lat="42.1672483" lon="14.661945"><ele>74.0</ele><time>2026-04-24T09:18:23.883Z</time></trkpt><trkpt lat="42.1672317" lon="14.6620383"><ele>74.0</ele><time>2026-04-24T09:18:25.883Z</time></trkpt><trkpt lat="42.1672083" lon="14.6621217"><ele>74.0</ele><time>2026-04-24T09:18:27.883Z</time></trkpt><trkpt lat="42.1671567" lon="14.6622267"><ele>74.0</ele><time>2026-04-24T09:18:30.884Z</time></trkpt><trkpt lat="42.1670967" lon="14.6623133"><ele>73.85714285714286</ele><time>2026-04-24T09:18:33.884Z</time></trkpt><trkpt lat="42.1670367" lon="14.66238"><ele>73.71428571428571</ele><time>2026-04-24T09:18:36.884Z</time></trkpt><trkpt lat="42.16698" lon="14.6624217"><ele>73.57142857142857</ele><time>2026-04-24T09:18:39.883Z</time></trkpt><trkpt lat="42.166985" lon="14.662515"><ele>73.42857142857143</ele><time>2026-04-24T09:18:44.883Z</time></trkpt><trkpt lat="42.1670417" lon="14.6625883"><ele>73.28571428571429</ele><time>2026-04-24T09:18:47.884Z</time></trkpt><trkpt lat="42.1671033" lon="14.6626517"><ele>73.14285714285714</ele><time>2026-04-24T09:18:50.884Z</time></trkpt><trkpt lat="42.1671617" lon="14.66272"><ele>73.0</ele><time>2026-04-24T09:18:53.884Z</time></trkpt><trkpt lat="42.1672133" lon="14.6627767"><ele>73.14285714285714</ele><time>2026-04-24T09:18:55.884Z</time></trkpt><trkpt lat="42.1672633" lon="14.6628317"><ele>73.28571428571429</ele><time>2026-04-24T09:18:57.884Z</time></trkpt><trkpt lat="42.1673133" lon="14.6628867"><ele>73.42857142857143</ele><time>2026-04-24T09:18:59.884Z</time></trkpt><trkpt lat="42.16737" lon="14.6629417"><ele>73.57142857142857</ele><time>2026-04-24T09:19:01.883Z</time></trkpt><trkpt lat="42.16742" lon="14.662995"><ele>73.71428571428571</ele><time>2026-04-24T09:19:03.884Z</time></trkpt><trkpt lat="42.1674733" lon="14.6630467"><ele>73.85714285714286</ele><time>2026-04-24T09:19:05.884Z</time></trkpt><trkpt lat="42.1675233" lon="14.6631017"><ele>74.0</ele><time>2026-04-24T09:19:07.884Z</time></trkpt><trkpt lat="42.1675983" lon="14.6631833"><ele>73.5</ele><time>2026-04-24T09:19:10.883Z</time></trkpt><trkpt lat="42.16765" lon="14.6632333"><ele>73.0</ele><time>2026-04-24T09:19:12.884Z</time></trkpt><trkpt lat="42.1677233" lon="14.663305"><ele>72.5</ele><time>2026-04-24T09:19:15.884Z</time></trkpt><trkpt lat="42.1678017" lon="14.663365"><ele>72.0</ele><time>2026-04-24T09:19:18.884Z</time></trkpt><trkpt lat="42.1678717" lon="14.6634467"><ele>71.5</ele><time>2026-04-24T09:19:21.884Z</time></trkpt><trkpt lat="42.16792" lon="14.6635033"><ele>71.0</ele><time>2026-04-24T09:19:23.884Z</time></trkpt><trkpt lat="42.1679917" lon="14.6635817"><ele>71.0</ele><time>2026-04-24T09:19:26.884Z</time></trkpt><trkpt lat="42.1680667" lon="14.6636583"><ele>71.0</ele><time>2026-04-24T09:19:29.884Z</time></trkpt><trkpt lat="42.1681183" lon="14.6637117"><ele>71.0</ele><time>2026-04-24T09:19:31.883Z</time></trkpt><trkpt lat="42.1681667" lon="14.6637783"><ele>71.0</ele><time>2026-04-24T09:19:33.884Z</time></trkpt><trkpt lat="42.1682183" lon="14.663835"><ele>71.0</ele><time>2026-04-24T09:19:35.884Z</time></trkpt><trkpt lat="42.1682733" lon="14.6638917"><ele>71.0</ele><time>2026-04-24T09:19:37.883Z</time></trkpt><trkpt lat="42.16833" lon="14.66395"><ele>71.0</ele><time>2026-04-24T09:19:39.884Z</time></trkpt><trkpt lat="42.1683833" lon="14.664005"><ele>70.33333333333334</ele><time>2026-04-24T09:19:41.884Z</time></trkpt><trkpt lat="42.168445" lon="14.6640767"><ele>69.66666666666667</ele><time>2026-04-24T09:19:44.884Z</time></trkpt><trkpt lat="42.1685217" lon="14.6641483"><ele>69.0</ele><time>2026-04-24T09:19:47.884Z</time></trkpt><trkpt lat="42.1685767" lon="14.6642033"><ele>68.33333333333333</ele><time>2026-04-24T09:19:49.884Z</time></trkpt><trkpt lat="42.1686483" lon="14.6642767"><ele>67.66666666666666</ele><time>2026-04-24T09:19:52.884Z</time></trkpt><trkpt lat="42.16872" lon="14.6643333"><ele>67.0</ele><time>2026-04-24T09:19:55.883Z</time></trkpt><trkpt lat="42.16878" lon="14.6643817"><ele>67.0</ele><time>2026-04-24T09:19:58.884Z</time></trkpt><trkpt lat="42.1687033" lon="14.6642783"><ele>67.0</ele><time>2026-04-24T09:22:25.884Z</time></trkpt><trkpt lat="42.1686467" lon="14.66423"><ele>67.0</ele><time>2026-04-24T09:22:28.884Z</time></trkpt><trkpt lat="42.1685967" lon="14.664175"><ele>67.0</ele><time>2026-04-24T09:22:31.883Z</time></trkpt><trkpt lat="42.1685367" lon="14.6641083"><ele>67.0</ele><time>2026-04-24T09:22:34.883Z</time></trkpt><trkpt lat="42.16847" lon="14.6640567"><ele>67.0</ele><time>2026-04-24T09:22:37.883Z</time></trkpt><trkpt lat="42.168405" lon="14.6640033"><ele>67.0</ele><time>2026-04-24T09:22:40.884Z</time></trkpt><trkpt lat="42.1683367" lon="14.6639317"><ele>67.0</ele><time>2026-04-24T09:22:43.884Z</time></trkpt><trkpt lat="42.1682667" lon="14.66386"><ele>67.0</ele><time>2026-04-24T09:22:46.884Z</time></trkpt><trkpt lat="42.1682" lon="14.66379"><ele>67.0</ele><time>2026-04-24T09:22:49.884Z</time></trkpt><trkpt lat="42.1681333" lon="14.6637183"><ele>67.0</ele><time>2026-04-24T09:22:52.883Z</time></trkpt><trkpt lat="42.1680767" lon="14.6636433"><ele>67.0</ele><time>2026-04-24T09:22:55.884Z</time></trkpt><trkpt lat="42.16801" lon="14.663575"><ele>67.66666666666666</ele><time>2026-04-24T09:22:58.884Z</time></trkpt><trkpt lat="42.1679417" lon="14.6635033"><ele>68.33333333333333</ele><time>2026-04-24T09:23:01.883Z</time></trkpt><trkpt lat="42.16788" lon="14.663435"><ele>69.0</ele><time>2026-04-24T09:23:04.884Z</time></trkpt><trkpt lat="42.167815" lon="14.6633717"><ele>69.66666666666667</ele><time>2026-04-24T09:23:07.884Z</time></trkpt><trkpt lat="42.1677533" lon="14.6633083"><ele>70.33333333333334</ele><time>2026-04-24T09:23:10.883Z</time></trkpt><trkpt lat="42.16769" lon="14.6632367"><ele>71.0</ele><time>2026-04-24T09:23:13.884Z</time></trkpt><trkpt lat="42.1676283" lon="14.6631733"><ele>71.0</ele><time>2026-04-24T09:23:16.884Z</time></trkpt><trkpt lat="42.1675683" lon="14.6631117"><ele>71.0</ele><time>2026-04-24T09:23:19.883Z</time></trkpt><trkpt lat="42.16751" lon="14.6630533"><ele>71.0</ele><time>2026-04-24T09:23:22.883Z</time></trkpt><trkpt lat="42.1674517" lon="14.6629917"><ele>71.0</ele><time>2026-04-24T09:23:25.884Z</time></trkpt><trkpt lat="42.1673917" lon="14.662935"><ele>71.0</ele><time>2026-04-24T09:23:28.884Z</time></trkpt><trkpt lat="42.167335" lon="14.6628683"><ele>71.0</ele><time>2026-04-24T09:23:31.883Z</time></trkpt><trkpt lat="42.16728" lon="14.6628017"><ele>71.0</ele><time>2026-04-24T09:23:34.884Z</time></trkpt><trkpt lat="42.1672267" lon="14.6627383"><ele>71.33333333333334</ele><time>2026-04-24T09:23:37.884Z</time></trkpt><trkpt lat="42.167165" lon="14.6626733"><ele>71.66666666666667</ele><time>2026-04-24T09:23:40.884Z</time></trkpt><trkpt lat="42.1671083" lon="14.6626117"><ele>72.0</ele><time>2026-04-24T09:23:43.884Z</time></trkpt><trkpt lat="42.1670467" lon="14.66255"><ele>72.33333333333333</ele><time>2026-04-24T09:23:46.884Z</time></trkpt><trkpt lat="42.16699" lon="14.6624767"><ele>72.66666666666666</ele><time>2026-04-24T09:23:50.883Z</time></trkpt><trkpt lat="42.1669167" lon="14.66242"><ele>73.0</ele><time>2026-04-24T09:23:54.884Z</time></trkpt><trkpt lat="42.1668333" lon="14.6624067"><ele>73.0</ele><time>2026-04-24T09:23:57.884Z</time></trkpt><trkpt lat="42.1667683" lon="14.662385"><ele>73.0</ele><time>2026-04-24T09:23:59.884Z</time></trkpt><trkpt lat="42.1667" lon="14.6623417"><ele>73.0</ele><time>2026-04-24T09:24:01.884Z</time></trkpt><trkpt lat="42.1666483" lon="14.6622833"><ele>73.0</ele><time>2026-04-24T09:24:03.884Z</time></trkpt><trkpt lat="42.1665967" lon="14.6622167"><ele>73.0</ele><time>2026-04-24T09:24:05.884Z</time></trkpt><trkpt lat="42.1665383" lon="14.6621567"><ele>73.0</ele><time>2026-04-24T09:24:07.884Z</time></trkpt><trkpt lat="42.1664733" lon="14.6621233"><ele>73.0</ele><time>2026-04-24T09:24:09.884Z</time></trkpt><trkpt lat="42.1664033" lon="14.6621183"><ele>73.42857142857143</ele><time>2026-04-24T09:24:11.883Z</time></trkpt><trkpt lat="42.1663283" lon="14.66212"><ele>73.85714285714286</ele><time>2026-04-24T09:24:13.884Z</time></trkpt><trkpt lat="42.1662517" lon="14.6621267"><ele>74.28571428571428</ele><time>2026-04-24T09:24:15.883Z</time></trkpt><trkpt lat="42.16618" lon="14.6621233"><ele>74.71428571428572</ele><time>2026-04-24T09:24:17.884Z</time></trkpt><trkpt lat="42.1661167" lon="14.66209"><ele>75.14285714285715</ele><time>2026-04-24T09:24:19.883Z</time></trkpt><trkpt lat="42.1660567" lon="14.6620467"><ele>75.57142857142857</ele><time>2026-04-24T09:24:21.883Z</time></trkpt><trkpt lat="42.166" lon="14.6619983"><ele>76.0</ele><time>2026-04-24T09:24:23.883Z</time></trkpt><trkpt lat="42.165945" lon="14.661955"><ele>75.85714285714285</ele><time>2026-04-24T09:24:25.883Z</time></trkpt><trkpt lat="42.1658883" lon="14.66191"><ele>75.71428571428572</ele><time>2026-04-24T09:24:27.884Z</time></trkpt><trkpt lat="42.1658333" lon="14.6618617"><ele>75.57142857142857</ele><time>2026-04-24T09:24:29.883Z</time></trkpt><trkpt lat="42.1657767" lon="14.6618133"><ele>75.42857142857142</ele><time>2026-04-24T09:24:31.884Z</time></trkpt><trkpt lat="42.16572" lon="14.6617683"><ele>75.28571428571428</ele><time>2026-04-24T09:24:33.883Z</time></trkpt><trkpt lat="42.1656617" lon="14.6617217"><ele>75.14285714285714</ele><time>2026-04-24T09:24:35.884Z</time></trkpt><trkpt lat="42.1656067" lon="14.6616767"><ele>75.0</ele><time>2026-04-24T09:24:37.883Z</time></trkpt><trkpt lat="42.1655517" lon="14.6616317"><ele>75.42857142857142</ele><time>2026-04-24T09:24:39.884Z</time></trkpt><trkpt lat="42.1654933" lon="14.66158"><ele>75.85714285714286</ele><time>2026-04-24T09:24:41.884Z</time></trkpt><trkpt lat="42.165425" lon="14.6615233"><ele>76.28571428571428</ele><time>2026-04-24T09:24:43.884Z</time></trkpt><trkpt lat="42.1653683" lon="14.6614633"><ele>76.71428571428571</ele><time>2026-04-24T09:24:45.883Z</time></trkpt><trkpt lat="42.1653133" lon="14.661405"><ele>77.14285714285714</ele><time>2026-04-24T09:24:47.883Z</time></trkpt><trkpt lat="42.1652567" lon="14.6613483"><ele>77.57142857142857</ele><time>2026-04-24T09:24:49.883Z</time></trkpt><trkpt lat="42.1652017" lon="14.66129"><ele>78.0</ele><time>2026-04-24T09:24:51.884Z</time></trkpt><trkpt lat="42.16515" lon="14.661225"><ele>78.0</ele><time>2026-04-24T09:24:53.883Z</time></trkpt><trkpt lat="42.1651033" lon="14.6611617"><ele>78.0</ele><time>2026-04-24T09:24:55.884Z</time></trkpt><trkpt lat="42.16506" lon="14.6610917"><ele>78.0</ele><time>2026-04-24T09:24:57.884Z</time></trkpt><trkpt lat="42.1650117" lon="14.6610183"><ele>78.0</ele><time>2026-04-24T09:24:59.883Z</time></trkpt><trkpt lat="42.1649633" lon="14.6609467"><ele>78.0</ele><time>2026-04-24T09:25:01.884Z</time></trkpt><trkpt lat="42.1649217" lon="14.66087"><ele>78.0</ele><time>2026-04-24T09:25:03.883Z</time></trkpt><trkpt lat="42.164885" lon="14.6607967"><ele>78.0</ele><time>2026-04-24T09:25:05.884Z</time></trkpt><trkpt lat="42.164845" lon="14.6607233"><ele>79.0</ele><time>2026-04-24T09:25:07.884Z</time></trkpt><trkpt lat="42.164815" lon="14.6606417"><ele>80.0</ele><time>2026-04-24T09:25:09.884Z</time></trkpt><trkpt lat="42.1647833" lon="14.66056"><ele>81.0</ele><time>2026-04-24T09:25:11.883Z</time></trkpt><trkpt lat="42.1647483" lon="14.6604783"><ele>82.0</ele><time>2026-04-24T09:25:13.884Z</time></trkpt><trkpt lat="42.1647117" lon="14.6604"><ele>83.0</ele><time>2026-04-24T09:25:15.884Z</time></trkpt><trkpt lat="42.1646717" lon="14.6603233"><ele>84.0</ele><time>2026-04-24T09:25:17.884Z</time></trkpt><trkpt lat="42.1646367" lon="14.660245"><ele>85.0</ele><time>2026-04-24T09:25:19.883Z</time></trkpt><trkpt lat="42.1646033" lon="14.6601683"><ele>85.0</ele><time>2026-04-24T09:25:21.884Z</time></trkpt><trkpt lat="42.1645667" lon="14.660095"><ele>85.0</ele><time>2026-04-24T09:25:23.884Z</time></trkpt><trkpt lat="42.164535" lon="14.660015"><ele>85.0</ele><time>2026-04-24T09:25:25.883Z</time></trkpt><trkpt lat="42.1645" lon="14.6599367"><ele>85.0</ele><time>2026-04-24T09:25:27.884Z</time></trkpt><trkpt lat="42.164465" lon="14.6598617"><ele>85.0</ele><time>2026-04-24T09:25:29.883Z</time></trkpt><trkpt lat="42.16443" lon="14.6597867"><ele>85.0</ele><time>2026-04-24T09:25:31.883Z</time></trkpt><trkpt lat="42.1643933" lon="14.6597133"><ele>85.0</ele><time>2026-04-24T09:25:33.883Z</time></trkpt><trkpt lat="42.1643533" lon="14.6596367"><ele>85.0</ele><time>2026-04-24T09:25:35.884Z</time></trkpt><trkpt lat="42.16432" lon="14.6595533"><ele>85.0</ele><time>2026-04-24T09:25:37.883Z</time></trkpt><trkpt lat="42.164285" lon="14.6594767"><ele>85.0</ele><time>2026-04-24T09:25:39.883Z</time></trkpt><trkpt lat="42.1642483" lon="14.659405"><ele>85.0</ele><time>2026-04-24T09:25:41.883Z</time></trkpt><trkpt lat="42.1642117" lon="14.6593183"><ele>85.0</ele><time>2026-04-24T09:25:44.884Z</time></trkpt><trkpt lat="42.1641733" lon="14.6592383"><ele>85.0</ele><time>2026-04-24T09:25:49.884Z</time></trkpt><trkpt lat="42.1641333" lon="14.6591667"><ele>85.0</ele><time>2026-04-24T09:25:53.884Z</time></trkpt><trkpt lat="42.1641067" lon="14.659085"><ele>85.66666666666666</ele><time>2026-04-24T09:25:56.884Z</time></trkpt><trkpt lat="42.16407" lon="14.658995"><ele>86.33333333333333</ele><time>2026-04-24T09:25:59.884Z</time></trkpt><trkpt lat="42.1640233" lon="14.6589"><ele>87.0</ele><time>2026-04-24T09:26:02.884Z</time></trkpt><trkpt lat="42.163975" lon="14.6587933"><ele>87.66666666666667</ele><time>2026-04-24T09:26:05.884Z</time></trkpt><trkpt lat="42.1639217" lon="14.65869"><ele>88.33333333333334</ele><time>2026-04-24T09:26:08.883Z</time></trkpt><trkpt lat="42.1638817" lon="14.6586233"><ele>89.0</ele><time>2026-04-24T09:26:10.884Z</time></trkpt><trkpt lat="42.16384" lon="14.658555"><ele>89.42857142857142</ele><time>2026-04-24T09:26:12.883Z</time></trkpt><trkpt lat="42.163795" lon="14.6584867"><ele>89.85714285714286</ele><time>2026-04-24T09:26:14.883Z</time></trkpt><trkpt lat="42.1637433" lon="14.6584217"><ele>90.28571428571428</ele><time>2026-04-24T09:26:16.883Z</time></trkpt><trkpt lat="42.163695" lon="14.6583567"><ele>90.71428571428571</ele><time>2026-04-24T09:26:18.883Z</time></trkpt><trkpt lat="42.1636433" lon="14.6582983"><ele>91.14285714285714</ele><time>2026-04-24T09:26:20.883Z</time></trkpt><trkpt lat="42.1635833" lon="14.658245"><ele>91.57142857142857</ele><time>2026-04-24T09:26:22.884Z</time></trkpt><trkpt lat="42.16352" lon="14.6581967"><ele>92.0</ele><time>2026-04-24T09:26:24.884Z</time></trkpt><trkpt lat="42.163455" lon="14.65815"><ele>92.0</ele><time>2026-04-24T09:26:26.884Z</time></trkpt><trkpt lat="42.163385" lon="14.65811"><ele>92.0</ele><time>2026-04-24T09:26:28.884Z</time></trkpt><trkpt lat="42.1633167" lon="14.6580683"><ele>92.0</ele><time>2026-04-24T09:26:30.884Z</time></trkpt><trkpt lat="42.163255" lon="14.6580267"><ele>92.0</ele><time>2026-04-24T09:26:32.884Z</time></trkpt><trkpt lat="42.1631983" lon="14.6579883"><ele>92.0</ele><time>2026-04-24T09:26:34.883Z</time></trkpt><trkpt lat="42.1631383" lon="14.6579617"><ele>92.0</ele><time>2026-04-24T09:26:36.884Z</time></trkpt><trkpt lat="42.163055" lon="14.6579217"><ele>92.0</ele><time>2026-04-24T09:26:39.884Z</time></trkpt><trkpt lat="42.16297" lon="14.6578883"><ele>92.14285714285715</ele><time>2026-04-24T09:26:42.883Z</time></trkpt><trkpt lat="42.1629083" lon="14.65787"><ele>92.28571428571428</ele><time>2026-04-24T09:26:44.884Z</time></trkpt><trkpt lat="42.162835" lon="14.6578617"><ele>92.42857142857143</ele><time>2026-04-24T09:26:46.884Z</time></trkpt><trkpt lat="42.16277" lon="14.6578517"><ele>92.57142857142858</ele><time>2026-04-24T09:26:48.884Z</time></trkpt><trkpt lat="42.1627067" lon="14.6578467"><ele>92.71428571428572</ele><time>2026-04-24T09:26:50.883Z</time></trkpt><trkpt lat="42.1626367" lon="14.6578433"><ele>92.85714285714286</ele><time>2026-04-24T09:26:52.883Z</time></trkpt><trkpt lat="42.162565" lon="14.6578467"><ele>93.0</ele><time>2026-04-24T09:26:54.884Z</time></trkpt><trkpt lat="42.1624983" lon="14.65786"><ele>93.0</ele><time>2026-04-24T09:26:56.883Z</time></trkpt><trkpt lat="42.1624217" lon="14.65788"><ele>93.0</ele><time>2026-04-24T09:26:58.884Z</time></trkpt><trkpt lat="42.16235" lon="14.6578817"><ele>93.0</ele><time>2026-04-24T09:27:01.884Z</time></trkpt><trkpt lat="42.1623467" lon="14.6577767"><ele>93.0</ele><time>2026-04-24T09:27:06.884Z</time></trkpt><trkpt lat="42.16238" lon="14.6576867"><ele>93.0</ele><time>2026-04-24T09:27:09.883Z</time></trkpt><trkpt lat="42.1624333" lon="14.65762"><ele>93.0</ele><time>2026-04-24T09:27:11.884Z</time></trkpt><trkpt lat="42.1625017" lon="14.657545"><ele>91.75</ele><time>2026-04-24T09:27:13.883Z</time></trkpt><trkpt lat="42.16259" lon="14.6574533"><ele>90.5</ele><time>2026-04-24T09:27:15.884Z</time></trkpt><trkpt lat="42.1626867" lon="14.65735"><ele>89.25</ele><time>2026-04-24T09:27:17.884Z</time></trkpt><trkpt lat="42.162785" lon="14.6572767"><ele>88.0</ele><time>2026-04-24T09:27:19.883Z</time></trkpt><trkpt lat="42.1628867" lon="14.6572283"><ele>88.0</ele><time>2026-04-24T09:27:21.884Z</time></trkpt><trkpt lat="42.1629883" lon="14.6571883"><ele>88.0</ele><time>2026-04-24T09:27:23.883Z</time></trkpt><trkpt lat="42.1630917" lon="14.65714"><ele>88.0</ele><time>2026-04-24T09:27:25.884Z</time></trkpt><trkpt lat="42.1632" lon="14.6570767"><ele>88.0</ele><time>2026-04-24T09:27:27.884Z</time></trkpt><trkpt lat="42.1633083" lon="14.657005"><ele>88.33333333333333</ele><time>2026-04-24T09:27:29.884Z</time></trkpt><trkpt lat="42.1633667" lon="14.6569633"><ele>88.66666666666666</ele><time>2026-04-24T09:27:30.883Z</time></trkpt><trkpt lat="42.163475" lon="14.656895"><ele>89.0</ele><time>2026-04-24T09:27:32.884Z</time></trkpt><trkpt lat="42.1635867" lon="14.6568217"><ele>89.33333333333333</ele><time>2026-04-24T09:27:34.884Z</time></trkpt><trkpt lat="42.163645" lon="14.6567783"><ele>89.66666666666667</ele><time>2026-04-24T09:27:35.883Z</time></trkpt><trkpt lat="42.1637033" lon="14.6567283"><ele>90.0</ele><time>2026-04-24T09:27:36.884Z</time></trkpt><trkpt lat="42.1637617" lon="14.65668"><ele>89.14285714285714</ele><time>2026-04-24T09:27:37.884Z</time></trkpt><trkpt lat="42.163825" lon="14.6566333"><ele>88.28571428571429</ele><time>2026-04-24T09:27:38.884Z</time></trkpt><trkpt lat="42.1638833" lon="14.6565967"><ele>87.42857142857143</ele><time>2026-04-24T09:27:39.883Z</time></trkpt><trkpt lat="42.163945" lon="14.65655"><ele>86.57142857142857</ele><time>2026-04-24T09:27:40.883Z</time></trkpt><trkpt lat="42.1640117" lon="14.6564983"><ele>85.71428571428572</ele><time>2026-04-24T09:27:41.884Z</time></trkpt><trkpt lat="42.1640767" lon="14.6564517"><ele>84.85714285714286</ele><time>2026-04-24T09:27:42.884Z</time></trkpt><trkpt lat="42.16414" lon="14.6564067"><ele>84.0</ele><time>2026-04-24T09:27:43.884Z</time></trkpt><trkpt lat="42.1642033" lon="14.6563533"><ele>84.0</ele><time>2026-04-24T09:27:44.883Z</time></trkpt><trkpt lat="42.1642683" lon="14.656305"><ele>84.0</ele><time>2026-04-24T09:27:45.884Z</time></trkpt><trkpt lat="42.1643267" lon="14.65626"><ele>84.0</ele><time>2026-04-24T09:27:46.883Z</time></trkpt><trkpt lat="42.1643883" lon="14.656215"><ele>84.0</ele><time>2026-04-24T09:27:47.883Z</time></trkpt><trkpt lat="42.1644467" lon="14.6561733"><ele>84.0</ele><time>2026-04-24T09:27:48.883Z</time></trkpt><trkpt lat="42.1645067" lon="14.6561333"><ele>84.0</ele><time>2026-04-24T09:27:49.883Z</time></trkpt><trkpt lat="42.1645633" lon="14.6560917"><ele>84.0</ele><time>2026-04-24T09:27:50.884Z</time></trkpt><trkpt lat="42.1646217" lon="14.65604"><ele>83.57142857142857</ele><time>2026-04-24T09:27:51.883Z</time></trkpt><trkpt lat="42.1646783" lon="14.6559933"><ele>83.14285714285714</ele><time>2026-04-24T09:27:52.884Z</time></trkpt><trkpt lat="42.164745" lon="14.6559517"><ele>82.71428571428572</ele><time>2026-04-24T09:27:53.884Z</time></trkpt><trkpt lat="42.1648083" lon="14.6559133"><ele>82.28571428571428</ele><time>2026-04-24T09:27:54.884Z</time></trkpt><trkpt lat="42.1648667" lon="14.65588"><ele>81.85714285714286</ele><time>2026-04-24T09:27:55.884Z</time></trkpt><trkpt lat="42.1649267" lon="14.65585"><ele>81.42857142857143</ele><time>2026-04-24T09:27:56.884Z</time></trkpt><trkpt lat="42.1649883" lon="14.6558133"><ele>81.0</ele><time>2026-04-24T09:27:57.884Z</time></trkpt><trkpt lat="42.1650517" lon="14.6557933"><ele>80.83333333333333</ele><time>2026-04-24T09:27:58.884Z</time></trkpt><trkpt lat="42.165115" lon="14.6557767"><ele>80.66666666666667</ele><time>2026-04-24T09:27:59.884Z</time></trkpt><trkpt lat="42.1652433" lon="14.65576"><ele>80.5</ele><time>2026-04-24T09:28:01.883Z</time></trkpt><trkpt lat="42.1653083" lon="14.65576"><ele>80.33333333333334</ele><time>2026-04-24T09:28:02.883Z</time></trkpt><trkpt lat="42.1653767" lon="14.6557617"><ele>80.16666666666667</ele><time>2026-04-24T09:28:03.883Z</time></trkpt><trkpt lat="42.1654467" lon="14.6557667"><ele>80.0</ele><time>2026-04-24T09:28:04.884Z</time></trkpt><trkpt lat="42.165515" lon="14.6557783"><ele>80.0</ele><time>2026-04-24T09:28:05.884Z</time></trkpt><trkpt lat="42.16559" lon="14.65579"><ele>80.0</ele><time>2026-04-24T09:28:06.884Z</time></trkpt><trkpt lat="42.1656633" lon="14.6558033"><ele>80.0</ele><time>2026-04-24T09:28:07.884Z</time></trkpt><trkpt lat="42.1657383" lon="14.6558017"><ele>80.0</ele><time>2026-04-24T09:28:08.884Z</time></trkpt><trkpt lat="42.1658117" lon="14.655795"><ele>80.0</ele><time>2026-04-24T09:28:09.884Z</time></trkpt><trkpt lat="42.165885" lon="14.6557883"><ele>80.0</ele><time>2026-04-24T09:28:10.883Z</time></trkpt><trkpt lat="42.1659567" lon="14.655785"><ele>80.0</ele><time>2026-04-24T09:28:11.883Z</time></trkpt><trkpt lat="42.1660233" lon="14.65577"><ele>79.16666666666667</ele><time>2026-04-24T09:28:12.884Z</time></trkpt><trkpt lat="42.1660867" lon="14.6557433"><ele>78.33333333333334</ele><time>2026-04-24T09:28:13.884Z</time></trkpt><trkpt lat="42.16615" lon="14.655715"><ele>77.5</ele><time>2026-04-24T09:28:14.884Z</time></trkpt><trkpt lat="42.1662183" lon="14.655695"><ele>76.66666666666667</ele><time>2026-04-24T09:28:15.884Z</time></trkpt><trkpt lat="42.166285" lon="14.6556867"><ele>75.83333333333333</ele><time>2026-04-24T09:28:16.884Z</time></trkpt><trkpt lat="42.1663517" lon="14.6556817"><ele>75.0</ele><time>2026-04-24T09:28:17.884Z</time></trkpt><trkpt lat="42.1664733" lon="14.6556483"><ele>74.4</ele><time>2026-04-24T09:28:19.883Z</time></trkpt><trkpt lat="42.16658" lon="14.655615"><ele>73.8</ele><time>2026-04-24T09:28:21.884Z</time></trkpt><trkpt lat="42.1666833" lon="14.6555267"><ele>73.2</ele><time>2026-04-24T09:28:23.884Z</time></trkpt><trkpt lat="42.1667267" lon="14.6554633"><ele>72.6</ele><time>2026-04-24T09:28:24.884Z</time></trkpt><trkpt lat="42.1668033" lon="14.65535"><ele>72.0</ele><time>2026-04-24T09:28:26.884Z</time></trkpt><trkpt lat="42.1668933" lon="14.6553183"><ele>72.0</ele><time>2026-04-24T09:28:28.884Z</time></trkpt><trkpt lat="42.1670017" lon="14.6553567"><ele>72.0</ele><time>2026-04-24T09:28:30.883Z</time></trkpt><trkpt lat="42.1671017" lon="14.6553933"><ele>72.0</ele><time>2026-04-24T09:28:32.884Z</time></trkpt><trkpt lat="42.1672133" lon="14.655405"><ele>72.0</ele><time>2026-04-24T09:28:34.884Z</time></trkpt><trkpt lat="42.1673083" lon="14.6553867"><ele>72.0</ele><time>2026-04-24T09:28:36.884Z</time></trkpt><trkpt lat="42.1674117" lon="14.6553367"><ele>68.75</ele><time>2026-04-24T09:28:38.883Z</time></trkpt><trkpt lat="42.16752" lon="14.6552767"><ele>65.5</ele><time>2026-04-24T09:28:40.884Z</time></trkpt><trkpt lat="42.1676333" lon="14.655225"><ele>62.25</ele><time>2026-04-24T09:28:42.883Z</time></trkpt><trkpt lat="42.1677417" lon="14.65516"><ele>59.0</ele><time>2026-04-24T09:28:44.884Z</time></trkpt><trkpt lat="42.167835" lon="14.655095"><ele>59.0</ele><time>2026-04-24T09:28:46.884Z</time></trkpt><trkpt lat="42.16793" lon="14.6550167"><ele>59.00000000000001</ele><time>2026-04-24T09:28:48.883Z</time></trkpt><trkpt lat="42.1680267" lon="14.6549317"><ele>59.00000000000001</ele><time>2026-04-24T09:28:50.884Z</time></trkpt><trkpt lat="42.1681283" lon="14.6548567"><ele>59.0</ele><time>2026-04-24T09:28:52.884Z</time></trkpt><trkpt lat="42.1682233" lon="14.6547933"><ele>59.0</ele><time>2026-04-24T09:28:54.884Z</time></trkpt><trkpt lat="42.1683467" lon="14.654775"><ele>59.400000000000006</ele><time>2026-04-24T09:28:56.884Z</time></trkpt><trkpt lat="42.16845" lon="14.6547533"><ele>59.800000000000004</ele><time>2026-04-24T09:28:58.884Z</time></trkpt><trkpt lat="42.168545" lon="14.654705"><ele>60.199999999999996</ele><time>2026-04-24T09:29:00.883Z</time></trkpt><trkpt lat="42.1686433" lon="14.6546533"><ele>60.599999999999994</ele><time>2026-04-24T09:29:02.883Z</time></trkpt><trkpt lat="42.1687533" lon="14.654595"><ele>61.0</ele><time>2026-04-24T09:29:04.883Z</time></trkpt><trkpt lat="42.1688467" lon="14.654535"><ele>60.99999999999999</ele><time>2026-04-24T09:29:06.884Z</time></trkpt><trkpt lat="42.1689117" lon="14.6544967"><ele>61.0</ele><time>2026-04-24T09:29:08.884Z</time></trkpt><trkpt lat="42.1689733" lon="14.6544767"><ele>61.0</ele><time>2026-04-24T09:29:10.884Z</time></trkpt><trkpt lat="42.1690367" lon="14.65447"><ele>61.0</ele><time>2026-04-24T09:29:12.884Z</time></trkpt><trkpt lat="42.1691067" lon="14.654465"><ele>60.99999999999999</ele><time>2026-04-24T09:29:14.884Z</time></trkpt><trkpt lat="42.16919" lon="14.6544167"><ele>61.0</ele><time>2026-04-24T09:29:16.883Z</time></trkpt><trkpt lat="42.169275" lon="14.6543583"><ele>58.0</ele><time>2026-04-24T09:29:18.883Z</time></trkpt><trkpt lat="42.169365" lon="14.6543167"><ele>54.99999999999999</ele><time>2026-04-24T09:29:20.884Z</time></trkpt><trkpt lat="42.169455" lon="14.654275"><ele>52.0</ele><time>2026-04-24T09:29:22.884Z</time></trkpt><trkpt lat="42.1695567" lon="14.654245"><ele>49.0</ele><time>2026-04-24T09:29:24.884Z</time></trkpt><trkpt lat="42.1696683" lon="14.6542083"><ele>46.0</ele><time>2026-04-24T09:29:26.884Z</time></trkpt><trkpt lat="42.1697833" lon="14.6541833"><ele>47.199999999999996</ele><time>2026-04-24T09:29:28.883Z</time></trkpt><trkpt lat="42.1699033" lon="14.6541583"><ele>48.4</ele><time>2026-04-24T09:29:30.884Z</time></trkpt><trkpt lat="42.1700133" lon="14.654135"><ele>49.6</ele><time>2026-04-24T09:29:32.884Z</time></trkpt><trkpt lat="42.1701083" lon="14.6541267"><ele>50.8</ele><time>2026-04-24T09:29:34.883Z</time></trkpt><trkpt lat="42.1702083" lon="14.6541267"><ele>52.0</ele><time>2026-04-24T09:29:36.884Z</time></trkpt><trkpt lat="42.1703" lon="14.6541283"><ele>51.99999999999999</ele><time>2026-04-24T09:29:38.883Z</time></trkpt><trkpt lat="42.1703983" lon="14.6541267"><ele>52.0</ele><time>2026-04-24T09:29:40.884Z</time></trkpt><trkpt lat="42.1704733" lon="14.6540967"><ele>52.0</ele><time>2026-04-24T09:29:42.884Z</time></trkpt><trkpt lat="42.1705217" lon="14.6540133"><ele>52.0</ele><time>2026-04-24T09:29:44.884Z</time></trkpt><trkpt lat="42.170535" lon="14.6538917"><ele>51.99999999999999</ele><time>2026-04-24T09:29:46.884Z</time></trkpt><trkpt lat="42.17052" lon="14.6537633"><ele>52.0</ele><time>2026-04-24T09:29:48.883Z</time></trkpt><trkpt lat="42.17045" lon="14.6537"><ele>52.0</ele><time>2026-04-24T09:29:50.884Z</time></trkpt><trkpt lat="42.1703367" lon="14.65372"><ele>52.0</ele><time>2026-04-24T09:29:52.883Z</time></trkpt><trkpt lat="42.1702167" lon="14.653755"><ele>52.0</ele><time>2026-04-24T09:29:54.884Z</time></trkpt><trkpt lat="42.1700967" lon="14.6537983"><ele>52.0</ele><time>2026-04-24T09:29:56.884Z</time></trkpt><trkpt lat="42.1699683" lon="14.6538283"><ele>52.0</ele><time>2026-04-24T09:29:58.884Z</time></trkpt><trkpt lat="42.1699033" lon="14.6538417"><ele>52.0</ele><time>2026-04-24T09:29:59.884Z</time></trkpt><trkpt lat="42.1698367" lon="14.6538517"><ele>52.0</ele><time>2026-04-24T09:30:00.884Z</time></trkpt><trkpt lat="42.16977" lon="14.65386"><ele>52.0</ele><time>2026-04-24T09:30:01.884Z</time></trkpt><trkpt lat="42.1697" lon="14.6538683"><ele>52.0</ele><time>2026-04-24T09:30:02.884Z</time></trkpt><trkpt lat="42.1696267" lon="14.6538733"><ele>52.0</ele><time>2026-04-24T09:30:03.883Z</time></trkpt><trkpt lat="42.1695567" lon="14.65387"><ele>52.0</ele><time>2026-04-24T09:30:04.883Z</time></trkpt><trkpt lat="42.16949" lon="14.6538583"><ele>50.99999999999999</ele><time>2026-04-24T09:30:05.883Z</time></trkpt><trkpt lat="42.1694283" lon="14.65383"><ele>50.0</ele><time>2026-04-24T09:30:06.883Z</time></trkpt><trkpt lat="42.1693267" lon="14.65376"><ele>49.0</ele><time>2026-04-24T09:30:08.884Z</time></trkpt><trkpt lat="42.1692683" lon="14.653725"><ele>48.0</ele><time>2026-04-24T09:30:09.883Z</time></trkpt><trkpt lat="42.1692167" lon="14.653635"><ele>47.0</ele><time>2026-04-24T09:30:11.884Z</time></trkpt><trkpt lat="42.1691933" lon="14.6535317"><ele>46.0</ele><time>2026-04-24T09:30:13.884Z</time></trkpt><trkpt lat="42.16918" lon="14.6534117"><ele>44.833333333333336</ele><time>2026-04-24T09:30:15.883Z</time></trkpt><trkpt lat="42.1691783" lon="14.653285"><ele>43.66666666666667</ele><time>2026-04-24T09:30:17.884Z</time></trkpt><trkpt lat="42.16919" lon="14.65317"><ele>42.5</ele><time>2026-04-24T09:30:19.883Z</time></trkpt><trkpt lat="42.1692033" lon="14.65307"><ele>41.333333333333336</ele><time>2026-04-24T09:30:21.883Z</time></trkpt><trkpt lat="42.1692833" lon="14.6530817"><ele>40.166666666666664</ele><time>2026-04-24T09:30:28.884Z</time></trkpt><trkpt lat="42.16935" lon="14.65315"><ele>39.0</ele><time>2026-04-24T09:30:31.883Z</time></trkpt><trkpt lat="42.16941" lon="14.6532333"><ele>39.0</ele><time>2026-04-24T09:30:33.884Z</time></trkpt><trkpt lat="42.1694917" lon="14.6533033"><ele>39.0</ele><time>2026-04-24T09:30:35.884Z</time></trkpt><trkpt lat="42.1695717" lon="14.6533117"><ele>39.0</ele><time>2026-04-24T09:30:37.883Z</time></trkpt><trkpt lat="42.169655" lon="14.653275"><ele>39.0</ele><time>2026-04-24T09:30:39.884Z</time></trkpt><trkpt lat="42.1697567" lon="14.6532067"><ele>39.0</ele><time>2026-04-24T09:30:41.884Z</time></trkpt><trkpt lat="42.169855" lon="14.6531133"><ele>37.833333333333336</ele><time>2026-04-24T09:30:43.884Z</time></trkpt><trkpt lat="42.1699483" lon="14.6530133"><ele>36.666666666666664</ele><time>2026-04-24T09:30:45.884Z</time></trkpt><trkpt lat="42.169995" lon="14.6529533"><ele>35.5</ele><time>2026-04-24T09:30:46.884Z</time></trkpt><trkpt lat="42.170045" lon="14.6528917"><ele>34.33333333333333</ele><time>2026-04-24T09:30:47.884Z</time></trkpt><trkpt lat="42.1700967" lon="14.6528267"><ele>33.166666666666664</ele><time>2026-04-24T09:30:48.883Z</time></trkpt><trkpt lat="42.1701483" lon="14.652765"><ele>32.0</ele><time>2026-04-24T09:30:49.884Z</time></trkpt><trkpt lat="42.1702017" lon="14.6527017"><ele>30.666666666666664</ele><time>2026-04-24T09:30:50.884Z</time></trkpt><trkpt lat="42.1702533" lon="14.6526383"><ele>29.333333333333332</ele><time>2026-04-24T09:30:51.883Z</time></trkpt><trkpt lat="42.1703067" lon="14.6525733"><ele>28.0</ele><time>2026-04-24T09:30:52.884Z</time></trkpt><trkpt lat="42.17036" lon="14.6525083"><ele>26.666666666666664</ele><time>2026-04-24T09:30:53.884Z</time></trkpt><trkpt lat="42.1704167" lon="14.6524417"><ele>25.333333333333332</ele><time>2026-04-24T09:30:54.884Z</time></trkpt><trkpt lat="42.1704817" lon="14.6523717"><ele>24.0</ele><time>2026-04-24T09:30:55.884Z</time></trkpt><trkpt lat="42.1705433" lon="14.6523"><ele>24.0</ele><time>2026-04-24T09:30:56.884Z</time></trkpt><trkpt lat="42.1706033" lon="14.6522283"><ele>24.0</ele><time>2026-04-24T09:30:57.883Z</time></trkpt><trkpt lat="42.17066" lon="14.6521583"><ele>24.0</ele><time>2026-04-24T09:30:58.884Z</time></trkpt><trkpt lat="42.1707183" lon="14.6520833"><ele>24.0</ele><time>2026-04-24T09:30:59.883Z</time></trkpt><trkpt lat="42.1707767" lon="14.6520067"><ele>24.0</ele><time>2026-04-24T09:31:00.884Z</time></trkpt><trkpt lat="42.1708283" lon="14.6519317"><ele>24.0</ele><time>2026-04-24T09:31:01.883Z</time></trkpt><trkpt lat="42.1708867" lon="14.6518583"><ele>23.0</ele><time>2026-04-24T09:31:02.883Z</time></trkpt><trkpt lat="42.170945" lon="14.6517933"><ele>22.0</ele><time>2026-04-24T09:31:03.884Z</time></trkpt><trkpt lat="42.1710033" lon="14.6517267"><ele>21.0</ele><time>2026-04-24T09:31:04.883Z</time></trkpt><trkpt lat="42.1710617" lon="14.6516617"><ele>20.0</ele><time>2026-04-24T09:31:05.883Z</time></trkpt><trkpt lat="42.1711217" lon="14.65159"><ele>19.0</ele><time>2026-04-24T09:31:06.883Z</time></trkpt><trkpt lat="42.1711767" lon="14.6515133"><ele>18.0</ele><time>2026-04-24T09:31:07.884Z</time></trkpt><trkpt lat="42.1712383" lon="14.651435"><ele>18.0</ele><time>2026-04-24T09:31:08.884Z</time></trkpt><trkpt lat="42.1712983" lon="14.65135"><ele>18.0</ele><time>2026-04-24T09:31:09.884Z</time></trkpt><trkpt lat="42.17135" lon="14.651265"><ele>18.0</ele><time>2026-04-24T09:31:10.884Z</time></trkpt><trkpt lat="42.1713867" lon="14.6511683"><ele>18.0</ele><time>2026-04-24T09:31:11.884Z</time></trkpt><trkpt lat="42.17141" lon="14.651075"><ele>18.0</ele><time>2026-04-24T09:31:12.884Z</time></trkpt><trkpt lat="42.17142" lon="14.6509717"><ele>18.0</ele><time>2026-04-24T09:31:13.883Z</time></trkpt><trkpt lat="42.171415" lon="14.650875"><ele>17.571428571428573</ele><time>2026-04-24T09:31:14.884Z</time></trkpt><trkpt lat="42.1714117" lon="14.6507817"><ele>17.142857142857142</ele><time>2026-04-24T09:31:15.884Z</time></trkpt><trkpt lat="42.1714033" lon="14.6506867"><ele>16.714285714285715</ele><time>2026-04-24T09:31:16.883Z</time></trkpt><trkpt lat="42.1713967" lon="14.6505983"><ele>16.285714285714285</ele><time>2026-04-24T09:31:17.884Z</time></trkpt><trkpt lat="42.1713917" lon="14.6505133"><ele>15.857142857142858</ele><time>2026-04-24T09:31:18.883Z</time></trkpt><trkpt lat="42.1713833" lon="14.6504233"><ele>15.428571428571429</ele><time>2026-04-24T09:31:19.884Z</time></trkpt><trkpt lat="42.1713767" lon="14.6503317"><ele>15.0</ele><time>2026-04-24T09:31:20.884Z</time></trkpt><trkpt lat="42.1713683" lon="14.6502433"><ele>15.0</ele><time>2026-04-24T09:31:21.884Z</time></trkpt><trkpt lat="42.1713583" lon="14.6501567"><ele>15.0</ele><time>2026-04-24T09:31:22.884Z</time></trkpt><trkpt lat="42.1713483" lon="14.6499883"><ele>15.0</ele><time>2026-04-24T09:31:24.884Z</time></trkpt><trkpt lat="42.1713433" lon="14.6498217"><ele>15.0</ele><time>2026-04-24T09:31:26.884Z</time></trkpt><trkpt lat="42.1713333" lon="14.64967"><ele>15.0</ele><time>2026-04-24T09:31:28.883Z</time></trkpt><trkpt lat="42.171315" lon="14.649545"><ele>15.0</ele><time>2026-04-24T09:31:30.884Z</time></trkpt><trkpt lat="42.1713083" lon="14.6494283"><ele>15.0</ele><time>2026-04-24T09:31:32.884Z</time></trkpt><trkpt lat="42.1713233" lon="14.649315"><ele>15.0</ele><time>2026-04-24T09:31:34.883Z</time></trkpt><trkpt lat="42.1713233" lon="14.6491917"><ele>15.0</ele><time>2026-04-24T09:31:36.884Z</time></trkpt><trkpt lat="42.1713167" lon="14.6490867"><ele>15.0</ele><time>2026-04-24T09:31:38.884Z</time></trkpt><trkpt lat="42.17131" lon="14.6489833"><ele>15.0</ele><time>2026-04-24T09:31:40.883Z</time></trkpt><trkpt lat="42.1712967" lon="14.6488767"><ele>15.0</ele><time>2026-04-24T09:31:42.883Z</time></trkpt><trkpt lat="42.171295" lon="14.6487567"><ele>15.0</ele><time>2026-04-24T09:31:44.883Z</time></trkpt><trkpt lat="42.1712883" lon="14.6486383"><ele>15.0</ele><time>2026-04-24T09:31:46.884Z</time></trkpt><trkpt lat="42.17128" lon="14.648525"><ele>15.0</ele><time>2026-04-24T09:31:48.884Z</time></trkpt><trkpt lat="42.1712717" lon="14.6484217"><ele>15.0</ele><time>2026-04-24T09:31:50.883Z</time></trkpt><trkpt lat="42.1712683" lon="14.648325"><ele>15.0</ele><time>2026-04-24T09:31:52.883Z</time></trkpt><trkpt lat="42.1712633" lon="14.64822"><ele>14.833333333333334</ele><time>2026-04-24T09:31:54.883Z</time></trkpt><trkpt lat="42.1712583" lon="14.6481167"><ele>14.666666666666668</ele><time>2026-04-24T09:31:56.884Z</time></trkpt><trkpt lat="42.1712517" lon="14.6480017"><ele>14.5</ele><time>2026-04-24T09:31:58.884Z</time></trkpt><trkpt lat="42.1712483" lon="14.6478867"><ele>14.333333333333334</ele><time>2026-04-24T09:32:00.883Z</time></trkpt><trkpt lat="42.1712417" lon="14.6477733"><ele>14.166666666666668</ele><time>2026-04-24T09:32:02.883Z</time></trkpt><trkpt lat="42.1712383" lon="14.6476667"><ele>14.0</ele><time>2026-04-24T09:32:04.883Z</time></trkpt><trkpt lat="42.1712283" lon="14.64756"><ele>14.000000000000002</ele><time>2026-04-24T09:32:06.884Z</time></trkpt><trkpt lat="42.1712217" lon="14.6474467"><ele>14.0</ele><time>2026-04-24T09:32:08.883Z</time></trkpt><trkpt lat="42.1712233" lon="14.64733"><ele>14.0</ele><time>2026-04-24T09:32:10.884Z</time></trkpt><trkpt lat="42.171225" lon="14.6472183"><ele>14.0</ele><time>2026-04-24T09:32:12.883Z</time></trkpt><trkpt lat="42.1712283" lon="14.6471017"><ele>14.000000000000002</ele><time>2026-04-24T09:32:14.884Z</time></trkpt><trkpt lat="42.1712433" lon="14.6469983"><ele>14.0</ele><time>2026-04-24T09:32:16.884Z</time></trkpt><trkpt lat="42.1712667" lon="14.6468867"><ele>14.142857142857142</ele><time>2026-04-24T09:32:18.883Z</time></trkpt><trkpt lat="42.1712833" lon="14.64678"><ele>14.285714285714285</ele><time>2026-04-24T09:32:20.884Z</time></trkpt><trkpt lat="42.1713033" lon="14.6466783"><ele>14.428571428571429</ele><time>2026-04-24T09:32:22.884Z</time></trkpt><trkpt lat="42.1713283" lon="14.6465833"><ele>14.571428571428571</ele><time>2026-04-24T09:32:24.884Z</time></trkpt><trkpt lat="42.1713533" lon="14.6465"><ele>14.714285714285714</ele><time>2026-04-24T09:32:26.884Z</time></trkpt><trkpt lat="42.1713783" lon="14.6464167"><ele>14.857142857142858</ele><time>2026-04-24T09:32:28.884Z</time></trkpt><trkpt lat="42.171415" lon="14.6463317"><ele>15.0</ele><time>2026-04-24T09:32:30.883Z</time></trkpt><trkpt lat="42.1714467" lon="14.6462417"><ele>15.0</ele><time>2026-04-24T09:32:32.884Z</time></trkpt><trkpt lat="42.171485" lon="14.6461483"><ele>15.0</ele><time>2026-04-24T09:32:34.884Z</time></trkpt><trkpt lat="42.1715283" lon="14.64605"><ele>15.0</ele><time>2026-04-24T09:32:36.884Z</time></trkpt><trkpt lat="42.17157" lon="14.6459333"><ele>15.0</ele><time>2026-04-24T09:32:38.884Z</time></trkpt><trkpt lat="42.1716067" lon="14.6458183"><ele>15.0</ele><time>2026-04-24T09:32:40.884Z</time></trkpt><trkpt lat="42.17164" lon="14.6457067"><ele>15.0</ele><time>2026-04-24T09:32:42.883Z</time></trkpt><trkpt lat="42.1716817" lon="14.6455983"><ele>14.833333333333334</ele><time>2026-04-24T09:32:44.884Z</time></trkpt><trkpt lat="42.1717183" lon="14.645495"><ele>14.666666666666668</ele><time>2026-04-24T09:32:46.884Z</time></trkpt><trkpt lat="42.17175" lon="14.645395"><ele>14.5</ele><time>2026-04-24T09:32:48.883Z</time></trkpt><trkpt lat="42.171785" lon="14.6452767"><ele>14.333333333333334</ele><time>2026-04-24T09:32:50.883Z</time></trkpt><trkpt lat="42.1718283" lon="14.645135"><ele>14.166666666666668</ele><time>2026-04-24T09:32:52.883Z</time></trkpt><trkpt lat="42.1718567" lon="14.6450533"><ele>14.0</ele><time>2026-04-24T09:32:53.884Z</time></trkpt><trkpt lat="42.17188" lon="14.6449667"><ele>13.833333333333334</ele><time>2026-04-24T09:32:54.884Z</time></trkpt><trkpt lat="42.1719" lon="14.6448783"><ele>13.666666666666668</ele><time>2026-04-24T09:32:55.883Z</time></trkpt><trkpt lat="42.171915" lon="14.644785"><ele>13.5</ele><time>2026-04-24T09:32:56.883Z</time></trkpt><trkpt lat="42.1719267" lon="14.6446917"><ele>13.333333333333332</ele><time>2026-04-24T09:32:57.884Z</time></trkpt><trkpt lat="42.1719383" lon="14.6446"><ele>13.166666666666666</ele><time>2026-04-24T09:32:58.884Z</time></trkpt><trkpt lat="42.1719433" lon="14.644435"><ele>13.0</ele><time>2026-04-24T09:33:00.883Z</time></trkpt><trkpt lat="42.1719467" lon="14.6442817"><ele>12.4</ele><time>2026-04-24T09:33:02.884Z</time></trkpt><trkpt lat="42.171955" lon="14.644125"><ele>11.8</ele><time>2026-04-24T09:33:04.884Z</time></trkpt><trkpt lat="42.171965" lon="14.6439783"><ele>11.2</ele><time>2026-04-24T09:33:06.884Z</time></trkpt><trkpt lat="42.1719667" lon="14.643845"><ele>10.6</ele><time>2026-04-24T09:33:08.883Z</time></trkpt><trkpt lat="42.1719717" lon="14.6437183"><ele>10.0</ele><time>2026-04-24T09:33:10.883Z</time></trkpt><trkpt lat="42.1719733" lon="14.6435983"><ele>10.0</ele><time>2026-04-24T09:33:12.884Z</time></trkpt><trkpt lat="42.1719667" lon="14.6434767"><ele>10.0</ele><time>2026-04-24T09:33:14.884Z</time></trkpt><trkpt lat="42.1719683" lon="14.6433467"><ele>10.0</ele><time>2026-04-24T09:33:16.884Z</time></trkpt><trkpt lat="42.1719783" lon="14.6432317"><ele>10.0</ele><time>2026-04-24T09:33:18.884Z</time></trkpt><trkpt lat="42.1719867" lon="14.6431183"><ele>10.0</ele><time>2026-04-24T09:33:20.883Z</time></trkpt><trkpt lat="42.171995" lon="14.6429967"><ele>10.0</ele><time>2026-04-24T09:33:22.884Z</time></trkpt><trkpt lat="42.1720033" lon="14.6428767"><ele>10.166666666666668</ele><time>2026-04-24T09:33:24.883Z</time></trkpt><trkpt lat="42.1720133" lon="14.6427617"><ele>10.333333333333334</ele><time>2026-04-24T09:33:26.883Z</time></trkpt><trkpt lat="42.172015" lon="14.6426467"><ele>10.5</ele><time>2026-04-24T09:33:28.884Z</time></trkpt><trkpt lat="42.1720183" lon="14.64252"><ele>10.666666666666666</ele><time>2026-04-24T09:33:30.883Z</time></trkpt><trkpt lat="42.1720367" lon="14.6424283"><ele>10.833333333333332</ele><time>2026-04-24T09:33:32.883Z</time></trkpt><trkpt lat="42.1721017" lon="14.642385"><ele>11.0</ele><time>2026-04-24T09:33:34.884Z</time></trkpt><trkpt lat="42.1721783" lon="14.642345"><ele>11.0</ele><time>2026-04-24T09:33:36.884Z</time></trkpt><trkpt lat="42.1722583" lon="14.64231"><ele>11.0</ele><time>2026-04-24T09:33:38.883Z</time></trkpt><trkpt lat="42.17234" lon="14.64227"><ele>11.0</ele><time>2026-04-24T09:33:40.884Z</time></trkpt><trkpt lat="42.1724267" lon="14.6422367"><ele>11.0</ele><time>2026-04-24T09:33:42.884Z</time></trkpt><trkpt lat="42.1725167" lon="14.6422083"><ele>11.0</ele><time>2026-04-24T09:33:44.883Z</time></trkpt><trkpt lat="42.172605" lon="14.64218"><ele>11.0</ele><time>2026-04-24T09:33:46.884Z</time></trkpt><trkpt lat="42.17269" lon="14.64216"><ele>10.833333333333332</ele><time>2026-04-24T09:33:48.884Z</time></trkpt><trkpt lat="42.1727717" lon="14.6421517"><ele>10.666666666666666</ele><time>2026-04-24T09:33:50.883Z</time></trkpt><trkpt lat="42.1728567" lon="14.6421433"><ele>10.5</ele><time>2026-04-24T09:33:52.884Z</time></trkpt><trkpt lat="42.1729467" lon="14.642135"><ele>10.333333333333334</ele><time>2026-04-24T09:33:54.883Z</time></trkpt><trkpt lat="42.1730333" lon="14.6421267"><ele>10.166666666666668</ele><time>2026-04-24T09:33:56.884Z</time></trkpt><trkpt lat="42.17312" lon="14.642135"><ele>10.0</ele><time>2026-04-24T09:33:58.884Z</time></trkpt><trkpt lat="42.1732017" lon="14.6421383"><ele>10.0</ele><time>2026-04-24T09:34:00.883Z</time></trkpt><trkpt lat="42.173275" lon="14.6421367"><ele>10.0</ele><time>2026-04-24T09:34:02.883Z</time></trkpt><trkpt lat="42.1733467" lon="14.6421367"><ele>10.0</ele><time>2026-04-24T09:34:04.884Z</time></trkpt><trkpt lat="42.1734183" lon="14.6421483"><ele>10.0</ele><time>2026-04-24T09:34:06.884Z</time></trkpt><trkpt lat="42.1734983" lon="14.64218"><ele>10.0</ele><time>2026-04-24T09:34:08.883Z</time></trkpt><trkpt lat="42.173585" lon="14.6421967"><ele>10.0</ele><time>2026-04-24T09:34:10.884Z</time></trkpt><trkpt lat="42.17368" lon="14.64222"><ele>10.0</ele><time>2026-04-24T09:34:12.884Z</time></trkpt><trkpt lat="42.1737733" lon="14.6422167"><ele>10.0</ele><time>2026-04-24T09:34:14.884Z</time></trkpt><trkpt lat="42.1738633" lon="14.64221"><ele>10.0</ele><time>2026-04-24T09:34:16.884Z</time></trkpt><trkpt lat="42.1739533" lon="14.64223"><ele>10.0</ele><time>2026-04-24T09:34:18.883Z</time></trkpt><trkpt lat="42.1740367" lon="14.6422667"><ele>10.0</ele><time>2026-04-24T09:34:20.883Z</time></trkpt><trkpt lat="42.1741133" lon="14.6422983"><ele>10.0</ele><time>2026-04-24T09:34:22.883Z</time></trkpt><trkpt lat="42.17419" lon="14.6423367"><ele>10.0</ele><time>2026-04-24T09:34:24.883Z</time></trkpt><trkpt lat="42.1742733" lon="14.642375"><ele>10.0</ele><time>2026-04-24T09:34:26.884Z</time></trkpt><trkpt lat="42.1743533" lon="14.642415"><ele>10.0</ele><time>2026-04-24T09:34:28.884Z</time></trkpt><trkpt lat="42.1744267" lon="14.6424583"><ele>10.0</ele><time>2026-04-24T09:34:30.883Z</time></trkpt><trkpt lat="42.1745067" lon="14.6425033"><ele>10.0</ele><time>2026-04-24T09:34:32.884Z</time></trkpt><trkpt lat="42.1745833" lon="14.64257"><ele>10.0</ele><time>2026-04-24T09:34:34.883Z</time></trkpt><trkpt lat="42.1746567" lon="14.6426383"><ele>10.0</ele><time>2026-04-24T09:34:36.883Z</time></trkpt><trkpt lat="42.1747267" lon="14.64271"><ele>10.0</ele><time>2026-04-24T09:34:38.884Z</time></trkpt><trkpt lat="42.1747983" lon="14.64278"><ele>10.0</ele><time>2026-04-24T09:34:40.883Z</time></trkpt><trkpt lat="42.1748717" lon="14.6428517"><ele>10.0</ele><time>2026-04-24T09:34:42.884Z</time></trkpt><trkpt lat="42.1749417" lon="14.64293"><ele>10.0</ele><time>2026-04-24T09:34:44.883Z</time></trkpt><trkpt lat="42.1750117" lon="14.6430067"><ele>10.0</ele><time>2026-04-24T09:34:46.883Z</time></trkpt><trkpt lat="42.1750767" lon="14.6430917"><ele>10.0</ele><time>2026-04-24T09:34:48.883Z</time></trkpt><trkpt lat="42.1751367" lon="14.643185"><ele>10.0</ele><time>2026-04-24T09:34:50.883Z</time></trkpt><trkpt lat="42.1751917" lon="14.6432733"><ele>10.0</ele><time>2026-04-24T09:34:52.884Z</time></trkpt><trkpt lat="42.1752467" lon="14.6433683"><ele>10.0</ele><time>2026-04-24T09:34:54.883Z</time></trkpt><trkpt lat="42.1752983" lon="14.6434633"><ele>10.0</ele><time>2026-04-24T09:34:56.883Z</time></trkpt><trkpt lat="42.1753467" lon="14.6435633"><ele>10.0</ele><time>2026-04-24T09:34:58.883Z</time></trkpt><trkpt lat="42.1753883" lon="14.6436617"><ele>9.666666666666668</ele><time>2026-04-24T09:35:00.883Z</time></trkpt><trkpt lat="42.1754267" lon="14.6437633"><ele>9.333333333333334</ele><time>2026-04-24T09:35:02.884Z</time></trkpt><trkpt lat="42.1754633" lon="14.6438633"><ele>9.0</ele><time>2026-04-24T09:35:04.884Z</time></trkpt><trkpt lat="42.1754983" lon="14.6439683"><ele>8.666666666666666</ele><time>2026-04-24T09:35:06.884Z</time></trkpt><trkpt lat="42.1755283" lon="14.6440783"><ele>8.333333333333332</ele><time>2026-04-24T09:35:08.883Z</time></trkpt><trkpt lat="42.1755617" lon="14.644185"><ele>8.0</ele><time>2026-04-24T09:35:10.884Z</time></trkpt><trkpt lat="42.1755917" lon="14.6442967"><ele>7.999999999999999</ele><time>2026-04-24T09:35:12.883Z</time></trkpt><trkpt lat="42.1756267" lon="14.6444067"><ele>8.0</ele><time>2026-04-24T09:35:14.884Z</time></trkpt><trkpt lat="42.1756533" lon="14.64452"><ele>8.0</ele><time>2026-04-24T09:35:16.883Z</time></trkpt><trkpt lat="42.1756767" lon="14.64463"><ele>8.0</ele><time>2026-04-24T09:35:18.884Z</time></trkpt><trkpt lat="42.1757033" lon="14.64474"><ele>7.999999999999999</ele><time>2026-04-24T09:35:20.884Z</time></trkpt><trkpt lat="42.1757317" lon="14.6448533"><ele>8.0</ele><time>2026-04-24T09:35:22.884Z</time></trkpt><trkpt lat="42.17576" lon="14.64497"><ele>7.999999999999999</ele><time>2026-04-24T09:35:24.884Z</time></trkpt><trkpt lat="42.175785" lon="14.6450833"><ele>8.0</ele><time>2026-04-24T09:35:26.884Z</time></trkpt><trkpt lat="42.17581" lon="14.6451867"><ele>8.0</ele><time>2026-04-24T09:35:28.883Z</time></trkpt><trkpt lat="42.1758367" lon="14.645285"><ele>8.0</ele><time>2026-04-24T09:35:30.884Z</time></trkpt><trkpt lat="42.17587" lon="14.645375"><ele>7.999999999999999</ele><time>2026-04-24T09:35:32.884Z</time></trkpt><trkpt lat="42.1758983" lon="14.6454933"><ele>8.0</ele><time>2026-04-24T09:35:34.883Z</time></trkpt><trkpt lat="42.1759233" lon="14.6456067"><ele>7.999999999999999</ele><time>2026-04-24T09:35:36.883Z</time></trkpt><trkpt lat="42.1759467" lon="14.6457183"><ele>8.0</ele><time>2026-04-24T09:35:38.883Z</time></trkpt><trkpt lat="42.1759733" lon="14.6458417"><ele>8.0</ele><time>2026-04-24T09:35:40.884Z</time></trkpt><trkpt lat="42.176005" lon="14.6459583"><ele>8.0</ele><time>2026-04-24T09:35:42.884Z</time></trkpt><trkpt lat="42.176035" lon="14.646055"><ele>7.999999999999999</ele><time>2026-04-24T09:35:44.884Z</time></trkpt><trkpt lat="42.17606" lon="14.646145"><ele>8.0</ele><time>2026-04-24T09:35:46.883Z</time></trkpt><trkpt lat="42.1760883" lon="14.6462333"><ele>7.800000000000001</ele><time>2026-04-24T09:35:48.884Z</time></trkpt><trkpt lat="42.1761217" lon="14.6463333"><ele>7.6000000000000005</ele><time>2026-04-24T09:35:50.884Z</time></trkpt><trkpt lat="42.1761617" lon="14.6464583"><ele>7.3999999999999995</ele><time>2026-04-24T09:35:52.884Z</time></trkpt><trkpt lat="42.1762067" lon="14.64657"><ele>7.199999999999999</ele><time>2026-04-24T09:35:54.884Z</time></trkpt><trkpt lat="42.1762583" lon="14.646685"><ele>7.0</ele><time>2026-04-24T09:35:56.883Z</time></trkpt><trkpt lat="42.176315" lon="14.6467833"><ele>7.000000000000001</ele><time>2026-04-24T09:35:58.883Z</time></trkpt><trkpt lat="42.1763667" lon="14.6468683"><ele>7.0</ele><time>2026-04-24T09:36:00.884Z</time></trkpt><trkpt lat="42.1764233" lon="14.6469433"><ele>7.0</ele><time>2026-04-24T09:36:02.883Z</time></trkpt><trkpt lat="42.1764717" lon="14.6470133"><ele>7.0</ele><time>2026-04-24T09:36:04.883Z</time></trkpt><trkpt lat="42.17653" lon="14.6470833"><ele>7.000000000000001</ele><time>2026-04-24T09:36:06.883Z</time></trkpt><trkpt lat="42.1765917" lon="14.6471683"><ele>7.0</ele><time>2026-04-24T09:36:08.884Z</time></trkpt><trkpt lat="42.1766483" lon="14.6472533"><ele>7.000000000000001</ele><time>2026-04-24T09:36:10.883Z</time></trkpt><trkpt lat="42.1767033" lon="14.6473367"><ele>7.0</ele><time>2026-04-24T09:36:12.884Z</time></trkpt><trkpt lat="42.1767583" lon="14.647415"><ele>7.0</ele><time>2026-04-24T09:36:14.884Z</time></trkpt><trkpt lat="42.1768183" lon="14.6474917"><ele>7.0</ele><time>2026-04-24T09:36:16.884Z</time></trkpt><trkpt lat="42.1768917" lon="14.6475583"><ele>7.000000000000001</ele><time>2026-04-24T09:36:18.884Z</time></trkpt><trkpt lat="42.1769583" lon="14.64763"><ele>7.0</ele><time>2026-04-24T09:36:20.883Z</time></trkpt><trkpt lat="42.1770267" lon="14.64769"><ele>7.000000000000001</ele><time>2026-04-24T09:36:22.883Z</time></trkpt><trkpt lat="42.1771017" lon="14.647755"><ele>7.0</ele><time>2026-04-24T09:36:24.884Z</time></trkpt><trkpt lat="42.1771717" lon="14.6478167"><ele>7.0</ele><time>2026-04-24T09:36:26.884Z</time></trkpt><trkpt lat="42.1772483" lon="14.6478733"><ele>7.0</ele><time>2026-04-24T09:36:28.883Z</time></trkpt><trkpt lat="42.17733" lon="14.64792"><ele>7.000000000000001</ele><time>2026-04-24T09:36:30.884Z</time></trkpt><trkpt lat="42.1774033" lon="14.647975"><ele>7.0</ele><time>2026-04-24T09:36:32.884Z</time></trkpt><trkpt lat="42.1774817" lon="14.6480233"><ele>7.000000000000001</ele><time>2026-04-24T09:36:34.884Z</time></trkpt><trkpt lat="42.1775617" lon="14.6480633"><ele>7.0</ele><time>2026-04-24T09:36:36.884Z</time></trkpt><trkpt lat="42.177645" lon="14.64811"><ele>7.0</ele><time>2026-04-24T09:36:38.883Z</time></trkpt><trkpt lat="42.1777317" lon="14.6481483"><ele>7.0</ele><time>2026-04-24T09:36:40.883Z</time></trkpt><trkpt lat="42.1778183" lon="14.648175"><ele>7.000000000000001</ele><time>2026-04-24T09:36:42.884Z</time></trkpt><trkpt lat="42.1779017" lon="14.6482133"><ele>7.0</ele><time>2026-04-24T09:36:44.884Z</time></trkpt><trkpt lat="42.177995" lon="14.6482433"><ele>7.0</ele><time>2026-04-24T09:36:46.884Z</time></trkpt><trkpt lat="42.178095" lon="14.6482867"><ele>6.999999999999999</ele><time>2026-04-24T09:36:48.884Z</time></trkpt><trkpt lat="42.1782" lon="14.64832"><ele>6.999999999999999</ele><time>2026-04-24T09:36:50.883Z</time></trkpt><trkpt lat="42.1782967" lon="14.6483583"><ele>7.0</ele><time>2026-04-24T09:36:52.883Z</time></trkpt><trkpt lat="42.1783917" lon="14.6483867"><ele>7.0</ele><time>2026-04-24T09:36:54.884Z</time></trkpt><trkpt lat="42.1784733" lon="14.6484183"><ele>6.833333333333334</ele><time>2026-04-24T09:36:56.884Z</time></trkpt><trkpt lat="42.178565" lon="14.6484383"><ele>6.666666666666667</ele><time>2026-04-24T09:36:58.884Z</time></trkpt><trkpt lat="42.17865" lon="14.6484683"><ele>6.5</ele><time>2026-04-24T09:37:00.884Z</time></trkpt><trkpt lat="42.17874" lon="14.6485083"><ele>6.333333333333334</ele><time>2026-04-24T09:37:02.884Z</time></trkpt><trkpt lat="42.178815" lon="14.64856"><ele>6.166666666666667</ele><time>2026-04-24T09:37:04.884Z</time></trkpt><trkpt lat="42.1788933" lon="14.6486117"><ele>6.0</ele><time>2026-04-24T09:37:06.884Z</time></trkpt><trkpt lat="42.1789733" lon="14.6486633"><ele>6.4</ele><time>2026-04-24T09:37:08.884Z</time></trkpt><trkpt lat="42.1790467" lon="14.6487183"><ele>6.8</ele><time>2026-04-24T09:37:10.884Z</time></trkpt><trkpt lat="42.1791217" lon="14.6487817"><ele>7.200000000000001</ele><time>2026-04-24T09:37:12.884Z</time></trkpt><trkpt lat="42.1791933" lon="14.6488467"><ele>7.6000000000000005</ele><time>2026-04-24T09:37:14.884Z</time></trkpt><trkpt lat="42.1792667" lon="14.648925"><ele>8.0</ele><time>2026-04-24T09:37:16.883Z</time></trkpt><trkpt lat="42.1793433" lon="14.6490083"><ele>7.999999999999999</ele><time>2026-04-24T09:37:18.883Z</time></trkpt><trkpt lat="42.17941" lon="14.6490917"><ele>8.0</ele><time>2026-04-24T09:37:20.884Z</time></trkpt><trkpt lat="42.1794733" lon="14.6491783"><ele>8.0</ele><time>2026-04-24T09:37:22.883Z</time></trkpt><trkpt lat="42.1795367" lon="14.6492617"><ele>8.0</ele><time>2026-04-24T09:37:24.884Z</time></trkpt><trkpt lat="42.179585" lon="14.649345"><ele>7.999999999999999</ele><time>2026-04-24T09:37:26.883Z</time></trkpt><trkpt lat="42.1796233" lon="14.6494233"><ele>8.0</ele><time>2026-04-24T09:37:28.884Z</time></trkpt><trkpt lat="42.1796683" lon="14.6494933"><ele>7.999999999999999</ele><time>2026-04-24T09:37:30.884Z</time></trkpt><trkpt lat="42.179715" lon="14.6495567"><ele>8.0</ele><time>2026-04-24T09:37:32.884Z</time></trkpt><trkpt lat="42.17976" lon="14.64964"><ele>8.0</ele><time>2026-04-24T09:37:34.883Z</time></trkpt><trkpt lat="42.1798033" lon="14.64973"><ele>8.0</ele><time>2026-04-24T09:37:36.883Z</time></trkpt><trkpt lat="42.179855" lon="14.64982"><ele>7.999999999999999</ele><time>2026-04-24T09:37:38.883Z</time></trkpt><trkpt lat="42.1799033" lon="14.64991"><ele>8.0</ele><time>2026-04-24T09:37:40.884Z</time></trkpt><trkpt lat="42.179965" lon="14.6499933"><ele>7.999999999999999</ele><time>2026-04-24T09:37:42.884Z</time></trkpt><trkpt lat="42.180025" lon="14.6500817"><ele>8.0</ele><time>2026-04-24T09:37:44.884Z</time></trkpt><trkpt lat="42.1800867" lon="14.65017"><ele>8.0</ele><time>2026-04-24T09:37:46.883Z</time></trkpt><trkpt lat="42.1801367" lon="14.6502533"><ele>8.0</ele><time>2026-04-24T09:37:48.884Z</time></trkpt><trkpt lat="42.1801933" lon="14.6503367"><ele>7.999999999999999</ele><time>2026-04-24T09:37:50.884Z</time></trkpt><trkpt lat="42.180235" lon="14.6504167"><ele>8.0</ele><time>2026-04-24T09:37:52.883Z</time></trkpt><trkpt lat="42.18029" lon="14.6504817"><ele>8.142857142857142</ele><time>2026-04-24T09:37:54.884Z</time></trkpt><trkpt lat="42.180345" lon="14.6505483"><ele>8.285714285714285</ele><time>2026-04-24T09:37:56.883Z</time></trkpt><trkpt lat="42.1803717" lon="14.6506267"><ele>8.428571428571429</ele><time>2026-04-24T09:37:58.883Z</time></trkpt><trkpt lat="42.180415" lon="14.6506967"><ele>8.571428571428571</ele><time>2026-04-24T09:38:00.884Z</time></trkpt><trkpt lat="42.1804683" lon="14.6507633"><ele>8.714285714285715</ele><time>2026-04-24T09:38:02.884Z</time></trkpt><trkpt lat="42.18053" lon="14.6508217"><ele>8.857142857142858</ele><time>2026-04-24T09:38:04.884Z</time></trkpt><trkpt lat="42.1805917" lon="14.6508817"><ele>9.0</ele><time>2026-04-24T09:38:06.884Z</time></trkpt><trkpt lat="42.1806483" lon="14.6509317"><ele>8.833333333333334</ele><time>2026-04-24T09:38:08.884Z</time></trkpt><trkpt lat="42.180725" lon="14.651005"><ele>8.666666666666666</ele><time>2026-04-24T09:38:11.883Z</time></trkpt><trkpt lat="42.180785" lon="14.6510583"><ele>8.5</ele><time>2026-04-24T09:38:13.883Z</time></trkpt><trkpt lat="42.1808383" lon="14.6511133"><ele>8.333333333333332</ele><time>2026-04-24T09:38:15.883Z</time></trkpt><trkpt lat="42.1808933" lon="14.6511583"><ele>8.166666666666666</ele><time>2026-04-24T09:38:17.883Z</time></trkpt><trkpt lat="42.1809783" lon="14.65122"><ele>8.0</ele><time>2026-04-24T09:38:20.883Z</time></trkpt><trkpt lat="42.1810383" lon="14.6512517"><ele>9.166666666666666</ele><time>2026-04-24T09:38:22.884Z</time></trkpt><trkpt lat="42.181105" lon="14.65128"><ele>10.333333333333332</ele><time>2026-04-24T09:38:24.884Z</time></trkpt><trkpt lat="42.1811717" lon="14.6512933"><ele>11.5</ele><time>2026-04-24T09:38:26.884Z</time></trkpt><trkpt lat="42.181255" lon="14.651335"><ele>12.666666666666666</ele><time>2026-04-24T09:38:29.883Z</time></trkpt><trkpt lat="42.1813233" lon="14.65136"><ele>13.833333333333334</ele><time>2026-04-24T09:38:32.884Z</time></trkpt><trkpt lat="42.1813967" lon="14.6513967"><ele>15.0</ele><time>2026-04-24T09:38:35.883Z</time></trkpt><trkpt lat="42.1814733" lon="14.6514383"><ele>14.833333333333334</ele><time>2026-04-24T09:38:38.884Z</time></trkpt><trkpt lat="42.1815517" lon="14.6514683"><ele>14.666666666666668</ele><time>2026-04-24T09:38:41.884Z</time></trkpt><trkpt lat="42.18164" lon="14.6514917"><ele>14.5</ele><time>2026-04-24T09:38:44.884Z</time></trkpt><trkpt lat="42.18173" lon="14.6515067"><ele>14.333333333333334</ele><time>2026-04-24T09:38:47.883Z</time></trkpt><trkpt lat="42.18182" lon="14.651535"><ele>14.166666666666668</ele><time>2026-04-24T09:38:50.884Z</time></trkpt><trkpt lat="42.1818867" lon="14.651565"><ele>14.0</ele><time>2026-04-24T09:38:52.883Z</time></trkpt><trkpt lat="42.1819567" lon="14.65159"><ele>14.000000000000002</ele><time>2026-04-24T09:38:54.884Z</time></trkpt><trkpt lat="42.182035" lon="14.6516117"><ele>14.0</ele><time>2026-04-24T09:38:56.884Z</time></trkpt><trkpt lat="42.182115" lon="14.651615"><ele>14.0</ele><time>2026-04-24T09:38:58.884Z</time></trkpt><trkpt lat="42.1822117" lon="14.6516233"><ele>14.0</ele><time>2026-04-24T09:39:01.884Z</time></trkpt><trkpt lat="42.1822817" lon="14.65162"><ele>14.000000000000002</ele><time>2026-04-24T09:39:03.883Z</time></trkpt><trkpt lat="42.1823467" lon="14.6516067"><ele>14.0</ele><time>2026-04-24T09:39:05.883Z</time></trkpt><trkpt lat="42.1824117" lon="14.6515817"><ele>13.500000000000002</ele><time>2026-04-24T09:39:07.884Z</time></trkpt><trkpt lat="42.1824933" lon="14.6515483"><ele>13.0</ele><time>2026-04-24T09:39:10.884Z</time></trkpt><trkpt lat="42.182565" lon="14.6515483"><ele>12.5</ele><time>2026-04-24T09:39:13.883Z</time></trkpt><trkpt lat="42.1826317" lon="14.6515467"><ele>12.0</ele><time>2026-04-24T09:39:17.883Z</time></trkpt><trkpt lat="42.1827017" lon="14.651535"><ele>11.5</ele><time>2026-04-24T09:39:20.884Z</time></trkpt><trkpt lat="42.1827867" lon="14.6515233"><ele>11.0</ele><time>2026-04-24T09:39:23.884Z</time></trkpt><trkpt lat="42.1828733" lon="14.6514983"><ele>11.0</ele><time>2026-04-24T09:39:26.884Z</time></trkpt><trkpt lat="42.1829533" lon="14.65148"><ele>11.0</ele><time>2026-04-24T09:39:29.884Z</time></trkpt><trkpt lat="42.1830317" lon="14.6514483"><ele>11.0</ele><time>2026-04-24T09:39:32.884Z</time></trkpt><trkpt lat="42.1830917" lon="14.651395"><ele>11.0</ele><time>2026-04-24T09:39:34.883Z</time></trkpt><trkpt lat="42.1831667" lon="14.6513483"><ele>11.0</ele><time>2026-04-24T09:39:36.883Z</time></trkpt><trkpt lat="42.183235" lon="14.6512983"><ele>11.0</ele><time>2026-04-24T09:39:38.883Z</time></trkpt><trkpt lat="42.1832983" lon="14.6512583"><ele>11.833333333333332</ele><time>2026-04-24T09:39:40.884Z</time></trkpt><trkpt lat="42.1833617" lon="14.6512183"><ele>12.666666666666666</ele><time>2026-04-24T09:39:42.884Z</time></trkpt><trkpt lat="42.1834383" lon="14.6511717"><ele>13.5</ele><time>2026-04-24T09:39:44.884Z</time></trkpt><trkpt lat="42.1835117" lon="14.651115"><ele>14.333333333333332</ele><time>2026-04-24T09:39:46.884Z</time></trkpt><trkpt lat="42.18359" lon="14.65106"><ele>15.166666666666666</ele><time>2026-04-24T09:39:48.884Z</time></trkpt><trkpt lat="42.183655" lon="14.6510117"><ele>16.0</ele><time>2026-04-24T09:39:50.884Z</time></trkpt><trkpt lat="42.1837233" lon="14.6509533"><ele>15.333333333333332</ele><time>2026-04-24T09:39:52.884Z</time></trkpt><trkpt lat="42.1837817" lon="14.6508967"><ele>14.666666666666666</ele><time>2026-04-24T09:39:54.884Z</time></trkpt><trkpt lat="42.1838467" lon="14.6508383"><ele>14.0</ele><time>2026-04-24T09:39:56.883Z</time></trkpt><trkpt lat="42.1839167" lon="14.6507717"><ele>13.333333333333332</ele><time>2026-04-24T09:39:58.883Z</time></trkpt><trkpt lat="42.1839833" lon="14.650715"><ele>12.666666666666666</ele><time>2026-04-24T09:40:00.884Z</time></trkpt><trkpt lat="42.184055" lon="14.6506617"><ele>12.0</ele><time>2026-04-24T09:40:02.884Z</time></trkpt><trkpt lat="42.1841183" lon="14.650605"><ele>12.0</ele><time>2026-04-24T09:40:04.884Z</time></trkpt><trkpt lat="42.1841783" lon="14.650555"><ele>12.0</ele><time>2026-04-24T09:40:06.884Z</time></trkpt><trkpt lat="42.184245" lon="14.6505017"><ele>12.0</ele><time>2026-04-24T09:40:08.883Z</time></trkpt><trkpt lat="42.184315" lon="14.6504467"><ele>12.0</ele><time>2026-04-24T09:40:10.884Z</time></trkpt><trkpt lat="42.184385" lon="14.65039"><ele>12.0</ele><time>2026-04-24T09:40:12.884Z</time></trkpt><trkpt lat="42.1844483" lon="14.6503217"><ele>12.0</ele><time>2026-04-24T09:40:14.883Z</time></trkpt><trkpt lat="42.1845017" lon="14.6502533"><ele>11.0</ele><time>2026-04-24T09:40:16.883Z</time></trkpt><trkpt lat="42.1845533" lon="14.6501833"><ele>10.0</ele><time>2026-04-24T09:40:18.883Z</time></trkpt><trkpt lat="42.184615" lon="14.650105"><ele>9.0</ele><time>2026-04-24T09:40:20.884Z</time></trkpt><trkpt lat="42.1846783" lon="14.650035"><ele>8.0</ele><time>2026-04-24T09:40:22.883Z</time></trkpt><trkpt lat="42.1847367" lon="14.649965"><ele>7.0</ele><time>2026-04-24T09:40:24.884Z</time></trkpt><trkpt lat="42.184795" lon="14.6498933"><ele>6.0</ele><time>2026-04-24T09:40:26.884Z</time></trkpt><trkpt lat="42.18485" lon="14.6498267"><ele>5.999999999999999</ele><time>2026-04-24T09:40:28.884Z</time></trkpt><trkpt lat="42.1849083" lon="14.6497567"><ele>6.0</ele><time>2026-04-24T09:40:30.884Z</time></trkpt><trkpt lat="42.1849633" lon="14.64969"><ele>6.0</ele><time>2026-04-24T09:40:32.883Z</time></trkpt><trkpt lat="42.1850217" lon="14.649625"><ele>6.0</ele><time>2026-04-24T09:40:34.883Z</time></trkpt><trkpt lat="42.18508" lon="14.6495633"><ele>6.0</ele><time>2026-04-24T09:40:36.883Z</time></trkpt><trkpt lat="42.1851383" lon="14.6495"><ele>5.999999999999999</ele><time>2026-04-24T09:40:38.884Z</time></trkpt><trkpt lat="42.1851933" lon="14.64945"><ele>6.0</ele><time>2026-04-24T09:40:40.883Z</time></trkpt><trkpt lat="42.18525" lon="14.6493933"><ele>6.0</ele><time>2026-04-24T09:40:42.882Z</time></trkpt><trkpt lat="42.1853117" lon="14.64933"><ele>6.0</ele><time>2026-04-24T09:40:44.883Z</time></trkpt><trkpt lat="42.185385" lon="14.64927"><ele>6.0</ele><time>2026-04-24T09:40:46.883Z</time></trkpt><trkpt lat="42.1854517" lon="14.6492033"><ele>6.0</ele><time>2026-04-24T09:40:48.883Z</time></trkpt><trkpt lat="42.1855167" lon="14.6491483"><ele>6.0</ele><time>2026-04-24T09:40:50.883Z</time></trkpt><trkpt lat="42.185585" lon="14.6491133"><ele>6.0</ele><time>2026-04-24T09:40:52.883Z</time></trkpt><trkpt lat="42.1856433" lon="14.6490717"><ele>7.285714285714285</ele><time>2026-04-24T09:40:54.882Z</time></trkpt><trkpt lat="42.1857083" lon="14.649005"><ele>8.571428571428571</ele><time>2026-04-24T09:40:56.883Z</time></trkpt><trkpt lat="42.1857717" lon="14.6489467"><ele>9.857142857142858</ele><time>2026-04-24T09:40:58.883Z</time></trkpt><trkpt lat="42.185845" lon="14.6489067"><ele>11.142857142857142</ele><time>2026-04-24T09:41:00.882Z</time></trkpt><trkpt lat="42.1859083" lon="14.64887"><ele>12.428571428571427</ele><time>2026-04-24T09:41:02.882Z</time></trkpt><trkpt lat="42.185965" lon="14.6488217"><ele>13.714285714285715</ele><time>2026-04-24T09:41:04.882Z</time></trkpt><trkpt lat="42.1860233" lon="14.6487717"><ele>15.0</ele><time>2026-04-24T09:41:06.882Z</time></trkpt><trkpt lat="42.1860733" lon="14.6487167"><ele>15.0</ele><time>2026-04-24T09:41:08.883Z</time></trkpt><trkpt lat="42.1861233" lon="14.6486567"><ele>15.0</ele><time>2026-04-24T09:41:10.882Z</time></trkpt><trkpt lat="42.1861867" lon="14.6486117"><ele>15.0</ele><time>2026-04-24T09:41:12.883Z</time></trkpt><trkpt lat="42.18625" lon="14.6485667"><ele>15.0</ele><time>2026-04-24T09:41:14.883Z</time></trkpt><trkpt lat="42.1863233" lon="14.64853"><ele>15.0</ele><time>2026-04-24T09:41:17.883Z</time></trkpt><trkpt lat="42.1864083" lon="14.64849"><ele>15.0</ele><time>2026-04-24T09:41:20.883Z</time></trkpt><trkpt lat="42.1864867" lon="14.6484467"><ele>13.166666666666666</ele><time>2026-04-24T09:41:22.883Z</time></trkpt><trkpt lat="42.18657" lon="14.6483967"><ele>11.333333333333334</ele><time>2026-04-24T09:41:24.883Z</time></trkpt><trkpt lat="42.1866533" lon="14.6483517"><ele>9.5</ele><time>2026-04-24T09:41:26.882Z</time></trkpt><trkpt lat="42.186735" lon="14.64832"><ele>7.666666666666666</ele><time>2026-04-24T09:41:28.882Z</time></trkpt><trkpt lat="42.1868117" lon="14.6482883"><ele>5.833333333333333</ele><time>2026-04-24T09:41:30.883Z</time></trkpt><trkpt lat="42.1868883" lon="14.6482733"><ele>4.0</ele><time>2026-04-24T09:41:32.882Z</time></trkpt><trkpt lat="42.18696" lon="14.6482467"><ele>4.0</ele><time>2026-04-24T09:41:34.883Z</time></trkpt><trkpt lat="42.1870317" lon="14.6482133"><ele>3.9999999999999996</ele><time>2026-04-24T09:41:36.883Z</time></trkpt><trkpt lat="42.1870967" lon="14.6481867"><ele>4.0</ele><time>2026-04-24T09:41:38.883Z</time></trkpt><trkpt lat="42.1871667" lon="14.6481617"><ele>4.0</ele><time>2026-04-24T09:41:40.883Z</time></trkpt><trkpt lat="42.1872433" lon="14.6481417"><ele>3.9999999999999996</ele><time>2026-04-24T09:41:42.882Z</time></trkpt><trkpt lat="42.187315" lon="14.64812"><ele>4.0</ele><time>2026-04-24T09:41:44.883Z</time></trkpt><trkpt lat="42.1873817" lon="14.6481"><ele>4.0</ele><time>2026-04-24T09:41:46.883Z</time></trkpt><trkpt lat="42.18745" lon="14.6480767"><ele>4.0</ele><time>2026-04-24T09:41:48.882Z</time></trkpt><trkpt lat="42.1875167" lon="14.6480533"><ele>3.9999999999999996</ele><time>2026-04-24T09:41:50.883Z</time></trkpt><trkpt lat="42.1875783" lon="14.6480217"><ele>4.0</ele><time>2026-04-24T09:41:52.882Z</time></trkpt><trkpt lat="42.1876417" lon="14.6479833"><ele>4.0</ele><time>2026-04-24T09:41:54.883Z</time></trkpt><trkpt lat="42.1877117" lon="14.6479633"><ele>3.9999999999999996</ele><time>2026-04-24T09:41:56.882Z</time></trkpt><trkpt lat="42.18779" lon="14.6479567"><ele>4.0</ele><time>2026-04-24T09:41:58.882Z</time></trkpt><trkpt lat="42.1878617" lon="14.6479483"><ele>4.0</ele><time>2026-04-24T09:42:00.883Z</time></trkpt><trkpt lat="42.187925" lon="14.6479383"><ele>3.9999999999999996</ele><time>2026-04-24T09:42:02.883Z</time></trkpt><trkpt lat="42.1880083" lon="14.647925"><ele>4.0</ele><time>2026-04-24T09:42:05.883Z</time></trkpt><trkpt lat="42.1880933" lon="14.647895"><ele>4.0</ele><time>2026-04-24T09:42:08.883Z</time></trkpt><trkpt lat="42.1881783" lon="14.6478717"><ele>4.0</ele><time>2026-04-24T09:42:11.882Z</time></trkpt><trkpt lat="42.1882467" lon="14.647855"><ele>3.9999999999999996</ele><time>2026-04-24T09:42:13.883Z</time></trkpt><trkpt lat="42.188335" lon="14.6478433"><ele>4.0</ele><time>2026-04-24T09:42:15.883Z</time></trkpt><trkpt lat="42.1884367" lon="14.6478383"><ele>4.6</ele><time>2026-04-24T09:42:17.882Z</time></trkpt><trkpt lat="42.1885383" lon="14.6478433"><ele>5.2</ele><time>2026-04-24T09:42:19.883Z</time></trkpt><trkpt lat="42.1886333" lon="14.64785"><ele>5.799999999999999</ele><time>2026-04-24T09:42:21.883Z</time></trkpt><trkpt lat="42.1887" lon="14.647835"><ele>6.3999999999999995</ele><time>2026-04-24T09:42:23.882Z</time></trkpt><trkpt lat="42.1888" lon="14.647855"><ele>7.0</ele><time>2026-04-24T09:42:25.883Z</time></trkpt><trkpt lat="42.1888867" lon="14.6478933"><ele>7.0</ele><time>2026-04-24T09:42:27.882Z</time></trkpt><trkpt lat="42.1889567" lon="14.6479183"><ele>7.0</ele><time>2026-04-24T09:42:29.883Z</time></trkpt><trkpt lat="42.18902" lon="14.6479183"><ele>7.0</ele><time>2026-04-24T09:42:31.882Z</time></trkpt><trkpt lat="42.189085" lon="14.647915"><ele>7.0</ele><time>2026-04-24T09:42:33.883Z</time></trkpt><trkpt lat="42.1891633" lon="14.6479117"><ele>7.0</ele><time>2026-04-24T09:42:36.882Z</time></trkpt><trkpt lat="42.189235" lon="14.647925"><ele>7.0</ele><time>2026-04-24T09:42:39.882Z</time></trkpt><trkpt lat="42.189305" lon="14.6479583"><ele>7.0</ele><time>2026-04-24T09:42:43.882Z</time></trkpt><trkpt lat="42.1893683" lon="14.6479867"><ele>7.000000000000001</ele><time>2026-04-24T09:42:47.883Z</time></trkpt><trkpt lat="42.1894267" lon="14.6480533"><ele>7.0</ele><time>2026-04-24T09:42:51.883Z</time></trkpt><trkpt lat="42.1894433" lon="14.6481617"><ele>7.0</ele><time>2026-04-24T09:42:55.883Z</time></trkpt><trkpt lat="42.1894533" lon="14.648255"><ele>7.0</ele><time>2026-04-24T09:42:58.883Z</time></trkpt><trkpt lat="42.189465" lon="14.6483517"><ele>7.000000000000001</ele><time>2026-04-24T09:43:01.882Z</time></trkpt><trkpt lat="42.189475" lon="14.6484467"><ele>7.0</ele><time>2026-04-24T09:43:04.883Z</time></trkpt><trkpt lat="42.1894833" lon="14.648555"><ele>7.571428571428571</ele><time>2026-04-24T09:43:08.883Z</time></trkpt><trkpt lat="42.1894717" lon="14.6486483"><ele>8.142857142857142</ele><time>2026-04-24T09:43:11.883Z</time></trkpt><trkpt lat="42.1894383" lon="14.64874"><ele>8.714285714285715</ele><time>2026-04-24T09:43:14.883Z</time></trkpt><trkpt lat="42.1894067" lon="14.6488233"><ele>9.285714285714285</ele><time>2026-04-24T09:43:17.882Z</time></trkpt><trkpt lat="42.1894017" lon="14.6489367"><ele>9.857142857142858</ele><time>2026-04-24T09:43:20.882Z</time></trkpt><trkpt lat="42.189435" lon="14.6490167"><ele>10.428571428571429</ele><time>2026-04-24T09:43:22.883Z</time></trkpt><trkpt lat="42.1895083" lon="14.64905"><ele>11.0</ele><time>2026-04-24T09:43:25.883Z</time></trkpt><trkpt lat="42.1895433" lon="14.6489483"><ele>11.0</ele><time>2026-04-24T09:43:30.883Z</time></trkpt><trkpt lat="42.1895583" lon="14.648865"><ele>11.0</ele><time>2026-04-24T09:43:33.882Z</time></trkpt><trkpt lat="42.18957" lon="14.64878"><ele>11.0</ele><time>2026-04-24T09:43:36.882Z</time></trkpt><trkpt lat="42.1895867" lon="14.6486733"><ele>11.0</ele><time>2026-04-24T09:43:40.883Z</time></trkpt><trkpt lat="42.1896033" lon="14.6485667"><ele>11.0</ele><time>2026-04-24T09:43:44.882Z</time></trkpt><trkpt lat="42.189625" lon="14.6484817"><ele>11.0</ele><time>2026-04-24T09:43:47.882Z</time></trkpt><trkpt lat="42.1896483" lon="14.6483817"><ele>11.0</ele><time>2026-04-24T09:43:51.882Z</time></trkpt><trkpt lat="42.1896783" lon="14.648285"><ele>10.333333333333332</ele><time>2026-04-24T09:43:55.883Z</time></trkpt><trkpt lat="42.1897083" lon="14.6481683"><ele>9.666666666666666</ele><time>2026-04-24T09:43:58.883Z</time></trkpt><trkpt lat="42.1897183" lon="14.6480817"><ele>9.0</ele><time>2026-04-24T09:44:00.883Z</time></trkpt><trkpt lat="42.1897233" lon="14.6479667"><ele>8.333333333333334</ele><time>2026-04-24T09:44:03.883Z</time></trkpt><trkpt lat="42.1897283" lon="14.6478733"><ele>7.666666666666667</ele><time>2026-04-24T09:44:06.883Z</time></trkpt><trkpt lat="42.1897333" lon="14.647765"><ele>7.0</ele><time>2026-04-24T09:44:10.883Z</time></trkpt><trkpt lat="42.1897317" lon="14.6476683"><ele>6.571428571428571</ele><time>2026-04-24T09:44:13.882Z</time></trkpt><trkpt lat="42.1897333" lon="14.6475767"><ele>6.142857142857142</ele><time>2026-04-24T09:44:16.883Z</time></trkpt><trkpt lat="42.18974" lon="14.64748"><ele>5.714285714285714</ele><time>2026-04-24T09:44:20.883Z</time></trkpt><trkpt lat="42.1897483" lon="14.6473767"><ele>5.285714285714286</ele><time>2026-04-24T09:44:24.883Z</time></trkpt><trkpt lat="42.1897533" lon="14.6472867"><ele>4.857142857142857</ele><time>2026-04-24T09:44:27.883Z</time></trkpt><trkpt lat="42.189755" lon="14.6472017"><ele>4.428571428571429</ele><time>2026-04-24T09:44:30.882Z</time></trkpt><trkpt lat="42.1897567" lon="14.6470983"><ele>4.0</ele><time>2026-04-24T09:44:34.883Z</time></trkpt><trkpt lat="42.1897567" lon="14.6470117"><ele>4.166666666666666</ele><time>2026-04-24T09:44:37.883Z</time></trkpt><trkpt lat="42.1897617" lon="14.6469083"><ele>4.333333333333333</ele><time>2026-04-24T09:44:40.882Z</time></trkpt><trkpt lat="42.1897583" lon="14.6468067"><ele>4.5</ele><time>2026-04-24T09:44:43.883Z</time></trkpt><trkpt lat="42.1897583" lon="14.6466933"><ele>4.666666666666667</ele><time>2026-04-24T09:44:46.883Z</time></trkpt><trkpt lat="42.1897633" lon="14.6465783"><ele>4.833333333333334</ele><time>2026-04-24T09:44:49.883Z</time></trkpt><trkpt lat="42.18976" lon="14.646485"><ele>5.0</ele><time>2026-04-24T09:44:51.883Z</time></trkpt><trkpt lat="42.1897667" lon="14.6464"><ele>5.0</ele><time>2026-04-24T09:44:53.883Z</time></trkpt><trkpt lat="42.1897667" lon="14.64631"><ele>5.0</ele><time>2026-04-24T09:44:55.882Z</time></trkpt><trkpt lat="42.18977" lon="14.6462217"><ele>5.0</ele><time>2026-04-24T09:44:57.883Z</time></trkpt><trkpt lat="42.1897817" lon="14.64613"><ele>5.0</ele><time>2026-04-24T09:44:59.883Z</time></trkpt><trkpt lat="42.1897933" lon="14.646025"><ele>5.0</ele><time>2026-04-24T09:45:02.883Z</time></trkpt><trkpt lat="42.1897983" lon="14.6459217"><ele>5.0</ele><time>2026-04-24T09:45:05.882Z</time></trkpt><trkpt lat="42.1898133" lon="14.645835"><ele>5.0</ele><time>2026-04-24T09:45:07.883Z</time></trkpt><trkpt lat="42.1898467" lon="14.6457383"><ele>4.6</ele><time>2026-04-24T09:45:09.883Z</time></trkpt><trkpt lat="42.1898833" lon="14.64563"><ele>4.2</ele><time>2026-04-24T09:45:11.883Z</time></trkpt><trkpt lat="42.1899167" lon="14.6455333"><ele>3.8</ele><time>2026-04-24T09:45:13.883Z</time></trkpt><trkpt lat="42.1899683" lon="14.6454383"><ele>3.4</ele><time>2026-04-24T09:45:15.883Z</time></trkpt><trkpt lat="42.190025" lon="14.6453333"><ele>3.0</ele><time>2026-04-24T09:45:17.883Z</time></trkpt><trkpt lat="42.19008" lon="14.6451917"><ele>3.0</ele><time>2026-04-24T09:45:19.882Z</time></trkpt><trkpt lat="42.1901067" lon="14.6451133"><ele>3.0</ele><time>2026-04-24T09:45:20.883Z</time></trkpt><trkpt lat="42.1901533" lon="14.6449683"><ele>3.0</ele><time>2026-04-24T09:45:22.883Z</time></trkpt><trkpt lat="42.1901967" lon="14.6448517"><ele>3.0</ele><time>2026-04-24T09:45:24.883Z</time></trkpt><trkpt lat="42.19022" lon="14.6447617"><ele>3.0</ele><time>2026-04-24T09:45:26.882Z</time></trkpt><trkpt lat="42.1902367" lon="14.6446617"><ele>3.0</ele><time>2026-04-24T09:45:31.883Z</time></trkpt><trkpt lat="42.1903183" lon="14.6446117"><ele>3.0</ele><time>2026-04-24T09:45:34.883Z</time></trkpt><trkpt lat="42.1903917" lon="14.64458"><ele>3.0</ele><time>2026-04-24T09:45:36.882Z</time></trkpt><trkpt lat="42.19047" lon="14.6445617"><ele>3.0</ele><time>2026-04-24T09:45:38.883Z</time></trkpt><trkpt lat="42.1905483" lon="14.6445317"><ele>3.0</ele><time>2026-04-24T09:45:40.883Z</time></trkpt><trkpt lat="42.1906217" lon="14.6445"><ele>3.0</ele><time>2026-04-24T09:45:42.882Z</time></trkpt><trkpt lat="42.190685" lon="14.6444717"><ele>3.0</ele><time>2026-04-24T09:45:44.882Z</time></trkpt><trkpt lat="42.1907517" lon="14.6444483"><ele>2.8333333333333335</ele><time>2026-04-24T09:45:46.883Z</time></trkpt><trkpt lat="42.1908167" lon="14.6444333"><ele>2.6666666666666665</ele><time>2026-04-24T09:45:48.883Z</time></trkpt><trkpt lat="42.1909067" lon="14.6443883"><ele>2.5</ele><time>2026-04-24T09:45:51.882Z</time></trkpt><trkpt lat="42.190975" lon="14.6443617"><ele>2.333333333333333</ele><time>2026-04-24T09:45:53.883Z</time></trkpt><trkpt lat="42.1910417" lon="14.6443267"><ele>2.1666666666666665</ele><time>2026-04-24T09:45:55.882Z</time></trkpt><trkpt lat="42.1910983" lon="14.64425"><ele>2.0</ele><time>2026-04-24T09:45:57.883Z</time></trkpt><trkpt lat="42.1911567" lon="14.6441583"><ele>2.0</ele><time>2026-04-24T09:45:59.882Z</time></trkpt><trkpt lat="42.191215" lon="14.6440617"><ele>2.0</ele><time>2026-04-24T09:46:01.883Z</time></trkpt><trkpt lat="42.1912633" lon="14.6439733"><ele>2.0</ele><time>2026-04-24T09:46:03.883Z</time></trkpt><trkpt lat="42.1913233" lon="14.6438767"><ele>2.0</ele><time>2026-04-24T09:46:05.882Z</time></trkpt><trkpt lat="42.1913783" lon="14.6437633"><ele>2.0</ele><time>2026-04-24T09:46:07.883Z</time></trkpt><trkpt lat="42.191435" lon="14.64366"><ele>2.0</ele><time>2026-04-24T09:46:09.883Z</time></trkpt><trkpt lat="42.1914883" lon="14.64356"><ele>2.0</ele><time>2026-04-24T09:46:11.883Z</time></trkpt><trkpt lat="42.1915533" lon="14.6434733"><ele>2.0</ele><time>2026-04-24T09:46:13.883Z</time></trkpt><trkpt lat="42.191605" lon="14.6433767"><ele>2.0</ele><time>2026-04-24T09:46:15.882Z</time></trkpt><trkpt lat="42.1916783" lon="14.6433067"><ele>2.0</ele><time>2026-04-24T09:46:17.883Z</time></trkpt><trkpt lat="42.191755" lon="14.6432267"><ele>1.6</ele><time>2026-04-24T09:46:19.882Z</time></trkpt><trkpt lat="42.1918267" lon="14.6431433"><ele>1.2000000000000002</ele><time>2026-04-24T09:46:21.883Z</time></trkpt><trkpt lat="42.191895" lon="14.643055"><ele>0.8</ele><time>2026-04-24T09:46:23.883Z</time></trkpt><trkpt lat="42.1919617" lon="14.642965"><ele>0.4</ele><time>2026-04-24T09:46:25.882Z</time></trkpt><trkpt lat="42.192015" lon="14.64286"><ele>0.0</ele><time>2026-04-24T09:46:27.882Z</time></trkpt><trkpt lat="42.192075" lon="14.64276"><ele>0.0</ele><time>2026-04-24T09:46:29.883Z</time></trkpt><trkpt lat="42.1921433" lon="14.6426883"><ele>0.0</ele><time>2026-04-24T09:46:31.882Z</time></trkpt><trkpt lat="42.1922183" lon="14.6426533"><ele>0.0</ele><time>2026-04-24T09:46:33.883Z</time></trkpt><trkpt lat="42.1922867" lon="14.6426217"><ele>0.0</ele><time>2026-04-24T09:46:35.883Z</time></trkpt><trkpt lat="42.19233" lon="14.6425583"><ele>0.0</ele><time>2026-04-24T09:46:37.883Z</time></trkpt><trkpt lat="42.192355" lon="14.6424717"><ele>0.0</ele><time>2026-04-24T09:46:39.882Z</time></trkpt><trkpt lat="42.1923833" lon="14.6423717"><ele>0.0</ele><time>2026-04-24T09:46:41.883Z</time></trkpt><trkpt lat="42.192415" lon="14.642265"><ele>0.0</ele><time>2026-04-24T09:46:43.882Z</time></trkpt><trkpt lat="42.1924433" lon="14.6421583"><ele>0.0</ele><time>2026-04-24T09:46:45.883Z</time></trkpt><trkpt lat="42.1924667" lon="14.6420533"><ele>0.0</ele><time>2026-04-24T09:46:47.883Z</time></trkpt><trkpt lat="42.1924917" lon="14.6419633"><ele>0.0</ele><time>2026-04-24T09:46:49.882Z</time></trkpt><trkpt lat="42.1925083" lon="14.6418783"><ele>0.0</ele><time>2026-04-24T09:46:51.883Z</time></trkpt><trkpt lat="42.192525" lon="14.6417917"><ele>0.0</ele><time>2026-04-24T09:46:53.882Z</time></trkpt><trkpt lat="42.19255" lon="14.6416717"><ele>0.0</ele><time>2026-04-24T09:46:56.883Z</time></trkpt><trkpt lat="42.1925733" lon="14.641585"><ele>0.0</ele><time>2026-04-24T09:46:58.882Z</time></trkpt><trkpt lat="42.192615" lon="14.641475"><ele>0.0</ele><time>2026-04-24T09:47:01.882Z</time></trkpt><trkpt lat="42.1926567" lon="14.6413633"><ele>0.0</ele><time>2026-04-24T09:47:04.883Z</time></trkpt><trkpt lat="42.19268" lon="14.641275"><ele>0.0</ele><time>2026-04-24T09:47:06.883Z</time></trkpt><trkpt lat="42.1927017" lon="14.6411817"><ele>0.0</ele><time>2026-04-24T09:47:08.883Z</time></trkpt><trkpt lat="42.1927283" lon="14.6410833"><ele>0.0</ele><time>2026-04-24T09:47:10.882Z</time></trkpt><trkpt lat="42.1927533" lon="14.6409867"><ele>0.0</ele><time>2026-04-24T09:47:12.883Z</time></trkpt><trkpt lat="42.192775" lon="14.6408917"><ele>0.0</ele><time>2026-04-24T09:47:14.883Z</time></trkpt><trkpt lat="42.1927983" lon="14.6408017"><ele>0.0</ele><time>2026-04-24T09:47:16.882Z</time></trkpt><trkpt lat="42.1928233" lon="14.6407183"><ele>0.0</ele><time>2026-04-24T09:47:18.882Z</time></trkpt><trkpt lat="42.1928533" lon="14.6406033"><ele>0.0</ele><time>2026-04-24T09:47:21.883Z</time></trkpt><trkpt lat="42.1928783" lon="14.6405033"><ele>0.0</ele><time>2026-04-24T09:47:24.883Z</time></trkpt><trkpt lat="42.1929083" lon="14.6404033"><ele>0.0</ele><time>2026-04-24T09:47:27.882Z</time></trkpt><trkpt lat="42.1929283" lon="14.64032"><ele>0.0</ele><time>2026-04-24T09:47:29.882Z</time></trkpt><trkpt lat="42.1929517" lon="14.640235"><ele>0.0</ele><time>2026-04-24T09:47:31.883Z</time></trkpt><trkpt lat="42.192975" lon="14.6401467"><ele>0.0</ele><time>2026-04-24T09:47:33.882Z</time></trkpt><trkpt lat="42.1930017" lon="14.6400617"><ele>0.0</ele><time>2026-04-24T09:47:35.882Z</time></trkpt><trkpt lat="42.1930217" lon="14.6399783"><ele>-0.14285714285714285</ele><time>2026-04-24T09:47:37.883Z</time></trkpt><trkpt lat="42.1930433" lon="14.63989"><ele>-0.2857142857142857</ele><time>2026-04-24T09:47:39.883Z</time></trkpt><trkpt lat="42.1930683" lon="14.6398017"><ele>-0.42857142857142855</ele><time>2026-04-24T09:47:41.883Z</time></trkpt><trkpt lat="42.1930867" lon="14.63971"><ele>-0.5714285714285714</ele><time>2026-04-24T09:47:43.883Z</time></trkpt><trkpt lat="42.19311" lon="14.6396233"><ele>-0.7142857142857142</ele><time>2026-04-24T09:47:45.883Z</time></trkpt><trkpt lat="42.193135" lon="14.6395333"><ele>-0.8571428571428571</ele><time>2026-04-24T09:47:47.882Z</time></trkpt><trkpt lat="42.19316" lon="14.6394433"><ele>-1.0</ele><time>2026-04-24T09:47:49.883Z</time></trkpt><trkpt lat="42.1931833" lon="14.6393567"><ele>-0.9999999999999999</ele><time>2026-04-24T09:47:51.882Z</time></trkpt><trkpt lat="42.19322" lon="14.6392333"><ele>-1.0</ele><time>2026-04-24T09:47:54.882Z</time></trkpt><trkpt lat="42.1932417" lon="14.6391383"><ele>-1.0</ele><time>2026-04-24T09:47:56.882Z</time></trkpt><trkpt lat="42.1932633" lon="14.6390483"><ele>-1.0</ele><time>2026-04-24T09:47:58.883Z</time></trkpt><trkpt lat="42.1932867" lon="14.6389583"><ele>-0.9999999999999999</ele><time>2026-04-24T09:48:00.883Z</time></trkpt><trkpt lat="42.1933083" lon="14.63887"><ele>-1.0</ele><time>2026-04-24T09:48:02.883Z</time></trkpt><trkpt lat="42.1933317" lon="14.6387817"><ele>-0.9999999999999999</ele><time>2026-04-24T09:48:04.882Z</time></trkpt><trkpt lat="42.1933583" lon="14.6387"><ele>-1.0</ele><time>2026-04-24T09:48:06.883Z</time></trkpt><trkpt lat="42.19338" lon="14.6386167"><ele>-1.0</ele><time>2026-04-24T09:48:08.883Z</time></trkpt><trkpt lat="42.1934" lon="14.6385117"><ele>-1.0</ele><time>2026-04-24T09:48:11.883Z</time></trkpt><trkpt lat="42.19342" lon="14.63842"><ele>-0.9999999999999999</ele><time>2026-04-24T09:48:14.883Z</time></trkpt><trkpt lat="42.19344" lon="14.6383133"><ele>-1.0</ele><time>2026-04-24T09:48:17.883Z</time></trkpt><trkpt lat="42.1934767" lon="14.638195"><ele>-0.7142857142857142</ele><time>2026-04-24T09:48:20.882Z</time></trkpt><trkpt lat="42.193495" lon="14.6381133"><ele>-0.4285714285714285</ele><time>2026-04-24T09:48:22.883Z</time></trkpt><trkpt lat="42.19353" lon="14.6379967"><ele>-0.14285714285714285</ele><time>2026-04-24T09:48:25.883Z</time></trkpt><trkpt lat="42.1935533" lon="14.6379117"><ele>0.14285714285714285</ele><time>2026-04-24T09:48:27.883Z</time></trkpt><trkpt lat="42.1935783" lon="14.6378317"><ele>0.4285714285714285</ele><time>2026-04-24T09:48:29.882Z</time></trkpt><trkpt lat="42.193605" lon="14.6377483"><ele>0.7142857142857142</ele><time>2026-04-24T09:48:31.883Z</time></trkpt><trkpt lat="42.19363" lon="14.6376683"><ele>1.0</ele><time>2026-04-24T09:48:33.882Z</time></trkpt><trkpt lat="42.193655" lon="14.6375867"><ele>1.0</ele><time>2026-04-24T09:48:35.883Z</time></trkpt><trkpt lat="42.19368" lon="14.6375017"><ele>0.9999999999999999</ele><time>2026-04-24T09:48:37.883Z</time></trkpt><trkpt lat="42.1937" lon="14.6374067"><ele>1.0</ele><time>2026-04-24T09:48:39.883Z</time></trkpt><trkpt lat="42.193725" lon="14.6373133"><ele>1.0</ele><time>2026-04-24T09:48:41.883Z</time></trkpt><trkpt lat="42.19375" lon="14.6372267"><ele>0.9999999999999999</ele><time>2026-04-24T09:48:43.883Z</time></trkpt><trkpt lat="42.193775" lon="14.6371383"><ele>1.0</ele><time>2026-04-24T09:48:45.883Z</time></trkpt><trkpt lat="42.1937967" lon="14.6370483"><ele>1.0</ele><time>2026-04-24T09:48:47.882Z</time></trkpt><trkpt lat="42.19383" lon="14.6369683"><ele>1.1428571428571428</ele><time>2026-04-24T09:48:49.883Z</time></trkpt><trkpt lat="42.1938567" lon="14.6368767"><ele>1.2857142857142856</ele><time>2026-04-24T09:48:51.883Z</time></trkpt><trkpt lat="42.1938883" lon="14.6367983"><ele>1.4285714285714284</ele><time>2026-04-24T09:48:53.883Z</time></trkpt><trkpt lat="42.1939133" lon="14.6367133"><ele>1.5714285714285714</ele><time>2026-04-24T09:48:55.883Z</time></trkpt><trkpt lat="42.1939233" lon="14.6366133"><ele>1.714285714285714</ele><time>2026-04-24T09:48:57.883Z</time></trkpt><trkpt lat="42.1939533" lon="14.63653"><ele>1.857142857142857</ele><time>2026-04-24T09:48:59.883Z</time></trkpt><trkpt lat="42.1939783" lon="14.636445"><ele>2.0</ele><time>2026-04-24T09:49:01.882Z</time></trkpt><trkpt lat="42.194" lon="14.6363517"><ele>1.857142857142857</ele><time>2026-04-24T09:49:03.882Z</time></trkpt><trkpt lat="42.1940267" lon="14.6362583"><ele>1.714285714285714</ele><time>2026-04-24T09:49:05.883Z</time></trkpt><trkpt lat="42.1940567" lon="14.6361733"><ele>1.5714285714285714</ele><time>2026-04-24T09:49:07.883Z</time></trkpt><trkpt lat="42.194085" lon="14.636075"><ele>1.4285714285714284</ele><time>2026-04-24T09:49:09.883Z</time></trkpt><trkpt lat="42.19411" lon="14.6359917"><ele>1.2857142857142856</ele><time>2026-04-24T09:49:11.882Z</time></trkpt><trkpt lat="42.1941383" lon="14.6359017"><ele>1.1428571428571428</ele><time>2026-04-24T09:49:13.883Z</time></trkpt><trkpt lat="42.194165" lon="14.63581"><ele>1.0</ele><time>2026-04-24T09:49:15.883Z</time></trkpt><trkpt lat="42.1941817" lon="14.6357233"><ele>0.9999999999999999</ele><time>2026-04-24T09:49:17.883Z</time></trkpt><trkpt lat="42.194205" lon="14.6356283"><ele>1.0</ele><time>2026-04-24T09:49:19.883Z</time></trkpt><trkpt lat="42.1942367" lon="14.635535"><ele>1.0</ele><time>2026-04-24T09:49:21.883Z</time></trkpt><trkpt lat="42.1942667" lon="14.63544"><ele>1.0</ele><time>2026-04-24T09:49:23.882Z</time></trkpt><trkpt lat="42.1942917" lon="14.63533"><ele>0.9999999999999999</ele><time>2026-04-24T09:49:25.883Z</time></trkpt><trkpt lat="42.194315" lon="14.635235"><ele>1.0</ele><time>2026-04-24T09:49:27.883Z</time></trkpt><trkpt lat="42.194345" lon="14.6351533"><ele>1.1666666666666665</ele><time>2026-04-24T09:49:29.883Z</time></trkpt><trkpt lat="42.1943683" lon="14.63507"><ele>1.3333333333333333</ele><time>2026-04-24T09:49:31.883Z</time></trkpt><trkpt lat="42.1944017" lon="14.6349533"><ele>1.5</ele><time>2026-04-24T09:49:34.883Z</time></trkpt><trkpt lat="42.1944217" lon="14.634835"><ele>1.6666666666666665</ele><time>2026-04-24T09:49:37.882Z</time></trkpt><trkpt lat="42.1944483" lon="14.63473"><ele>1.8333333333333333</ele><time>2026-04-24T09:49:40.883Z</time></trkpt><trkpt lat="42.19447" lon="14.6346467"><ele>2.0</ele><time>2026-04-24T09:49:42.883Z</time></trkpt><trkpt lat="42.1945083" lon="14.6345367"><ele>2.333333333333333</ele><time>2026-04-24T09:49:45.883Z</time></trkpt><trkpt lat="42.1945467" lon="14.63444"><ele>2.6666666666666665</ele><time>2026-04-24T09:49:48.882Z</time></trkpt><trkpt lat="42.1945883" lon="14.6343367"><ele>3.0</ele><time>2026-04-24T09:49:51.883Z</time></trkpt><trkpt lat="42.1946267" lon="14.6342183"><ele>3.333333333333333</ele><time>2026-04-24T09:49:54.883Z</time></trkpt><trkpt lat="42.19465" lon="14.6341333"><ele>3.6666666666666665</ele><time>2026-04-24T09:49:56.883Z</time></trkpt><trkpt lat="42.1946717" lon="14.6340533"><ele>4.0</ele><time>2026-04-24T09:49:58.882Z</time></trkpt><trkpt lat="42.1946967" lon="14.6339517"><ele>4.0</ele><time>2026-04-24T09:50:01.883Z</time></trkpt><trkpt lat="42.1947217" lon="14.6338733"><ele>3.9999999999999996</ele><time>2026-04-24T09:50:03.883Z</time></trkpt><trkpt lat="42.1947467" lon="14.633795"><ele>4.0</ele><time>2026-04-24T09:50:05.882Z</time></trkpt><trkpt lat="42.19478" lon="14.6336783"><ele>4.0</ele><time>2026-04-24T09:50:08.883Z</time></trkpt><trkpt lat="42.1948133" lon="14.6335683"><ele>3.9999999999999996</ele><time>2026-04-24T09:50:11.882Z</time></trkpt><trkpt lat="42.19484" lon="14.6334767"><ele>4.0</ele><time>2026-04-24T09:50:14.883Z</time></trkpt><trkpt lat="42.19486" lon="14.6333883"><ele>4.0</ele><time>2026-04-24T09:50:17.883Z</time></trkpt><trkpt lat="42.1948883" lon="14.633295"><ele>4.166666666666666</ele><time>2026-04-24T09:50:20.883Z</time></trkpt><trkpt lat="42.19492" lon="14.633185"><ele>4.333333333333333</ele><time>2026-04-24T09:50:23.883Z</time></trkpt><trkpt lat="42.194945" lon="14.6331067"><ele>4.5</ele><time>2026-04-24T09:50:25.883Z</time></trkpt><trkpt lat="42.19497" lon="14.6329983"><ele>4.666666666666667</ele><time>2026-04-24T09:50:28.882Z</time></trkpt><trkpt lat="42.1950017" lon="14.6328883"><ele>4.833333333333334</ele><time>2026-04-24T09:50:31.883Z</time></trkpt><trkpt lat="42.195035" lon="14.6327733"><ele>5.0</ele><time>2026-04-24T09:50:34.883Z</time></trkpt><trkpt lat="42.195055" lon="14.63269"><ele>5.0</ele><time>2026-04-24T09:50:36.883Z</time></trkpt><trkpt lat="42.1950817" lon="14.6325783"><ele>5.0</ele><time>2026-04-24T09:50:39.883Z</time></trkpt><trkpt lat="42.1951083" lon="14.6324717"><ele>5.0</ele><time>2026-04-24T09:50:42.882Z</time></trkpt><trkpt lat="42.19514" lon="14.6323583"><ele>5.0</ele><time>2026-04-24T09:50:45.883Z</time></trkpt><trkpt lat="42.1951667" lon="14.6322783"><ele>5.0</ele><time>2026-04-24T09:50:47.882Z</time></trkpt><trkpt lat="42.195195" lon="14.6322"><ele>5.0</ele><time>2026-04-24T09:50:49.883Z</time></trkpt><trkpt lat="42.1952217" lon="14.6321217"><ele>5.0</ele><time>2026-04-24T09:50:51.883Z</time></trkpt><trkpt lat="42.1952417" lon="14.6320233"><ele>5.0</ele><time>2026-04-24T09:50:53.883Z</time></trkpt><trkpt lat="42.1952617" lon="14.631925"><ele>5.0</ele><time>2026-04-24T09:50:55.882Z</time></trkpt><trkpt lat="42.1952833" lon="14.6318267"><ele>5.0</ele><time>2026-04-24T09:50:57.883Z</time></trkpt><trkpt lat="42.1953067" lon="14.631735"><ele>5.0</ele><time>2026-04-24T09:50:59.882Z</time></trkpt><trkpt lat="42.1953333" lon="14.6316533"><ele>5.0</ele><time>2026-04-24T09:51:01.883Z</time></trkpt><trkpt lat="42.1953783" lon="14.6315483"><ele>4.857142857142857</ele><time>2026-04-24T09:51:04.883Z</time></trkpt><trkpt lat="42.195405" lon="14.6314683"><ele>4.714285714285714</ele><time>2026-04-24T09:51:06.882Z</time></trkpt><trkpt lat="42.19543" lon="14.63139"><ele>4.571428571428571</ele><time>2026-04-24T09:51:08.883Z</time></trkpt><trkpt lat="42.1954583" lon="14.6313"><ele>4.428571428571429</ele><time>2026-04-24T09:51:10.883Z</time></trkpt><trkpt lat="42.1954867" lon="14.6312167"><ele>4.285714285714286</ele><time>2026-04-24T09:51:12.883Z</time></trkpt><trkpt lat="42.1955083" lon="14.631125"><ele>4.142857142857142</ele><time>2026-04-24T09:51:14.883Z</time></trkpt><trkpt lat="42.195525" lon="14.6310333"><ele>4.0</ele><time>2026-04-24T09:51:16.882Z</time></trkpt><trkpt lat="42.195555" lon="14.6309467"><ele>3.9999999999999996</ele><time>2026-04-24T09:51:18.883Z</time></trkpt><trkpt lat="42.1955783" lon="14.6308517"><ele>4.0</ele><time>2026-04-24T09:51:20.883Z</time></trkpt><trkpt lat="42.1956067" lon="14.630755"><ele>4.0</ele><time>2026-04-24T09:51:22.883Z</time></trkpt><trkpt lat="42.19563" lon="14.6306567"><ele>4.0</ele><time>2026-04-24T09:51:24.883Z</time></trkpt><trkpt lat="42.1956533" lon="14.6305617"><ele>3.9999999999999996</ele><time>2026-04-24T09:51:26.883Z</time></trkpt><trkpt lat="42.1956883" lon="14.6304333"><ele>4.0</ele><time>2026-04-24T09:51:29.883Z</time></trkpt><trkpt lat="42.195715" lon="14.6303517"><ele>3.8571428571428568</ele><time>2026-04-24T09:51:31.883Z</time></trkpt><trkpt lat="42.1957483" lon="14.6302633"><ele>3.714285714285714</ele><time>2026-04-24T09:51:33.883Z</time></trkpt><trkpt lat="42.1957717" lon="14.63018"><ele>3.571428571428571</ele><time>2026-04-24T09:51:35.883Z</time></trkpt><trkpt lat="42.1957917" lon="14.6300867"><ele>3.4285714285714284</ele><time>2026-04-24T09:51:37.882Z</time></trkpt><trkpt lat="42.1958167" lon="14.6300067"><ele>3.2857142857142856</ele><time>2026-04-24T09:51:39.882Z</time></trkpt><trkpt lat="42.1958433" lon="14.62992"><ele>3.1428571428571423</ele><time>2026-04-24T09:51:41.883Z</time></trkpt><trkpt lat="42.1958633" lon="14.6298283"><ele>3.0</ele><time>2026-04-24T09:51:43.882Z</time></trkpt><trkpt lat="42.1958933" lon="14.6297433"><ele>2.9999999999999996</ele><time>2026-04-24T09:51:45.883Z</time></trkpt><trkpt lat="42.1959333" lon="14.6296283"><ele>3.0</ele><time>2026-04-24T09:51:48.883Z</time></trkpt><trkpt lat="42.1959617" lon="14.6295333"><ele>3.0</ele><time>2026-04-24T09:51:50.882Z</time></trkpt><trkpt lat="42.1959933" lon="14.6294567"><ele>3.0</ele><time>2026-04-24T09:51:52.883Z</time></trkpt><trkpt lat="42.1960233" lon="14.62938"><ele>3.0</ele><time>2026-04-24T09:51:54.883Z</time></trkpt><trkpt lat="42.1960533" lon="14.6292933"><ele>2.9999999999999996</ele><time>2026-04-24T09:51:56.882Z</time></trkpt><trkpt lat="42.1960767" lon="14.6291967"><ele>3.0</ele><time>2026-04-24T09:51:58.882Z</time></trkpt><trkpt lat="42.1960733" lon="14.6291017"><ele>3.1428571428571423</ele><time>2026-04-24T09:52:00.883Z</time></trkpt><trkpt lat="42.1960433" lon="14.6290267"><ele>3.2857142857142856</ele><time>2026-04-24T09:52:02.882Z</time></trkpt><trkpt lat="42.1960033" lon="14.6289483"><ele>3.4285714285714284</ele><time>2026-04-24T09:52:04.883Z</time></trkpt><trkpt lat="42.1959667" lon="14.6288733"><ele>3.571428571428571</ele><time>2026-04-24T09:52:06.883Z</time></trkpt><trkpt lat="42.1959333" lon="14.6287933"><ele>3.714285714285714</ele><time>2026-04-24T09:52:08.883Z</time></trkpt><trkpt lat="42.1959017" lon="14.6286983"><ele>3.8571428571428568</ele><time>2026-04-24T09:52:10.883Z</time></trkpt><trkpt lat="42.1958633" lon="14.628595"><ele>4.0</ele><time>2026-04-24T09:52:12.883Z</time></trkpt><trkpt lat="42.1958283" lon="14.6284917"><ele>3.9999999999999996</ele><time>2026-04-24T09:52:14.883Z</time></trkpt><trkpt lat="42.195785" lon="14.6283917"><ele>4.0</ele><time>2026-04-24T09:52:16.882Z</time></trkpt><trkpt lat="42.1957383" lon="14.62829"><ele>4.0</ele><time>2026-04-24T09:52:18.883Z</time></trkpt><trkpt lat="42.19569" lon="14.62819"><ele>4.0</ele><time>2026-04-24T09:52:20.883Z</time></trkpt><trkpt lat="42.1956417" lon="14.6280817"><ele>3.9999999999999996</ele><time>2026-04-24T09:52:22.883Z</time></trkpt><trkpt lat="42.19559" lon="14.62798"><ele>4.0</ele><time>2026-04-24T09:52:24.882Z</time></trkpt><trkpt lat="42.19554" lon="14.6278783"><ele>4.833333333333333</ele><time>2026-04-24T09:52:26.882Z</time></trkpt><trkpt lat="42.1954933" lon="14.6277783"><ele>5.666666666666666</ele><time>2026-04-24T09:52:28.882Z</time></trkpt><trkpt lat="42.1954567" lon="14.6276883"><ele>6.5</ele><time>2026-04-24T09:52:30.883Z</time></trkpt><trkpt lat="42.19543" lon="14.6275933"><ele>7.333333333333333</ele><time>2026-04-24T09:52:32.883Z</time></trkpt><trkpt lat="42.1953833" lon="14.6275333"><ele>8.166666666666666</ele><time>2026-04-24T09:52:34.883Z</time></trkpt><trkpt lat="42.1953267" lon="14.6274417"><ele>9.0</ele><time>2026-04-24T09:52:37.883Z</time></trkpt><trkpt lat="42.1952933" lon="14.6273483"><ele>9.0</ele><time>2026-04-24T09:52:40.882Z</time></trkpt><trkpt lat="42.19529" lon="14.6272417"><ele>9.0</ele><time>2026-04-24T09:52:43.883Z</time></trkpt><trkpt lat="42.195285" lon="14.627135"><ele>9.0</ele><time>2026-04-24T09:52:46.882Z</time></trkpt><trkpt lat="42.195275" lon="14.62704"><ele>9.0</ele><time>2026-04-24T09:52:49.882Z</time></trkpt><trkpt lat="42.1952733" lon="14.6269433"><ele>9.0</ele><time>2026-04-24T09:52:52.883Z</time></trkpt><trkpt lat="42.1952783" lon="14.6268517"><ele>9.0</ele><time>2026-04-24T09:52:54.883Z</time></trkpt><trkpt lat="42.195295" lon="14.62673"><ele>9.0</ele><time>2026-04-24T09:52:57.883Z</time></trkpt><trkpt lat="42.1953167" lon="14.6266467"><ele>9.0</ele><time>2026-04-24T09:52:59.883Z</time></trkpt><trkpt lat="42.1953667" lon="14.6265517"><ele>9.0</ele><time>2026-04-24T09:53:02.883Z</time></trkpt><trkpt lat="42.19541" lon="14.626475"><ele>9.0</ele><time>2026-04-24T09:53:04.883Z</time></trkpt><trkpt lat="42.19546" lon="14.6264017"><ele>9.0</ele><time>2026-04-24T09:53:06.883Z</time></trkpt><trkpt lat="42.19551" lon="14.6263217"><ele>9.0</ele><time>2026-04-24T09:53:08.882Z</time></trkpt><trkpt lat="42.1955633" lon="14.6262383"><ele>9.0</ele><time>2026-04-24T09:53:10.883Z</time></trkpt><trkpt lat="42.1956117" lon="14.6261633"><ele>9.0</ele><time>2026-04-24T09:53:12.882Z</time></trkpt><trkpt lat="42.195655" lon="14.6260883"><ele>9.0</ele><time>2026-04-24T09:53:14.883Z</time></trkpt><trkpt lat="42.1956983" lon="14.62598"><ele>9.0</ele><time>2026-04-24T09:53:17.883Z</time></trkpt><trkpt lat="42.19572" lon="14.6258567"><ele>9.0</ele><time>2026-04-24T09:53:20.883Z</time></trkpt><trkpt lat="42.19573" lon="14.6257617"><ele>9.0</ele><time>2026-04-24T09:53:22.882Z</time></trkpt><trkpt lat="42.1957333" lon="14.6256667"><ele>9.000000000000002</ele><time>2026-04-24T09:53:24.883Z</time></trkpt><trkpt lat="42.1957417" lon="14.6255733"><ele>9.0</ele><time>2026-04-24T09:53:26.883Z</time></trkpt><trkpt lat="42.19574" lon="14.6254783"><ele>9.0</ele><time>2026-04-24T09:53:28.883Z</time></trkpt><trkpt lat="42.1957433" lon="14.6253867"><ele>9.0</ele><time>2026-04-24T09:53:30.882Z</time></trkpt><trkpt lat="42.195745" lon="14.6253017"><ele>9.0</ele><time>2026-04-24T09:53:32.882Z</time></trkpt><trkpt lat="42.1957417" lon="14.6252167"><ele>9.000000000000002</ele><time>2026-04-24T09:53:34.883Z</time></trkpt><trkpt lat="42.1957433" lon="14.6251317"><ele>9.0</ele><time>2026-04-24T09:53:36.883Z</time></trkpt><trkpt lat="42.1957417" lon="14.6250067"><ele>9.000000000000002</ele><time>2026-04-24T09:53:39.883Z</time></trkpt><trkpt lat="42.195745" lon="14.62492"><ele>9.0</ele><time>2026-04-24T09:53:41.882Z</time></trkpt><trkpt lat="42.195745" lon="14.62483"><ele>9.0</ele><time>2026-04-24T09:53:43.883Z</time></trkpt><trkpt lat="42.1957433" lon="14.624745"><ele>9.0</ele><time>2026-04-24T09:53:45.883Z</time></trkpt><trkpt lat="42.1957383" lon="14.62466"><ele>9.0</ele><time>2026-04-24T09:53:47.883Z</time></trkpt><trkpt lat="42.1957283" lon="14.62454"><ele>9.000000000000002</ele><time>2026-04-24T09:53:50.883Z</time></trkpt><trkpt lat="42.1957083" lon="14.6244183"><ele>9.0</ele><time>2026-04-24T09:53:53.883Z</time></trkpt><trkpt lat="42.195685" lon="14.6243317"><ele>9.5</ele><time>2026-04-24T09:53:55.882Z</time></trkpt><trkpt lat="42.1956417" lon="14.62422"><ele>10.0</ele><time>2026-04-24T09:53:58.883Z</time></trkpt><trkpt lat="42.1956417" lon="14.6241067"><ele>10.5</ele><time>2026-04-24T09:54:01.883Z</time></trkpt><trkpt lat="42.1956233" lon="14.624025"><ele>11.0</ele><time>2026-04-24T09:54:03.883Z</time></trkpt><trkpt lat="42.1955867" lon="14.6239217"><ele>11.5</ele><time>2026-04-24T09:54:06.883Z</time></trkpt><trkpt lat="42.1955617" lon="14.6238183"><ele>12.0</ele><time>2026-04-24T09:54:09.883Z</time></trkpt><trkpt lat="42.19554" lon="14.62372"><ele>12.166666666666666</ele><time>2026-04-24T09:54:12.882Z</time></trkpt><trkpt lat="42.195525" lon="14.6236267"><ele>12.333333333333332</ele><time>2026-04-24T09:54:15.882Z</time></trkpt><trkpt lat="42.1955117" lon="14.6235183"><ele>12.5</ele><time>2026-04-24T09:54:18.883Z</time></trkpt><trkpt lat="42.1954933" lon="14.6234"><ele>12.666666666666666</ele><time>2026-04-24T09:54:21.883Z</time></trkpt><trkpt lat="42.19548" lon="14.623285"><ele>12.833333333333332</ele><time>2026-04-24T09:54:24.883Z</time></trkpt><trkpt lat="42.1954633" lon="14.6231717"><ele>13.0</ele><time>2026-04-24T09:54:27.882Z</time></trkpt><trkpt lat="42.195435" lon="14.623055"><ele>12.999999999999998</ele><time>2026-04-24T09:54:30.883Z</time></trkpt><trkpt lat="42.1954067" lon="14.62294"><ele>13.0</ele><time>2026-04-24T09:54:33.882Z</time></trkpt><trkpt lat="42.1953683" lon="14.622835"><ele>13.0</ele><time>2026-04-24T09:54:36.882Z</time></trkpt><trkpt lat="42.1953233" lon="14.6227283"><ele>13.0</ele><time>2026-04-24T09:54:39.883Z</time></trkpt><trkpt lat="42.1952883" lon="14.6226517"><ele>12.999999999999998</ele><time>2026-04-24T09:54:41.883Z</time></trkpt><trkpt lat="42.195245" lon="14.62257"><ele>13.0</ele><time>2026-04-24T09:54:43.883Z</time></trkpt><trkpt lat="42.1951883" lon="14.6224717"><ele>12.499999999999998</ele><time>2026-04-24T09:54:46.882Z</time></trkpt><trkpt lat="42.1951633" lon="14.6223883"><ele>12.0</ele><time>2026-04-24T09:54:49.882Z</time></trkpt><trkpt lat="42.195125" lon="14.6223017"><ele>11.5</ele><time>2026-04-24T09:54:53.883Z</time></trkpt><trkpt lat="42.1950667" lon="14.6222217"><ele>11.0</ele><time>2026-04-24T09:54:56.883Z</time></trkpt><trkpt lat="42.1950167" lon="14.6221317"><ele>10.5</ele><time>2026-04-24T09:54:59.883Z</time></trkpt><trkpt lat="42.1949617" lon="14.6220317"><ele>10.0</ele><time>2026-04-24T09:55:02.882Z</time></trkpt><trkpt lat="42.194895" lon="14.62194"><ele>10.0</ele><time>2026-04-24T09:55:05.883Z</time></trkpt><trkpt lat="42.1948517" lon="14.6218767"><ele>10.0</ele><time>2026-04-24T09:55:07.883Z</time></trkpt><trkpt lat="42.1947883" lon="14.6217883"><ele>10.0</ele><time>2026-04-24T09:55:10.883Z</time></trkpt><trkpt lat="42.19474" lon="14.62169"><ele>10.0</ele><time>2026-04-24T09:55:13.883Z</time></trkpt><trkpt lat="42.1946767" lon="14.6215983"><ele>10.0</ele><time>2026-04-24T09:55:16.882Z</time></trkpt><trkpt lat="42.1946217" lon="14.621515"><ele>10.0</ele><time>2026-04-24T09:55:19.883Z</time></trkpt><trkpt lat="42.1945817" lon="14.6214183"><ele>10.5</ele><time>2026-04-24T09:55:22.883Z</time></trkpt><trkpt lat="42.1945433" lon="14.6213217"><ele>11.0</ele><time>2026-04-24T09:55:25.883Z</time></trkpt><trkpt lat="42.1944933" lon="14.6212167"><ele>11.5</ele><time>2026-04-24T09:55:28.883Z</time></trkpt><trkpt lat="42.1944633" lon="14.621105"><ele>12.0</ele><time>2026-04-24T09:55:31.883Z</time></trkpt><trkpt lat="42.194435" lon="14.6209967"><ele>12.499999999999998</ele><time>2026-04-24T09:55:34.882Z</time></trkpt><trkpt lat="42.1944117" lon="14.620915"><ele>13.0</ele><time>2026-04-24T09:55:36.883Z</time></trkpt><trkpt lat="42.1943817" lon="14.6208333"><ele>12.999999999999998</ele><time>2026-04-24T09:55:38.883Z</time></trkpt><trkpt lat="42.1943533" lon="14.6207567"><ele>13.0</ele><time>2026-04-24T09:55:40.882Z</time></trkpt><trkpt lat="42.1943167" lon="14.620645"><ele>13.0</ele><time>2026-04-24T09:55:43.883Z</time></trkpt><trkpt lat="42.19428" lon="14.6205333"><ele>13.0</ele><time>2026-04-24T09:55:46.883Z</time></trkpt><trkpt lat="42.1942583" lon="14.6204167"><ele>12.999999999999998</ele><time>2026-04-24T09:55:49.883Z</time></trkpt><trkpt lat="42.1942233" lon="14.6203067"><ele>13.0</ele><time>2026-04-24T09:55:52.882Z</time></trkpt><trkpt lat="42.194195" lon="14.62019"><ele>12.999999999999998</ele><time>2026-04-24T09:55:55.883Z</time></trkpt><trkpt lat="42.1941667" lon="14.6200733"><ele>13.0</ele><time>2026-04-24T09:55:58.882Z</time></trkpt><trkpt lat="42.194135" lon="14.6199583"><ele>13.0</ele><time>2026-04-24T09:56:01.883Z</time></trkpt><trkpt lat="42.1940967" lon="14.61985"><ele>13.0</ele><time>2026-04-24T09:56:04.883Z</time></trkpt><trkpt lat="42.194065" lon="14.6197367"><ele>12.999999999999998</ele><time>2026-04-24T09:56:07.883Z</time></trkpt><trkpt lat="42.1940483" lon="14.6196267"><ele>13.0</ele><time>2026-04-24T09:56:10.883Z</time></trkpt><trkpt lat="42.1940167" lon="14.61951"><ele>16.5</ele><time>2026-04-24T09:56:13.883Z</time></trkpt><trkpt lat="42.1939883" lon="14.6194233"><ele>20.0</ele><time>2026-04-24T09:56:15.883Z</time></trkpt><trkpt lat="42.1939617" lon="14.6193317"><ele>23.5</ele><time>2026-04-24T09:56:17.882Z</time></trkpt><trkpt lat="42.1939367" lon="14.619245"><ele>27.0</ele><time>2026-04-24T09:56:19.883Z</time></trkpt><trkpt lat="42.1939" lon="14.6191333"><ele>30.500000000000004</ele><time>2026-04-24T09:56:22.883Z</time></trkpt><trkpt lat="42.1938733" lon="14.6190267"><ele>34.0</ele><time>2026-04-24T09:56:25.883Z</time></trkpt><trkpt lat="42.1938483" lon="14.618935"><ele>34.0</ele><time>2026-04-24T09:56:28.882Z</time></trkpt><trkpt lat="42.193825" lon="14.6188233"><ele>34.0</ele><time>2026-04-24T09:56:31.883Z</time></trkpt><trkpt lat="42.1938083" lon="14.6187217"><ele>34.0</ele><time>2026-04-24T09:56:34.883Z</time></trkpt><trkpt lat="42.1937983" lon="14.6186083"><ele>34.0</ele><time>2026-04-24T09:56:37.882Z</time></trkpt><trkpt lat="42.19378" lon="14.6184933"><ele>34.0</ele><time>2026-04-24T09:56:40.882Z</time></trkpt><trkpt lat="42.19377" lon="14.61837"><ele>34.0</ele><time>2026-04-24T09:56:43.883Z</time></trkpt><trkpt lat="42.19376" lon="14.61825"><ele>32.833333333333336</ele><time>2026-04-24T09:56:46.883Z</time></trkpt><trkpt lat="42.1937567" lon="14.61813"><ele>31.666666666666668</ele><time>2026-04-24T09:56:49.883Z</time></trkpt><trkpt lat="42.1937383" lon="14.6180167"><ele>30.5</ele><time>2026-04-24T09:56:52.883Z</time></trkpt><trkpt lat="42.1937067" lon="14.6179317"><ele>29.333333333333336</ele><time>2026-04-24T09:56:56.882Z</time></trkpt><trkpt lat="42.1936967" lon="14.617825"><ele>28.166666666666668</ele><time>2026-04-24T09:57:00.883Z</time></trkpt><trkpt lat="42.1936917" lon="14.6177017"><ele>27.0</ele><time>2026-04-24T09:57:03.883Z</time></trkpt><trkpt lat="42.1936917" lon="14.6176033"><ele>25.714285714285715</ele><time>2026-04-24T09:57:05.883Z</time></trkpt><trkpt lat="42.1936867" lon="14.6174983"><ele>24.428571428571427</ele><time>2026-04-24T09:57:07.883Z</time></trkpt><trkpt lat="42.1936683" lon="14.6174133"><ele>23.142857142857146</ele><time>2026-04-24T09:57:09.882Z</time></trkpt><trkpt lat="42.1936417" lon="14.61733"><ele>21.857142857142858</ele><time>2026-04-24T09:57:11.883Z</time></trkpt><trkpt lat="42.1936067" lon="14.6172533"><ele>20.571428571428573</ele><time>2026-04-24T09:57:13.883Z</time></trkpt><trkpt lat="42.193535" lon="14.61719"><ele>19.28571428571429</ele><time>2026-04-24T09:57:16.883Z</time></trkpt><trkpt lat="42.193475" lon="14.6171517"><ele>18.0</ele><time>2026-04-24T09:57:18.883Z</time></trkpt><trkpt lat="42.193405" lon="14.6171483"><ele>18.000000000000004</ele><time>2026-04-24T09:57:20.882Z</time></trkpt><trkpt lat="42.1933333" lon="14.61716"><ele>18.0</ele><time>2026-04-24T09:57:22.883Z</time></trkpt><trkpt lat="42.19327" lon="14.6171817"><ele>18.0</ele><time>2026-04-24T09:57:24.883Z</time></trkpt><trkpt lat="42.19321" lon="14.61721"><ele>18.0</ele><time>2026-04-24T09:57:26.883Z</time></trkpt><trkpt lat="42.1931483" lon="14.6172367"><ele>18.0</ele><time>2026-04-24T09:57:28.883Z</time></trkpt><trkpt lat="42.193085" lon="14.61726"><ele>18.000000000000004</ele><time>2026-04-24T09:57:30.883Z</time></trkpt><trkpt lat="42.1930233" lon="14.61728"><ele>18.0</ele><time>2026-04-24T09:57:32.883Z</time></trkpt><trkpt lat="42.1929483" lon="14.61731"><ele>18.666666666666668</ele><time>2026-04-24T09:57:35.882Z</time></trkpt><trkpt lat="42.1928683" lon="14.6173417"><ele>19.333333333333332</ele><time>2026-04-24T09:57:38.883Z</time></trkpt><trkpt lat="42.1927783" lon="14.6173817"><ele>20.0</ele><time>2026-04-24T09:57:41.883Z</time></trkpt><trkpt lat="42.1927133" lon="14.6174183"><ele>20.666666666666664</ele><time>2026-04-24T09:57:43.882Z</time></trkpt><trkpt lat="42.1926483" lon="14.6174717"><ele>21.333333333333332</ele><time>2026-04-24T09:57:46.883Z</time></trkpt><trkpt lat="42.19258" lon="14.6175"><ele>22.0</ele><time>2026-04-24T09:57:49.883Z</time></trkpt><trkpt lat="42.1925133" lon="14.6175217"><ele>22.0</ele><time>2026-04-24T09:57:52.883Z</time></trkpt><trkpt lat="42.1924417" lon="14.61753"><ele>22.0</ele><time>2026-04-24T09:57:55.882Z</time></trkpt><trkpt lat="42.1923667" lon="14.617515"><ele>22.0</ele><time>2026-04-24T09:57:58.882Z</time></trkpt><trkpt lat="42.1923" lon="14.6174817"><ele>22.0</ele><time>2026-04-24T09:58:01.882Z</time></trkpt><trkpt lat="42.1922317" lon="14.6174317"><ele>22.0</ele><time>2026-04-24T09:58:04.882Z</time></trkpt><trkpt lat="42.1921633" lon="14.6173633"><ele>22.0</ele><time>2026-04-24T09:58:07.882Z</time></trkpt><trkpt lat="42.1921033" lon="14.6172783"><ele>21.666666666666664</ele><time>2026-04-24T09:58:10.881Z</time></trkpt><trkpt lat="42.1920517" lon="14.61719"><ele>21.333333333333332</ele><time>2026-04-24T09:58:13.881Z</time></trkpt><trkpt lat="42.19199" lon="14.617115"><ele>21.0</ele><time>2026-04-24T09:58:16.882Z</time></trkpt><trkpt lat="42.1919433" lon="14.6170383"><ele>20.666666666666668</ele><time>2026-04-24T09:58:19.882Z</time></trkpt><trkpt lat="42.19189" lon="14.6169633"><ele>20.333333333333336</ele><time>2026-04-24T09:58:22.881Z</time></trkpt><trkpt lat="42.1918383" lon="14.6168917"><ele>20.0</ele><time>2026-04-24T09:58:25.881Z</time></trkpt><trkpt lat="42.1917917" lon="14.6168233"><ele>20.0</ele><time>2026-04-24T09:58:28.881Z</time></trkpt><trkpt lat="42.1917383" lon="14.616735"><ele>20.0</ele><time>2026-04-24T09:58:32.882Z</time></trkpt><trkpt lat="42.1916867" lon="14.6166633"><ele>20.0</ele><time>2026-04-24T09:58:35.881Z</time></trkpt><trkpt lat="42.1916433" lon="14.6165617"><ele>20.0</ele><time>2026-04-24T09:58:38.882Z</time></trkpt><trkpt lat="42.19161" lon="14.616465"><ele>20.0</ele><time>2026-04-24T09:58:41.882Z</time></trkpt><trkpt lat="42.1915483" lon="14.6163733"><ele>20.0</ele><time>2026-04-24T09:58:44.881Z</time></trkpt><trkpt lat="42.1914867" lon="14.6162767"><ele>20.428571428571427</ele><time>2026-04-24T09:58:47.882Z</time></trkpt><trkpt lat="42.1914367" lon="14.616185"><ele>20.857142857142858</ele><time>2026-04-24T09:58:50.882Z</time></trkpt><trkpt lat="42.1914067" lon="14.6160967"><ele>21.285714285714285</ele><time>2026-04-24T09:58:53.882Z</time></trkpt><trkpt lat="42.19137" lon="14.616015"><ele>21.714285714285715</ele><time>2026-04-24T09:58:56.881Z</time></trkpt><trkpt lat="42.1913367" lon="14.6159283"><ele>22.142857142857142</ele><time>2026-04-24T09:58:59.882Z</time></trkpt><trkpt lat="42.19131" lon="14.6158467"><ele>22.571428571428573</ele><time>2026-04-24T09:59:03.882Z</time></trkpt><trkpt lat="42.1912617" lon="14.6157733"><ele>23.0</ele><time>2026-04-24T09:59:06.882Z</time></trkpt><trkpt lat="42.1912167" lon="14.6157"><ele>23.0</ele><time>2026-04-24T09:59:09.882Z</time></trkpt><trkpt lat="42.1911733" lon="14.6156317"><ele>23.0</ele><time>2026-04-24T09:59:12.882Z</time></trkpt><trkpt lat="42.1911383" lon="14.6155367"><ele>23.0</ele><time>2026-04-24T09:59:15.882Z</time></trkpt><trkpt lat="42.19111" lon="14.61546"><ele>23.0</ele><time>2026-04-24T09:59:18.882Z</time></trkpt><trkpt lat="42.1910867" lon="14.615375"><ele>23.0</ele><time>2026-04-24T09:59:22.882Z</time></trkpt><trkpt lat="42.1912017" lon="14.6151867"><ele>23.0</ele><time>2026-04-24T10:00:27.136Z</time></trkpt><trkpt lat="42.19108" lon="14.6152717"><ele>23.0</ele><time>2026-04-24T10:00:29.385Z</time></trkpt><trkpt lat="42.1910467" lon="14.61538"><ele>23.0</ele><time>2026-04-24T10:01:49.884Z</time></trkpt><trkpt lat="42.1910667" lon="14.6154717"><ele>23.0</ele><time>2026-04-24T10:01:53.884Z</time></trkpt><trkpt lat="42.191095" lon="14.6155717"><ele>23.0</ele><time>2026-04-24T10:01:57.885Z</time></trkpt><trkpt lat="42.1911183" lon="14.615655"><ele>23.0</ele><time>2026-04-24T10:02:00.885Z</time></trkpt><trkpt lat="42.19114" lon="14.6157367"><ele>23.0</ele><time>2026-04-24T10:02:04.885Z</time></trkpt><trkpt lat="42.191085" lon="14.6157933"><ele>23.0</ele><time>2026-04-24T10:02:13.884Z</time></trkpt><trkpt lat="42.1910133" lon="14.6157767"><ele>23.0</ele><time>2026-04-24T10:02:18.885Z</time></trkpt><trkpt lat="42.1909333" lon="14.6157933"><ele>23.0</ele><time>2026-04-24T10:02:23.885Z</time></trkpt><trkpt lat="42.19087" lon="14.6157983"><ele>23.0</ele><time>2026-04-24T10:02:27.885Z</time></trkpt><trkpt lat="42.1908033" lon="14.615775"><ele>23.0</ele><time>2026-04-24T10:02:31.885Z</time></trkpt><trkpt lat="42.1907283" lon="14.6157817"><ele>23.0</ele><time>2026-04-24T10:02:35.885Z</time></trkpt><trkpt lat="42.190665" lon="14.6157767"><ele>24.166666666666668</ele><time>2026-04-24T10:02:39.885Z</time></trkpt><trkpt lat="42.190595" lon="14.6157583"><ele>25.333333333333336</ele><time>2026-04-24T10:02:42.884Z</time></trkpt><trkpt lat="42.190515" lon="14.61573"><ele>26.5</ele><time>2026-04-24T10:02:45.885Z</time></trkpt><trkpt lat="42.1904317" lon="14.6157083"><ele>27.666666666666668</ele><time>2026-04-24T10:02:48.884Z</time></trkpt><trkpt lat="42.1903467" lon="14.6156933"><ele>28.833333333333332</ele><time>2026-04-24T10:02:51.884Z</time></trkpt><trkpt lat="42.190265" lon="14.6156967"><ele>30.0</ele><time>2026-04-24T10:02:54.885Z</time></trkpt><trkpt lat="42.1901833" lon="14.6157067"><ele>30.0</ele><time>2026-04-24T10:02:57.885Z</time></trkpt><trkpt lat="42.190105" lon="14.6157217"><ele>30.0</ele><time>2026-04-24T10:03:00.884Z</time></trkpt><trkpt lat="42.1900367" lon="14.6157433"><ele>30.0</ele><time>2026-04-24T10:03:03.885Z</time></trkpt><trkpt lat="42.1899717" lon="14.61576"><ele>30.0</ele><time>2026-04-24T10:03:06.884Z</time></trkpt><trkpt lat="42.18991" lon="14.6157817"><ele>30.0</ele><time>2026-04-24T10:03:09.884Z</time></trkpt><trkpt lat="42.1898467" lon="14.6158017"><ele>30.0</ele><time>2026-04-24T10:03:12.884Z</time></trkpt><trkpt lat="42.18978" lon="14.6158083"><ele>30.0</ele><time>2026-04-24T10:03:15.885Z</time></trkpt><trkpt lat="42.1897117" lon="14.6158133"><ele>30.714285714285715</ele><time>2026-04-24T10:03:18.885Z</time></trkpt><trkpt lat="42.1896433" lon="14.6157933"><ele>31.428571428571427</ele><time>2026-04-24T10:03:21.885Z</time></trkpt><trkpt lat="42.189565" lon="14.61577"><ele>32.14285714285714</ele><time>2026-04-24T10:03:24.885Z</time></trkpt><trkpt lat="42.1894883" lon="14.6157433"><ele>32.85714285714286</ele><time>2026-04-24T10:03:27.884Z</time></trkpt><trkpt lat="42.1894217" lon="14.6157117"><ele>33.57142857142857</ele><time>2026-04-24T10:03:30.885Z</time></trkpt><trkpt lat="42.1893633" lon="14.6156667"><ele>34.285714285714285</ele><time>2026-04-24T10:03:33.884Z</time></trkpt><trkpt lat="42.189295" lon="14.6156367"><ele>35.0</ele><time>2026-04-24T10:03:36.884Z</time></trkpt><trkpt lat="42.18923" lon="14.6156117"><ele>35.0</ele><time>2026-04-24T10:03:38.885Z</time></trkpt><trkpt lat="42.1891533" lon="14.6155733"><ele>35.0</ele><time>2026-04-24T10:03:40.885Z</time></trkpt><trkpt lat="42.1890633" lon="14.615535"><ele>35.0</ele><time>2026-04-24T10:03:42.884Z</time></trkpt><trkpt lat="42.1889617" lon="14.61547"><ele>35.0</ele><time>2026-04-24T10:03:44.884Z</time></trkpt><trkpt lat="42.1888667" lon="14.615425"><ele>35.0</ele><time>2026-04-24T10:03:46.885Z</time></trkpt><trkpt lat="42.1887883" lon="14.6153833"><ele>35.0</ele><time>2026-04-24T10:03:48.884Z</time></trkpt><trkpt lat="42.188715" lon="14.615345"><ele>35.0</ele><time>2026-04-24T10:03:50.885Z</time></trkpt><trkpt lat="42.1886517" lon="14.6152983"><ele>35.0</ele><time>2026-04-24T10:03:52.885Z</time></trkpt><trkpt lat="42.1885917" lon="14.61526"><ele>35.0</ele><time>2026-04-24T10:03:54.884Z</time></trkpt><trkpt lat="42.1885117" lon="14.615195"><ele>35.0</ele><time>2026-04-24T10:03:57.885Z</time></trkpt><trkpt lat="42.1884567" lon="14.6151517"><ele>35.0</ele><time>2026-04-24T10:03:59.884Z</time></trkpt><trkpt lat="42.188385" lon="14.6150817"><ele>35.0</ele><time>2026-04-24T10:04:02.885Z</time></trkpt><trkpt lat="42.1883167" lon="14.6150083"><ele>35.0</ele><time>2026-04-24T10:04:05.885Z</time></trkpt><trkpt lat="42.18824" lon="14.614935"><ele>35.0</ele><time>2026-04-24T10:04:08.885Z</time></trkpt><trkpt lat="42.188185" lon="14.6148917"><ele>35.0</ele><time>2026-04-24T10:04:10.884Z</time></trkpt><trkpt lat="42.1881267" lon="14.6148017"><ele>35.0</ele><time>2026-04-24T10:04:13.885Z</time></trkpt><trkpt lat="42.188075" lon="14.61474"><ele>35.0</ele><time>2026-04-24T10:04:15.885Z</time></trkpt><trkpt lat="42.1880217" lon="14.6146933"><ele>35.166666666666664</ele><time>2026-04-24T10:04:17.885Z</time></trkpt><trkpt lat="42.187945" lon="14.61462"><ele>35.33333333333333</ele><time>2026-04-24T10:04:20.884Z</time></trkpt><trkpt lat="42.187865" lon="14.6145517"><ele>35.5</ele><time>2026-04-24T10:04:23.884Z</time></trkpt><trkpt lat="42.18781" lon="14.61451"><ele>35.666666666666664</ele><time>2026-04-24T10:04:25.885Z</time></trkpt><trkpt lat="42.1877283" lon="14.61445"><ele>35.833333333333336</ele><time>2026-04-24T10:04:28.884Z</time></trkpt><trkpt lat="42.1876717" lon="14.6144067"><ele>36.0</ele><time>2026-04-24T10:04:30.885Z</time></trkpt><trkpt lat="42.1876133" lon="14.6143667"><ele>36.0</ele><time>2026-04-24T10:04:32.885Z</time></trkpt><trkpt lat="42.1875283" lon="14.6143233"><ele>36.0</ele><time>2026-04-24T10:04:35.885Z</time></trkpt><trkpt lat="42.1874483" lon="14.6142867"><ele>36.0</ele><time>2026-04-24T10:04:38.885Z</time></trkpt><trkpt lat="42.1873633" lon="14.6142533"><ele>36.0</ele><time>2026-04-24T10:04:41.884Z</time></trkpt><trkpt lat="42.1872767" lon="14.61421"><ele>36.0</ele><time>2026-04-24T10:04:44.885Z</time></trkpt><trkpt lat="42.1872183" lon="14.6141683"><ele>36.0</ele><time>2026-04-24T10:04:46.885Z</time></trkpt><trkpt lat="42.1871433" lon="14.6141033"><ele>39.5</ele><time>2026-04-24T10:04:49.885Z</time></trkpt><trkpt lat="42.1870717" lon="14.6140433"><ele>43.0</ele><time>2026-04-24T10:04:52.885Z</time></trkpt><trkpt lat="42.187005" lon="14.6139883"><ele>46.5</ele><time>2026-04-24T10:04:55.885Z</time></trkpt><trkpt lat="42.1869517" lon="14.6139067"><ele>50.0</ele><time>2026-04-24T10:04:58.885Z</time></trkpt><trkpt lat="42.1868933" lon="14.6138483"><ele>53.5</ele><time>2026-04-24T10:05:01.885Z</time></trkpt><trkpt lat="42.18683" lon="14.61378"><ele>57.0</ele><time>2026-04-24T10:05:04.885Z</time></trkpt><trkpt lat="42.1867733" lon="14.6136933"><ele>57.166666666666664</ele><time>2026-04-24T10:05:07.885Z</time></trkpt><trkpt lat="42.1867167" lon="14.6136183"><ele>57.33333333333333</ele><time>2026-04-24T10:05:10.885Z</time></trkpt><trkpt lat="42.1866617" lon="14.6135417"><ele>57.5</ele><time>2026-04-24T10:05:13.885Z</time></trkpt><trkpt lat="42.1866" lon="14.6134833"><ele>57.666666666666664</ele><time>2026-04-24T10:05:16.885Z</time></trkpt><trkpt lat="42.1865467" lon="14.613415"><ele>57.83333333333333</ele><time>2026-04-24T10:05:19.884Z</time></trkpt><trkpt lat="42.1864917" lon="14.6133517"><ele>58.0</ele><time>2026-04-24T10:05:22.884Z</time></trkpt><trkpt lat="42.1864117" lon="14.6132917"><ele>58.00000000000001</ele><time>2026-04-24T10:05:25.885Z</time></trkpt><trkpt lat="42.1863433" lon="14.613245"><ele>58.0</ele><time>2026-04-24T10:05:28.885Z</time></trkpt><trkpt lat="42.18629" lon="14.6131917"><ele>58.00000000000001</ele><time>2026-04-24T10:05:30.884Z</time></trkpt><trkpt lat="42.1862283" lon="14.6131583"><ele>58.00000000000001</ele><time>2026-04-24T10:05:32.885Z</time></trkpt><trkpt lat="42.1861633" lon="14.6131117"><ele>58.0</ele><time>2026-04-24T10:05:34.885Z</time></trkpt><trkpt lat="42.1861033" lon="14.6130583"><ele>58.00000000000001</ele><time>2026-04-24T10:05:36.885Z</time></trkpt><trkpt lat="42.1860467" lon="14.6130083"><ele>58.00000000000001</ele><time>2026-04-24T10:05:38.885Z</time></trkpt><trkpt lat="42.1859767" lon="14.6129417"><ele>57.99999999999999</ele><time>2026-04-24T10:05:41.885Z</time></trkpt><trkpt lat="42.1859067" lon="14.6128933"><ele>58.0</ele><time>2026-04-24T10:05:44.884Z</time></trkpt><trkpt lat="42.18585" lon="14.6128417"><ele>58.0</ele><time>2026-04-24T10:05:47.885Z</time></trkpt><trkpt lat="42.185775" lon="14.6127883"><ele>58.0</ele><time>2026-04-24T10:05:50.885Z</time></trkpt><trkpt lat="42.1856967" lon="14.6127317"><ele>57.99999999999999</ele><time>2026-04-24T10:05:53.885Z</time></trkpt><trkpt lat="42.1856333" lon="14.6126733"><ele>58.0</ele><time>2026-04-24T10:05:57.884Z</time></trkpt><trkpt lat="42.1855717" lon="14.6126217"><ele>56.99999999999999</ele><time>2026-04-24T10:06:00.884Z</time></trkpt><trkpt lat="42.1855133" lon="14.6125567"><ele>56.0</ele><time>2026-04-24T10:06:03.885Z</time></trkpt><trkpt lat="42.185455" lon="14.612485"><ele>55.0</ele><time>2026-04-24T10:06:06.885Z</time></trkpt><trkpt lat="42.185405" lon="14.6124267"><ele>54.0</ele><time>2026-04-24T10:06:09.885Z</time></trkpt><trkpt lat="42.185345" lon="14.61238"><ele>52.99999999999999</ele><time>2026-04-24T10:06:12.885Z</time></trkpt><trkpt lat="42.1852717" lon="14.6123417"><ele>52.0</ele><time>2026-04-24T10:06:15.885Z</time></trkpt><trkpt lat="42.1851917" lon="14.6122917"><ele>51.99999999999999</ele><time>2026-04-24T10:06:18.884Z</time></trkpt><trkpt lat="42.1851283" lon="14.6122417"><ele>52.0</ele><time>2026-04-24T10:06:21.884Z</time></trkpt><trkpt lat="42.18507" lon="14.6122033"><ele>52.0</ele><time>2026-04-24T10:06:24.884Z</time></trkpt><trkpt lat="42.1850033" lon="14.6121533"><ele>52.0</ele><time>2026-04-24T10:06:27.884Z</time></trkpt><trkpt lat="42.1849333" lon="14.6120967"><ele>51.99999999999999</ele><time>2026-04-24T10:06:30.885Z</time></trkpt><trkpt lat="42.184855" lon="14.6120417"><ele>52.0</ele><time>2026-04-24T10:06:33.885Z</time></trkpt><trkpt lat="42.1847733" lon="14.6119833"><ele>51.14285714285714</ele><time>2026-04-24T10:06:36.885Z</time></trkpt><trkpt lat="42.184715" lon="14.6119483"><ele>50.28571428571429</ele><time>2026-04-24T10:06:38.884Z</time></trkpt><trkpt lat="42.1846567" lon="14.611905"><ele>49.42857142857143</ele><time>2026-04-24T10:06:41.885Z</time></trkpt><trkpt lat="42.1846283" lon="14.611815"><ele>48.57142857142857</ele><time>2026-04-24T10:06:45.885Z</time></trkpt><trkpt lat="42.18465" lon="14.6117317"><ele>47.71428571428571</ele><time>2026-04-24T10:06:48.884Z</time></trkpt><trkpt lat="42.1846733" lon="14.6116233"><ele>46.85714285714286</ele><time>2026-04-24T10:06:51.885Z</time></trkpt><trkpt lat="42.18469" lon="14.6115267"><ele>46.0</ele><time>2026-04-24T10:06:53.885Z</time></trkpt><trkpt lat="42.1847083" lon="14.6114233"><ele>46.0</ele><time>2026-04-24T10:06:55.884Z</time></trkpt><trkpt lat="42.1847217" lon="14.6113333"><ele>46.0</ele><time>2026-04-24T10:06:57.885Z</time></trkpt><trkpt lat="42.1847483" lon="14.6112417"><ele>46.0</ele><time>2026-04-24T10:07:00.884Z</time></trkpt><trkpt lat="42.184755" lon="14.6111467"><ele>46.0</ele><time>2026-04-24T10:07:03.885Z</time></trkpt><trkpt lat="42.1847433" lon="14.6110567"><ele>46.0</ele><time>2026-04-24T10:07:06.885Z</time></trkpt><trkpt lat="42.1847083" lon="14.6109817"><ele>46.0</ele><time>2026-04-24T10:07:09.885Z</time></trkpt><trkpt lat="42.18465" lon="14.6109117"><ele>46.0</ele><time>2026-04-24T10:07:13.885Z</time></trkpt><trkpt lat="42.1845917" lon="14.6108333"><ele>45.57142857142858</ele><time>2026-04-24T10:07:27.885Z</time></trkpt><trkpt lat="42.1845583" lon="14.6107433"><ele>45.14285714285714</ele><time>2026-04-24T10:08:01.885Z</time></trkpt><trkpt lat="42.1844883" lon="14.6106883"><ele>44.714285714285715</ele><time>2026-04-24T10:08:05.885Z</time></trkpt><trkpt lat="42.18443" lon="14.6106383"><ele>44.28571428571429</ele><time>2026-04-24T10:08:09.885Z</time></trkpt><trkpt lat="42.1843667" lon="14.6105967"><ele>43.85714285714286</ele><time>2026-04-24T10:08:16.885Z</time></trkpt><trkpt lat="42.1842967" lon="14.61059"><ele>43.42857142857143</ele><time>2026-04-24T10:08:21.885Z</time></trkpt><trkpt lat="42.1842183" lon="14.610625"><ele>43.0</ele><time>2026-04-24T10:08:26.885Z</time></trkpt><trkpt lat="42.184145" lon="14.6106617"><ele>43.00000000000001</ele><time>2026-04-24T10:08:30.885Z</time></trkpt><trkpt lat="42.1840783" lon="14.610675"><ele>43.0</ele><time>2026-04-24T10:08:33.885Z</time></trkpt><trkpt lat="42.1840067" lon="14.6106983"><ele>43.0</ele><time>2026-04-24T10:08:37.885Z</time></trkpt><trkpt lat="42.1839367" lon="14.6107117"><ele>43.0</ele><time>2026-04-24T10:08:41.884Z</time></trkpt><trkpt lat="42.1838717" lon="14.610715"><ele>43.0</ele><time>2026-04-24T10:08:44.885Z</time></trkpt><trkpt lat="42.1838083" lon="14.6107283"><ele>43.00000000000001</ele><time>2026-04-24T10:08:47.884Z</time></trkpt><trkpt lat="42.183745" lon="14.610735"><ele>43.0</ele><time>2026-04-24T10:08:51.884Z</time></trkpt><trkpt lat="42.18367" lon="14.61075"><ele>43.333333333333336</ele><time>2026-04-24T10:08:54.885Z</time></trkpt><trkpt lat="42.183595" lon="14.6107583"><ele>43.66666666666667</ele><time>2026-04-24T10:08:56.885Z</time></trkpt><trkpt lat="42.18349" lon="14.6107733"><ele>44.0</ele><time>2026-04-24T10:08:58.884Z</time></trkpt><trkpt lat="42.1833933" lon="14.6107633"><ele>44.333333333333336</ele><time>2026-04-24T10:09:00.884Z</time></trkpt><trkpt lat="42.18332" lon="14.6107367"><ele>44.666666666666664</ele><time>2026-04-24T10:09:02.885Z</time></trkpt><trkpt lat="42.1832533" lon="14.61072"><ele>45.0</ele><time>2026-04-24T10:09:04.885Z</time></trkpt><trkpt lat="42.1831817" lon="14.6107"><ele>45.666666666666664</ele><time>2026-04-24T10:09:07.885Z</time></trkpt><trkpt lat="42.183115" lon="14.6107017"><ele>46.33333333333333</ele><time>2026-04-24T10:09:10.885Z</time></trkpt><trkpt lat="42.183045" lon="14.6106933"><ele>47.0</ele><time>2026-04-24T10:09:13.884Z</time></trkpt><trkpt lat="42.1829717" lon="14.6106917"><ele>47.666666666666664</ele><time>2026-04-24T10:09:16.885Z</time></trkpt><trkpt lat="42.1828967" lon="14.61069"><ele>48.33333333333333</ele><time>2026-04-24T10:09:19.885Z</time></trkpt><trkpt lat="42.1828283" lon="14.610685"><ele>49.0</ele><time>2026-04-24T10:09:22.884Z</time></trkpt><trkpt lat="42.18273" lon="14.6106883"><ele>48.99999999999999</ele><time>2026-04-24T10:09:25.885Z</time></trkpt><trkpt lat="42.1826517" lon="14.6106817"><ele>49.0</ele><time>2026-04-24T10:09:27.885Z</time></trkpt><trkpt lat="42.1825767" lon="14.610695"><ele>49.0</ele><time>2026-04-24T10:09:29.884Z</time></trkpt><trkpt lat="42.1824867" lon="14.6107"><ele>49.0</ele><time>2026-04-24T10:09:32.885Z</time></trkpt><trkpt lat="42.1824117" lon="14.6106883"><ele>48.99999999999999</ele><time>2026-04-24T10:09:34.885Z</time></trkpt><trkpt lat="42.18234" lon="14.61068"><ele>49.0</ele><time>2026-04-24T10:09:36.885Z</time></trkpt><trkpt lat="42.1822683" lon="14.6106833"><ele>49.285714285714285</ele><time>2026-04-24T10:09:38.885Z</time></trkpt><trkpt lat="42.1821967" lon="14.6106833"><ele>49.57142857142857</ele><time>2026-04-24T10:09:40.885Z</time></trkpt><trkpt lat="42.1821233" lon="14.6106867"><ele>49.85714285714286</ele><time>2026-04-24T10:09:42.885Z</time></trkpt><trkpt lat="42.1820567" lon="14.6106883"><ele>50.14285714285714</ele><time>2026-04-24T10:09:44.885Z</time></trkpt><trkpt lat="42.1819867" lon="14.610685"><ele>50.42857142857143</ele><time>2026-04-24T10:09:46.884Z</time></trkpt><trkpt lat="42.1819183" lon="14.610685"><ele>50.714285714285715</ele><time>2026-04-24T10:09:48.885Z</time></trkpt><trkpt lat="42.18182" lon="14.610705"><ele>51.0</ele><time>2026-04-24T10:09:51.885Z</time></trkpt><trkpt lat="42.1817467" lon="14.6107183"><ele>51.0</ele><time>2026-04-24T10:09:53.885Z</time></trkpt><trkpt lat="42.1816633" lon="14.6107433"><ele>51.0</ele><time>2026-04-24T10:09:55.884Z</time></trkpt><trkpt lat="42.1815683" lon="14.610755"><ele>51.0</ele><time>2026-04-24T10:09:57.885Z</time></trkpt><trkpt lat="42.1814783" lon="14.6108"><ele>51.0</ele><time>2026-04-24T10:09:59.885Z</time></trkpt><trkpt lat="42.1813833" lon="14.610825"><ele>51.0</ele><time>2026-04-24T10:10:01.885Z</time></trkpt><trkpt lat="42.1812917" lon="14.6108583"><ele>52.199999999999996</ele><time>2026-04-24T10:10:03.884Z</time></trkpt><trkpt lat="42.1811933" lon="14.6109017"><ele>53.4</ele><time>2026-04-24T10:10:05.885Z</time></trkpt><trkpt lat="42.18109" lon="14.610935"><ele>54.6</ele><time>2026-04-24T10:10:07.885Z</time></trkpt><trkpt lat="42.1809933" lon="14.610995"><ele>55.8</ele><time>2026-04-24T10:10:09.885Z</time></trkpt><trkpt lat="42.1809117" lon="14.61105"><ele>57.0</ele><time>2026-04-24T10:10:11.885Z</time></trkpt><trkpt lat="42.18084" lon="14.6110933"><ele>57.0</ele><time>2026-04-24T10:10:13.885Z</time></trkpt><trkpt lat="42.1807817" lon="14.6111317"><ele>57.0</ele><time>2026-04-24T10:10:15.884Z</time></trkpt><trkpt lat="42.18072" lon="14.6111733"><ele>57.0</ele><time>2026-04-24T10:10:17.885Z</time></trkpt><trkpt lat="42.180655" lon="14.6112083"><ele>57.0</ele><time>2026-04-24T10:10:19.884Z</time></trkpt><trkpt lat="42.1805817" lon="14.6112583"><ele>57.0</ele><time>2026-04-24T10:10:22.884Z</time></trkpt><trkpt lat="42.1804983" lon="14.6113133"><ele>57.0</ele><time>2026-04-24T10:10:25.884Z</time></trkpt><trkpt lat="42.1804283" lon="14.6113633"><ele>56.0</ele><time>2026-04-24T10:10:28.885Z</time></trkpt><trkpt lat="42.1803483" lon="14.611435"><ele>55.0</ele><time>2026-04-24T10:10:31.884Z</time></trkpt><trkpt lat="42.180285" lon="14.611475"><ele>54.0</ele><time>2026-04-24T10:10:33.885Z</time></trkpt><trkpt lat="42.180215" lon="14.6115183"><ele>53.0</ele><time>2026-04-24T10:10:35.885Z</time></trkpt><trkpt lat="42.1801517" lon="14.611555"><ele>52.0</ele><time>2026-04-24T10:10:37.884Z</time></trkpt><trkpt lat="42.1800867" lon="14.61159"><ele>51.0</ele><time>2026-04-24T10:10:39.885Z</time></trkpt><trkpt lat="42.1800183" lon="14.61161"><ele>51.0</ele><time>2026-04-24T10:10:41.884Z</time></trkpt><trkpt lat="42.1799267" lon="14.6116183"><ele>51.0</ele><time>2026-04-24T10:10:44.884Z</time></trkpt><trkpt lat="42.179855" lon="14.61161"><ele>51.0</ele><time>2026-04-24T10:10:46.885Z</time></trkpt><trkpt lat="42.1797833" lon="14.6115933"><ele>51.0</ele><time>2026-04-24T10:10:48.884Z</time></trkpt><trkpt lat="42.179715" lon="14.6115783"><ele>51.0</ele><time>2026-04-24T10:10:50.884Z</time></trkpt><trkpt lat="42.17962" lon="14.61158"><ele>51.0</ele><time>2026-04-24T10:10:53.884Z</time></trkpt><trkpt lat="42.1795483" lon="14.61159"><ele>51.5</ele><time>2026-04-24T10:10:55.885Z</time></trkpt><trkpt lat="42.1794733" lon="14.61159"><ele>52.0</ele><time>2026-04-24T10:10:57.885Z</time></trkpt><trkpt lat="42.1793967" lon="14.6116"><ele>52.5</ele><time>2026-04-24T10:10:59.884Z</time></trkpt><trkpt lat="42.179315" lon="14.6116033"><ele>53.0</ele><time>2026-04-24T10:11:01.884Z</time></trkpt><trkpt lat="42.1792383" lon="14.6116167"><ele>53.5</ele><time>2026-04-24T10:11:03.885Z</time></trkpt><trkpt lat="42.179155" lon="14.6116183"><ele>54.0</ele><time>2026-04-24T10:11:05.885Z</time></trkpt><trkpt lat="42.1790717" lon="14.6116083"><ele>54.166666666666664</ele><time>2026-04-24T10:11:07.885Z</time></trkpt><trkpt lat="42.1789967" lon="14.6115983"><ele>54.33333333333333</ele><time>2026-04-24T10:11:09.885Z</time></trkpt><trkpt lat="42.1789317" lon="14.61159"><ele>54.5</ele><time>2026-04-24T10:11:11.885Z</time></trkpt><trkpt lat="42.1788633" lon="14.6115767"><ele>54.666666666666664</ele><time>2026-04-24T10:11:14.885Z</time></trkpt><trkpt lat="42.1788367" lon="14.6116567"><ele>54.83333333333333</ele><time>2026-04-24T10:11:19.884Z</time></trkpt><trkpt lat="42.1788567" lon="14.6117767"><ele>55.0</ele><time>2026-04-24T10:11:22.884Z</time></trkpt><trkpt lat="42.1788717" lon="14.611905"><ele>54.99999999999999</ele><time>2026-04-24T10:11:25.885Z</time></trkpt><trkpt lat="42.17889" lon="14.6120033"><ele>55.0</ele><time>2026-04-24T10:11:27.884Z</time></trkpt><trkpt lat="42.1789183" lon="14.61211"><ele>55.0</ele><time>2026-04-24T10:11:30.885Z</time></trkpt><trkpt lat="42.17894" lon="14.6121917"><ele>55.0</ele><time>2026-04-24T10:11:34.885Z</time></trkpt><trkpt lat="42.1789883" lon="14.6122517"><ele>55.0</ele><time>2026-04-24T10:12:21.885Z</time></trkpt><trkpt lat="42.1789667" lon="14.612165"><ele>54.99999999999999</ele><time>2026-04-24T10:12:25.885Z</time></trkpt><trkpt lat="42.1789483" lon="14.6120717"><ele>55.0</ele><time>2026-04-24T10:12:29.884Z</time></trkpt><trkpt lat="42.1789383" lon="14.6119733"><ele>54.99999999999999</ele><time>2026-04-24T10:12:32.885Z</time></trkpt><trkpt lat="42.17892" lon="14.6118817"><ele>55.0</ele><time>2026-04-24T10:12:35.885Z</time></trkpt><trkpt lat="42.1788967" lon="14.6117917"><ele>55.0</ele><time>2026-04-24T10:12:38.885Z</time></trkpt><trkpt lat="42.1788667" lon="14.6116917"><ele>55.0</ele><time>2026-04-24T10:12:42.885Z</time></trkpt><trkpt lat="42.17884" lon="14.6116083"><ele>55.0</ele><time>2026-04-24T10:12:46.885Z</time></trkpt><trkpt lat="42.1787583" lon="14.611585"><ele>54.99999999999999</ele><time>2026-04-24T10:12:50.885Z</time></trkpt><trkpt lat="42.178695" lon="14.61157"><ele>55.0</ele><time>2026-04-24T10:12:53.884Z</time></trkpt><trkpt lat="42.1786283" lon="14.6115483"><ele>54.99999999999999</ele><time>2026-04-24T10:12:56.885Z</time></trkpt><trkpt lat="42.1785433" lon="14.6115333"><ele>55.0</ele><time>2026-04-24T10:12:59.884Z</time></trkpt><trkpt lat="42.1784717" lon="14.6115133"><ele>55.0</ele><time>2026-04-24T10:13:02.885Z</time></trkpt><trkpt lat="42.1783817" lon="14.6114783"><ele>55.0</ele><time>2026-04-24T10:13:05.884Z</time></trkpt><trkpt lat="42.1783217" lon="14.61144"><ele>54.99999999999999</ele><time>2026-04-24T10:13:07.885Z</time></trkpt><trkpt lat="42.17825" lon="14.6114017"><ele>55.0</ele><time>2026-04-24T10:13:09.885Z</time></trkpt><trkpt lat="42.17817" lon="14.6113517"><ele>55.166666666666664</ele><time>2026-04-24T10:13:12.884Z</time></trkpt><trkpt lat="42.1781067" lon="14.611305"><ele>55.33333333333333</ele><time>2026-04-24T10:13:15.885Z</time></trkpt><trkpt lat="42.17803" lon="14.61125"><ele>55.5</ele><time>2026-04-24T10:13:18.885Z</time></trkpt><trkpt lat="42.177945" lon="14.61122"><ele>55.66666666666667</ele><time>2026-04-24T10:13:42.884Z</time></trkpt><trkpt lat="42.17785" lon="14.611235"><ele>55.833333333333336</ele><time>2026-04-24T10:13:45.884Z</time></trkpt><trkpt lat="42.1777867" lon="14.611245"><ele>56.0</ele><time>2026-04-24T10:13:47.884Z</time></trkpt><trkpt lat="42.17772" lon="14.6112517"><ele>56.0</ele><time>2026-04-24T10:13:49.884Z</time></trkpt><trkpt lat="42.17765" lon="14.6112583"><ele>56.0</ele><time>2026-04-24T10:13:51.884Z</time></trkpt><trkpt lat="42.1775767" lon="14.6112667"><ele>56.0</ele><time>2026-04-24T10:13:53.885Z</time></trkpt><trkpt lat="42.1775033" lon="14.6112733"><ele>56.0</ele><time>2026-04-24T10:13:55.884Z</time></trkpt><trkpt lat="42.1774333" lon="14.6112867"><ele>56.0</ele><time>2026-04-24T10:13:57.884Z</time></trkpt><trkpt lat="42.177365" lon="14.6112967"><ele>56.0</ele><time>2026-04-24T10:13:59.885Z</time></trkpt><trkpt lat="42.1773" lon="14.6113117"><ele>56.0</ele><time>2026-04-24T10:14:01.885Z</time></trkpt><trkpt lat="42.1772367" lon="14.6113233"><ele>56.42857142857143</ele><time>2026-04-24T10:14:03.885Z</time></trkpt><trkpt lat="42.1771733" lon="14.611335"><ele>56.85714285714286</ele><time>2026-04-24T10:14:05.885Z</time></trkpt><trkpt lat="42.1771033" lon="14.61134"><ele>57.285714285714285</ele><time>2026-04-24T10:14:08.884Z</time></trkpt><trkpt lat="42.177035" lon="14.6113467"><ele>57.714285714285715</ele><time>2026-04-24T10:14:12.885Z</time></trkpt><trkpt lat="42.1769617" lon="14.6113683"><ele>58.142857142857146</ele><time>2026-04-24T10:14:16.885Z</time></trkpt><trkpt lat="42.17696" lon="14.611265"><ele>58.57142857142857</ele><time>2026-04-24T10:14:23.885Z</time></trkpt><trkpt lat="42.1769067" lon="14.6113383"><ele>59.0</ele><time>2026-04-24T10:15:09.884Z</time></trkpt><trkpt lat="42.1768533" lon="14.611395"><ele>59.0</ele><time>2026-04-24T10:15:13.885Z</time></trkpt><trkpt lat="42.17679" lon="14.61141"><ele>59.0</ele><time>2026-04-24T10:15:17.885Z</time></trkpt><trkpt lat="42.17672" lon="14.6114133"><ele>59.0</ele><time>2026-04-24T10:15:21.885Z</time></trkpt><trkpt lat="42.176645" lon="14.61139"><ele>59.0</ele><time>2026-04-24T10:15:25.885Z</time></trkpt><trkpt lat="42.17658" lon="14.6113383"><ele>59.0</ele><time>2026-04-24T10:15:29.885Z</time></trkpt><trkpt lat="42.1765233" lon="14.6112817"><ele>59.0</ele><time>2026-04-24T10:15:33.884Z</time></trkpt><trkpt lat="42.1764683" lon="14.6112133"><ele>59.0</ele><time>2026-04-24T10:15:37.885Z</time></trkpt><trkpt lat="42.176415" lon="14.6111467"><ele>60.16666666666667</ele><time>2026-04-24T10:15:41.885Z</time></trkpt><trkpt lat="42.1763533" lon="14.6110783"><ele>61.333333333333336</ele><time>2026-04-24T10:15:45.884Z</time></trkpt><trkpt lat="42.1763067" lon="14.6110183"><ele>62.5</ele><time>2026-04-24T10:15:49.885Z</time></trkpt><trkpt lat="42.1762533" lon="14.6109317"><ele>63.66666666666667</ele><time>2026-04-24T10:15:54.885Z</time></trkpt><trkpt lat="42.1761883" lon="14.6108683"><ele>64.83333333333333</ele><time>2026-04-24T10:15:58.884Z</time></trkpt><trkpt lat="42.17613" lon="14.6108017"><ele>66.0</ele><time>2026-04-24T10:16:02.883Z</time></trkpt><trkpt lat="42.1760767" lon="14.610735"><ele>66.0</ele><time>2026-04-24T10:16:06.884Z</time></trkpt><trkpt lat="42.176025" lon="14.6106733"><ele>66.0</ele><time>2026-04-24T10:16:10.883Z</time></trkpt><trkpt lat="42.1759717" lon="14.6106133"><ele>66.0</ele><time>2026-04-24T10:16:14.883Z</time></trkpt><trkpt lat="42.1759233" lon="14.61055"><ele>66.0</ele><time>2026-04-24T10:16:18.884Z</time></trkpt><trkpt lat="42.1758683" lon="14.61049"><ele>66.0</ele><time>2026-04-24T10:16:22.884Z</time></trkpt><trkpt lat="42.1758067" lon="14.610435"><ele>66.0</ele><time>2026-04-24T10:16:26.884Z</time></trkpt><trkpt lat="42.1757367" lon="14.61039"><ele>66.0</ele><time>2026-04-24T10:16:31.883Z</time></trkpt><trkpt lat="42.1756717" lon="14.6103633"><ele>67.28571428571428</ele><time>2026-04-24T10:16:35.884Z</time></trkpt><trkpt lat="42.175605" lon="14.6103483"><ele>68.57142857142857</ele><time>2026-04-24T10:16:39.884Z</time></trkpt><trkpt lat="42.1755417" lon="14.6103417"><ele>69.85714285714286</ele><time>2026-04-24T10:16:42.884Z</time></trkpt><trkpt lat="42.1754683" lon="14.6103317"><ele>71.14285714285714</ele><time>2026-04-24T10:16:46.884Z</time></trkpt><trkpt lat="42.175405" lon="14.6103167"><ele>72.42857142857143</ele><time>2026-04-24T10:16:50.883Z</time></trkpt><trkpt lat="42.1753333" lon="14.6103067"><ele>73.71428571428571</ele><time>2026-04-24T10:16:54.884Z</time></trkpt><trkpt lat="42.175255" lon="14.6103033"><ele>75.0</ele><time>2026-04-24T10:16:58.884Z</time></trkpt><trkpt lat="42.1751733" lon="14.6102933"><ele>76.14285714285714</ele><time>2026-04-24T10:17:02.884Z</time></trkpt><trkpt lat="42.1751083" lon="14.6102767"><ele>77.28571428571428</ele><time>2026-04-24T10:17:06.883Z</time></trkpt><trkpt lat="42.1750367" lon="14.61025"><ele>78.42857142857142</ele><time>2026-04-24T10:17:10.884Z</time></trkpt><trkpt lat="42.1749633" lon="14.6102267"><ele>79.57142857142857</ele><time>2026-04-24T10:17:14.884Z</time></trkpt><trkpt lat="42.174885" lon="14.61021"><ele>80.71428571428572</ele><time>2026-04-24T10:17:18.884Z</time></trkpt><trkpt lat="42.1748033" lon="14.6101917"><ele>81.85714285714285</ele><time>2026-04-24T10:17:22.884Z</time></trkpt><trkpt lat="42.1747383" lon="14.6101733"><ele>83.0</ele><time>2026-04-24T10:17:25.884Z</time></trkpt><trkpt lat="42.17466" lon="14.61015"><ele>84.42857142857143</ele><time>2026-04-24T10:17:29.884Z</time></trkpt><trkpt lat="42.1745817" lon="14.61013"><ele>85.85714285714286</ele><time>2026-04-24T10:17:33.883Z</time></trkpt><trkpt lat="42.17451" lon="14.6101167"><ele>87.28571428571429</ele><time>2026-04-24T10:17:37.884Z</time></trkpt><trkpt lat="42.1744467" lon="14.6101033"><ele>88.71428571428572</ele><time>2026-04-24T10:17:41.884Z</time></trkpt><trkpt lat="42.1743833" lon="14.6100833"><ele>90.14285714285714</ele><time>2026-04-24T10:17:45.884Z</time></trkpt><trkpt lat="42.1743133" lon="14.6100583"><ele>91.57142857142858</ele><time>2026-04-24T10:17:49.884Z</time></trkpt><trkpt lat="42.1742417" lon="14.6100317"><ele>93.0</ele><time>2026-04-24T10:17:53.884Z</time></trkpt><trkpt lat="42.1741717" lon="14.61001"><ele>93.00000000000001</ele><time>2026-04-24T10:17:57.884Z</time></trkpt><trkpt lat="42.1741067" lon="14.6100017"><ele>93.0</ele><time>2026-04-24T10:18:01.884Z</time></trkpt><trkpt lat="42.1740317" lon="14.61"><ele>93.0</ele><time>2026-04-24T10:18:06.884Z</time></trkpt><trkpt lat="42.1739583" lon="14.609985"><ele>93.0</ele><time>2026-04-24T10:18:10.883Z</time></trkpt><trkpt lat="42.1738817" lon="14.6099683"><ele>93.0</ele><time>2026-04-24T10:18:14.884Z</time></trkpt><trkpt lat="42.173815" lon="14.60996"><ele>93.00000000000001</ele><time>2026-04-24T10:18:18.884Z</time></trkpt><trkpt lat="42.173735" lon="14.60998"><ele>93.0</ele><time>2026-04-24T10:18:22.883Z</time></trkpt><trkpt lat="42.1736617" lon="14.6100033"><ele>93.85714285714286</ele><time>2026-04-24T10:18:26.884Z</time></trkpt><trkpt lat="42.1735967" lon="14.6100117"><ele>94.71428571428572</ele><time>2026-04-24T10:18:29.884Z</time></trkpt><trkpt lat="42.1735283" lon="14.61003"><ele>95.57142857142858</ele><time>2026-04-24T10:18:33.883Z</time></trkpt><trkpt lat="42.1734583" lon="14.6100083"><ele>96.42857142857143</ele><time>2026-04-24T10:18:37.884Z</time></trkpt><trkpt lat="42.1733867" lon="14.6099617"><ele>97.28571428571428</ele><time>2026-04-24T10:18:40.884Z</time></trkpt><trkpt lat="42.17333" lon="14.609915"><ele>98.14285714285715</ele><time>2026-04-24T10:18:43.884Z</time></trkpt><trkpt lat="42.1732817" lon="14.60986"><ele>99.0</ele><time>2026-04-24T10:18:46.883Z</time></trkpt><trkpt lat="42.1732117" lon="14.6097867"><ele>99.14285714285715</ele><time>2026-04-24T10:18:49.884Z</time></trkpt><trkpt lat="42.17316" lon="14.6097367"><ele>99.28571428571428</ele><time>2026-04-24T10:18:51.884Z</time></trkpt><trkpt lat="42.173105" lon="14.6096833"><ele>99.42857142857143</ele><time>2026-04-24T10:18:53.884Z</time></trkpt><trkpt lat="42.173045" lon="14.6096417"><ele>99.57142857142858</ele><time>2026-04-24T10:18:55.883Z</time></trkpt><trkpt lat="42.1729583" lon="14.6095933"><ele>99.71428571428572</ele><time>2026-04-24T10:18:58.883Z</time></trkpt><trkpt lat="42.1728983" lon="14.609565"><ele>99.85714285714286</ele><time>2026-04-24T10:19:00.883Z</time></trkpt><trkpt lat="42.1728383" lon="14.6095317"><ele>100.0</ele><time>2026-04-24T10:19:02.884Z</time></trkpt><trkpt lat="42.17276" lon="14.609475"><ele>101.33333333333334</ele><time>2026-04-24T10:19:05.883Z</time></trkpt><trkpt lat="42.172695" lon="14.6094217"><ele>102.66666666666667</ele><time>2026-04-24T10:19:08.884Z</time></trkpt><trkpt lat="42.1726367" lon="14.6093333"><ele>104.0</ele><time>2026-04-24T10:19:11.884Z</time></trkpt><trkpt lat="42.17258" lon="14.6092467"><ele>105.33333333333334</ele><time>2026-04-24T10:19:14.884Z</time></trkpt><trkpt lat="42.1725367" lon="14.6091833"><ele>106.66666666666667</ele><time>2026-04-24T10:19:16.884Z</time></trkpt><trkpt lat="42.1724767" lon="14.609095"><ele>108.0</ele><time>2026-04-24T10:19:19.883Z</time></trkpt><trkpt lat="42.1724133" lon="14.6090033"><ele>108.0</ele><time>2026-04-24T10:19:22.884Z</time></trkpt><trkpt lat="42.17235" lon="14.60891"><ele>108.0</ele><time>2026-04-24T10:19:25.884Z</time></trkpt><trkpt lat="42.1723033" lon="14.6088417"><ele>108.0</ele><time>2026-04-24T10:19:27.884Z</time></trkpt><trkpt lat="42.17224" lon="14.6087733"><ele>108.0</ele><time>2026-04-24T10:19:29.884Z</time></trkpt><trkpt lat="42.1721767" lon="14.6087067"><ele>108.0</ele><time>2026-04-24T10:19:31.884Z</time></trkpt><trkpt lat="42.1721167" lon="14.6086467"><ele>108.0</ele><time>2026-04-24T10:19:33.884Z</time></trkpt><trkpt lat="42.172065" lon="14.6085917"><ele>108.57142857142857</ele><time>2026-04-24T10:19:35.884Z</time></trkpt><trkpt lat="42.1720133" lon="14.6085283"><ele>109.14285714285714</ele><time>2026-04-24T10:19:37.884Z</time></trkpt><trkpt lat="42.17196" lon="14.60847"><ele>109.71428571428572</ele><time>2026-04-24T10:19:39.883Z</time></trkpt><trkpt lat="42.1719083" lon="14.6084183"><ele>110.28571428571428</ele><time>2026-04-24T10:19:41.884Z</time></trkpt><trkpt lat="42.1718467" lon="14.6083633"><ele>110.85714285714286</ele><time>2026-04-24T10:19:43.883Z</time></trkpt><trkpt lat="42.1717867" lon="14.6083067"><ele>111.42857142857143</ele><time>2026-04-24T10:19:45.884Z</time></trkpt><trkpt lat="42.1717217" lon="14.608225"><ele>112.0</ele><time>2026-04-24T10:19:48.883Z</time></trkpt><trkpt lat="42.1716767" lon="14.6081633"><ele>112.0</ele><time>2026-04-24T10:19:50.884Z</time></trkpt><trkpt lat="42.1716283" lon="14.6080817"><ele>112.0</ele><time>2026-04-24T10:19:52.883Z</time></trkpt><trkpt lat="42.1715883" lon="14.6080067"><ele>112.0</ele><time>2026-04-24T10:19:54.884Z</time></trkpt><trkpt lat="42.1715483" lon="14.60794"><ele>112.0</ele><time>2026-04-24T10:19:56.884Z</time></trkpt><trkpt lat="42.1714983" lon="14.60787"><ele>112.0</ele><time>2026-04-24T10:19:58.884Z</time></trkpt><trkpt lat="42.1714467" lon="14.6078017"><ele>112.0</ele><time>2026-04-24T10:20:00.884Z</time></trkpt><trkpt lat="42.17139" lon="14.6077283"><ele>112.0</ele><time>2026-04-24T10:20:02.884Z</time></trkpt><trkpt lat="42.171335" lon="14.607655"><ele>112.50000000000001</ele><time>2026-04-24T10:20:04.884Z</time></trkpt><trkpt lat="42.171285" lon="14.6075733"><ele>113.0</ele><time>2026-04-24T10:20:06.884Z</time></trkpt><trkpt lat="42.1712433" lon="14.607495"><ele>113.5</ele><time>2026-04-24T10:20:08.883Z</time></trkpt><trkpt lat="42.1711817" lon="14.6074183"><ele>114.0</ele><time>2026-04-24T10:20:11.884Z</time></trkpt><trkpt lat="42.1711233" lon="14.6073367"><ele>114.50000000000001</ele><time>2026-04-24T10:20:14.883Z</time></trkpt><trkpt lat="42.171075" lon="14.607265"><ele>115.0</ele><time>2026-04-24T10:20:16.884Z</time></trkpt><trkpt lat="42.1710183" lon="14.6071833"><ele>115.00000000000001</ele><time>2026-04-24T10:20:18.884Z</time></trkpt><trkpt lat="42.1709617" lon="14.60711"><ele>115.0</ele><time>2026-04-24T10:20:20.884Z</time></trkpt><trkpt lat="42.17091" lon="14.6070467"><ele>115.0</ele><time>2026-04-24T10:20:22.884Z</time></trkpt><trkpt lat="42.17085" lon="14.606975"><ele>115.0</ele><time>2026-04-24T10:20:24.883Z</time></trkpt><trkpt lat="42.1707833" lon="14.606895"><ele>115.00000000000001</ele><time>2026-04-24T10:20:26.883Z</time></trkpt><trkpt lat="42.170725" lon="14.6068283"><ele>115.0</ele><time>2026-04-24T10:20:28.884Z</time></trkpt><trkpt lat="42.170665" lon="14.60675"><ele>115.33333333333334</ele><time>2026-04-24T10:20:30.884Z</time></trkpt><trkpt lat="42.1706017" lon="14.606665"><ele>115.66666666666667</ele><time>2026-04-24T10:20:32.884Z</time></trkpt><trkpt lat="42.170545" lon="14.6065867"><ele>116.0</ele><time>2026-04-24T10:20:34.884Z</time></trkpt><trkpt lat="42.1704967" lon="14.60652"><ele>116.33333333333334</ele><time>2026-04-24T10:20:36.884Z</time></trkpt><trkpt lat="42.1704517" lon="14.60645"><ele>116.66666666666667</ele><time>2026-04-24T10:20:38.884Z</time></trkpt><trkpt lat="42.1703933" lon="14.60637"><ele>117.0</ele><time>2026-04-24T10:20:40.883Z</time></trkpt><trkpt lat="42.1703467" lon="14.6062967"><ele>117.0</ele><time>2026-04-24T10:20:42.883Z</time></trkpt><trkpt lat="42.1702967" lon="14.6062283"><ele>117.0</ele><time>2026-04-24T10:20:44.883Z</time></trkpt><trkpt lat="42.17023" lon="14.6061583"><ele>117.0</ele><time>2026-04-24T10:20:46.884Z</time></trkpt><trkpt lat="42.1701583" lon="14.6060933"><ele>117.0</ele><time>2026-04-24T10:20:48.884Z</time></trkpt><trkpt lat="42.1701083" lon="14.606035"><ele>117.0</ele><time>2026-04-24T10:20:50.884Z</time></trkpt><trkpt lat="42.170045" lon="14.6059533"><ele>117.0</ele><time>2026-04-24T10:20:53.883Z</time></trkpt><trkpt lat="42.1699917" lon="14.6058567"><ele>117.0</ele><time>2026-04-24T10:20:56.884Z</time></trkpt><trkpt lat="42.1699367" lon="14.60579"><ele>117.00000000000001</ele><time>2026-04-24T10:20:58.884Z</time></trkpt><trkpt lat="42.1698767" lon="14.6057317"><ele>117.0</ele><time>2026-04-24T10:21:00.884Z</time></trkpt><trkpt lat="42.16982" lon="14.6056717"><ele>117.0</ele><time>2026-04-24T10:21:02.883Z</time></trkpt><trkpt lat="42.169765" lon="14.6056067"><ele>117.00000000000001</ele><time>2026-04-24T10:21:04.884Z</time></trkpt><trkpt lat="42.1697083" lon="14.6055367"><ele>117.0</ele><time>2026-04-24T10:21:06.883Z</time></trkpt><trkpt lat="42.1696567" lon="14.60547"><ele>117.0</ele><time>2026-04-24T10:21:08.883Z</time></trkpt><trkpt lat="42.1696" lon="14.6054067"><ele>117.33333333333333</ele><time>2026-04-24T10:21:10.883Z</time></trkpt><trkpt lat="42.1695417" lon="14.605335"><ele>117.66666666666666</ele><time>2026-04-24T10:21:12.883Z</time></trkpt><trkpt lat="42.16949" lon="14.6052633"><ele>118.0</ele><time>2026-04-24T10:21:14.884Z</time></trkpt><trkpt lat="42.16943" lon="14.6051933"><ele>118.33333333333333</ele><time>2026-04-24T10:21:16.883Z</time></trkpt><trkpt lat="42.1693667" lon="14.60512"><ele>118.66666666666666</ele><time>2026-04-24T10:21:18.884Z</time></trkpt><trkpt lat="42.1693183" lon="14.6050517"><ele>119.0</ele><time>2026-04-24T10:21:20.884Z</time></trkpt><trkpt lat="42.1692717" lon="14.60499"><ele>118.99999999999999</ele><time>2026-04-24T10:21:22.883Z</time></trkpt><trkpt lat="42.169205" lon="14.6048983"><ele>119.0</ele><time>2026-04-24T10:21:25.884Z</time></trkpt><trkpt lat="42.169165" lon="14.6048217"><ele>119.0</ele><time>2026-04-24T10:21:27.884Z</time></trkpt><trkpt lat="42.1691217" lon="14.6047583"><ele>119.0</ele><time>2026-04-24T10:21:29.884Z</time></trkpt><trkpt lat="42.1690683" lon="14.6046833"><ele>118.99999999999999</ele><time>2026-04-24T10:21:31.884Z</time></trkpt><trkpt lat="42.169015" lon="14.604605"><ele>119.0</ele><time>2026-04-24T10:21:33.884Z</time></trkpt><trkpt lat="42.1689583" lon="14.6045267"><ele>119.49999999999999</ele><time>2026-04-24T10:21:35.883Z</time></trkpt><trkpt lat="42.1689083" lon="14.6044567"><ele>120.0</ele><time>2026-04-24T10:21:37.883Z</time></trkpt><trkpt lat="42.168845" lon="14.6043567"><ele>120.5</ele><time>2026-04-24T10:21:40.884Z</time></trkpt><trkpt lat="42.1687917" lon="14.6042817"><ele>121.0</ele><time>2026-04-24T10:21:42.884Z</time></trkpt><trkpt lat="42.168745" lon="14.6042167"><ele>121.49999999999999</ele><time>2026-04-24T10:21:44.884Z</time></trkpt><trkpt lat="42.16869" lon="14.6041267"><ele>122.0</ele><time>2026-04-24T10:21:47.883Z</time></trkpt><trkpt lat="42.16864" lon="14.60406"><ele>121.99999999999999</ele><time>2026-04-24T10:21:49.884Z</time></trkpt><trkpt lat="42.16859" lon="14.6040033"><ele>122.0</ele><time>2026-04-24T10:21:51.883Z</time></trkpt><trkpt lat="42.1685367" lon="14.6039367"><ele>122.0</ele><time>2026-04-24T10:21:53.884Z</time></trkpt><trkpt lat="42.1684667" lon="14.603865"><ele>122.0</ele><time>2026-04-24T10:21:55.884Z</time></trkpt><trkpt lat="42.1684083" lon="14.60378"><ele>121.99999999999999</ele><time>2026-04-24T10:21:57.883Z</time></trkpt><trkpt lat="42.1683517" lon="14.6036917"><ele>122.0</ele><time>2026-04-24T10:21:59.884Z</time></trkpt><trkpt lat="42.1683067" lon="14.6035883"><ele>121.99999999999999</ele><time>2026-04-24T10:22:01.884Z</time></trkpt><trkpt lat="42.168265" lon="14.60349"><ele>122.0</ele><time>2026-04-24T10:22:03.884Z</time></trkpt><trkpt lat="42.1682183" lon="14.603395"><ele>122.0</ele><time>2026-04-24T10:22:05.884Z</time></trkpt><trkpt lat="42.1681633" lon="14.6033033"><ele>122.0</ele><time>2026-04-24T10:22:07.884Z</time></trkpt><trkpt lat="42.16811" lon="14.60321"><ele>121.99999999999999</ele><time>2026-04-24T10:22:09.883Z</time></trkpt><trkpt lat="42.1680533" lon="14.6031317"><ele>122.0</ele><time>2026-04-24T10:22:11.884Z</time></trkpt><trkpt lat="42.167995" lon="14.6030583"><ele>122.39999999999999</ele><time>2026-04-24T10:22:13.884Z</time></trkpt><trkpt lat="42.1679267" lon="14.602975"><ele>122.79999999999998</ele><time>2026-04-24T10:22:15.884Z</time></trkpt><trkpt lat="42.16786" lon="14.60289"><ele>123.2</ele><time>2026-04-24T10:22:17.884Z</time></trkpt><trkpt lat="42.1677767" lon="14.6028067"><ele>123.6</ele><time>2026-04-24T10:22:19.884Z</time></trkpt><trkpt lat="42.1676983" lon="14.602735"><ele>124.0</ele><time>2026-04-24T10:22:21.884Z</time></trkpt><trkpt lat="42.16765" lon="14.6026617"><ele>124.00000000000001</ele><time>2026-04-24T10:22:23.883Z</time></trkpt><trkpt lat="42.167595" lon="14.6025817"><ele>124.0</ele><time>2026-04-24T10:22:25.883Z</time></trkpt><trkpt lat="42.1675383" lon="14.6024967"><ele>124.0</ele><time>2026-04-24T10:22:27.884Z</time></trkpt><trkpt lat="42.1674733" lon="14.6024233"><ele>124.0</ele><time>2026-04-24T10:22:29.884Z</time></trkpt><trkpt lat="42.167395" lon="14.6023517"><ele>124.00000000000001</ele><time>2026-04-24T10:22:31.883Z</time></trkpt><trkpt lat="42.16733" lon="14.602275"><ele>124.0</ele><time>2026-04-24T10:22:33.884Z</time></trkpt><trkpt lat="42.1672633" lon="14.6021883"><ele>124.4</ele><time>2026-04-24T10:22:35.883Z</time></trkpt><trkpt lat="42.1672033" lon="14.602095"><ele>124.80000000000001</ele><time>2026-04-24T10:22:37.883Z</time></trkpt><trkpt lat="42.167145" lon="14.6019983"><ele>125.19999999999999</ele><time>2026-04-24T10:22:39.883Z</time></trkpt><trkpt lat="42.1670833" lon="14.6019017"><ele>125.6</ele><time>2026-04-24T10:22:41.884Z</time></trkpt><trkpt lat="42.1670183" lon="14.601815"><ele>126.0</ele><time>2026-04-24T10:22:43.884Z</time></trkpt><trkpt lat="42.16694" lon="14.6017317"><ele>126.19999999999999</ele><time>2026-04-24T10:22:45.883Z</time></trkpt><trkpt lat="42.1668633" lon="14.6016583"><ele>126.39999999999999</ele><time>2026-04-24T10:22:47.884Z</time></trkpt><trkpt lat="42.1667967" lon="14.6015867"><ele>126.6</ele><time>2026-04-24T10:22:49.883Z</time></trkpt><trkpt lat="42.166735" lon="14.601515"><ele>126.8</ele><time>2026-04-24T10:22:51.883Z</time></trkpt><trkpt lat="42.1666683" lon="14.6014233"><ele>127.0</ele><time>2026-04-24T10:22:53.883Z</time></trkpt><trkpt lat="42.1665967" lon="14.60133"><ele>127.0</ele><time>2026-04-24T10:22:55.884Z</time></trkpt><trkpt lat="42.1665283" lon="14.6012433"><ele>126.99999999999999</ele><time>2026-04-24T10:22:57.884Z</time></trkpt><trkpt lat="42.16645" lon="14.601165"><ele>126.99999999999999</ele><time>2026-04-24T10:22:59.884Z</time></trkpt><trkpt lat="42.1663833" lon="14.60108"><ele>127.0</ele><time>2026-04-24T10:23:01.884Z</time></trkpt><trkpt lat="42.16631" lon="14.601"><ele>127.0</ele><time>2026-04-24T10:23:03.884Z</time></trkpt><trkpt lat="42.1662317" lon="14.600915"><ele>127.6</ele><time>2026-04-24T10:23:05.883Z</time></trkpt><trkpt lat="42.16615" lon="14.600825"><ele>128.2</ele><time>2026-04-24T10:23:07.884Z</time></trkpt><trkpt lat="42.1660767" lon="14.6007433"><ele>128.8</ele><time>2026-04-24T10:23:09.884Z</time></trkpt><trkpt lat="42.166005" lon="14.6006633"><ele>129.4</ele><time>2026-04-24T10:23:11.884Z</time></trkpt><trkpt lat="42.1659333" lon="14.6005767"><ele>130.0</ele><time>2026-04-24T10:23:13.884Z</time></trkpt><trkpt lat="42.1658667" lon="14.6004883"><ele>130.0</ele><time>2026-04-24T10:23:15.884Z</time></trkpt><trkpt lat="42.1657933" lon="14.600405"><ele>130.0</ele><time>2026-04-24T10:23:17.883Z</time></trkpt><trkpt lat="42.165725" lon="14.6003167"><ele>130.0</ele><time>2026-04-24T10:23:19.884Z</time></trkpt><trkpt lat="42.16566" lon="14.6002367"><ele>130.0</ele><time>2026-04-24T10:23:21.883Z</time></trkpt><trkpt lat="42.1655967" lon="14.6001633"><ele>130.0</ele><time>2026-04-24T10:23:23.883Z</time></trkpt><trkpt lat="42.1655267" lon="14.6000767"><ele>130.33333333333334</ele><time>2026-04-24T10:23:25.884Z</time></trkpt><trkpt lat="42.1654617" lon="14.6000067"><ele>130.66666666666669</ele><time>2026-04-24T10:23:27.884Z</time></trkpt><trkpt lat="42.1653917" lon="14.5999217"><ele>131.0</ele><time>2026-04-24T10:23:29.883Z</time></trkpt><trkpt lat="42.1653417" lon="14.599825"><ele>131.33333333333334</ele><time>2026-04-24T10:23:31.883Z</time></trkpt><trkpt lat="42.1653017" lon="14.5997333"><ele>131.66666666666666</ele><time>2026-04-24T10:23:33.884Z</time></trkpt><trkpt lat="42.1652667" lon="14.5996333"><ele>132.0</ele><time>2026-04-24T10:23:35.884Z</time></trkpt><trkpt lat="42.16524" lon="14.5995283"><ele>132.0</ele><time>2026-04-24T10:23:37.883Z</time></trkpt><trkpt lat="42.165215" lon="14.59939"><ele>132.0</ele><time>2026-04-24T10:23:39.884Z</time></trkpt><trkpt lat="42.1651667" lon="14.599245"><ele>132.0</ele><time>2026-04-24T10:23:41.883Z</time></trkpt><trkpt lat="42.1651283" lon="14.59915"><ele>132.0</ele><time>2026-04-24T10:23:42.884Z</time></trkpt><trkpt lat="42.1650883" lon="14.599075"><ele>132.0</ele><time>2026-04-24T10:23:43.884Z</time></trkpt><trkpt lat="42.165015" lon="14.598955"><ele>132.0</ele><time>2026-04-24T10:23:45.883Z</time></trkpt><trkpt lat="42.1649667" lon="14.59889"><ele>132.0</ele><time>2026-04-24T10:23:46.884Z</time></trkpt><trkpt lat="42.1648917" lon="14.5987667"><ele>132.0</ele><time>2026-04-24T10:23:48.884Z</time></trkpt><trkpt lat="42.1648167" lon="14.5986567"><ele>132.0</ele><time>2026-04-24T10:23:50.884Z</time></trkpt><trkpt lat="42.164745" lon="14.5985517"><ele>132.0</ele><time>2026-04-24T10:23:52.883Z</time></trkpt><trkpt lat="42.1646733" lon="14.5984467"><ele>132.4</ele><time>2026-04-24T10:23:54.883Z</time></trkpt><trkpt lat="42.1646" lon="14.5983517"><ele>132.79999999999998</ele><time>2026-04-24T10:23:56.884Z</time></trkpt><trkpt lat="42.16451" lon="14.5982667"><ele>133.2</ele><time>2026-04-24T10:23:58.884Z</time></trkpt><trkpt lat="42.1644233" lon="14.5981767"><ele>133.6</ele><time>2026-04-24T10:24:00.884Z</time></trkpt><trkpt lat="42.1643317" lon="14.5981033"><ele>134.0</ele><time>2026-04-24T10:24:02.884Z</time></trkpt><trkpt lat="42.1642467" lon="14.5980367"><ele>134.0</ele><time>2026-04-24T10:24:04.884Z</time></trkpt><trkpt lat="42.1641617" lon="14.5979667"><ele>134.0</ele><time>2026-04-24T10:24:06.883Z</time></trkpt><trkpt lat="42.164075" lon="14.5979117"><ele>134.0</ele><time>2026-04-24T10:24:08.883Z</time></trkpt><trkpt lat="42.1639883" lon="14.59787"><ele>134.0</ele><time>2026-04-24T10:24:10.884Z</time></trkpt><trkpt lat="42.1639067" lon="14.59783"><ele>134.0</ele><time>2026-04-24T10:24:12.884Z</time></trkpt><trkpt lat="42.1638167" lon="14.5977917"><ele>134.5</ele><time>2026-04-24T10:24:14.884Z</time></trkpt><trkpt lat="42.16372" lon="14.59775"><ele>135.0</ele><time>2026-04-24T10:24:16.884Z</time></trkpt><trkpt lat="42.1636467" lon="14.59767"><ele>135.5</ele><time>2026-04-24T10:24:18.884Z</time></trkpt><trkpt lat="42.1635783" lon="14.59758"><ele>136.0</ele><time>2026-04-24T10:24:20.884Z</time></trkpt><trkpt lat="42.163535" lon="14.5975083"><ele>136.5</ele><time>2026-04-24T10:24:22.884Z</time></trkpt><trkpt lat="42.163485" lon="14.5974333"><ele>137.0</ele><time>2026-04-24T10:24:24.884Z</time></trkpt><trkpt lat="42.1634367" lon="14.5973467"><ele>137.0</ele><time>2026-04-24T10:24:26.883Z</time></trkpt><trkpt lat="42.16337" lon="14.5972383"><ele>137.0</ele><time>2026-04-24T10:24:28.884Z</time></trkpt><trkpt lat="42.1633017" lon="14.5971383"><ele>137.0</ele><time>2026-04-24T10:24:30.884Z</time></trkpt><trkpt lat="42.1632383" lon="14.59704"><ele>137.0</ele><time>2026-04-24T10:24:32.884Z</time></trkpt><trkpt lat="42.163175" lon="14.5969417"><ele>137.0</ele><time>2026-04-24T10:24:34.884Z</time></trkpt><trkpt lat="42.16311" lon="14.5968433"><ele>137.79999999999998</ele><time>2026-04-24T10:24:36.884Z</time></trkpt><trkpt lat="42.1630517" lon="14.596735"><ele>138.6</ele><time>2026-04-24T10:24:38.883Z</time></trkpt><trkpt lat="42.1629933" lon="14.5966267"><ele>139.39999999999998</ele><time>2026-04-24T10:24:40.884Z</time></trkpt><trkpt lat="42.1629317" lon="14.5965283"><ele>140.2</ele><time>2026-04-24T10:24:42.883Z</time></trkpt><trkpt lat="42.1628667" lon="14.5964283"><ele>141.0</ele><time>2026-04-24T10:24:44.884Z</time></trkpt><trkpt lat="42.1628033" lon="14.5963333"><ele>141.0</ele><time>2026-04-24T10:24:46.883Z</time></trkpt><trkpt lat="42.1627533" lon="14.596235"><ele>141.0</ele><time>2026-04-24T10:24:48.884Z</time></trkpt><trkpt lat="42.1626967" lon="14.5961417"><ele>141.0</ele><time>2026-04-24T10:24:50.884Z</time></trkpt><trkpt lat="42.162635" lon="14.596045"><ele>141.0</ele><time>2026-04-24T10:24:52.884Z</time></trkpt><trkpt lat="42.1625583" lon="14.59594"><ele>141.0</ele><time>2026-04-24T10:24:54.884Z</time></trkpt><trkpt lat="42.1624917" lon="14.595835"><ele>141.0</ele><time>2026-04-24T10:24:56.884Z</time></trkpt><trkpt lat="42.1624333" lon="14.5957333"><ele>141.0</ele><time>2026-04-24T10:24:58.883Z</time></trkpt><trkpt lat="42.1623733" lon="14.5956333"><ele>141.0</ele><time>2026-04-24T10:25:00.884Z</time></trkpt><trkpt lat="42.1623117" lon="14.59553"><ele>141.0</ele><time>2026-04-24T10:25:02.884Z</time></trkpt><trkpt lat="42.16225" lon="14.59543"><ele>141.0</ele><time>2026-04-24T10:25:04.884Z</time></trkpt><trkpt lat="42.162185" lon="14.5953167"><ele>141.2</ele><time>2026-04-24T10:25:06.884Z</time></trkpt><trkpt lat="42.1621233" lon="14.59521"><ele>141.39999999999998</ele><time>2026-04-24T10:25:08.884Z</time></trkpt><trkpt lat="42.1620583" lon="14.595105"><ele>141.6</ele><time>2026-04-24T10:25:10.883Z</time></trkpt><trkpt lat="42.1619917" lon="14.5950017"><ele>141.79999999999998</ele><time>2026-04-24T10:25:12.884Z</time></trkpt><trkpt lat="42.1619217" lon="14.594905"><ele>142.0</ele><time>2026-04-24T10:25:14.884Z</time></trkpt><trkpt lat="42.1618417" lon="14.5948133"><ele>142.0</ele><time>2026-04-24T10:25:16.884Z</time></trkpt><trkpt lat="42.1617667" lon="14.5947167"><ele>142.0</ele><time>2026-04-24T10:25:18.884Z</time></trkpt><trkpt lat="42.16169" lon="14.59462"><ele>142.0</ele><time>2026-04-24T10:25:20.884Z</time></trkpt><trkpt lat="42.1616117" lon="14.5945267"><ele>142.0</ele><time>2026-04-24T10:25:22.884Z</time></trkpt><trkpt lat="42.1615383" lon="14.594435"><ele>142.0</ele><time>2026-04-24T10:25:24.884Z</time></trkpt><trkpt lat="42.1614683" lon="14.594335"><ele>143.0</ele><time>2026-04-24T10:25:26.883Z</time></trkpt><trkpt lat="42.1614" lon="14.594235"><ele>144.0</ele><time>2026-04-24T10:25:28.884Z</time></trkpt><trkpt lat="42.1613317" lon="14.594135"><ele>145.0</ele><time>2026-04-24T10:25:30.884Z</time></trkpt><trkpt lat="42.161245" lon="14.5940433"><ele>146.0</ele><time>2026-04-24T10:25:32.884Z</time></trkpt><trkpt lat="42.1611667" lon="14.5939417"><ele>147.0</ele><time>2026-04-24T10:25:34.884Z</time></trkpt><trkpt lat="42.161095" lon="14.5938417"><ele>147.0</ele><time>2026-04-24T10:25:36.884Z</time></trkpt><trkpt lat="42.16102" lon="14.593745"><ele>147.0</ele><time>2026-04-24T10:25:38.884Z</time></trkpt><trkpt lat="42.16095" lon="14.593645"><ele>147.0</ele><time>2026-04-24T10:25:40.883Z</time></trkpt><trkpt lat="42.1608817" lon="14.5935433"><ele>147.0</ele><time>2026-04-24T10:25:42.884Z</time></trkpt><trkpt lat="42.1608083" lon="14.5934467"><ele>147.0</ele><time>2026-04-24T10:25:44.884Z</time></trkpt><trkpt lat="42.160735" lon="14.59335"><ele>147.6</ele><time>2026-04-24T10:25:46.883Z</time></trkpt><trkpt lat="42.1606633" lon="14.5932533"><ele>148.2</ele><time>2026-04-24T10:25:48.884Z</time></trkpt><trkpt lat="42.1605833" lon="14.59316"><ele>148.8</ele><time>2026-04-24T10:25:50.883Z</time></trkpt><trkpt lat="42.1605083" lon="14.5930617"><ele>149.4</ele><time>2026-04-24T10:25:52.884Z</time></trkpt><trkpt lat="42.1604317" lon="14.592965"><ele>150.0</ele><time>2026-04-24T10:25:54.884Z</time></trkpt><trkpt lat="42.1603533" lon="14.5928717"><ele>150.4</ele><time>2026-04-24T10:25:56.884Z</time></trkpt><trkpt lat="42.1602733" lon="14.592775"><ele>150.8</ele><time>2026-04-24T10:25:58.884Z</time></trkpt><trkpt lat="42.1601933" lon="14.5926783"><ele>151.2</ele><time>2026-04-24T10:26:00.884Z</time></trkpt><trkpt lat="42.1601067" lon="14.5925917"><ele>151.6</ele><time>2026-04-24T10:26:02.884Z</time></trkpt><trkpt lat="42.16002" lon="14.5925083"><ele>152.0</ele><time>2026-04-24T10:26:04.883Z</time></trkpt><trkpt lat="42.1599383" lon="14.5924183"><ele>152.2</ele><time>2026-04-24T10:26:06.883Z</time></trkpt><trkpt lat="42.1598533" lon="14.5923333"><ele>152.39999999999998</ele><time>2026-04-24T10:26:08.884Z</time></trkpt><trkpt lat="42.1597733" lon="14.59225"><ele>152.60000000000002</ele><time>2026-04-24T10:26:10.883Z</time></trkpt><trkpt lat="42.159695" lon="14.5921583"><ele>152.8</ele><time>2026-04-24T10:26:12.884Z</time></trkpt><trkpt lat="42.15961" lon="14.592075"><ele>153.0</ele><time>2026-04-24T10:26:14.884Z</time></trkpt><trkpt lat="42.159525" lon="14.591985"><ele>153.20000000000002</ele><time>2026-04-24T10:26:16.884Z</time></trkpt><trkpt lat="42.1594433" lon="14.5918983"><ele>153.4</ele><time>2026-04-24T10:26:18.884Z</time></trkpt><trkpt lat="42.15936" lon="14.5918133"><ele>153.60000000000002</ele><time>2026-04-24T10:26:20.884Z</time></trkpt><trkpt lat="42.1592767" lon="14.5917233"><ele>153.8</ele><time>2026-04-24T10:26:22.883Z</time></trkpt><trkpt lat="42.1591967" lon="14.5916317"><ele>154.0</ele><time>2026-04-24T10:26:24.884Z</time></trkpt><trkpt lat="42.1591133" lon="14.5915417"><ele>154.2</ele><time>2026-04-24T10:26:26.883Z</time></trkpt><trkpt lat="42.1590317" lon="14.5914467"><ele>154.4</ele><time>2026-04-24T10:26:28.884Z</time></trkpt><trkpt lat="42.1589517" lon="14.5913567"><ele>154.6</ele><time>2026-04-24T10:26:30.884Z</time></trkpt><trkpt lat="42.1588733" lon="14.591265"><ele>154.8</ele><time>2026-04-24T10:26:32.883Z</time></trkpt><trkpt lat="42.1587967" lon="14.5911717"><ele>155.0</ele><time>2026-04-24T10:26:34.883Z</time></trkpt><trkpt lat="42.1587217" lon="14.591075"><ele>155.4</ele><time>2026-04-24T10:26:36.884Z</time></trkpt><trkpt lat="42.15864" lon="14.5909783"><ele>155.8</ele><time>2026-04-24T10:26:38.884Z</time></trkpt><trkpt lat="42.1585517" lon="14.5908783"><ele>156.2</ele><time>2026-04-24T10:26:40.884Z</time></trkpt><trkpt lat="42.1584683" lon="14.5907833"><ele>156.6</ele><time>2026-04-24T10:26:42.884Z</time></trkpt><trkpt lat="42.1583867" lon="14.5906883"><ele>157.0</ele><time>2026-04-24T10:26:44.884Z</time></trkpt><trkpt lat="42.1583067" lon="14.590595"><ele>157.0</ele><time>2026-04-24T10:26:46.884Z</time></trkpt><trkpt lat="42.1582217" lon="14.590515"><ele>157.0</ele><time>2026-04-24T10:26:48.884Z</time></trkpt><trkpt lat="42.1581333" lon="14.5904383"><ele>157.0</ele><time>2026-04-24T10:26:50.884Z</time></trkpt><trkpt lat="42.1580467" lon="14.590365"><ele>157.0</ele><time>2026-04-24T10:26:52.883Z</time></trkpt><trkpt lat="42.1579583" lon="14.59029"><ele>157.0</ele><time>2026-04-24T10:26:54.883Z</time></trkpt><trkpt lat="42.157875" lon="14.5902067"><ele>157.2</ele><time>2026-04-24T10:26:56.884Z</time></trkpt><trkpt lat="42.1577883" lon="14.5901333"><ele>157.39999999999998</ele><time>2026-04-24T10:26:58.884Z</time></trkpt><trkpt lat="42.1576967" lon="14.590065"><ele>157.60000000000002</ele><time>2026-04-24T10:27:00.884Z</time></trkpt><trkpt lat="42.1576067" lon="14.5899883"><ele>157.8</ele><time>2026-04-24T10:27:02.883Z</time></trkpt><trkpt lat="42.1575217" lon="14.58991"><ele>158.0</ele><time>2026-04-24T10:27:04.884Z</time></trkpt><trkpt lat="42.157425" lon="14.5898367"><ele>158.20000000000002</ele><time>2026-04-24T10:27:06.884Z</time></trkpt><trkpt lat="42.1573383" lon="14.5897567"><ele>158.4</ele><time>2026-04-24T10:27:08.884Z</time></trkpt><trkpt lat="42.15725" lon="14.589675"><ele>158.60000000000002</ele><time>2026-04-24T10:27:10.883Z</time></trkpt><trkpt lat="42.1571567" lon="14.5895933"><ele>158.8</ele><time>2026-04-24T10:27:12.884Z</time></trkpt><trkpt lat="42.1570633" lon="14.5895017"><ele>159.0</ele><time>2026-04-24T10:27:14.884Z</time></trkpt><trkpt lat="42.15698" lon="14.589405"><ele>159.0</ele><time>2026-04-24T10:27:16.884Z</time></trkpt><trkpt lat="42.1569133" lon="14.5893067"><ele>159.0</ele><time>2026-04-24T10:27:18.884Z</time></trkpt><trkpt lat="42.15685" lon="14.5892233"><ele>159.0</ele><time>2026-04-24T10:27:20.884Z</time></trkpt><trkpt lat="42.156785" lon="14.5891383"><ele>159.0</ele><time>2026-04-24T10:27:22.884Z</time></trkpt><trkpt lat="42.15671" lon="14.5890367"><ele>159.0</ele><time>2026-04-24T10:27:24.883Z</time></trkpt><trkpt lat="42.1566367" lon="14.5889267"><ele>159.0</ele><time>2026-04-24T10:27:26.884Z</time></trkpt><trkpt lat="42.1565717" lon="14.58882"><ele>159.0</ele><time>2026-04-24T10:27:28.884Z</time></trkpt><trkpt lat="42.1565083" lon="14.5887017"><ele>159.0</ele><time>2026-04-24T10:27:30.884Z</time></trkpt><trkpt lat="42.15645" lon="14.5885883"><ele>159.0</ele><time>2026-04-24T10:27:32.884Z</time></trkpt><trkpt lat="42.1563817" lon="14.5884817"><ele>159.0</ele><time>2026-04-24T10:27:34.884Z</time></trkpt><trkpt lat="42.1563017" lon="14.5883783"><ele>159.2</ele><time>2026-04-24T10:27:36.883Z</time></trkpt><trkpt lat="42.15623" lon="14.58827"><ele>159.4</ele><time>2026-04-24T10:27:38.884Z</time></trkpt><trkpt lat="42.1561617" lon="14.5881633"><ele>159.6</ele><time>2026-04-24T10:27:40.884Z</time></trkpt><trkpt lat="42.1560933" lon="14.5880517"><ele>159.8</ele><time>2026-04-24T10:27:42.884Z</time></trkpt><trkpt lat="42.15602" lon="14.5879333"><ele>160.0</ele><time>2026-04-24T10:27:44.884Z</time></trkpt><trkpt lat="42.155955" lon="14.5878133"><ele>160.4</ele><time>2026-04-24T10:27:46.884Z</time></trkpt><trkpt lat="42.1558833" lon="14.5877"><ele>160.8</ele><time>2026-04-24T10:27:48.884Z</time></trkpt><trkpt lat="42.1558267" lon="14.5875917"><ele>161.2</ele><time>2026-04-24T10:27:50.884Z</time></trkpt><trkpt lat="42.15576" lon="14.5874933"><ele>161.6</ele><time>2026-04-24T10:27:52.883Z</time></trkpt><trkpt lat="42.1556883" lon="14.5874017"><ele>162.0</ele><time>2026-04-24T10:27:54.884Z</time></trkpt><trkpt lat="42.1556117" lon="14.58732"><ele>162.0</ele><time>2026-04-24T10:27:56.884Z</time></trkpt><trkpt lat="42.1555433" lon="14.5872383"><ele>162.0</ele><time>2026-04-24T10:27:58.883Z</time></trkpt><trkpt lat="42.1554783" lon="14.58715"><ele>162.0</ele><time>2026-04-24T10:28:00.884Z</time></trkpt><trkpt lat="42.1554217" lon="14.5870617"><ele>162.0</ele><time>2026-04-24T10:28:02.884Z</time></trkpt><trkpt lat="42.1553683" lon="14.5869733"><ele>162.0</ele><time>2026-04-24T10:28:04.884Z</time></trkpt><trkpt lat="42.1553067" lon="14.5868883"><ele>162.0</ele><time>2026-04-24T10:28:06.884Z</time></trkpt><trkpt lat="42.155245" lon="14.5868033"><ele>162.39999999999998</ele><time>2026-04-24T10:28:08.884Z</time></trkpt><trkpt lat="42.155185" lon="14.5867083"><ele>162.79999999999998</ele><time>2026-04-24T10:28:10.884Z</time></trkpt><trkpt lat="42.1551333" lon="14.5866067"><ele>163.2</ele><time>2026-04-24T10:28:12.884Z</time></trkpt><trkpt lat="42.1550817" lon="14.5865033"><ele>163.6</ele><time>2026-04-24T10:28:14.884Z</time></trkpt><trkpt lat="42.1550367" lon="14.5864"><ele>164.0</ele><time>2026-04-24T10:28:16.884Z</time></trkpt><trkpt lat="42.1549883" lon="14.5862933"><ele>164.0</ele><time>2026-04-24T10:28:18.883Z</time></trkpt><trkpt lat="42.1549383" lon="14.586185"><ele>164.0</ele><time>2026-04-24T10:28:20.884Z</time></trkpt><trkpt lat="42.15488" lon="14.5860767"><ele>164.0</ele><time>2026-04-24T10:28:22.883Z</time></trkpt><trkpt lat="42.154825" lon="14.5859683"><ele>164.0</ele><time>2026-04-24T10:28:24.884Z</time></trkpt><trkpt lat="42.154775" lon="14.5858567"><ele>164.0</ele><time>2026-04-24T10:28:26.883Z</time></trkpt><trkpt lat="42.15473" lon="14.58575"><ele>165.0</ele><time>2026-04-24T10:28:28.883Z</time></trkpt><trkpt lat="42.1546883" lon="14.585645"><ele>166.0</ele><time>2026-04-24T10:28:30.883Z</time></trkpt><trkpt lat="42.154645" lon="14.5855467"><ele>167.0</ele><time>2026-04-24T10:28:32.884Z</time></trkpt><trkpt lat="42.1545967" lon="14.5854533"><ele>168.0</ele><time>2026-04-24T10:28:34.884Z</time></trkpt><trkpt lat="42.1545383" lon="14.585355"><ele>169.0</ele><time>2026-04-24T10:28:36.884Z</time></trkpt><trkpt lat="42.1544667" lon="14.58527"><ele>170.0</ele><time>2026-04-24T10:28:38.884Z</time></trkpt><trkpt lat="42.1543867" lon="14.5852083"><ele>170.33333333333331</ele><time>2026-04-24T10:28:40.884Z</time></trkpt><trkpt lat="42.1543" lon="14.58518"><ele>170.66666666666666</ele><time>2026-04-24T10:28:42.884Z</time></trkpt><trkpt lat="42.1542133" lon="14.5851683"><ele>171.0</ele><time>2026-04-24T10:28:44.884Z</time></trkpt><trkpt lat="42.154125" lon="14.5851617"><ele>171.33333333333334</ele><time>2026-04-24T10:28:46.884Z</time></trkpt><trkpt lat="42.15404" lon="14.58516"><ele>171.66666666666669</ele><time>2026-04-24T10:28:48.884Z</time></trkpt><trkpt lat="42.1539583" lon="14.5851633"><ele>172.0</ele><time>2026-04-24T10:28:50.883Z</time></trkpt><trkpt lat="42.1538783" lon="14.585165"><ele>172.71428571428572</ele><time>2026-04-24T10:28:52.884Z</time></trkpt><trkpt lat="42.1538" lon="14.585165"><ele>173.42857142857144</ele><time>2026-04-24T10:28:54.884Z</time></trkpt><trkpt lat="42.153725" lon="14.5851717"><ele>174.14285714285717</ele><time>2026-04-24T10:28:56.883Z</time></trkpt><trkpt lat="42.153655" lon="14.5851867"><ele>174.85714285714286</ele><time>2026-04-24T10:28:58.883Z</time></trkpt><trkpt lat="42.15358" lon="14.5852067"><ele>175.57142857142856</ele><time>2026-04-24T10:29:00.884Z</time></trkpt><trkpt lat="42.153515" lon="14.5852183"><ele>176.2857142857143</ele><time>2026-04-24T10:29:02.883Z</time></trkpt><trkpt lat="42.1534367" lon="14.5852367"><ele>177.0</ele><time>2026-04-24T10:29:05.883Z</time></trkpt><trkpt lat="42.1533983" lon="14.5851233"><ele>177.0</ele><time>2026-04-24T10:29:08.883Z</time></trkpt><trkpt lat="42.1533817" lon="14.5850167"><ele>177.0</ele><time>2026-04-24T10:29:10.883Z</time></trkpt><trkpt lat="42.1533667" lon="14.584905"><ele>177.0</ele><time>2026-04-24T10:29:12.884Z</time></trkpt><trkpt lat="42.15335" lon="14.5847867"><ele>177.0</ele><time>2026-04-24T10:29:14.884Z</time></trkpt><trkpt lat="42.1533233" lon="14.5846733"><ele>177.0</ele><time>2026-04-24T10:29:16.884Z</time></trkpt><trkpt lat="42.15329" lon="14.5845733"><ele>177.0</ele><time>2026-04-24T10:29:18.884Z</time></trkpt><trkpt lat="42.1532483" lon="14.58448"><ele>178.16666666666666</ele><time>2026-04-24T10:29:20.884Z</time></trkpt><trkpt lat="42.153195" lon="14.5843833"><ele>179.33333333333334</ele><time>2026-04-24T10:29:22.884Z</time></trkpt><trkpt lat="42.1531417" lon="14.5842983"><ele>180.5</ele><time>2026-04-24T10:29:24.884Z</time></trkpt><trkpt lat="42.15308" lon="14.5842183"><ele>181.66666666666669</ele><time>2026-04-24T10:29:26.884Z</time></trkpt><trkpt lat="42.1530217" lon="14.584135"><ele>182.83333333333334</ele><time>2026-04-24T10:29:28.884Z</time></trkpt><trkpt lat="42.1529633" lon="14.58405"><ele>184.0</ele><time>2026-04-24T10:29:30.883Z</time></trkpt><trkpt lat="42.1529083" lon="14.58398"><ele>184.0</ele><time>2026-04-24T10:29:32.884Z</time></trkpt><trkpt lat="42.1528533" lon="14.5839117"><ele>184.0</ele><time>2026-04-24T10:29:34.883Z</time></trkpt><trkpt lat="42.1528" lon="14.5838333"><ele>184.0</ele><time>2026-04-24T10:29:36.884Z</time></trkpt><trkpt lat="42.1527483" lon="14.5837567"><ele>184.0</ele><time>2026-04-24T10:29:38.883Z</time></trkpt><trkpt lat="42.152695" lon="14.5836833"><ele>184.0</ele><time>2026-04-24T10:29:40.884Z</time></trkpt><trkpt lat="42.1526383" lon="14.5836217"><ele>184.0</ele><time>2026-04-24T10:29:42.883Z</time></trkpt><trkpt lat="42.152585" lon="14.5835517"><ele>183.83333333333334</ele><time>2026-04-24T10:29:44.883Z</time></trkpt><trkpt lat="42.152535" lon="14.5834833"><ele>183.66666666666669</ele><time>2026-04-24T10:29:46.884Z</time></trkpt><trkpt lat="42.1524667" lon="14.583395"><ele>183.5</ele><time>2026-04-24T10:29:49.883Z</time></trkpt><trkpt lat="42.1524117" lon="14.5833317"><ele>183.33333333333334</ele><time>2026-04-24T10:29:51.884Z</time></trkpt><trkpt lat="42.15236" lon="14.58326"><ele>183.16666666666666</ele><time>2026-04-24T10:29:53.884Z</time></trkpt><trkpt lat="42.1523083" lon="14.583175"><ele>183.0</ele><time>2026-04-24T10:29:55.884Z</time></trkpt><trkpt lat="42.152255" lon="14.583095"><ele>184.5</ele><time>2026-04-24T10:29:57.884Z</time></trkpt><trkpt lat="42.1522" lon="14.5830167"><ele>186.0</ele><time>2026-04-24T10:29:59.884Z</time></trkpt><trkpt lat="42.1521483" lon="14.582945"><ele>187.5</ele><time>2026-04-24T10:30:01.884Z</time></trkpt><trkpt lat="42.152105" lon="14.5828617"><ele>189.0</ele><time>2026-04-24T10:30:03.884Z</time></trkpt><trkpt lat="42.1520517" lon="14.5827783"><ele>190.5</ele><time>2026-04-24T10:30:05.884Z</time></trkpt><trkpt lat="42.1519967" lon="14.5827117"><ele>192.0</ele><time>2026-04-24T10:30:07.883Z</time></trkpt><trkpt lat="42.151945" lon="14.5826367"><ele>191.99999999999997</ele><time>2026-04-24T10:30:09.883Z</time></trkpt><trkpt lat="42.1518917" lon="14.58256"><ele>192.0</ele><time>2026-04-24T10:30:11.884Z</time></trkpt><trkpt lat="42.1518433" lon="14.5824817"><ele>192.0</ele><time>2026-04-24T10:30:13.884Z</time></trkpt><trkpt lat="42.151795" lon="14.582405"><ele>192.0</ele><time>2026-04-24T10:30:15.884Z</time></trkpt><trkpt lat="42.1517567" lon="14.5823283"><ele>192.0</ele><time>2026-04-24T10:30:17.883Z</time></trkpt><trkpt lat="42.1517233" lon="14.5822433"><ele>191.99999999999997</ele><time>2026-04-24T10:30:19.883Z</time></trkpt><trkpt lat="42.15169" lon="14.5821433"><ele>192.0</ele><time>2026-04-24T10:30:21.883Z</time></trkpt><trkpt lat="42.1516717" lon="14.5820567"><ele>192.5</ele><time>2026-04-24T10:30:23.884Z</time></trkpt><trkpt lat="42.1516417" lon="14.58194"><ele>193.0</ele><time>2026-04-24T10:30:26.884Z</time></trkpt><trkpt lat="42.15163" lon="14.5818483"><ele>193.5</ele><time>2026-04-24T10:30:28.884Z</time></trkpt><trkpt lat="42.151615" lon="14.581735"><ele>194.0</ele><time>2026-04-24T10:30:31.884Z</time></trkpt><trkpt lat="42.1516067" lon="14.58165"><ele>194.5</ele><time>2026-04-24T10:30:33.883Z</time></trkpt><trkpt lat="42.1516067" lon="14.581555"><ele>195.0</ele><time>2026-04-24T10:30:35.884Z</time></trkpt><trkpt lat="42.1516067" lon="14.5814567"><ele>195.0</ele><time>2026-04-24T10:30:37.883Z</time></trkpt><trkpt lat="42.15161" lon="14.5813617"><ele>195.0</ele><time>2026-04-24T10:30:39.884Z</time></trkpt><trkpt lat="42.1516067" lon="14.5812683"><ele>195.0</ele><time>2026-04-24T10:30:41.884Z</time></trkpt><trkpt lat="42.1516083" lon="14.5811767"><ele>195.0</ele><time>2026-04-24T10:30:43.883Z</time></trkpt><trkpt lat="42.15161" lon="14.5810867"><ele>195.0</ele><time>2026-04-24T10:30:45.883Z</time></trkpt><trkpt lat="42.1516083" lon="14.5809983"><ele>195.0</ele><time>2026-04-24T10:30:47.883Z</time></trkpt><trkpt lat="42.1516117" lon="14.5808767"><ele>195.0</ele><time>2026-04-24T10:30:50.884Z</time></trkpt><trkpt lat="42.1516083" lon="14.58079"><ele>195.5</ele><time>2026-04-24T10:30:52.884Z</time></trkpt><trkpt lat="42.1516033" lon="14.580705"><ele>196.0</ele><time>2026-04-24T10:30:54.884Z</time></trkpt><trkpt lat="42.1516033" lon="14.58061"><ele>196.5</ele><time>2026-04-24T10:30:56.884Z</time></trkpt><trkpt lat="42.1516033" lon="14.580525"><ele>197.0</ele><time>2026-04-24T10:30:58.884Z</time></trkpt><trkpt lat="42.1515967" lon="14.5804167"><ele>197.5</ele><time>2026-04-24T10:31:01.884Z</time></trkpt><trkpt lat="42.1515767" lon="14.5803"><ele>198.0</ele><time>2026-04-24T10:31:04.884Z</time></trkpt><trkpt lat="42.1515133" lon="14.580215"><ele>199.83333333333334</ele><time>2026-04-24T10:31:07.884Z</time></trkpt><trkpt lat="42.151435" lon="14.5801733"><ele>201.66666666666669</ele><time>2026-04-24T10:31:10.883Z</time></trkpt><trkpt lat="42.151365" lon="14.5801567"><ele>203.5</ele><time>2026-04-24T10:31:12.884Z</time></trkpt><trkpt lat="42.1512833" lon="14.5801583"><ele>205.33333333333334</ele><time>2026-04-24T10:31:14.883Z</time></trkpt><trkpt lat="42.1512083" lon="14.5801567"><ele>207.16666666666669</ele><time>2026-04-24T10:31:16.884Z</time></trkpt><trkpt lat="42.1511417" lon="14.580155"><ele>209.0</ele><time>2026-04-24T10:31:18.884Z</time></trkpt><trkpt lat="42.151055" lon="14.580145"><ele>209.00000000000003</ele><time>2026-04-24T10:31:20.884Z</time></trkpt><trkpt lat="42.15098" lon="14.58013"><ele>209.0</ele><time>2026-04-24T10:31:22.884Z</time></trkpt><trkpt lat="42.1509067" lon="14.5801317"><ele>209.0</ele><time>2026-04-24T10:31:24.883Z</time></trkpt><trkpt lat="42.150835" lon="14.5801367"><ele>209.0</ele><time>2026-04-24T10:31:26.884Z</time></trkpt><trkpt lat="42.1507433" lon="14.5801383"><ele>209.00000000000003</ele><time>2026-04-24T10:31:29.884Z</time></trkpt><trkpt lat="42.1506767" lon="14.5801367"><ele>209.0</ele><time>2026-04-24T10:31:31.884Z</time></trkpt><trkpt lat="42.1505817" lon="14.5801317"><ele>209.83333333333334</ele><time>2026-04-24T10:31:34.884Z</time></trkpt><trkpt lat="42.1505183" lon="14.580125"><ele>210.66666666666669</ele><time>2026-04-24T10:31:36.883Z</time></trkpt><trkpt lat="42.1504317" lon="14.58013"><ele>211.5</ele><time>2026-04-24T10:31:39.883Z</time></trkpt><trkpt lat="42.15035" lon="14.5801517"><ele>212.33333333333331</ele><time>2026-04-24T10:31:42.884Z</time></trkpt><trkpt lat="42.1502783" lon="14.5801733"><ele>213.16666666666666</ele><time>2026-04-24T10:31:45.884Z</time></trkpt><trkpt lat="42.1502033" lon="14.5801833"><ele>214.0</ele><time>2026-04-24T10:31:48.884Z</time></trkpt><trkpt lat="42.1501217" lon="14.5802"><ele>213.99999999999997</ele><time>2026-04-24T10:31:51.884Z</time></trkpt><trkpt lat="42.150075" lon="14.5802767"><ele>214.0</ele><time>2026-04-24T10:31:54.884Z</time></trkpt><trkpt lat="42.1500667" lon="14.58037"><ele>214.0</ele><time>2026-04-24T10:31:56.884Z</time></trkpt><trkpt lat="42.15006" lon="14.58049"><ele>214.0</ele><time>2026-04-24T10:31:58.883Z</time></trkpt><trkpt lat="42.15006" lon="14.580605"><ele>213.99999999999997</ele><time>2026-04-24T10:32:00.884Z</time></trkpt><trkpt lat="42.150055" lon="14.58071"><ele>214.0</ele><time>2026-04-24T10:32:02.884Z</time></trkpt><trkpt lat="42.1500467" lon="14.5807967"><ele>213.83333333333331</ele><time>2026-04-24T10:32:04.883Z</time></trkpt><trkpt lat="42.1500483" lon="14.5809067"><ele>213.66666666666666</ele><time>2026-04-24T10:32:07.883Z</time></trkpt><trkpt lat="42.150015" lon="14.5810133"><ele>213.5</ele><time>2026-04-24T10:32:10.884Z</time></trkpt><trkpt lat="42.14997" lon="14.5810733"><ele>213.33333333333331</ele><time>2026-04-24T10:32:13.884Z</time></trkpt><trkpt lat="42.1498983" lon="14.5811233"><ele>213.16666666666666</ele><time>2026-04-24T10:32:17.884Z</time></trkpt><trkpt lat="42.149825" lon="14.581155"><ele>213.0</ele><time>2026-04-24T10:32:19.884Z</time></trkpt><trkpt lat="42.149755" lon="14.581195"><ele>212.5</ele><time>2026-04-24T10:32:23.884Z</time></trkpt><trkpt lat="42.1497" lon="14.5812433"><ele>212.0</ele><time>2026-04-24T10:32:26.884Z</time></trkpt><trkpt lat="42.1496767" lon="14.581335"><ele>211.5</ele><time>2026-04-24T10:32:29.884Z</time></trkpt><trkpt lat="42.149655" lon="14.581415"><ele>211.0</ele><time>2026-04-24T10:32:31.884Z</time></trkpt><trkpt lat="42.1496517" lon="14.5815283"><ele>210.5</ele><time>2026-04-24T10:32:33.884Z</time></trkpt><trkpt lat="42.149635" lon="14.581645"><ele>210.0</ele><time>2026-04-24T10:32:35.883Z</time></trkpt><trkpt lat="42.1496233" lon="14.5817767"><ele>210.0</ele><time>2026-04-24T10:32:37.884Z</time></trkpt><trkpt lat="42.1496017" lon="14.5819383"><ele>210.0</ele><time>2026-04-24T10:32:39.884Z</time></trkpt><trkpt lat="42.1495817" lon="14.5821"><ele>210.0</ele><time>2026-04-24T10:32:41.884Z</time></trkpt><trkpt lat="42.1495617" lon="14.5822467"><ele>210.0</ele><time>2026-04-24T10:32:43.884Z</time></trkpt><trkpt lat="42.1495183" lon="14.5823233"><ele>210.0</ele><time>2026-04-24T10:32:44.884Z</time></trkpt><trkpt lat="42.149545" lon="14.5824067"><ele>208.5</ele><time>2026-04-24T10:32:46.884Z</time></trkpt><trkpt lat="42.1496017" lon="14.5824683"><ele>207.0</ele><time>2026-04-24T10:32:48.884Z</time></trkpt><trkpt lat="42.149685" lon="14.5825283"><ele>205.5</ele><time>2026-04-24T10:32:51.884Z</time></trkpt><trkpt lat="42.1496983" lon="14.5826267"><ele>204.0</ele><time>2026-04-24T10:32:54.884Z</time></trkpt><trkpt lat="42.149695" lon="14.5827333"><ele>202.5</ele><time>2026-04-24T10:32:58.883Z</time></trkpt><trkpt lat="42.1497067" lon="14.582845"><ele>201.0</ele><time>2026-04-24T10:33:03.884Z</time></trkpt><trkpt lat="42.149695" lon="14.58295"><ele>199.83333333333334</ele><time>2026-04-24T10:33:07.883Z</time></trkpt><trkpt lat="42.1497117" lon="14.583095"><ele>198.66666666666669</ele><time>2026-04-24T10:33:10.883Z</time></trkpt><trkpt lat="42.1497417" lon="14.58318"><ele>197.5</ele><time>2026-04-24T10:33:12.884Z</time></trkpt><trkpt lat="42.14978" lon="14.5832533"><ele>196.33333333333334</ele><time>2026-04-24T10:33:20.883Z</time></trkpt><trkpt lat="42.1498317" lon="14.5833733"><ele>195.16666666666669</ele><time>2026-04-24T10:33:29.883Z</time></trkpt><trkpt lat="42.14989" lon="14.58341"><ele>194.0</ele><time>2026-04-24T10:33:32.883Z</time></trkpt><trkpt lat="42.14996" lon="14.5834517"><ele>196.50000000000003</ele><time>2026-04-24T10:33:34.884Z</time></trkpt><trkpt lat="42.1500233" lon="14.5834967"><ele>199.0</ele><time>2026-04-24T10:33:36.884Z</time></trkpt><trkpt lat="42.150075" lon="14.58357"><ele>201.5</ele><time>2026-04-24T10:33:38.883Z</time></trkpt><trkpt lat="42.1501467" lon="14.5836617"><ele>204.0</ele><time>2026-04-24T10:33:40.883Z</time></trkpt><trkpt lat="42.1502183" lon="14.58375"><ele>206.50000000000003</ele><time>2026-04-24T10:33:42.883Z</time></trkpt><trkpt lat="42.1502933" lon="14.58382"><ele>209.0</ele><time>2026-04-24T10:33:44.884Z</time></trkpt><trkpt lat="42.1503517" lon="14.58388"><ele>209.16666666666669</ele><time>2026-04-24T10:33:47.884Z</time></trkpt><trkpt lat="42.1503717" lon="14.5839667"><ele>209.33333333333334</ele><time>2026-04-24T10:33:52.883Z</time></trkpt><trkpt lat="42.1504133" lon="14.584075"><ele>209.5</ele><time>2026-04-24T10:34:35.884Z</time></trkpt><trkpt lat="42.1504117" lon="14.5841733"><ele>209.66666666666669</ele><time>2026-04-24T10:34:41.884Z</time></trkpt><trkpt lat="42.1503817" lon="14.5842483"><ele>209.83333333333334</ele><time>2026-04-24T10:34:45.883Z</time></trkpt><trkpt lat="42.150365" lon="14.5843467"><ele>210.0</ele><time>2026-04-24T10:34:47.884Z</time></trkpt><trkpt lat="42.15043" lon="14.584445"><ele>209.28571428571428</ele><time>2026-04-24T10:34:50.884Z</time></trkpt><trkpt lat="42.150485" lon="14.5845433"><ele>208.57142857142856</ele><time>2026-04-24T10:34:52.884Z</time></trkpt><trkpt lat="42.15052" lon="14.5846217"><ele>207.85714285714286</ele><time>2026-04-24T10:34:54.884Z</time></trkpt><trkpt lat="42.1505333" lon="14.584705"><ele>207.14285714285714</ele><time>2026-04-24T10:34:56.884Z</time></trkpt><trkpt lat="42.150525" lon="14.5848183"><ele>206.42857142857142</ele><time>2026-04-24T10:34:59.884Z</time></trkpt><trkpt lat="42.15048" lon="14.584895"><ele>205.71428571428572</ele><time>2026-04-24T10:35:01.884Z</time></trkpt><trkpt lat="42.15044" lon="14.58497"><ele>205.0</ele><time>2026-04-24T10:35:03.883Z</time></trkpt><trkpt lat="42.150395" lon="14.58503"><ele>204.99999999999997</ele><time>2026-04-24T10:35:05.884Z</time></trkpt><trkpt lat="42.15032" lon="14.5850783"><ele>205.0</ele><time>2026-04-24T10:35:08.884Z</time></trkpt><trkpt lat="42.1502283" lon="14.5851283"><ele>205.0</ele><time>2026-04-24T10:35:11.884Z</time></trkpt><trkpt lat="42.150145" lon="14.5851533"><ele>205.0</ele><time>2026-04-24T10:35:13.883Z</time></trkpt><trkpt lat="42.1500417" lon="14.58517"><ele>204.99999999999997</ele><time>2026-04-24T10:35:16.884Z</time></trkpt><trkpt lat="42.1499667" lon="14.5851633"><ele>205.0</ele><time>2026-04-24T10:35:19.883Z</time></trkpt><trkpt lat="42.1500117" lon="14.5853083"><ele>205.0</ele><time>2026-04-24T10:36:22.884Z</time></trkpt><trkpt lat="42.149985" lon="14.585215"><ele>205.0</ele><time>2026-04-24T10:39:03.382Z</time></trkpt></trkseg></trk></gpx>